<?xml version="1.0" encoding="UTF-8" standalone="no" ?>
<gpx xmlns="http://www.topografix.com/GPX/1/1" xmlns:xsi="http://www.w3.org/2001/XMLSchema-instance" xsi:schemaLocation="http://www.topografix.com/GPX/1/1 http://www.topografix.com/GPX/1/1/gpx.xsd" version="1.1" creator="VisuGPX - https://www.visugpx.com">
  <metadata>
    <name>RoadTrip Moto Ecosse Juin 2021 - V3</name>
  </metadata>
  <trk>
    <name><![CDATA[J11 - Corran - Loans]]></name>
    <extensions>
      <line xmlns="http://www.topografix.com/GPX/gpx_style/0/2">
        <color>00FFFF</color>
        <width>4</width>
      </line>
    </extensions>
    <trkseg>
      <trkpt lat="56.72142" lon="-5.23392">
        <ele>9.43</ele>
        <time>2021-04-06T09:01:23Z</time>
      </trkpt>
      <trkpt lat="56.72138" lon="-5.23364">
        <ele>10.05</ele>
        <time>2021-04-06T09:01:24Z</time>
      </trkpt>
      <trkpt lat="56.72138" lon="-5.23348">
        <ele>10.06</ele>
        <time>2021-04-06T09:01:24Z</time>
      </trkpt>
      <trkpt lat="56.72141" lon="-5.23321">
        <ele>10.3</ele>
        <time>2021-04-06T09:01:25Z</time>
      </trkpt>
      <trkpt lat="56.7215" lon="-5.23283">
        <ele>11.73</ele>
        <time>2021-04-06T09:01:26Z</time>
      </trkpt>
      <trkpt lat="56.72168" lon="-5.23258">
        <ele>14.13</ele>
        <time>2021-04-06T09:01:27Z</time>
      </trkpt>
      <trkpt lat="56.72181" lon="-5.23254">
        <ele>15.07</ele>
        <time>2021-04-06T09:01:28Z</time>
      </trkpt>
      <trkpt lat="56.72223" lon="-5.23261">
        <ele>14.86</ele>
        <time>2021-04-06T09:01:29Z</time>
      </trkpt>
      <trkpt lat="56.72229" lon="-5.23258">
        <ele>15.23</ele>
        <time>2021-04-06T09:01:30Z</time>
      </trkpt>
      <trkpt lat="56.72234" lon="-5.23249">
        <ele>16.18</ele>
        <time>2021-04-06T09:01:31Z</time>
      </trkpt>
      <trkpt lat="56.72236" lon="-5.23233">
        <ele>18.11</ele>
        <time>2021-04-06T09:01:32Z</time>
      </trkpt>
      <trkpt lat="56.72225" lon="-5.2323">
        <ele>18.88</ele>
        <time>2021-04-06T09:01:35Z</time>
      </trkpt>
      <trkpt lat="56.72184" lon="-5.23226">
        <ele>18.81</ele>
        <time>2021-04-06T09:01:39Z</time>
      </trkpt>
      <trkpt lat="56.72147" lon="-5.23227">
        <ele>17.52</ele>
        <time>2021-04-06T09:01:42Z</time>
      </trkpt>
      <trkpt lat="56.72118" lon="-5.23214">
        <ele>19.03</ele>
        <time>2021-04-06T09:01:46Z</time>
      </trkpt>
      <trkpt lat="56.72102" lon="-5.23204">
        <ele>20.46</ele>
        <time>2021-04-06T09:01:50Z</time>
      </trkpt>
      <trkpt lat="56.72036" lon="-5.23148">
        <ele>21.45</ele>
        <time>2021-04-06T09:01:53Z</time>
      </trkpt>
      <trkpt lat="56.72014" lon="-5.23133">
        <ele>23.6</ele>
        <time>2021-04-06T09:01:57Z</time>
      </trkpt>
      <trkpt lat="56.71996" lon="-5.23128">
        <ele>25.43</ele>
        <time>2021-04-06T09:02:01Z</time>
      </trkpt>
      <trkpt lat="56.71982" lon="-5.2313">
        <ele>26.23</ele>
        <time>2021-04-06T09:02:04Z</time>
      </trkpt>
      <trkpt lat="56.71966" lon="-5.23137">
        <ele>26.41</ele>
        <time>2021-04-06T09:02:08Z</time>
      </trkpt>
      <trkpt lat="56.71952" lon="-5.23148">
        <ele>25.73</ele>
        <time>2021-04-06T09:02:12Z</time>
      </trkpt>
      <trkpt lat="56.71882" lon="-5.23223">
        <ele>24.47</ele>
        <time>2021-04-06T09:02:15Z</time>
      </trkpt>
      <trkpt lat="56.71858" lon="-5.23242">
        <ele>24.49</ele>
        <time>2021-04-06T09:02:19Z</time>
      </trkpt>
      <trkpt lat="56.71831" lon="-5.23257">
        <ele>22.67</ele>
        <time>2021-04-06T09:02:23Z</time>
      </trkpt>
      <trkpt lat="56.71815" lon="-5.23259">
        <ele>22.03</ele>
        <time>2021-04-06T09:02:26Z</time>
      </trkpt>
      <trkpt lat="56.71798" lon="-5.23256">
        <ele>21.27</ele>
        <time>2021-04-06T09:02:30Z</time>
      </trkpt>
      <trkpt lat="56.7178" lon="-5.2325">
        <ele>20.19</ele>
        <time>2021-04-06T09:02:34Z</time>
      </trkpt>
      <trkpt lat="56.71753" lon="-5.23229">
        <ele>18.96</ele>
        <time>2021-04-06T09:02:37Z</time>
      </trkpt>
      <trkpt lat="56.71735" lon="-5.23208">
        <ele>19</ele>
        <time>2021-04-06T09:02:41Z</time>
      </trkpt>
      <trkpt lat="56.71532" lon="-5.22872">
        <ele>15.94</ele>
        <time>2021-04-06T09:02:44Z</time>
      </trkpt>
      <trkpt lat="56.71523" lon="-5.22851">
        <ele>16.89</ele>
        <time>2021-04-06T09:02:48Z</time>
      </trkpt>
      <trkpt lat="56.71516" lon="-5.22827">
        <ele>18.29</ele>
        <time>2021-04-06T09:02:52Z</time>
      </trkpt>
      <trkpt lat="56.71493" lon="-5.22733">
        <ele>20.51</ele>
        <time>2021-04-06T09:02:55Z</time>
      </trkpt>
      <trkpt lat="56.71485" lon="-5.22714">
        <ele>20.63</ele>
        <time>2021-04-06T09:02:59Z</time>
      </trkpt>
      <trkpt lat="56.71466" lon="-5.22682">
        <ele>20.65</ele>
        <time>2021-04-06T09:03:03Z</time>
      </trkpt>
      <trkpt lat="56.71457" lon="-5.22674">
        <ele>20.36</ele>
        <time>2021-04-06T09:03:06Z</time>
      </trkpt>
      <trkpt lat="56.71437" lon="-5.22664">
        <ele>20.64</ele>
        <time>2021-04-06T09:03:10Z</time>
      </trkpt>
      <trkpt lat="56.71425" lon="-5.22662">
        <ele>21.83</ele>
        <time>2021-04-06T09:03:14Z</time>
      </trkpt>
      <trkpt lat="56.71318" lon="-5.22665">
        <ele>24.73</ele>
        <time>2021-04-06T09:03:17Z</time>
      </trkpt>
      <trkpt lat="56.71299" lon="-5.2267">
        <ele>24.06</ele>
        <time>2021-04-06T09:03:21Z</time>
      </trkpt>
      <trkpt lat="56.71284" lon="-5.22678">
        <ele>24.13</ele>
        <time>2021-04-06T09:03:25Z</time>
      </trkpt>
      <trkpt lat="56.71267" lon="-5.22693">
        <ele>24.14</ele>
        <time>2021-04-06T09:03:28Z</time>
      </trkpt>
      <trkpt lat="56.712" lon="-5.22764">
        <ele>27.63</ele>
        <time>2021-04-06T09:03:32Z</time>
      </trkpt>
      <trkpt lat="56.7118" lon="-5.22781">
        <ele>28.91</ele>
        <time>2021-04-06T09:03:36Z</time>
      </trkpt>
      <trkpt lat="56.71157" lon="-5.22795">
        <ele>29.42</ele>
        <time>2021-04-06T09:03:39Z</time>
      </trkpt>
      <trkpt lat="56.7104" lon="-5.2285">
        <ele>25.04</ele>
        <time>2021-04-06T09:03:43Z</time>
      </trkpt>
      <trkpt lat="56.70972" lon="-5.22894">
        <ele>22.51</ele>
        <time>2021-04-06T09:03:46Z</time>
      </trkpt>
      <trkpt lat="56.70944" lon="-5.22917">
        <ele>23.01</ele>
        <time>2021-04-06T09:03:50Z</time>
      </trkpt>
      <trkpt lat="56.70909" lon="-5.22952">
        <ele>21.59</ele>
        <time>2021-04-06T09:03:54Z</time>
      </trkpt>
      <trkpt lat="56.70868" lon="-5.22998">
        <ele>19.48</ele>
        <time>2021-04-06T09:03:57Z</time>
      </trkpt>
      <trkpt lat="56.70788" lon="-5.23085">
        <ele>19.64</ele>
        <time>2021-04-06T09:04:01Z</time>
      </trkpt>
      <trkpt lat="56.70758" lon="-5.23114">
        <ele>20.02</ele>
        <time>2021-04-06T09:04:05Z</time>
      </trkpt>
      <trkpt lat="56.7072" lon="-5.23143">
        <ele>20.14</ele>
        <time>2021-04-06T09:04:08Z</time>
      </trkpt>
      <trkpt lat="56.70683" lon="-5.23168">
        <ele>21.03</ele>
        <time>2021-04-06T09:04:12Z</time>
      </trkpt>
      <trkpt lat="56.70659" lon="-5.23178">
        <ele>20.72</ele>
        <time>2021-04-06T09:04:16Z</time>
      </trkpt>
      <trkpt lat="56.70644" lon="-5.23182">
        <ele>20.19</ele>
        <time>2021-04-06T09:04:19Z</time>
      </trkpt>
      <trkpt lat="56.70627" lon="-5.23181">
        <ele>19.58</ele>
        <time>2021-04-06T09:04:23Z</time>
      </trkpt>
      <trkpt lat="56.7061" lon="-5.23176">
        <ele>18.97</ele>
        <time>2021-04-06T09:04:27Z</time>
      </trkpt>
      <trkpt lat="56.70585" lon="-5.23163">
        <ele>18.18</ele>
        <time>2021-04-06T09:04:30Z</time>
      </trkpt>
      <trkpt lat="56.70561" lon="-5.23143">
        <ele>18.84</ele>
        <time>2021-04-06T09:04:34Z</time>
      </trkpt>
      <trkpt lat="56.70369" lon="-5.22951">
        <ele>16.27</ele>
        <time>2021-04-06T09:04:38Z</time>
      </trkpt>
      <trkpt lat="56.70346" lon="-5.22921">
        <ele>16.3</ele>
        <time>2021-04-06T09:04:41Z</time>
      </trkpt>
      <trkpt lat="56.70331" lon="-5.2289">
        <ele>16.7</ele>
        <time>2021-04-06T09:04:45Z</time>
      </trkpt>
      <trkpt lat="56.7032" lon="-5.22848">
        <ele>16.75</ele>
        <time>2021-04-06T09:04:49Z</time>
      </trkpt>
      <trkpt lat="56.70284" lon="-5.22604">
        <ele>16.74</ele>
        <time>2021-04-06T09:04:52Z</time>
      </trkpt>
      <trkpt lat="56.70281" lon="-5.22559">
        <ele>17.3</ele>
        <time>2021-04-06T09:04:56Z</time>
      </trkpt>
      <trkpt lat="56.70283" lon="-5.22506">
        <ele>18.73</ele>
        <time>2021-04-06T09:04:59Z</time>
      </trkpt>
      <trkpt lat="56.70312" lon="-5.22247">
        <ele>20.07</ele>
        <time>2021-04-06T09:05:03Z</time>
      </trkpt>
      <trkpt lat="56.70313" lon="-5.22198">
        <ele>17.78</ele>
        <time>2021-04-06T09:05:07Z</time>
      </trkpt>
      <trkpt lat="56.7031" lon="-5.22128">
        <ele>14.49</ele>
        <time>2021-04-06T09:05:10Z</time>
      </trkpt>
      <trkpt lat="56.70282" lon="-5.21967">
        <ele>10.89</ele>
        <time>2021-04-06T09:05:14Z</time>
      </trkpt>
      <trkpt lat="56.70279" lon="-5.21936">
        <ele>9.35</ele>
        <time>2021-04-06T09:05:18Z</time>
      </trkpt>
      <trkpt lat="56.70276" lon="-5.21901">
        <ele>9.21</ele>
        <time>2021-04-06T09:05:21Z</time>
      </trkpt>
      <trkpt lat="56.70275" lon="-5.21686">
        <ele>8.51</ele>
        <time>2021-04-06T09:05:25Z</time>
      </trkpt>
      <trkpt lat="56.70272" lon="-5.21643">
        <ele>10.66</ele>
        <time>2021-04-06T09:05:29Z</time>
      </trkpt>
      <trkpt lat="56.70261" lon="-5.21532">
        <ele>14.83</ele>
        <time>2021-04-06T09:05:32Z</time>
      </trkpt>
      <trkpt lat="56.70229" lon="-5.21162">
        <ele>9.94</ele>
        <time>2021-04-06T09:05:36Z</time>
      </trkpt>
      <trkpt lat="56.70228" lon="-5.2113">
        <ele>9.61</ele>
        <time>2021-04-06T09:05:40Z</time>
      </trkpt>
      <trkpt lat="56.70233" lon="-5.21027">
        <ele>13.37</ele>
        <time>2021-04-06T09:05:43Z</time>
      </trkpt>
      <trkpt lat="56.70223" lon="-5.20863">
        <ele>16.48</ele>
        <time>2021-04-06T09:05:47Z</time>
      </trkpt>
      <trkpt lat="56.70224" lon="-5.20824">
        <ele>18.67</ele>
        <time>2021-04-06T09:05:51Z</time>
      </trkpt>
      <trkpt lat="56.70228" lon="-5.2078">
        <ele>21.23</ele>
        <time>2021-04-06T09:05:54Z</time>
      </trkpt>
      <trkpt lat="56.70246" lon="-5.20692">
        <ele>23.69</ele>
        <time>2021-04-06T09:05:58Z</time>
      </trkpt>
      <trkpt lat="56.70249" lon="-5.20664">
        <ele>21.43</ele>
        <time>2021-04-06T09:06:01Z</time>
      </trkpt>
      <trkpt lat="56.70252" lon="-5.20608">
        <ele>15.65</ele>
        <time>2021-04-06T09:06:05Z</time>
      </trkpt>
      <trkpt lat="56.70247" lon="-5.2055">
        <ele>13.64</ele>
        <time>2021-04-06T09:06:09Z</time>
      </trkpt>
      <trkpt lat="56.7024" lon="-5.20514">
        <ele>12.91</ele>
        <time>2021-04-06T09:06:12Z</time>
      </trkpt>
      <trkpt lat="56.70227" lon="-5.20474">
        <ele>9.97</ele>
        <time>2021-04-06T09:06:16Z</time>
      </trkpt>
      <trkpt lat="56.70199" lon="-5.20396">
        <ele>6.35</ele>
        <time>2021-04-06T09:06:20Z</time>
      </trkpt>
      <trkpt lat="56.70183" lon="-5.20342">
        <ele>7.55</ele>
        <time>2021-04-06T09:06:23Z</time>
      </trkpt>
      <trkpt lat="56.70146" lon="-5.20175">
        <ele>4.92</ele>
        <time>2021-04-06T09:06:27Z</time>
      </trkpt>
      <trkpt lat="56.70082" lon="-5.19868">
        <ele>9.32</ele>
        <time>2021-04-06T09:06:31Z</time>
      </trkpt>
      <trkpt lat="56.70038" lon="-5.19674">
        <ele>14.43</ele>
        <time>2021-04-06T09:06:34Z</time>
      </trkpt>
      <trkpt lat="56.70031" lon="-5.19618">
        <ele>13.61</ele>
        <time>2021-04-06T09:06:38Z</time>
      </trkpt>
      <trkpt lat="56.7003" lon="-5.19577">
        <ele>14.74</ele>
        <time>2021-04-06T09:06:42Z</time>
      </trkpt>
      <trkpt lat="56.70036" lon="-5.19204">
        <ele>10.19</ele>
        <time>2021-04-06T09:06:45Z</time>
      </trkpt>
      <trkpt lat="56.7004" lon="-5.19138">
        <ele>13.28</ele>
        <time>2021-04-06T09:06:49Z</time>
      </trkpt>
      <trkpt lat="56.70054" lon="-5.19054">
        <ele>16.66</ele>
        <time>2021-04-06T09:06:53Z</time>
      </trkpt>
      <trkpt lat="56.7006" lon="-5.19009">
        <ele>19</ele>
        <time>2021-04-06T09:06:56Z</time>
      </trkpt>
      <trkpt lat="56.70061" lon="-5.18977">
        <ele>19.64</ele>
        <time>2021-04-06T09:07:00Z</time>
      </trkpt>
      <trkpt lat="56.7006" lon="-5.18928">
        <ele>20.2</ele>
        <time>2021-04-06T09:07:03Z</time>
      </trkpt>
      <trkpt lat="56.70048" lon="-5.18736">
        <ele>14.95</ele>
        <time>2021-04-06T09:07:07Z</time>
      </trkpt>
      <trkpt lat="56.70041" lon="-5.18507">
        <ele>14</ele>
        <time>2021-04-06T09:07:11Z</time>
      </trkpt>
      <trkpt lat="56.70034" lon="-5.18435">
        <ele>13.39</ele>
        <time>2021-04-06T09:07:14Z</time>
      </trkpt>
      <trkpt lat="56.7003" lon="-5.18411">
        <ele>12.96</ele>
        <time>2021-04-06T09:07:18Z</time>
      </trkpt>
      <trkpt lat="56.70019" lon="-5.18378">
        <ele>13.56</ele>
        <time>2021-04-06T09:07:22Z</time>
      </trkpt>
      <trkpt lat="56.70006" lon="-5.18353">
        <ele>13.52</ele>
        <time>2021-04-06T09:07:25Z</time>
      </trkpt>
      <trkpt lat="56.69985" lon="-5.18323">
        <ele>12.76</ele>
        <time>2021-04-06T09:07:29Z</time>
      </trkpt>
      <trkpt lat="56.69872" lon="-5.18231">
        <ele>12.5</ele>
        <time>2021-04-06T09:07:33Z</time>
      </trkpt>
      <trkpt lat="56.69826" lon="-5.18201">
        <ele>12.49</ele>
        <time>2021-04-06T09:07:36Z</time>
      </trkpt>
      <trkpt lat="56.69758" lon="-5.18173">
        <ele>12.79</ele>
        <time>2021-04-06T09:07:40Z</time>
      </trkpt>
      <trkpt lat="56.6971" lon="-5.18163">
        <ele>13.57</ele>
        <time>2021-04-06T09:07:44Z</time>
      </trkpt>
      <trkpt lat="56.6966" lon="-5.18159">
        <ele>11.75</ele>
        <time>2021-04-06T09:07:47Z</time>
      </trkpt>
      <trkpt lat="56.69627" lon="-5.18162">
        <ele>11</ele>
        <time>2021-04-06T09:07:51Z</time>
      </trkpt>
      <trkpt lat="56.69521" lon="-5.18186">
        <ele>11.46</ele>
        <time>2021-04-06T09:07:55Z</time>
      </trkpt>
      <trkpt lat="56.69449" lon="-5.18206">
        <ele>12.83</ele>
        <time>2021-04-06T09:07:58Z</time>
      </trkpt>
      <trkpt lat="56.69441" lon="-5.18134">
        <ele>11.95</ele>
        <time>2021-04-06T09:08:02Z</time>
      </trkpt>
      <trkpt lat="56.69435" lon="-5.18097">
        <ele>11.35</ele>
        <time>2021-04-06T09:08:06Z</time>
      </trkpt>
      <trkpt lat="56.69412" lon="-5.18019">
        <ele>13.16</ele>
        <time>2021-04-06T09:08:10Z</time>
      </trkpt>
      <trkpt lat="56.69404" lon="-5.17981">
        <ele>13.47</ele>
        <time>2021-04-06T09:08:14Z</time>
      </trkpt>
      <trkpt lat="56.69396" lon="-5.1793">
        <ele>13</ele>
        <time>2021-04-06T09:08:18Z</time>
      </trkpt>
      <trkpt lat="56.69334" lon="-5.17377">
        <ele>14</ele>
        <time>2021-04-06T09:08:22Z</time>
      </trkpt>
      <trkpt lat="56.69296" lon="-5.17056">
        <ele>11.9</ele>
        <time>2021-04-06T09:08:26Z</time>
      </trkpt>
      <trkpt lat="56.69296" lon="-5.16967">
        <ele>12.51</ele>
        <time>2021-04-06T09:08:30Z</time>
      </trkpt>
      <trkpt lat="56.69281" lon="-5.16853">
        <ele>17.09</ele>
        <time>2021-04-06T09:08:34Z</time>
      </trkpt>
      <trkpt lat="56.6928" lon="-5.16678">
        <ele>23.17</ele>
        <time>2021-04-06T09:08:38Z</time>
      </trkpt>
      <trkpt lat="56.69277" lon="-5.16629">
        <ele>23.11</ele>
        <time>2021-04-06T09:08:42Z</time>
      </trkpt>
      <trkpt lat="56.69264" lon="-5.16553">
        <ele>21.22</ele>
        <time>2021-04-06T09:08:46Z</time>
      </trkpt>
      <trkpt lat="56.69262" lon="-5.16523">
        <ele>21.79</ele>
        <time>2021-04-06T09:08:50Z</time>
      </trkpt>
      <trkpt lat="56.69263" lon="-5.16373">
        <ele>25.48</ele>
        <time>2021-04-06T09:08:54Z</time>
      </trkpt>
      <trkpt lat="56.69268" lon="-5.16257">
        <ele>31.84</ele>
        <time>2021-04-06T09:08:58Z</time>
      </trkpt>
      <trkpt lat="56.69265" lon="-5.1619">
        <ele>31.49</ele>
        <time>2021-04-06T09:09:02Z</time>
      </trkpt>
      <trkpt lat="56.69257" lon="-5.16134">
        <ele>32.13</ele>
        <time>2021-04-06T09:09:06Z</time>
      </trkpt>
      <trkpt lat="56.69239" lon="-5.1605">
        <ele>32.62</ele>
        <time>2021-04-06T09:09:10Z</time>
      </trkpt>
      <trkpt lat="56.6923" lon="-5.15982">
        <ele>32.95</ele>
        <time>2021-04-06T09:09:14Z</time>
      </trkpt>
      <trkpt lat="56.69228" lon="-5.15913">
        <ele>33.7</ele>
        <time>2021-04-06T09:09:18Z</time>
      </trkpt>
      <trkpt lat="56.69229" lon="-5.15844">
        <ele>38.63</ele>
        <time>2021-04-06T09:09:22Z</time>
      </trkpt>
      <trkpt lat="56.69238" lon="-5.15754">
        <ele>45.93</ele>
        <time>2021-04-06T09:09:26Z</time>
      </trkpt>
      <trkpt lat="56.69236" lon="-5.15724">
        <ele>47.29</ele>
        <time>2021-04-06T09:09:30Z</time>
      </trkpt>
      <trkpt lat="56.69229" lon="-5.15676">
        <ele>48.07</ele>
        <time>2021-04-06T09:09:34Z</time>
      </trkpt>
      <trkpt lat="56.6918" lon="-5.15458">
        <ele>54.25</ele>
        <time>2021-04-06T09:09:38Z</time>
      </trkpt>
      <trkpt lat="56.69149" lon="-5.15277">
        <ele>48.09</ele>
        <time>2021-04-06T09:09:42Z</time>
      </trkpt>
      <trkpt lat="56.69127" lon="-5.1521">
        <ele>46.56</ele>
        <time>2021-04-06T09:09:46Z</time>
      </trkpt>
      <trkpt lat="56.69092" lon="-5.15076">
        <ele>48.82</ele>
        <time>2021-04-06T09:09:50Z</time>
      </trkpt>
      <trkpt lat="56.69081" lon="-5.15022">
        <ele>49.33</ele>
        <time>2021-04-06T09:09:54Z</time>
      </trkpt>
      <trkpt lat="56.69073" lon="-5.14957">
        <ele>49.35</ele>
        <time>2021-04-06T09:09:58Z</time>
      </trkpt>
      <trkpt lat="56.69069" lon="-5.14937">
        <ele>50.12</ele>
        <time>2021-04-06T09:10:02Z</time>
      </trkpt>
      <trkpt lat="56.69058" lon="-5.14912">
        <ele>52.31</ele>
        <time>2021-04-06T09:10:06Z</time>
      </trkpt>
      <trkpt lat="56.68959" lon="-5.14752">
        <ele>41.05</ele>
        <time>2021-04-06T09:10:10Z</time>
      </trkpt>
      <trkpt lat="56.68949" lon="-5.14725">
        <ele>40.48</ele>
        <time>2021-04-06T09:10:14Z</time>
      </trkpt>
      <trkpt lat="56.68943" lon="-5.14679">
        <ele>40.64</ele>
        <time>2021-04-06T09:10:18Z</time>
      </trkpt>
      <trkpt lat="56.68938" lon="-5.14346">
        <ele>35.12</ele>
        <time>2021-04-06T09:10:21Z</time>
      </trkpt>
      <trkpt lat="56.68943" lon="-5.14245">
        <ele>29.86</ele>
        <time>2021-04-06T09:10:25Z</time>
      </trkpt>
      <trkpt lat="56.68951" lon="-5.14191">
        <ele>27.33</ele>
        <time>2021-04-06T09:10:29Z</time>
      </trkpt>
      <trkpt lat="56.68967" lon="-5.14145">
        <ele>25.54</ele>
        <time>2021-04-06T09:10:33Z</time>
      </trkpt>
      <trkpt lat="56.68984" lon="-5.14107">
        <ele>23.18</ele>
        <time>2021-04-06T09:10:37Z</time>
      </trkpt>
      <trkpt lat="56.69006" lon="-5.1399">
        <ele>14.26</ele>
        <time>2021-04-06T09:10:41Z</time>
      </trkpt>
      <trkpt lat="56.69027" lon="-5.13921">
        <ele>11.2</ele>
        <time>2021-04-06T09:10:45Z</time>
      </trkpt>
      <trkpt lat="56.69051" lon="-5.13856">
        <ele>10.7</ele>
        <time>2021-04-06T09:10:49Z</time>
      </trkpt>
      <trkpt lat="56.69193" lon="-5.13439">
        <ele>5.68</ele>
        <time>2021-04-06T09:10:53Z</time>
      </trkpt>
      <trkpt lat="56.69299" lon="-5.13177">
        <ele>14.08</ele>
        <time>2021-04-06T09:10:57Z</time>
      </trkpt>
      <trkpt lat="56.69299" lon="-5.13177">
        <ele>14.08</ele>
        <time>2021-04-06T09:10:57Z</time>
      </trkpt>
      <trkpt lat="56.69339" lon="-5.13076">
        <ele>16.55</ele>
        <time>2021-04-06T09:11:00Z</time>
      </trkpt>
      <trkpt lat="56.69349" lon="-5.13047">
        <ele>15.23</ele>
        <time>2021-04-06T09:11:03Z</time>
      </trkpt>
      <trkpt lat="56.69354" lon="-5.13016">
        <ele>13.92</ele>
        <time>2021-04-06T09:11:06Z</time>
      </trkpt>
      <trkpt lat="56.69382" lon="-5.12758">
        <ele>6.54</ele>
        <time>2021-04-06T09:11:09Z</time>
      </trkpt>
      <trkpt lat="56.6938" lon="-5.12699">
        <ele>10.16</ele>
        <time>2021-04-06T09:11:12Z</time>
      </trkpt>
      <trkpt lat="56.69378" lon="-5.12663">
        <ele>11</ele>
        <time>2021-04-06T09:11:15Z</time>
      </trkpt>
      <trkpt lat="56.6938" lon="-5.1262">
        <ele>11</ele>
        <time>2021-04-06T09:11:18Z</time>
      </trkpt>
      <trkpt lat="56.69393" lon="-5.12569">
        <ele>10</ele>
        <time>2021-04-06T09:11:21Z</time>
      </trkpt>
      <trkpt lat="56.69454" lon="-5.1245">
        <ele>7.21</ele>
        <time>2021-04-06T09:11:24Z</time>
      </trkpt>
      <trkpt lat="56.69469" lon="-5.12414">
        <ele>5.81</ele>
        <time>2021-04-06T09:11:27Z</time>
      </trkpt>
      <trkpt lat="56.69502" lon="-5.12303">
        <ele>5.04</ele>
        <time>2021-04-06T09:11:30Z</time>
      </trkpt>
      <trkpt lat="56.69518" lon="-5.12211">
        <ele>5.85</ele>
        <time>2021-04-06T09:11:33Z</time>
      </trkpt>
      <trkpt lat="56.69532" lon="-5.12072">
        <ele>7.56</ele>
        <time>2021-04-06T09:11:36Z</time>
      </trkpt>
      <trkpt lat="56.69532" lon="-5.11997">
        <ele>6.8</ele>
        <time>2021-04-06T09:11:39Z</time>
      </trkpt>
      <trkpt lat="56.69525" lon="-5.11908">
        <ele>4.97</ele>
        <time>2021-04-06T09:11:42Z</time>
      </trkpt>
      <trkpt lat="56.69498" lon="-5.11803">
        <ele>4.98</ele>
        <time>2021-04-06T09:11:45Z</time>
      </trkpt>
      <trkpt lat="56.69492" lon="-5.11766">
        <ele>5.42</ele>
        <time>2021-04-06T09:11:48Z</time>
      </trkpt>
      <trkpt lat="56.69495" lon="-5.11716">
        <ele>6.41</ele>
        <time>2021-04-06T09:11:51Z</time>
      </trkpt>
      <trkpt lat="56.69505" lon="-5.11632">
        <ele>6.28</ele>
        <time>2021-04-06T09:11:54Z</time>
      </trkpt>
      <trkpt lat="56.69505" lon="-5.1159">
        <ele>5.22</ele>
        <time>2021-04-06T09:11:57Z</time>
      </trkpt>
      <trkpt lat="56.69501" lon="-5.1155">
        <ele>4</ele>
        <time>2021-04-06T09:12:00Z</time>
      </trkpt>
      <trkpt lat="56.69502" lon="-5.11515">
        <ele>4</ele>
        <time>2021-04-06T09:12:03Z</time>
      </trkpt>
      <trkpt lat="56.69528" lon="-5.11438">
        <ele>4.03</ele>
        <time>2021-04-06T09:12:05Z</time>
      </trkpt>
      <trkpt lat="56.69536" lon="-5.11394">
        <ele>4.37</ele>
        <time>2021-04-06T09:12:08Z</time>
      </trkpt>
      <trkpt lat="56.69538" lon="-5.11225">
        <ele>8.98</ele>
        <time>2021-04-06T09:12:11Z</time>
      </trkpt>
      <trkpt lat="56.69542" lon="-5.11173">
        <ele>10.37</ele>
        <time>2021-04-06T09:12:14Z</time>
      </trkpt>
      <trkpt lat="56.69557" lon="-5.11111">
        <ele>11.14</ele>
        <time>2021-04-06T09:12:17Z</time>
      </trkpt>
      <trkpt lat="56.69576" lon="-5.11062">
        <ele>11.65</ele>
        <time>2021-04-06T09:12:20Z</time>
      </trkpt>
      <trkpt lat="56.69612" lon="-5.11013">
        <ele>16.02</ele>
        <time>2021-04-06T09:12:23Z</time>
      </trkpt>
      <trkpt lat="56.69636" lon="-5.10974">
        <ele>16.71</ele>
        <time>2021-04-06T09:12:26Z</time>
      </trkpt>
      <trkpt lat="56.69677" lon="-5.10877">
        <ele>16.42</ele>
        <time>2021-04-06T09:12:29Z</time>
      </trkpt>
      <trkpt lat="56.69711" lon="-5.1081">
        <ele>13.23</ele>
        <time>2021-04-06T09:12:32Z</time>
      </trkpt>
      <trkpt lat="56.69795" lon="-5.10675">
        <ele>9.73</ele>
        <time>2021-04-06T09:12:35Z</time>
      </trkpt>
      <trkpt lat="56.69847" lon="-5.1058">
        <ele>7.73</ele>
        <time>2021-04-06T09:12:38Z</time>
      </trkpt>
      <trkpt lat="56.69879" lon="-5.10505">
        <ele>9.77</ele>
        <time>2021-04-06T09:12:41Z</time>
      </trkpt>
      <trkpt lat="56.69889" lon="-5.10469">
        <ele>10.87</ele>
        <time>2021-04-06T09:12:44Z</time>
      </trkpt>
      <trkpt lat="56.69894" lon="-5.10442">
        <ele>10.73</ele>
        <time>2021-04-06T09:12:47Z</time>
      </trkpt>
      <trkpt lat="56.69906" lon="-5.10331">
        <ele>9.77</ele>
        <time>2021-04-06T09:12:50Z</time>
      </trkpt>
      <trkpt lat="56.69915" lon="-5.10276">
        <ele>8.72</ele>
        <time>2021-04-06T09:12:53Z</time>
      </trkpt>
      <trkpt lat="56.7" lon="-5.09852">
        <ele>19.51</ele>
        <time>2021-04-06T09:12:56Z</time>
      </trkpt>
      <trkpt lat="56.70052" lon="-5.0964">
        <ele>13.54</ele>
        <time>2021-04-06T09:12:59Z</time>
      </trkpt>
      <trkpt lat="56.70055" lon="-5.09607">
        <ele>11.95</ele>
        <time>2021-04-06T09:13:02Z</time>
      </trkpt>
      <trkpt lat="56.70046" lon="-5.09521">
        <ele>10.23</ele>
        <time>2021-04-06T09:13:05Z</time>
      </trkpt>
      <trkpt lat="56.70045" lon="-5.09478">
        <ele>10.86</ele>
        <time>2021-04-06T09:13:08Z</time>
      </trkpt>
      <trkpt lat="56.7005" lon="-5.09424">
        <ele>12.06</ele>
        <time>2021-04-06T09:13:11Z</time>
      </trkpt>
      <trkpt lat="56.70069" lon="-5.09275">
        <ele>13.02</ele>
        <time>2021-04-06T09:13:14Z</time>
      </trkpt>
      <trkpt lat="56.70074" lon="-5.09194">
        <ele>14.6</ele>
        <time>2021-04-06T09:13:17Z</time>
      </trkpt>
      <trkpt lat="56.70074" lon="-5.09036">
        <ele>21.28</ele>
        <time>2021-04-06T09:13:20Z</time>
      </trkpt>
      <trkpt lat="56.70079" lon="-5.09002">
        <ele>21.54</ele>
        <time>2021-04-06T09:13:23Z</time>
      </trkpt>
      <trkpt lat="56.70088" lon="-5.08962">
        <ele>19.38</ele>
        <time>2021-04-06T09:13:25Z</time>
      </trkpt>
      <trkpt lat="56.70109" lon="-5.08806">
        <ele>10.82</ele>
        <time>2021-04-06T09:13:28Z</time>
      </trkpt>
      <trkpt lat="56.70112" lon="-5.08765">
        <ele>10.09</ele>
        <time>2021-04-06T09:13:31Z</time>
      </trkpt>
      <trkpt lat="56.70113" lon="-5.08727">
        <ele>10.19</ele>
        <time>2021-04-06T09:13:34Z</time>
      </trkpt>
      <trkpt lat="56.70108" lon="-5.08656">
        <ele>10.06</ele>
        <time>2021-04-06T09:13:37Z</time>
      </trkpt>
      <trkpt lat="56.70078" lon="-5.08465">
        <ele>9.08</ele>
        <time>2021-04-06T09:13:40Z</time>
      </trkpt>
      <trkpt lat="56.70077" lon="-5.08417">
        <ele>8.07</ele>
        <time>2021-04-06T09:13:43Z</time>
      </trkpt>
      <trkpt lat="56.70093" lon="-5.08358">
        <ele>10.66</ele>
        <time>2021-04-06T09:13:46Z</time>
      </trkpt>
      <trkpt lat="56.70127" lon="-5.08263">
        <ele>11.45</ele>
        <time>2021-04-06T09:13:49Z</time>
      </trkpt>
      <trkpt lat="56.70168" lon="-5.08173">
        <ele>9.98</ele>
        <time>2021-04-06T09:13:52Z</time>
      </trkpt>
      <trkpt lat="56.70203" lon="-5.08088">
        <ele>11.04</ele>
        <time>2021-04-06T09:13:55Z</time>
      </trkpt>
      <trkpt lat="56.70224" lon="-5.08032">
        <ele>10.39</ele>
        <time>2021-04-06T09:13:58Z</time>
      </trkpt>
      <trkpt lat="56.70251" lon="-5.07944">
        <ele>8.07</ele>
        <time>2021-04-06T09:14:01Z</time>
      </trkpt>
      <trkpt lat="56.7031" lon="-5.07804">
        <ele>9.92</ele>
        <time>2021-04-06T09:14:04Z</time>
      </trkpt>
      <trkpt lat="56.70322" lon="-5.0777">
        <ele>8.45</ele>
        <time>2021-04-06T09:14:07Z</time>
      </trkpt>
      <trkpt lat="56.70339" lon="-5.0769">
        <ele>9.98</ele>
        <time>2021-04-06T09:14:10Z</time>
      </trkpt>
      <trkpt lat="56.70384" lon="-5.07323">
        <ele>9.13</ele>
        <time>2021-04-06T09:14:13Z</time>
      </trkpt>
      <trkpt lat="56.70384" lon="-5.07275">
        <ele>9.53</ele>
        <time>2021-04-06T09:14:16Z</time>
      </trkpt>
      <trkpt lat="56.70378" lon="-5.07242">
        <ele>10.06</ele>
        <time>2021-04-06T09:14:19Z</time>
      </trkpt>
      <trkpt lat="56.70363" lon="-5.07193">
        <ele>9.24</ele>
        <time>2021-04-06T09:14:22Z</time>
      </trkpt>
      <trkpt lat="56.70344" lon="-5.07134">
        <ele>8.38</ele>
        <time>2021-04-06T09:14:25Z</time>
      </trkpt>
      <trkpt lat="56.70328" lon="-5.07072">
        <ele>7.31</ele>
        <time>2021-04-06T09:14:28Z</time>
      </trkpt>
      <trkpt lat="56.70293" lon="-5.06871">
        <ele>8.56</ele>
        <time>2021-04-06T09:14:31Z</time>
      </trkpt>
      <trkpt lat="56.7029" lon="-5.06795">
        <ele>6.92</ele>
        <time>2021-04-06T09:14:34Z</time>
      </trkpt>
      <trkpt lat="56.70293" lon="-5.06716">
        <ele>7.62</ele>
        <time>2021-04-06T09:14:37Z</time>
      </trkpt>
      <trkpt lat="56.70299" lon="-5.06671">
        <ele>7.83</ele>
        <time>2021-04-06T09:14:40Z</time>
      </trkpt>
      <trkpt lat="56.70326" lon="-5.06563">
        <ele>8.29</ele>
        <time>2021-04-06T09:14:43Z</time>
      </trkpt>
      <trkpt lat="56.7036" lon="-5.06308">
        <ele>5.95</ele>
        <time>2021-04-06T09:14:45Z</time>
      </trkpt>
      <trkpt lat="56.70374" lon="-5.0626">
        <ele>6.5</ele>
        <time>2021-04-06T09:14:48Z</time>
      </trkpt>
      <trkpt lat="56.70399" lon="-5.0621">
        <ele>8.97</ele>
        <time>2021-04-06T09:14:51Z</time>
      </trkpt>
      <trkpt lat="56.70441" lon="-5.06168">
        <ele>14.6</ele>
        <time>2021-04-06T09:14:54Z</time>
      </trkpt>
      <trkpt lat="56.70464" lon="-5.06132">
        <ele>14.55</ele>
        <time>2021-04-06T09:14:57Z</time>
      </trkpt>
      <trkpt lat="56.70476" lon="-5.06082">
        <ele>12.02</ele>
        <time>2021-04-06T09:15:00Z</time>
      </trkpt>
      <trkpt lat="56.70484" lon="-5.06015">
        <ele>10.14</ele>
        <time>2021-04-06T09:15:03Z</time>
      </trkpt>
      <trkpt lat="56.70494" lon="-5.05967">
        <ele>10.58</ele>
        <time>2021-04-06T09:15:06Z</time>
      </trkpt>
      <trkpt lat="56.7051" lon="-5.05929">
        <ele>9.83</ele>
        <time>2021-04-06T09:15:09Z</time>
      </trkpt>
      <trkpt lat="56.70528" lon="-5.05907">
        <ele>9.32</ele>
        <time>2021-04-06T09:15:12Z</time>
      </trkpt>
      <trkpt lat="56.70578" lon="-5.05792">
        <ele>10.7</ele>
        <time>2021-04-06T09:15:15Z</time>
      </trkpt>
      <trkpt lat="56.70586" lon="-5.05754">
        <ele>9.59</ele>
        <time>2021-04-06T09:15:18Z</time>
      </trkpt>
      <trkpt lat="56.70592" lon="-5.05704">
        <ele>7.25</ele>
        <time>2021-04-06T09:15:21Z</time>
      </trkpt>
      <trkpt lat="56.70592" lon="-5.05637">
        <ele>5</ele>
        <time>2021-04-06T09:15:24Z</time>
      </trkpt>
      <trkpt lat="56.70586" lon="-5.05572">
        <ele>5.26</ele>
        <time>2021-04-06T09:15:27Z</time>
      </trkpt>
      <trkpt lat="56.70587" lon="-5.05541">
        <ele>5.51</ele>
        <time>2021-04-06T09:15:30Z</time>
      </trkpt>
      <trkpt lat="56.70597" lon="-5.05441">
        <ele>8.99</ele>
        <time>2021-04-06T09:15:33Z</time>
      </trkpt>
      <trkpt lat="56.70625" lon="-5.05229">
        <ele>9.55</ele>
        <time>2021-04-06T09:15:36Z</time>
      </trkpt>
      <trkpt lat="56.70635" lon="-5.05199">
        <ele>10.38</ele>
        <time>2021-04-06T09:15:39Z</time>
      </trkpt>
      <trkpt lat="56.70651" lon="-5.05159">
        <ele>13.64</ele>
        <time>2021-04-06T09:15:42Z</time>
      </trkpt>
      <trkpt lat="56.7066" lon="-5.05109">
        <ele>14.68</ele>
        <time>2021-04-06T09:15:45Z</time>
      </trkpt>
      <trkpt lat="56.70662" lon="-5.05068">
        <ele>13.65</ele>
        <time>2021-04-06T09:15:48Z</time>
      </trkpt>
      <trkpt lat="56.70655" lon="-5.05005">
        <ele>13.26</ele>
        <time>2021-04-06T09:15:51Z</time>
      </trkpt>
      <trkpt lat="56.70629" lon="-5.04858">
        <ele>16.3</ele>
        <time>2021-04-06T09:15:54Z</time>
      </trkpt>
      <trkpt lat="56.7063" lon="-5.04817">
        <ele>18.88</ele>
        <time>2021-04-06T09:15:57Z</time>
      </trkpt>
      <trkpt lat="56.70635" lon="-5.04779">
        <ele>23.2</ele>
        <time>2021-04-06T09:16:00Z</time>
      </trkpt>
      <trkpt lat="56.70646" lon="-5.04729">
        <ele>27.4</ele>
        <time>2021-04-06T09:16:03Z</time>
      </trkpt>
      <trkpt lat="56.70647" lon="-5.04683">
        <ele>26.97</ele>
        <time>2021-04-06T09:16:05Z</time>
      </trkpt>
      <trkpt lat="56.70642" lon="-5.0463">
        <ele>23.55</ele>
        <time>2021-04-06T09:16:08Z</time>
      </trkpt>
      <trkpt lat="56.70645" lon="-5.04578">
        <ele>21.32</ele>
        <time>2021-04-06T09:16:11Z</time>
      </trkpt>
      <trkpt lat="56.70677" lon="-5.04424">
        <ele>19.99</ele>
        <time>2021-04-06T09:16:14Z</time>
      </trkpt>
      <trkpt lat="56.70693" lon="-5.04372">
        <ele>18.2</ele>
        <time>2021-04-06T09:16:17Z</time>
      </trkpt>
      <trkpt lat="56.70777" lon="-5.0418">
        <ele>12.74</ele>
        <time>2021-04-06T09:16:20Z</time>
      </trkpt>
      <trkpt lat="56.70802" lon="-5.04106">
        <ele>14.49</ele>
        <time>2021-04-06T09:16:23Z</time>
      </trkpt>
      <trkpt lat="56.70836" lon="-5.0405">
        <ele>14.95</ele>
        <time>2021-04-06T09:16:26Z</time>
      </trkpt>
      <trkpt lat="56.70851" lon="-5.04005">
        <ele>13.46</ele>
        <time>2021-04-06T09:16:29Z</time>
      </trkpt>
      <trkpt lat="56.70906" lon="-5.0377">
        <ele>17.06</ele>
        <time>2021-04-06T09:16:32Z</time>
      </trkpt>
      <trkpt lat="56.70916" lon="-5.03697">
        <ele>20.75</ele>
        <time>2021-04-06T09:16:35Z</time>
      </trkpt>
      <trkpt lat="56.70927" lon="-5.03644">
        <ele>23.61</ele>
        <time>2021-04-06T09:16:38Z</time>
      </trkpt>
      <trkpt lat="56.70978" lon="-5.0352">
        <ele>27.67</ele>
        <time>2021-04-06T09:16:41Z</time>
      </trkpt>
      <trkpt lat="56.71033" lon="-5.0331">
        <ele>26.02</ele>
        <time>2021-04-06T09:16:44Z</time>
      </trkpt>
      <trkpt lat="56.71073" lon="-5.03207">
        <ele>26.31</ele>
        <time>2021-04-06T09:16:47Z</time>
      </trkpt>
      <trkpt lat="56.71081" lon="-5.03153">
        <ele>21.22</ele>
        <time>2021-04-06T09:16:50Z</time>
      </trkpt>
      <trkpt lat="56.71095" lon="-5.03012">
        <ele>22</ele>
        <time>2021-04-06T09:16:53Z</time>
      </trkpt>
      <trkpt lat="56.71131" lon="-5.02671">
        <ele>15.76</ele>
        <time>2021-04-06T09:16:56Z</time>
      </trkpt>
      <trkpt lat="56.71143" lon="-5.02608">
        <ele>14.2</ele>
        <time>2021-04-06T09:16:59Z</time>
      </trkpt>
      <trkpt lat="56.71159" lon="-5.02549">
        <ele>17.04</ele>
        <time>2021-04-06T09:17:02Z</time>
      </trkpt>
      <trkpt lat="56.71165" lon="-5.02488">
        <ele>13.12</ele>
        <time>2021-04-06T09:17:05Z</time>
      </trkpt>
      <trkpt lat="56.71151" lon="-5.0235">
        <ele>7.45</ele>
        <time>2021-04-06T09:17:08Z</time>
      </trkpt>
      <trkpt lat="56.71152" lon="-5.0232">
        <ele>6.46</ele>
        <time>2021-04-06T09:17:11Z</time>
      </trkpt>
      <trkpt lat="56.71154" lon="-5.02176">
        <ele>4.24</ele>
        <time>2021-04-06T09:17:14Z</time>
      </trkpt>
      <trkpt lat="56.71153" lon="-5.02103">
        <ele>7.34</ele>
        <time>2021-04-06T09:17:17Z</time>
      </trkpt>
      <trkpt lat="56.71157" lon="-5.02046">
        <ele>10.55</ele>
        <time>2021-04-06T09:17:20Z</time>
      </trkpt>
      <trkpt lat="56.71169" lon="-5.02003">
        <ele>11.57</ele>
        <time>2021-04-06T09:17:23Z</time>
      </trkpt>
      <trkpt lat="56.71196" lon="-5.01938">
        <ele>13.78</ele>
        <time>2021-04-06T09:17:25Z</time>
      </trkpt>
      <trkpt lat="56.71213" lon="-5.01882">
        <ele>14.21</ele>
        <time>2021-04-06T09:17:28Z</time>
      </trkpt>
      <trkpt lat="56.71248" lon="-5.01783">
        <ele>11.43</ele>
        <time>2021-04-06T09:17:31Z</time>
      </trkpt>
      <trkpt lat="56.71279" lon="-5.01715">
        <ele>9.07</ele>
        <time>2021-04-06T09:17:34Z</time>
      </trkpt>
      <trkpt lat="56.71318" lon="-5.01638">
        <ele>20.57</ele>
        <time>2021-04-06T09:17:37Z</time>
      </trkpt>
      <trkpt lat="56.71355" lon="-5.01535">
        <ele>16.39</ele>
        <time>2021-04-06T09:17:40Z</time>
      </trkpt>
      <trkpt lat="56.71403" lon="-5.01414">
        <ele>14.41</ele>
        <time>2021-04-06T09:17:43Z</time>
      </trkpt>
      <trkpt lat="56.71429" lon="-5.01324">
        <ele>16.75</ele>
        <time>2021-04-06T09:17:46Z</time>
      </trkpt>
      <trkpt lat="56.71441" lon="-5.01258">
        <ele>17.39</ele>
        <time>2021-04-06T09:17:49Z</time>
      </trkpt>
      <trkpt lat="56.7144" lon="-5.01215">
        <ele>14.8</ele>
        <time>2021-04-06T09:17:52Z</time>
      </trkpt>
      <trkpt lat="56.71432" lon="-5.01166">
        <ele>13.47</ele>
        <time>2021-04-06T09:17:55Z</time>
      </trkpt>
      <trkpt lat="56.71414" lon="-5.01073">
        <ele>9.02</ele>
        <time>2021-04-06T09:17:58Z</time>
      </trkpt>
      <trkpt lat="56.71408" lon="-5.01033">
        <ele>8.86</ele>
        <time>2021-04-06T09:18:01Z</time>
      </trkpt>
      <trkpt lat="56.71412" lon="-5.00986">
        <ele>7.65</ele>
        <time>2021-04-06T09:18:04Z</time>
      </trkpt>
      <trkpt lat="56.71444" lon="-5.00884">
        <ele>10.9</ele>
        <time>2021-04-06T09:18:07Z</time>
      </trkpt>
      <trkpt lat="56.71454" lon="-5.00837">
        <ele>13.07</ele>
        <time>2021-04-06T09:18:10Z</time>
      </trkpt>
      <trkpt lat="56.71454" lon="-5.00789">
        <ele>11.15</ele>
        <time>2021-04-06T09:18:13Z</time>
      </trkpt>
      <trkpt lat="56.71442" lon="-5.00742">
        <ele>7.53</ele>
        <time>2021-04-06T09:18:16Z</time>
      </trkpt>
      <trkpt lat="56.71375" lon="-5.00633">
        <ele>4.71</ele>
        <time>2021-04-06T09:18:19Z</time>
      </trkpt>
      <trkpt lat="56.71358" lon="-5.00603">
        <ele>5.16</ele>
        <time>2021-04-06T09:18:22Z</time>
      </trkpt>
      <trkpt lat="56.71345" lon="-5.00562">
        <ele>5.96</ele>
        <time>2021-04-06T09:18:25Z</time>
      </trkpt>
      <trkpt lat="56.7134" lon="-5.00503">
        <ele>6.63</ele>
        <time>2021-04-06T09:18:28Z</time>
      </trkpt>
      <trkpt lat="56.71343" lon="-5.00275">
        <ele>9.73</ele>
        <time>2021-04-06T09:18:31Z</time>
      </trkpt>
      <trkpt lat="56.71352" lon="-5.00211">
        <ele>9.36</ele>
        <time>2021-04-06T09:18:34Z</time>
      </trkpt>
      <trkpt lat="56.71378" lon="-5.00086">
        <ele>9.82</ele>
        <time>2021-04-06T09:18:37Z</time>
      </trkpt>
      <trkpt lat="56.71397" lon="-5.00006">
        <ele>12.26</ele>
        <time>2021-04-06T09:18:40Z</time>
      </trkpt>
      <trkpt lat="56.71421" lon="-4.9993">
        <ele>15.49</ele>
        <time>2021-04-06T09:18:43Z</time>
      </trkpt>
      <trkpt lat="56.71426" lon="-4.99899">
        <ele>16.8</ele>
        <time>2021-04-06T09:18:45Z</time>
      </trkpt>
      <trkpt lat="56.71426" lon="-4.99869">
        <ele>16.68</ele>
        <time>2021-04-06T09:18:48Z</time>
      </trkpt>
      <trkpt lat="56.71421" lon="-4.99831">
        <ele>15.11</ele>
        <time>2021-04-06T09:18:51Z</time>
      </trkpt>
      <trkpt lat="56.71423" lon="-4.99793">
        <ele>15.52</ele>
        <time>2021-04-06T09:18:54Z</time>
      </trkpt>
      <trkpt lat="56.71432" lon="-4.9974">
        <ele>17.62</ele>
        <time>2021-04-06T09:18:57Z</time>
      </trkpt>
      <trkpt lat="56.71443" lon="-4.99638">
        <ele>18.59</ele>
        <time>2021-04-06T09:19:00Z</time>
      </trkpt>
      <trkpt lat="56.71451" lon="-4.99587">
        <ele>18.37</ele>
        <time>2021-04-06T09:19:03Z</time>
      </trkpt>
      <trkpt lat="56.71465" lon="-4.99549">
        <ele>17.98</ele>
        <time>2021-04-06T09:19:06Z</time>
      </trkpt>
      <trkpt lat="56.71496" lon="-4.99498">
        <ele>17.9</ele>
        <time>2021-04-06T09:19:09Z</time>
      </trkpt>
      <trkpt lat="56.71514" lon="-4.99458">
        <ele>17.85</ele>
        <time>2021-04-06T09:19:12Z</time>
      </trkpt>
      <trkpt lat="56.71529" lon="-4.99405">
        <ele>15.1</ele>
        <time>2021-04-06T09:19:15Z</time>
      </trkpt>
      <trkpt lat="56.71537" lon="-4.99351">
        <ele>14.15</ele>
        <time>2021-04-06T09:19:18Z</time>
      </trkpt>
      <trkpt lat="56.7155" lon="-4.99221">
        <ele>19.04</ele>
        <time>2021-04-06T09:19:21Z</time>
      </trkpt>
      <trkpt lat="56.71557" lon="-4.99166">
        <ele>21.3</ele>
        <time>2021-04-06T09:19:24Z</time>
      </trkpt>
      <trkpt lat="56.71568" lon="-4.99124">
        <ele>24.36</ele>
        <time>2021-04-06T09:19:27Z</time>
      </trkpt>
      <trkpt lat="56.71594" lon="-4.99054">
        <ele>26.44</ele>
        <time>2021-04-06T09:19:30Z</time>
      </trkpt>
      <trkpt lat="56.71606" lon="-4.99">
        <ele>23.84</ele>
        <time>2021-04-06T09:19:33Z</time>
      </trkpt>
      <trkpt lat="56.71619" lon="-4.98889">
        <ele>25.56</ele>
        <time>2021-04-06T09:19:36Z</time>
      </trkpt>
      <trkpt lat="56.71629" lon="-4.98857">
        <ele>25.52</ele>
        <time>2021-04-06T09:19:39Z</time>
      </trkpt>
      <trkpt lat="56.71665" lon="-4.98793">
        <ele>24.51</ele>
        <time>2021-04-06T09:19:42Z</time>
      </trkpt>
      <trkpt lat="56.7168" lon="-4.98749">
        <ele>24.4</ele>
        <time>2021-04-06T09:19:45Z</time>
      </trkpt>
      <trkpt lat="56.71692" lon="-4.98699">
        <ele>24.49</ele>
        <time>2021-04-06T09:19:48Z</time>
      </trkpt>
      <trkpt lat="56.71694" lon="-4.98661">
        <ele>23.89</ele>
        <time>2021-04-06T09:19:51Z</time>
      </trkpt>
      <trkpt lat="56.71689" lon="-4.98579">
        <ele>23.11</ele>
        <time>2021-04-06T09:19:54Z</time>
      </trkpt>
      <trkpt lat="56.71683" lon="-4.98528">
        <ele>22.18</ele>
        <time>2021-04-06T09:19:57Z</time>
      </trkpt>
      <trkpt lat="56.71667" lon="-4.98464">
        <ele>22.32</ele>
        <time>2021-04-06T09:20:00Z</time>
      </trkpt>
      <trkpt lat="56.71633" lon="-4.98352">
        <ele>21.74</ele>
        <time>2021-04-06T09:20:03Z</time>
      </trkpt>
      <trkpt lat="56.71627" lon="-4.98315">
        <ele>22.12</ele>
        <time>2021-04-06T09:20:05Z</time>
      </trkpt>
      <trkpt lat="56.71628" lon="-4.98279">
        <ele>22.77</ele>
        <time>2021-04-06T09:20:08Z</time>
      </trkpt>
      <trkpt lat="56.71643" lon="-4.98214">
        <ele>23.65</ele>
        <time>2021-04-06T09:20:11Z</time>
      </trkpt>
      <trkpt lat="56.71647" lon="-4.98183">
        <ele>24.43</ele>
        <time>2021-04-06T09:20:14Z</time>
      </trkpt>
      <trkpt lat="56.71647" lon="-4.98152">
        <ele>24.44</ele>
        <time>2021-04-06T09:20:17Z</time>
      </trkpt>
      <trkpt lat="56.71625" lon="-4.97979">
        <ele>21.09</ele>
        <time>2021-04-06T09:20:20Z</time>
      </trkpt>
      <trkpt lat="56.7162" lon="-4.97911">
        <ele>19.09</ele>
        <time>2021-04-06T09:20:23Z</time>
      </trkpt>
      <trkpt lat="56.71618" lon="-4.97783">
        <ele>16.51</ele>
        <time>2021-04-06T09:20:26Z</time>
      </trkpt>
      <trkpt lat="56.71624" lon="-4.97732">
        <ele>15.31</ele>
        <time>2021-04-06T09:20:29Z</time>
      </trkpt>
      <trkpt lat="56.71656" lon="-4.97639">
        <ele>12.65</ele>
        <time>2021-04-06T09:20:32Z</time>
      </trkpt>
      <trkpt lat="56.71662" lon="-4.97609">
        <ele>11.9</ele>
        <time>2021-04-06T09:20:35Z</time>
      </trkpt>
      <trkpt lat="56.71664" lon="-4.97572">
        <ele>12.06</ele>
        <time>2021-04-06T09:20:38Z</time>
      </trkpt>
      <trkpt lat="56.71663" lon="-4.97467">
        <ele>11.26</ele>
        <time>2021-04-06T09:20:41Z</time>
      </trkpt>
      <trkpt lat="56.7166" lon="-4.97384">
        <ele>9.08</ele>
        <time>2021-04-06T09:20:44Z</time>
      </trkpt>
      <trkpt lat="56.71662" lon="-4.97301">
        <ele>10.2</ele>
        <time>2021-04-06T09:20:47Z</time>
      </trkpt>
      <trkpt lat="56.71673" lon="-4.97102">
        <ele>10.93</ele>
        <time>2021-04-06T09:20:50Z</time>
      </trkpt>
      <trkpt lat="56.71678" lon="-4.97047">
        <ele>12.19</ele>
        <time>2021-04-06T09:20:53Z</time>
      </trkpt>
      <trkpt lat="56.71688" lon="-4.96938">
        <ele>14.1</ele>
        <time>2021-04-06T09:20:56Z</time>
      </trkpt>
      <trkpt lat="56.71695" lon="-4.96902">
        <ele>15.14</ele>
        <time>2021-04-06T09:20:59Z</time>
      </trkpt>
      <trkpt lat="56.71719" lon="-4.96821">
        <ele>19.37</ele>
        <time>2021-04-06T09:21:02Z</time>
      </trkpt>
      <trkpt lat="56.71728" lon="-4.9677">
        <ele>22.03</ele>
        <time>2021-04-06T09:21:05Z</time>
      </trkpt>
      <trkpt lat="56.71732" lon="-4.96716">
        <ele>24.7</ele>
        <time>2021-04-06T09:21:08Z</time>
      </trkpt>
      <trkpt lat="56.71731" lon="-4.96687">
        <ele>24.45</ele>
        <time>2021-04-06T09:21:11Z</time>
      </trkpt>
      <trkpt lat="56.71727" lon="-4.96659">
        <ele>22.84</ele>
        <time>2021-04-06T09:21:14Z</time>
      </trkpt>
      <trkpt lat="56.71719" lon="-4.96638">
        <ele>20.42</ele>
        <time>2021-04-06T09:21:17Z</time>
      </trkpt>
      <trkpt lat="56.71708" lon="-4.96614">
        <ele>18.5</ele>
        <time>2021-04-06T09:21:20Z</time>
      </trkpt>
      <trkpt lat="56.71659" lon="-4.96551">
        <ele>15.47</ele>
        <time>2021-04-06T09:21:23Z</time>
      </trkpt>
      <trkpt lat="56.7156" lon="-4.96428">
        <ele>13.65</ele>
        <time>2021-04-06T09:21:25Z</time>
      </trkpt>
      <trkpt lat="56.71524" lon="-4.96386">
        <ele>13.92</ele>
        <time>2021-04-06T09:21:28Z</time>
      </trkpt>
      <trkpt lat="56.71476" lon="-4.96334">
        <ele>13.4</ele>
        <time>2021-04-06T09:21:31Z</time>
      </trkpt>
      <trkpt lat="56.71424" lon="-4.963">
        <ele>10.71</ele>
        <time>2021-04-06T09:21:34Z</time>
      </trkpt>
      <trkpt lat="56.71389" lon="-4.96286">
        <ele>9.72</ele>
        <time>2021-04-06T09:21:37Z</time>
      </trkpt>
      <trkpt lat="56.71365" lon="-4.96289">
        <ele>10.45</ele>
        <time>2021-04-06T09:21:40Z</time>
      </trkpt>
      <trkpt lat="56.71353" lon="-4.96297">
        <ele>10.51</ele>
        <time>2021-04-06T09:21:43Z</time>
      </trkpt>
      <trkpt lat="56.71339" lon="-4.96316">
        <ele>10.74</ele>
        <time>2021-04-06T09:21:46Z</time>
      </trkpt>
      <trkpt lat="56.71332" lon="-4.96333">
        <ele>11.07</ele>
        <time>2021-04-06T09:21:49Z</time>
      </trkpt>
      <trkpt lat="56.71322" lon="-4.96369">
        <ele>10.81</ele>
        <time>2021-04-06T09:21:52Z</time>
      </trkpt>
      <trkpt lat="56.71312" lon="-4.96427">
        <ele>10.57</ele>
        <time>2021-04-06T09:21:55Z</time>
      </trkpt>
      <trkpt lat="56.71301" lon="-4.96531">
        <ele>9</ele>
        <time>2021-04-06T09:21:58Z</time>
      </trkpt>
      <trkpt lat="56.71298" lon="-4.96602">
        <ele>8.28</ele>
        <time>2021-04-06T09:22:01Z</time>
      </trkpt>
      <trkpt lat="56.713" lon="-4.96659">
        <ele>8.21</ele>
        <time>2021-04-06T09:22:04Z</time>
      </trkpt>
      <trkpt lat="56.71306" lon="-4.96732">
        <ele>9.33</ele>
        <time>2021-04-06T09:22:07Z</time>
      </trkpt>
      <trkpt lat="56.71317" lon="-4.96802">
        <ele>9.73</ele>
        <time>2021-04-06T09:22:10Z</time>
      </trkpt>
      <trkpt lat="56.71324" lon="-4.96859">
        <ele>11.48</ele>
        <time>2021-04-06T09:22:13Z</time>
      </trkpt>
      <trkpt lat="56.71328" lon="-4.9691">
        <ele>13.24</ele>
        <time>2021-04-06T09:22:16Z</time>
      </trkpt>
      <trkpt lat="56.71333" lon="-4.97026">
        <ele>17.05</ele>
        <time>2021-04-06T09:22:19Z</time>
      </trkpt>
      <trkpt lat="56.7133" lon="-4.97054">
        <ele>17.94</ele>
        <time>2021-04-06T09:22:22Z</time>
      </trkpt>
      <trkpt lat="56.71323" lon="-4.97078">
        <ele>18.72</ele>
        <time>2021-04-06T09:22:25Z</time>
      </trkpt>
      <trkpt lat="56.71312" lon="-4.97099">
        <ele>19.48</ele>
        <time>2021-04-06T09:22:28Z</time>
      </trkpt>
      <trkpt lat="56.71284" lon="-4.97134">
        <ele>20.99</ele>
        <time>2021-04-06T09:22:31Z</time>
      </trkpt>
      <trkpt lat="56.71271" lon="-4.9716">
        <ele>23.52</ele>
        <time>2021-04-06T09:22:34Z</time>
      </trkpt>
      <trkpt lat="56.71253" lon="-4.9724">
        <ele>30.87</ele>
        <time>2021-04-06T09:22:37Z</time>
      </trkpt>
      <trkpt lat="56.71241" lon="-4.97296">
        <ele>34.46</ele>
        <time>2021-04-06T09:22:40Z</time>
      </trkpt>
      <trkpt lat="56.71236" lon="-4.97331">
        <ele>36.59</ele>
        <time>2021-04-06T09:22:43Z</time>
      </trkpt>
      <trkpt lat="56.71236" lon="-4.97372">
        <ele>39.26</ele>
        <time>2021-04-06T09:22:45Z</time>
      </trkpt>
      <trkpt lat="56.71246" lon="-4.97465">
        <ele>40.41</ele>
        <time>2021-04-06T09:22:48Z</time>
      </trkpt>
      <trkpt lat="56.71247" lon="-4.97491">
        <ele>39.78</ele>
        <time>2021-04-06T09:22:51Z</time>
      </trkpt>
      <trkpt lat="56.71244" lon="-4.97515">
        <ele>38.42</ele>
        <time>2021-04-06T09:22:54Z</time>
      </trkpt>
      <trkpt lat="56.71236" lon="-4.97532">
        <ele>38.52</ele>
        <time>2021-04-06T09:22:57Z</time>
      </trkpt>
      <trkpt lat="56.71181" lon="-4.97594">
        <ele>47.07</ele>
        <time>2021-04-06T09:23:00Z</time>
      </trkpt>
      <trkpt lat="56.71167" lon="-4.97624">
        <ele>50.3</ele>
        <time>2021-04-06T09:23:03Z</time>
      </trkpt>
      <trkpt lat="56.71159" lon="-4.97652">
        <ele>54.36</ele>
        <time>2021-04-06T09:23:06Z</time>
      </trkpt>
      <trkpt lat="56.71161" lon="-4.97697">
        <ele>55.03</ele>
        <time>2021-04-06T09:23:09Z</time>
      </trkpt>
      <trkpt lat="56.71168" lon="-4.97784">
        <ele>55.17</ele>
        <time>2021-04-06T09:23:12Z</time>
      </trkpt>
      <trkpt lat="56.71168" lon="-4.97823">
        <ele>59.39</ele>
        <time>2021-04-06T09:23:15Z</time>
      </trkpt>
      <trkpt lat="56.7117" lon="-4.97855">
        <ele>60.25</ele>
        <time>2021-04-06T09:23:18Z</time>
      </trkpt>
      <trkpt lat="56.71181" lon="-4.97901">
        <ele>59.2</ele>
        <time>2021-04-06T09:23:21Z</time>
      </trkpt>
      <trkpt lat="56.71201" lon="-4.98034">
        <ele>62.08</ele>
        <time>2021-04-06T09:23:24Z</time>
      </trkpt>
      <trkpt lat="56.71202" lon="-4.98061">
        <ele>60.76</ele>
        <time>2021-04-06T09:23:27Z</time>
      </trkpt>
      <trkpt lat="56.71202" lon="-4.98096">
        <ele>62.59</ele>
        <time>2021-04-06T09:23:30Z</time>
      </trkpt>
      <trkpt lat="56.71199" lon="-4.98129">
        <ele>63.75</ele>
        <time>2021-04-06T09:23:33Z</time>
      </trkpt>
      <trkpt lat="56.71186" lon="-4.98173">
        <ele>61.96</ele>
        <time>2021-04-06T09:23:36Z</time>
      </trkpt>
      <trkpt lat="56.71162" lon="-4.9824">
        <ele>64.16</ele>
        <time>2021-04-06T09:23:39Z</time>
      </trkpt>
      <trkpt lat="56.71152" lon="-4.9826">
        <ele>64.49</ele>
        <time>2021-04-06T09:23:42Z</time>
      </trkpt>
      <trkpt lat="56.71095" lon="-4.98329">
        <ele>71.18</ele>
        <time>2021-04-06T09:23:45Z</time>
      </trkpt>
      <trkpt lat="56.71081" lon="-4.98361">
        <ele>71.8</ele>
        <time>2021-04-06T09:23:48Z</time>
      </trkpt>
      <trkpt lat="56.7107" lon="-4.98396">
        <ele>73.79</ele>
        <time>2021-04-06T09:23:51Z</time>
      </trkpt>
      <trkpt lat="56.71067" lon="-4.98424">
        <ele>73.29</ele>
        <time>2021-04-06T09:23:54Z</time>
      </trkpt>
      <trkpt lat="56.71067" lon="-4.98609">
        <ele>68.95</ele>
        <time>2021-04-06T09:23:57Z</time>
      </trkpt>
      <trkpt lat="56.71066" lon="-4.98658">
        <ele>70.48</ele>
        <time>2021-04-06T09:24:00Z</time>
      </trkpt>
      <trkpt lat="56.71057" lon="-4.98851">
        <ele>71.8</ele>
        <time>2021-04-06T09:24:03Z</time>
      </trkpt>
      <trkpt lat="56.71044" lon="-4.99018">
        <ele>68.74</ele>
        <time>2021-04-06T09:24:05Z</time>
      </trkpt>
      <trkpt lat="56.71039" lon="-4.99063">
        <ele>67.15</ele>
        <time>2021-04-06T09:24:08Z</time>
      </trkpt>
      <trkpt lat="56.71028" lon="-4.99093">
        <ele>65.5</ele>
        <time>2021-04-06T09:24:11Z</time>
      </trkpt>
      <trkpt lat="56.70979" lon="-4.99193">
        <ele>67.11</ele>
        <time>2021-04-06T09:24:14Z</time>
      </trkpt>
      <trkpt lat="56.70969" lon="-4.99221">
        <ele>68.57</ele>
        <time>2021-04-06T09:24:17Z</time>
      </trkpt>
      <trkpt lat="56.70966" lon="-4.99256">
        <ele>68.68</ele>
        <time>2021-04-06T09:24:20Z</time>
      </trkpt>
      <trkpt lat="56.70967" lon="-4.99319">
        <ele>69.64</ele>
        <time>2021-04-06T09:24:23Z</time>
      </trkpt>
      <trkpt lat="56.70973" lon="-4.99392">
        <ele>71.15</ele>
        <time>2021-04-06T09:24:26Z</time>
      </trkpt>
      <trkpt lat="56.70991" lon="-4.995">
        <ele>70.86</ele>
        <time>2021-04-06T09:24:29Z</time>
      </trkpt>
      <trkpt lat="56.70995" lon="-4.99535">
        <ele>69.12</ele>
        <time>2021-04-06T09:24:32Z</time>
      </trkpt>
      <trkpt lat="56.70992" lon="-4.99576">
        <ele>69.03</ele>
        <time>2021-04-06T09:24:35Z</time>
      </trkpt>
      <trkpt lat="56.70986" lon="-4.99632">
        <ele>69.21</ele>
        <time>2021-04-06T09:24:38Z</time>
      </trkpt>
      <trkpt lat="56.70978" lon="-4.99735">
        <ele>68.2</ele>
        <time>2021-04-06T09:24:41Z</time>
      </trkpt>
      <trkpt lat="56.70972" lon="-4.99772">
        <ele>67.42</ele>
        <time>2021-04-06T09:24:44Z</time>
      </trkpt>
      <trkpt lat="56.70949" lon="-4.9982">
        <ele>69.97</ele>
        <time>2021-04-06T09:24:47Z</time>
      </trkpt>
      <trkpt lat="56.70943" lon="-4.99844">
        <ele>70.22</ele>
        <time>2021-04-06T09:24:50Z</time>
      </trkpt>
      <trkpt lat="56.70944" lon="-4.9987">
        <ele>69.34</ele>
        <time>2021-04-06T09:24:53Z</time>
      </trkpt>
      <trkpt lat="56.7095" lon="-4.99954">
        <ele>67.04</ele>
        <time>2021-04-06T09:24:56Z</time>
      </trkpt>
      <trkpt lat="56.70952" lon="-4.99997">
        <ele>65.32</ele>
        <time>2021-04-06T09:24:59Z</time>
      </trkpt>
      <trkpt lat="56.70942" lon="-5.00096">
        <ele>64.19</ele>
        <time>2021-04-06T09:25:02Z</time>
      </trkpt>
      <trkpt lat="56.70939" lon="-5.00153">
        <ele>61.94</ele>
        <time>2021-04-06T09:25:05Z</time>
      </trkpt>
      <trkpt lat="56.70938" lon="-5.00268">
        <ele>60.33</ele>
        <time>2021-04-06T09:25:08Z</time>
      </trkpt>
      <trkpt lat="56.70933" lon="-5.0029">
        <ele>61.34</ele>
        <time>2021-04-06T09:25:11Z</time>
      </trkpt>
      <trkpt lat="56.70925" lon="-5.0031">
        <ele>62.49</ele>
        <time>2021-04-06T09:25:14Z</time>
      </trkpt>
      <trkpt lat="56.7085" lon="-5.00429">
        <ele>58.52</ele>
        <time>2021-04-06T09:25:17Z</time>
      </trkpt>
      <trkpt lat="56.70735" lon="-5.00679">
        <ele>48.21</ele>
        <time>2021-04-06T09:25:20Z</time>
      </trkpt>
      <trkpt lat="56.70712" lon="-5.00744">
        <ele>47.42</ele>
        <time>2021-04-06T09:25:23Z</time>
      </trkpt>
      <trkpt lat="56.70688" lon="-5.00853">
        <ele>45.31</ele>
        <time>2021-04-06T09:25:25Z</time>
      </trkpt>
      <trkpt lat="56.70683" lon="-5.00908">
        <ele>45.19</ele>
        <time>2021-04-06T09:25:28Z</time>
      </trkpt>
      <trkpt lat="56.70692" lon="-5.01063">
        <ele>38.85</ele>
        <time>2021-04-06T09:25:31Z</time>
      </trkpt>
      <trkpt lat="56.707" lon="-5.01143">
        <ele>32.85</ele>
        <time>2021-04-06T09:25:34Z</time>
      </trkpt>
      <trkpt lat="56.70701" lon="-5.01181">
        <ele>30.72</ele>
        <time>2021-04-06T09:25:37Z</time>
      </trkpt>
      <trkpt lat="56.70689" lon="-5.01264">
        <ele>31.14</ele>
        <time>2021-04-06T09:25:40Z</time>
      </trkpt>
      <trkpt lat="56.7068" lon="-5.01337">
        <ele>30.77</ele>
        <time>2021-04-06T09:25:43Z</time>
      </trkpt>
      <trkpt lat="56.70667" lon="-5.01572">
        <ele>23.92</ele>
        <time>2021-04-06T09:25:46Z</time>
      </trkpt>
      <trkpt lat="56.7066" lon="-5.01618">
        <ele>20.7</ele>
        <time>2021-04-06T09:25:49Z</time>
      </trkpt>
      <trkpt lat="56.7062" lon="-5.01737">
        <ele>18.43</ele>
        <time>2021-04-06T09:25:52Z</time>
      </trkpt>
      <trkpt lat="56.70613" lon="-5.01773">
        <ele>17.8</ele>
        <time>2021-04-06T09:25:55Z</time>
      </trkpt>
      <trkpt lat="56.70611" lon="-5.01807">
        <ele>19.01</ele>
        <time>2021-04-06T09:25:58Z</time>
      </trkpt>
      <trkpt lat="56.7064" lon="-5.02028">
        <ele>10.73</ele>
        <time>2021-04-06T09:26:01Z</time>
      </trkpt>
      <trkpt lat="56.70641" lon="-5.02099">
        <ele>11.61</ele>
        <time>2021-04-06T09:26:04Z</time>
      </trkpt>
      <trkpt lat="56.70637" lon="-5.02169">
        <ele>11.43</ele>
        <time>2021-04-06T09:26:07Z</time>
      </trkpt>
      <trkpt lat="56.70608" lon="-5.02323">
        <ele>7.76</ele>
        <time>2021-04-06T09:26:10Z</time>
      </trkpt>
      <trkpt lat="56.70579" lon="-5.02431">
        <ele>12.33</ele>
        <time>2021-04-06T09:26:13Z</time>
      </trkpt>
      <trkpt lat="56.70549" lon="-5.02496">
        <ele>13.01</ele>
        <time>2021-04-06T09:26:16Z</time>
      </trkpt>
      <trkpt lat="56.7045" lon="-5.02656">
        <ele>18.33</ele>
        <time>2021-04-06T09:26:19Z</time>
      </trkpt>
      <trkpt lat="56.70431" lon="-5.02707">
        <ele>20.43</ele>
        <time>2021-04-06T09:26:22Z</time>
      </trkpt>
      <trkpt lat="56.70407" lon="-5.02806">
        <ele>23.84</ele>
        <time>2021-04-06T09:26:25Z</time>
      </trkpt>
      <trkpt lat="56.704" lon="-5.02851">
        <ele>26.33</ele>
        <time>2021-04-06T09:26:28Z</time>
      </trkpt>
      <trkpt lat="56.70383" lon="-5.02998">
        <ele>28.76</ele>
        <time>2021-04-06T09:26:31Z</time>
      </trkpt>
      <trkpt lat="56.70371" lon="-5.03151">
        <ele>34.16</ele>
        <time>2021-04-06T09:26:34Z</time>
      </trkpt>
      <trkpt lat="56.70359" lon="-5.03214">
        <ele>33.44</ele>
        <time>2021-04-06T09:26:37Z</time>
      </trkpt>
      <trkpt lat="56.70338" lon="-5.03272">
        <ele>36.22</ele>
        <time>2021-04-06T09:26:40Z</time>
      </trkpt>
      <trkpt lat="56.70231" lon="-5.03449">
        <ele>40.81</ele>
        <time>2021-04-06T09:26:43Z</time>
      </trkpt>
      <trkpt lat="56.70215" lon="-5.03472">
        <ele>40.31</ele>
        <time>2021-04-06T09:26:45Z</time>
      </trkpt>
      <trkpt lat="56.70181" lon="-5.03497">
        <ele>40.19</ele>
        <time>2021-04-06T09:26:48Z</time>
      </trkpt>
      <trkpt lat="56.70164" lon="-5.0352">
        <ele>40.65</ele>
        <time>2021-04-06T09:26:51Z</time>
      </trkpt>
      <trkpt lat="56.70152" lon="-5.03568">
        <ele>40.63</ele>
        <time>2021-04-06T09:26:54Z</time>
      </trkpt>
      <trkpt lat="56.70151" lon="-5.03582">
        <ele>40.31</ele>
        <time>2021-04-06T09:26:57Z</time>
      </trkpt>
      <trkpt lat="56.70152" lon="-5.03704">
        <ele>38.18</ele>
        <time>2021-04-06T09:27:00Z</time>
      </trkpt>
      <trkpt lat="56.70149" lon="-5.03777">
        <ele>37.07</ele>
        <time>2021-04-06T09:27:03Z</time>
      </trkpt>
      <trkpt lat="56.70137" lon="-5.0387">
        <ele>34.71</ele>
        <time>2021-04-06T09:27:06Z</time>
      </trkpt>
      <trkpt lat="56.7012" lon="-5.03981">
        <ele>31.07</ele>
        <time>2021-04-06T09:27:09Z</time>
      </trkpt>
      <trkpt lat="56.70117" lon="-5.04031">
        <ele>31.15</ele>
        <time>2021-04-06T09:27:12Z</time>
      </trkpt>
      <trkpt lat="56.70119" lon="-5.04194">
        <ele>30.52</ele>
        <time>2021-04-06T09:27:15Z</time>
      </trkpt>
      <trkpt lat="56.70142" lon="-5.04347">
        <ele>33.02</ele>
        <time>2021-04-06T09:27:18Z</time>
      </trkpt>
      <trkpt lat="56.70156" lon="-5.04505">
        <ele>31.99</ele>
        <time>2021-04-06T09:27:21Z</time>
      </trkpt>
      <trkpt lat="56.70156" lon="-5.04572">
        <ele>33.76</ele>
        <time>2021-04-06T09:27:24Z</time>
      </trkpt>
      <trkpt lat="56.70133" lon="-5.04752">
        <ele>42.23</ele>
        <time>2021-04-06T09:27:27Z</time>
      </trkpt>
      <trkpt lat="56.70133" lon="-5.04835">
        <ele>43</ele>
        <time>2021-04-06T09:27:30Z</time>
      </trkpt>
      <trkpt lat="56.70137" lon="-5.04916">
        <ele>42.08</ele>
        <time>2021-04-06T09:27:33Z</time>
      </trkpt>
      <trkpt lat="56.70136" lon="-5.04983">
        <ele>40.77</ele>
        <time>2021-04-06T09:27:36Z</time>
      </trkpt>
      <trkpt lat="56.70127" lon="-5.05041">
        <ele>42.33</ele>
        <time>2021-04-06T09:27:39Z</time>
      </trkpt>
      <trkpt lat="56.70109" lon="-5.05105">
        <ele>45.9</ele>
        <time>2021-04-06T09:27:42Z</time>
      </trkpt>
      <trkpt lat="56.70042" lon="-5.05275">
        <ele>44.31</ele>
        <time>2021-04-06T09:27:45Z</time>
      </trkpt>
      <trkpt lat="56.70004" lon="-5.05407">
        <ele>44.47</ele>
        <time>2021-04-06T09:27:48Z</time>
      </trkpt>
      <trkpt lat="56.69962" lon="-5.056">
        <ele>45.89</ele>
        <time>2021-04-06T09:27:51Z</time>
      </trkpt>
      <trkpt lat="56.699" lon="-5.05794">
        <ele>48.22</ele>
        <time>2021-04-06T09:27:54Z</time>
      </trkpt>
      <trkpt lat="56.69862" lon="-5.05946">
        <ele>44.78</ele>
        <time>2021-04-06T09:27:57Z</time>
      </trkpt>
      <trkpt lat="56.69846" lon="-5.06041">
        <ele>48.7</ele>
        <time>2021-04-06T09:28:00Z</time>
      </trkpt>
      <trkpt lat="56.69848" lon="-5.06081">
        <ele>49.74</ele>
        <time>2021-04-06T09:28:03Z</time>
      </trkpt>
      <trkpt lat="56.69862" lon="-5.06138">
        <ele>50.71</ele>
        <time>2021-04-06T09:28:05Z</time>
      </trkpt>
      <trkpt lat="56.69866" lon="-5.06169">
        <ele>50.86</ele>
        <time>2021-04-06T09:28:08Z</time>
      </trkpt>
      <trkpt lat="56.69867" lon="-5.06208">
        <ele>51.17</ele>
        <time>2021-04-06T09:28:11Z</time>
      </trkpt>
      <trkpt lat="56.69855" lon="-5.06284">
        <ele>55.01</ele>
        <time>2021-04-06T09:28:14Z</time>
      </trkpt>
      <trkpt lat="56.69856" lon="-5.06311">
        <ele>55.86</ele>
        <time>2021-04-06T09:28:17Z</time>
      </trkpt>
      <trkpt lat="56.69877" lon="-5.0641">
        <ele>54.47</ele>
        <time>2021-04-06T09:28:20Z</time>
      </trkpt>
      <trkpt lat="56.69883" lon="-5.06476">
        <ele>54.55</ele>
        <time>2021-04-06T09:28:23Z</time>
      </trkpt>
      <trkpt lat="56.69885" lon="-5.06526">
        <ele>54.84</ele>
        <time>2021-04-06T09:28:26Z</time>
      </trkpt>
      <trkpt lat="56.69882" lon="-5.06579">
        <ele>56.58</ele>
        <time>2021-04-06T09:28:29Z</time>
      </trkpt>
      <trkpt lat="56.69867" lon="-5.06669">
        <ele>60.97</ele>
        <time>2021-04-06T09:28:32Z</time>
      </trkpt>
      <trkpt lat="56.69863" lon="-5.0671">
        <ele>63.94</ele>
        <time>2021-04-06T09:28:35Z</time>
      </trkpt>
      <trkpt lat="56.69864" lon="-5.06737">
        <ele>62.99</ele>
        <time>2021-04-06T09:28:38Z</time>
      </trkpt>
      <trkpt lat="56.69874" lon="-5.06796">
        <ele>57.77</ele>
        <time>2021-04-06T09:28:41Z</time>
      </trkpt>
      <trkpt lat="56.69875" lon="-5.06828">
        <ele>56.34</ele>
        <time>2021-04-06T09:28:44Z</time>
      </trkpt>
      <trkpt lat="56.69871" lon="-5.06849">
        <ele>55.19</ele>
        <time>2021-04-06T09:28:47Z</time>
      </trkpt>
      <trkpt lat="56.69863" lon="-5.0687">
        <ele>55.64</ele>
        <time>2021-04-06T09:28:50Z</time>
      </trkpt>
      <trkpt lat="56.6984" lon="-5.06914">
        <ele>57.62</ele>
        <time>2021-04-06T09:28:53Z</time>
      </trkpt>
      <trkpt lat="56.69821" lon="-5.06956">
        <ele>59.25</ele>
        <time>2021-04-06T09:28:56Z</time>
      </trkpt>
      <trkpt lat="56.69798" lon="-5.07032">
        <ele>58</ele>
        <time>2021-04-06T09:28:59Z</time>
      </trkpt>
      <trkpt lat="56.69753" lon="-5.07163">
        <ele>57.27</ele>
        <time>2021-04-06T09:29:02Z</time>
      </trkpt>
      <trkpt lat="56.69747" lon="-5.07204">
        <ele>55.27</ele>
        <time>2021-04-06T09:29:05Z</time>
      </trkpt>
      <trkpt lat="56.69748" lon="-5.07246">
        <ele>51.54</ele>
        <time>2021-04-06T09:29:08Z</time>
      </trkpt>
      <trkpt lat="56.69755" lon="-5.0735">
        <ele>44.36</ele>
        <time>2021-04-06T09:29:11Z</time>
      </trkpt>
      <trkpt lat="56.69753" lon="-5.074">
        <ele>44</ele>
        <time>2021-04-06T09:29:14Z</time>
      </trkpt>
      <trkpt lat="56.69724" lon="-5.07566">
        <ele>41.52</ele>
        <time>2021-04-06T09:29:17Z</time>
      </trkpt>
      <trkpt lat="56.69683" lon="-5.07841">
        <ele>45.45</ele>
        <time>2021-04-06T09:29:20Z</time>
      </trkpt>
      <trkpt lat="56.69638" lon="-5.08043">
        <ele>39.12</ele>
        <time>2021-04-06T09:29:23Z</time>
      </trkpt>
      <trkpt lat="56.69623" lon="-5.08094">
        <ele>37.17</ele>
        <time>2021-04-06T09:29:25Z</time>
      </trkpt>
      <trkpt lat="56.69586" lon="-5.08194">
        <ele>35.36</ele>
        <time>2021-04-06T09:29:28Z</time>
      </trkpt>
      <trkpt lat="56.69576" lon="-5.0823">
        <ele>36.38</ele>
        <time>2021-04-06T09:29:31Z</time>
      </trkpt>
      <trkpt lat="56.69534" lon="-5.08437">
        <ele>29.27</ele>
        <time>2021-04-06T09:29:34Z</time>
      </trkpt>
      <trkpt lat="56.69511" lon="-5.08516">
        <ele>27.73</ele>
        <time>2021-04-06T09:29:37Z</time>
      </trkpt>
      <trkpt lat="56.69464" lon="-5.08621">
        <ele>23.57</ele>
        <time>2021-04-06T09:29:40Z</time>
      </trkpt>
      <trkpt lat="56.69448" lon="-5.08682">
        <ele>21.03</ele>
        <time>2021-04-06T09:29:43Z</time>
      </trkpt>
      <trkpt lat="56.6944" lon="-5.08793">
        <ele>20.82</ele>
        <time>2021-04-06T09:29:46Z</time>
      </trkpt>
      <trkpt lat="56.6942" lon="-5.09271">
        <ele>21.85</ele>
        <time>2021-04-06T09:29:49Z</time>
      </trkpt>
      <trkpt lat="56.69368" lon="-5.09634">
        <ele>14.07</ele>
        <time>2021-04-06T09:29:52Z</time>
      </trkpt>
      <trkpt lat="56.69332" lon="-5.09846">
        <ele>12.88</ele>
        <time>2021-04-06T09:29:55Z</time>
      </trkpt>
      <trkpt lat="56.69321" lon="-5.09899">
        <ele>10.87</ele>
        <time>2021-04-06T09:29:58Z</time>
      </trkpt>
      <trkpt lat="56.69308" lon="-5.09934">
        <ele>10.09</ele>
        <time>2021-04-06T09:30:01Z</time>
      </trkpt>
      <trkpt lat="56.69256" lon="-5.10019">
        <ele>13.71</ele>
        <time>2021-04-06T09:30:04Z</time>
      </trkpt>
      <trkpt lat="56.69244" lon="-5.1006">
        <ele>11.05</ele>
        <time>2021-04-06T09:30:07Z</time>
      </trkpt>
      <trkpt lat="56.69238" lon="-5.10098">
        <ele>10.91</ele>
        <time>2021-04-06T09:30:10Z</time>
      </trkpt>
      <trkpt lat="56.69237" lon="-5.10168">
        <ele>9.17</ele>
        <time>2021-04-06T09:30:13Z</time>
      </trkpt>
      <trkpt lat="56.69228" lon="-5.1022">
        <ele>7.97</ele>
        <time>2021-04-06T09:30:16Z</time>
      </trkpt>
      <trkpt lat="56.69208" lon="-5.10297">
        <ele>10.7</ele>
        <time>2021-04-06T09:30:19Z</time>
      </trkpt>
      <trkpt lat="56.69198" lon="-5.10354">
        <ele>13.98</ele>
        <time>2021-04-06T09:30:22Z</time>
      </trkpt>
      <trkpt lat="56.69191" lon="-5.10438">
        <ele>18.63</ele>
        <time>2021-04-06T09:30:25Z</time>
      </trkpt>
      <trkpt lat="56.69179" lon="-5.10488">
        <ele>17.47</ele>
        <time>2021-04-06T09:30:28Z</time>
      </trkpt>
      <trkpt lat="56.69142" lon="-5.10576">
        <ele>18.59</ele>
        <time>2021-04-06T09:30:31Z</time>
      </trkpt>
      <trkpt lat="56.69131" lon="-5.10595">
        <ele>18.67</ele>
        <time>2021-04-06T09:30:34Z</time>
      </trkpt>
      <trkpt lat="56.69115" lon="-5.10617">
        <ele>18.03</ele>
        <time>2021-04-06T09:30:37Z</time>
      </trkpt>
      <trkpt lat="56.69069" lon="-5.10651">
        <ele>16.54</ele>
        <time>2021-04-06T09:30:40Z</time>
      </trkpt>
      <trkpt lat="56.69032" lon="-5.10666">
        <ele>14.17</ele>
        <time>2021-04-06T09:30:43Z</time>
      </trkpt>
      <trkpt lat="56.68989" lon="-5.10673">
        <ele>15.66</ele>
        <time>2021-04-06T09:30:45Z</time>
      </trkpt>
      <trkpt lat="56.68956" lon="-5.10673">
        <ele>15.02</ele>
        <time>2021-04-06T09:30:48Z</time>
      </trkpt>
      <trkpt lat="56.68896" lon="-5.10658">
        <ele>9.68</ele>
        <time>2021-04-06T09:30:51Z</time>
      </trkpt>
      <trkpt lat="56.68878" lon="-5.1065">
        <ele>9.6</ele>
        <time>2021-04-06T09:30:54Z</time>
      </trkpt>
      <trkpt lat="56.68835" lon="-5.10622">
        <ele>9.33</ele>
        <time>2021-04-06T09:30:57Z</time>
      </trkpt>
      <trkpt lat="56.68725" lon="-5.1053">
        <ele>7.2</ele>
        <time>2021-04-06T09:31:00Z</time>
      </trkpt>
      <trkpt lat="56.68703" lon="-5.10515">
        <ele>6.89</ele>
        <time>2021-04-06T09:31:03Z</time>
      </trkpt>
      <trkpt lat="56.68687" lon="-5.1051">
        <ele>6.48</ele>
        <time>2021-04-06T09:31:06Z</time>
      </trkpt>
      <trkpt lat="56.68672" lon="-5.10509">
        <ele>6.14</ele>
        <time>2021-04-06T09:31:09Z</time>
      </trkpt>
      <trkpt lat="56.68657" lon="-5.10515">
        <ele>6</ele>
        <time>2021-04-06T09:31:12Z</time>
      </trkpt>
      <trkpt lat="56.68637" lon="-5.10529">
        <ele>5.92</ele>
        <time>2021-04-06T09:31:15Z</time>
      </trkpt>
      <trkpt lat="56.685" lon="-5.10648">
        <ele>1.99</ele>
        <time>2021-04-06T09:31:18Z</time>
      </trkpt>
      <trkpt lat="56.68482" lon="-5.1066">
        <ele>2</ele>
        <time>2021-04-06T09:31:21Z</time>
      </trkpt>
      <trkpt lat="56.68468" lon="-5.10666">
        <ele>2.14</ele>
        <time>2021-04-06T09:31:24Z</time>
      </trkpt>
      <trkpt lat="56.68232" lon="-5.10682">
        <ele>3.09</ele>
        <time>2021-04-06T09:31:27Z</time>
      </trkpt>
      <trkpt lat="56.68214" lon="-5.1069">
        <ele>3.46</ele>
        <time>2021-04-06T09:31:30Z</time>
      </trkpt>
      <trkpt lat="56.68165" lon="-5.10737">
        <ele>3.51</ele>
        <time>2021-04-06T09:31:33Z</time>
      </trkpt>
      <trkpt lat="56.6816" lon="-5.10719">
        <ele>4.22</ele>
        <time>2021-04-06T09:31:49Z</time>
      </trkpt>
      <trkpt lat="56.68159" lon="-5.10705">
        <ele>4.27</ele>
        <time>2021-04-06T09:32:05Z</time>
      </trkpt>
      <trkpt lat="56.68162" lon="-5.10687">
        <ele>4.45</ele>
        <time>2021-04-06T09:32:21Z</time>
      </trkpt>
      <trkpt lat="56.68272" lon="-5.10143">
        <ele>12.81</ele>
        <time>2021-04-06T09:32:37Z</time>
      </trkpt>
      <trkpt lat="56.68272" lon="-5.10143">
        <ele>12.81</ele>
        <time>2021-04-06T09:32:37Z</time>
      </trkpt>
      <trkpt lat="56.68162" lon="-5.10687">
        <ele>4.45</ele>
        <time>2021-04-06T09:32:53Z</time>
      </trkpt>
      <trkpt lat="56.68159" lon="-5.10705">
        <ele>4.27</ele>
        <time>2021-04-06T09:33:09Z</time>
      </trkpt>
      <trkpt lat="56.6816" lon="-5.10719">
        <ele>4.22</ele>
        <time>2021-04-06T09:33:25Z</time>
      </trkpt>
      <trkpt lat="56.68165" lon="-5.10737">
        <ele>3.51</ele>
        <time>2021-04-06T09:33:41Z</time>
      </trkpt>
      <trkpt lat="56.68214" lon="-5.1069">
        <ele>3.46</ele>
        <time>2021-04-06T09:33:44Z</time>
      </trkpt>
      <trkpt lat="56.68232" lon="-5.10682">
        <ele>3.09</ele>
        <time>2021-04-06T09:33:47Z</time>
      </trkpt>
      <trkpt lat="56.68468" lon="-5.10666">
        <ele>2.14</ele>
        <time>2021-04-06T09:33:50Z</time>
      </trkpt>
      <trkpt lat="56.68482" lon="-5.1066">
        <ele>2</ele>
        <time>2021-04-06T09:33:53Z</time>
      </trkpt>
      <trkpt lat="56.685" lon="-5.10648">
        <ele>1.99</ele>
        <time>2021-04-06T09:33:56Z</time>
      </trkpt>
      <trkpt lat="56.68637" lon="-5.10529">
        <ele>5.92</ele>
        <time>2021-04-06T09:33:59Z</time>
      </trkpt>
      <trkpt lat="56.68657" lon="-5.10515">
        <ele>6</ele>
        <time>2021-04-06T09:34:02Z</time>
      </trkpt>
      <trkpt lat="56.68672" lon="-5.10509">
        <ele>6.14</ele>
        <time>2021-04-06T09:34:05Z</time>
      </trkpt>
      <trkpt lat="56.68687" lon="-5.1051">
        <ele>6.48</ele>
        <time>2021-04-06T09:34:08Z</time>
      </trkpt>
      <trkpt lat="56.68703" lon="-5.10515">
        <ele>6.89</ele>
        <time>2021-04-06T09:34:12Z</time>
      </trkpt>
      <trkpt lat="56.68725" lon="-5.1053">
        <ele>7.2</ele>
        <time>2021-04-06T09:34:15Z</time>
      </trkpt>
      <trkpt lat="56.68835" lon="-5.10622">
        <ele>9.33</ele>
        <time>2021-04-06T09:34:18Z</time>
      </trkpt>
      <trkpt lat="56.68878" lon="-5.1065">
        <ele>9.6</ele>
        <time>2021-04-06T09:34:21Z</time>
      </trkpt>
      <trkpt lat="56.68896" lon="-5.10658">
        <ele>9.68</ele>
        <time>2021-04-06T09:34:24Z</time>
      </trkpt>
      <trkpt lat="56.68956" lon="-5.10673">
        <ele>15.02</ele>
        <time>2021-04-06T09:34:27Z</time>
      </trkpt>
      <trkpt lat="56.68989" lon="-5.10673">
        <ele>15.66</ele>
        <time>2021-04-06T09:34:30Z</time>
      </trkpt>
      <trkpt lat="56.69032" lon="-5.10666">
        <ele>14.17</ele>
        <time>2021-04-06T09:34:33Z</time>
      </trkpt>
      <trkpt lat="56.69069" lon="-5.10651">
        <ele>16.54</ele>
        <time>2021-04-06T09:34:36Z</time>
      </trkpt>
      <trkpt lat="56.69115" lon="-5.10617">
        <ele>18.03</ele>
        <time>2021-04-06T09:34:39Z</time>
      </trkpt>
      <trkpt lat="56.69131" lon="-5.10595">
        <ele>18.67</ele>
        <time>2021-04-06T09:34:42Z</time>
      </trkpt>
      <trkpt lat="56.69142" lon="-5.10576">
        <ele>18.59</ele>
        <time>2021-04-06T09:34:45Z</time>
      </trkpt>
      <trkpt lat="56.69179" lon="-5.10488">
        <ele>17.47</ele>
        <time>2021-04-06T09:34:48Z</time>
      </trkpt>
      <trkpt lat="56.69191" lon="-5.10438">
        <ele>18.63</ele>
        <time>2021-04-06T09:34:51Z</time>
      </trkpt>
      <trkpt lat="56.69198" lon="-5.10354">
        <ele>13.98</ele>
        <time>2021-04-06T09:34:54Z</time>
      </trkpt>
      <trkpt lat="56.69208" lon="-5.10297">
        <ele>10.7</ele>
        <time>2021-04-06T09:34:57Z</time>
      </trkpt>
      <trkpt lat="56.69228" lon="-5.1022">
        <ele>7.97</ele>
        <time>2021-04-06T09:35:00Z</time>
      </trkpt>
      <trkpt lat="56.69237" lon="-5.10168">
        <ele>9.17</ele>
        <time>2021-04-06T09:35:03Z</time>
      </trkpt>
      <trkpt lat="56.69238" lon="-5.10098">
        <ele>10.91</ele>
        <time>2021-04-06T09:35:06Z</time>
      </trkpt>
      <trkpt lat="56.69244" lon="-5.1006">
        <ele>11.05</ele>
        <time>2021-04-06T09:35:09Z</time>
      </trkpt>
      <trkpt lat="56.69256" lon="-5.10019">
        <ele>13.71</ele>
        <time>2021-04-06T09:35:12Z</time>
      </trkpt>
      <trkpt lat="56.69308" lon="-5.09934">
        <ele>10.09</ele>
        <time>2021-04-06T09:35:15Z</time>
      </trkpt>
      <trkpt lat="56.69321" lon="-5.09899">
        <ele>10.87</ele>
        <time>2021-04-06T09:35:18Z</time>
      </trkpt>
      <trkpt lat="56.69332" lon="-5.09846">
        <ele>12.88</ele>
        <time>2021-04-06T09:35:21Z</time>
      </trkpt>
      <trkpt lat="56.69368" lon="-5.09634">
        <ele>14.07</ele>
        <time>2021-04-06T09:35:24Z</time>
      </trkpt>
      <trkpt lat="56.6942" lon="-5.09271">
        <ele>21.85</ele>
        <time>2021-04-06T09:35:27Z</time>
      </trkpt>
      <trkpt lat="56.6944" lon="-5.08793">
        <ele>20.82</ele>
        <time>2021-04-06T09:35:30Z</time>
      </trkpt>
      <trkpt lat="56.69448" lon="-5.08682">
        <ele>21.03</ele>
        <time>2021-04-06T09:35:33Z</time>
      </trkpt>
      <trkpt lat="56.69464" lon="-5.08621">
        <ele>23.57</ele>
        <time>2021-04-06T09:35:36Z</time>
      </trkpt>
      <trkpt lat="56.69511" lon="-5.08516">
        <ele>27.73</ele>
        <time>2021-04-06T09:35:39Z</time>
      </trkpt>
      <trkpt lat="56.69534" lon="-5.08437">
        <ele>29.27</ele>
        <time>2021-04-06T09:35:42Z</time>
      </trkpt>
      <trkpt lat="56.69576" lon="-5.0823">
        <ele>36.38</ele>
        <time>2021-04-06T09:35:45Z</time>
      </trkpt>
      <trkpt lat="56.69586" lon="-5.08194">
        <ele>35.36</ele>
        <time>2021-04-06T09:35:48Z</time>
      </trkpt>
      <trkpt lat="56.69623" lon="-5.08094">
        <ele>37.17</ele>
        <time>2021-04-06T09:35:51Z</time>
      </trkpt>
      <trkpt lat="56.69638" lon="-5.08043">
        <ele>39.12</ele>
        <time>2021-04-06T09:35:54Z</time>
      </trkpt>
      <trkpt lat="56.69683" lon="-5.07841">
        <ele>45.45</ele>
        <time>2021-04-06T09:35:57Z</time>
      </trkpt>
      <trkpt lat="56.69724" lon="-5.07566">
        <ele>41.52</ele>
        <time>2021-04-06T09:36:00Z</time>
      </trkpt>
      <trkpt lat="56.69753" lon="-5.074">
        <ele>44</ele>
        <time>2021-04-06T09:36:03Z</time>
      </trkpt>
      <trkpt lat="56.69755" lon="-5.0735">
        <ele>44.36</ele>
        <time>2021-04-06T09:36:06Z</time>
      </trkpt>
      <trkpt lat="56.69748" lon="-5.07246">
        <ele>51.54</ele>
        <time>2021-04-06T09:36:09Z</time>
      </trkpt>
      <trkpt lat="56.69747" lon="-5.07204">
        <ele>55.27</ele>
        <time>2021-04-06T09:36:12Z</time>
      </trkpt>
      <trkpt lat="56.69753" lon="-5.07163">
        <ele>57.27</ele>
        <time>2021-04-06T09:36:15Z</time>
      </trkpt>
      <trkpt lat="56.69798" lon="-5.07032">
        <ele>58</ele>
        <time>2021-04-06T09:36:18Z</time>
      </trkpt>
      <trkpt lat="56.69821" lon="-5.06956">
        <ele>59.25</ele>
        <time>2021-04-06T09:36:21Z</time>
      </trkpt>
      <trkpt lat="56.6984" lon="-5.06914">
        <ele>57.62</ele>
        <time>2021-04-06T09:36:25Z</time>
      </trkpt>
      <trkpt lat="56.69863" lon="-5.0687">
        <ele>55.64</ele>
        <time>2021-04-06T09:36:28Z</time>
      </trkpt>
      <trkpt lat="56.69871" lon="-5.06849">
        <ele>55.19</ele>
        <time>2021-04-06T09:36:31Z</time>
      </trkpt>
      <trkpt lat="56.69875" lon="-5.06828">
        <ele>56.34</ele>
        <time>2021-04-06T09:36:34Z</time>
      </trkpt>
      <trkpt lat="56.69874" lon="-5.06796">
        <ele>57.77</ele>
        <time>2021-04-06T09:36:37Z</time>
      </trkpt>
      <trkpt lat="56.69864" lon="-5.06737">
        <ele>62.99</ele>
        <time>2021-04-06T09:36:40Z</time>
      </trkpt>
      <trkpt lat="56.69863" lon="-5.0671">
        <ele>63.94</ele>
        <time>2021-04-06T09:36:43Z</time>
      </trkpt>
      <trkpt lat="56.69867" lon="-5.06669">
        <ele>60.97</ele>
        <time>2021-04-06T09:36:46Z</time>
      </trkpt>
      <trkpt lat="56.69882" lon="-5.06579">
        <ele>56.58</ele>
        <time>2021-04-06T09:36:49Z</time>
      </trkpt>
      <trkpt lat="56.69885" lon="-5.06526">
        <ele>54.84</ele>
        <time>2021-04-06T09:36:52Z</time>
      </trkpt>
      <trkpt lat="56.69883" lon="-5.06476">
        <ele>54.55</ele>
        <time>2021-04-06T09:36:55Z</time>
      </trkpt>
      <trkpt lat="56.69877" lon="-5.0641">
        <ele>54.47</ele>
        <time>2021-04-06T09:36:58Z</time>
      </trkpt>
      <trkpt lat="56.69856" lon="-5.06311">
        <ele>55.86</ele>
        <time>2021-04-06T09:37:01Z</time>
      </trkpt>
      <trkpt lat="56.69855" lon="-5.06284">
        <ele>55.01</ele>
        <time>2021-04-06T09:37:04Z</time>
      </trkpt>
      <trkpt lat="56.69867" lon="-5.06208">
        <ele>51.17</ele>
        <time>2021-04-06T09:37:07Z</time>
      </trkpt>
      <trkpt lat="56.69866" lon="-5.06169">
        <ele>50.86</ele>
        <time>2021-04-06T09:37:10Z</time>
      </trkpt>
      <trkpt lat="56.69862" lon="-5.06138">
        <ele>50.71</ele>
        <time>2021-04-06T09:37:13Z</time>
      </trkpt>
      <trkpt lat="56.69848" lon="-5.06081">
        <ele>49.74</ele>
        <time>2021-04-06T09:37:16Z</time>
      </trkpt>
      <trkpt lat="56.69846" lon="-5.06041">
        <ele>48.7</ele>
        <time>2021-04-06T09:37:19Z</time>
      </trkpt>
      <trkpt lat="56.69862" lon="-5.05946">
        <ele>44.78</ele>
        <time>2021-04-06T09:37:22Z</time>
      </trkpt>
      <trkpt lat="56.699" lon="-5.05794">
        <ele>48.22</ele>
        <time>2021-04-06T09:37:25Z</time>
      </trkpt>
      <trkpt lat="56.69962" lon="-5.056">
        <ele>45.89</ele>
        <time>2021-04-06T09:37:28Z</time>
      </trkpt>
      <trkpt lat="56.70004" lon="-5.05407">
        <ele>44.47</ele>
        <time>2021-04-06T09:37:31Z</time>
      </trkpt>
      <trkpt lat="56.70042" lon="-5.05275">
        <ele>44.31</ele>
        <time>2021-04-06T09:37:34Z</time>
      </trkpt>
      <trkpt lat="56.70109" lon="-5.05105">
        <ele>45.9</ele>
        <time>2021-04-06T09:37:37Z</time>
      </trkpt>
      <trkpt lat="56.70127" lon="-5.05041">
        <ele>42.33</ele>
        <time>2021-04-06T09:37:40Z</time>
      </trkpt>
      <trkpt lat="56.70136" lon="-5.04983">
        <ele>40.77</ele>
        <time>2021-04-06T09:37:43Z</time>
      </trkpt>
      <trkpt lat="56.70137" lon="-5.04916">
        <ele>42.08</ele>
        <time>2021-04-06T09:37:46Z</time>
      </trkpt>
      <trkpt lat="56.70133" lon="-5.04835">
        <ele>43</ele>
        <time>2021-04-06T09:37:49Z</time>
      </trkpt>
      <trkpt lat="56.70133" lon="-5.04752">
        <ele>42.23</ele>
        <time>2021-04-06T09:37:52Z</time>
      </trkpt>
      <trkpt lat="56.70156" lon="-5.04572">
        <ele>33.76</ele>
        <time>2021-04-06T09:37:55Z</time>
      </trkpt>
      <trkpt lat="56.70156" lon="-5.04505">
        <ele>31.99</ele>
        <time>2021-04-06T09:37:58Z</time>
      </trkpt>
      <trkpt lat="56.70142" lon="-5.04347">
        <ele>33.02</ele>
        <time>2021-04-06T09:38:01Z</time>
      </trkpt>
      <trkpt lat="56.70119" lon="-5.04194">
        <ele>30.52</ele>
        <time>2021-04-06T09:38:04Z</time>
      </trkpt>
      <trkpt lat="56.70117" lon="-5.04031">
        <ele>31.15</ele>
        <time>2021-04-06T09:38:07Z</time>
      </trkpt>
      <trkpt lat="56.7012" lon="-5.03981">
        <ele>31.07</ele>
        <time>2021-04-06T09:38:10Z</time>
      </trkpt>
      <trkpt lat="56.70137" lon="-5.0387">
        <ele>34.71</ele>
        <time>2021-04-06T09:38:13Z</time>
      </trkpt>
      <trkpt lat="56.70149" lon="-5.03777">
        <ele>37.07</ele>
        <time>2021-04-06T09:38:16Z</time>
      </trkpt>
      <trkpt lat="56.70152" lon="-5.03704">
        <ele>38.18</ele>
        <time>2021-04-06T09:38:19Z</time>
      </trkpt>
      <trkpt lat="56.70151" lon="-5.03582">
        <ele>40.31</ele>
        <time>2021-04-06T09:38:22Z</time>
      </trkpt>
      <trkpt lat="56.70152" lon="-5.03568">
        <ele>40.63</ele>
        <time>2021-04-06T09:38:25Z</time>
      </trkpt>
      <trkpt lat="56.70164" lon="-5.0352">
        <ele>40.65</ele>
        <time>2021-04-06T09:38:28Z</time>
      </trkpt>
      <trkpt lat="56.70181" lon="-5.03497">
        <ele>40.19</ele>
        <time>2021-04-06T09:38:31Z</time>
      </trkpt>
      <trkpt lat="56.70215" lon="-5.03472">
        <ele>40.31</ele>
        <time>2021-04-06T09:38:35Z</time>
      </trkpt>
      <trkpt lat="56.70231" lon="-5.03449">
        <ele>40.81</ele>
        <time>2021-04-06T09:38:38Z</time>
      </trkpt>
      <trkpt lat="56.70338" lon="-5.03272">
        <ele>36.22</ele>
        <time>2021-04-06T09:38:41Z</time>
      </trkpt>
      <trkpt lat="56.70359" lon="-5.03214">
        <ele>33.44</ele>
        <time>2021-04-06T09:38:44Z</time>
      </trkpt>
      <trkpt lat="56.70371" lon="-5.03151">
        <ele>34.16</ele>
        <time>2021-04-06T09:38:47Z</time>
      </trkpt>
      <trkpt lat="56.70383" lon="-5.02998">
        <ele>28.76</ele>
        <time>2021-04-06T09:38:50Z</time>
      </trkpt>
      <trkpt lat="56.704" lon="-5.02851">
        <ele>26.33</ele>
        <time>2021-04-06T09:38:53Z</time>
      </trkpt>
      <trkpt lat="56.70407" lon="-5.02806">
        <ele>23.84</ele>
        <time>2021-04-06T09:38:56Z</time>
      </trkpt>
      <trkpt lat="56.70431" lon="-5.02707">
        <ele>20.43</ele>
        <time>2021-04-06T09:38:59Z</time>
      </trkpt>
      <trkpt lat="56.7045" lon="-5.02656">
        <ele>18.33</ele>
        <time>2021-04-06T09:39:02Z</time>
      </trkpt>
      <trkpt lat="56.70549" lon="-5.02496">
        <ele>13.01</ele>
        <time>2021-04-06T09:39:05Z</time>
      </trkpt>
      <trkpt lat="56.70579" lon="-5.02431">
        <ele>12.33</ele>
        <time>2021-04-06T09:39:08Z</time>
      </trkpt>
      <trkpt lat="56.70608" lon="-5.02323">
        <ele>7.76</ele>
        <time>2021-04-06T09:39:11Z</time>
      </trkpt>
      <trkpt lat="56.70637" lon="-5.02169">
        <ele>11.43</ele>
        <time>2021-04-06T09:39:14Z</time>
      </trkpt>
      <trkpt lat="56.70641" lon="-5.02099">
        <ele>11.61</ele>
        <time>2021-04-06T09:39:17Z</time>
      </trkpt>
      <trkpt lat="56.7064" lon="-5.02028">
        <ele>10.73</ele>
        <time>2021-04-06T09:39:20Z</time>
      </trkpt>
      <trkpt lat="56.70611" lon="-5.01807">
        <ele>19.01</ele>
        <time>2021-04-06T09:39:23Z</time>
      </trkpt>
      <trkpt lat="56.70613" lon="-5.01773">
        <ele>17.8</ele>
        <time>2021-04-06T09:39:26Z</time>
      </trkpt>
      <trkpt lat="56.7062" lon="-5.01737">
        <ele>18.43</ele>
        <time>2021-04-06T09:39:29Z</time>
      </trkpt>
      <trkpt lat="56.7066" lon="-5.01618">
        <ele>20.7</ele>
        <time>2021-04-06T09:39:32Z</time>
      </trkpt>
      <trkpt lat="56.70667" lon="-5.01572">
        <ele>23.92</ele>
        <time>2021-04-06T09:39:35Z</time>
      </trkpt>
      <trkpt lat="56.7068" lon="-5.01337">
        <ele>30.77</ele>
        <time>2021-04-06T09:39:38Z</time>
      </trkpt>
      <trkpt lat="56.70689" lon="-5.01264">
        <ele>31.14</ele>
        <time>2021-04-06T09:39:41Z</time>
      </trkpt>
      <trkpt lat="56.70701" lon="-5.01181">
        <ele>30.72</ele>
        <time>2021-04-06T09:39:44Z</time>
      </trkpt>
      <trkpt lat="56.707" lon="-5.01143">
        <ele>32.85</ele>
        <time>2021-04-06T09:39:47Z</time>
      </trkpt>
      <trkpt lat="56.70692" lon="-5.01063">
        <ele>38.85</ele>
        <time>2021-04-06T09:39:50Z</time>
      </trkpt>
      <trkpt lat="56.70683" lon="-5.00908">
        <ele>45.19</ele>
        <time>2021-04-06T09:39:53Z</time>
      </trkpt>
      <trkpt lat="56.70688" lon="-5.00853">
        <ele>45.31</ele>
        <time>2021-04-06T09:39:56Z</time>
      </trkpt>
      <trkpt lat="56.70712" lon="-5.00744">
        <ele>47.42</ele>
        <time>2021-04-06T09:39:59Z</time>
      </trkpt>
      <trkpt lat="56.70735" lon="-5.00679">
        <ele>48.21</ele>
        <time>2021-04-06T09:40:02Z</time>
      </trkpt>
      <trkpt lat="56.7085" lon="-5.00429">
        <ele>58.52</ele>
        <time>2021-04-06T09:40:05Z</time>
      </trkpt>
      <trkpt lat="56.70925" lon="-5.0031">
        <ele>62.49</ele>
        <time>2021-04-06T09:40:08Z</time>
      </trkpt>
      <trkpt lat="56.70933" lon="-5.0029">
        <ele>61.34</ele>
        <time>2021-04-06T09:40:11Z</time>
      </trkpt>
      <trkpt lat="56.70938" lon="-5.00268">
        <ele>60.33</ele>
        <time>2021-04-06T09:40:14Z</time>
      </trkpt>
      <trkpt lat="56.70939" lon="-5.00153">
        <ele>61.94</ele>
        <time>2021-04-06T09:40:17Z</time>
      </trkpt>
      <trkpt lat="56.70942" lon="-5.00096">
        <ele>64.19</ele>
        <time>2021-04-06T09:40:20Z</time>
      </trkpt>
      <trkpt lat="56.70952" lon="-4.99997">
        <ele>65.32</ele>
        <time>2021-04-06T09:40:23Z</time>
      </trkpt>
      <trkpt lat="56.7095" lon="-4.99954">
        <ele>67.04</ele>
        <time>2021-04-06T09:40:26Z</time>
      </trkpt>
      <trkpt lat="56.70944" lon="-4.9987">
        <ele>69.34</ele>
        <time>2021-04-06T09:40:29Z</time>
      </trkpt>
      <trkpt lat="56.70943" lon="-4.99844">
        <ele>70.22</ele>
        <time>2021-04-06T09:40:32Z</time>
      </trkpt>
      <trkpt lat="56.70949" lon="-4.9982">
        <ele>69.97</ele>
        <time>2021-04-06T09:40:35Z</time>
      </trkpt>
      <trkpt lat="56.70972" lon="-4.99772">
        <ele>67.42</ele>
        <time>2021-04-06T09:40:38Z</time>
      </trkpt>
      <trkpt lat="56.70978" lon="-4.99735">
        <ele>68.2</ele>
        <time>2021-04-06T09:40:41Z</time>
      </trkpt>
      <trkpt lat="56.70986" lon="-4.99632">
        <ele>69.21</ele>
        <time>2021-04-06T09:40:44Z</time>
      </trkpt>
      <trkpt lat="56.70992" lon="-4.99576">
        <ele>69.03</ele>
        <time>2021-04-06T09:40:48Z</time>
      </trkpt>
      <trkpt lat="56.70995" lon="-4.99535">
        <ele>69.12</ele>
        <time>2021-04-06T09:40:51Z</time>
      </trkpt>
      <trkpt lat="56.70991" lon="-4.995">
        <ele>70.86</ele>
        <time>2021-04-06T09:40:54Z</time>
      </trkpt>
      <trkpt lat="56.70973" lon="-4.99392">
        <ele>71.15</ele>
        <time>2021-04-06T09:40:57Z</time>
      </trkpt>
      <trkpt lat="56.70967" lon="-4.99319">
        <ele>69.64</ele>
        <time>2021-04-06T09:41:00Z</time>
      </trkpt>
      <trkpt lat="56.70966" lon="-4.99256">
        <ele>68.68</ele>
        <time>2021-04-06T09:41:03Z</time>
      </trkpt>
      <trkpt lat="56.70969" lon="-4.99221">
        <ele>68.57</ele>
        <time>2021-04-06T09:41:06Z</time>
      </trkpt>
      <trkpt lat="56.70979" lon="-4.99193">
        <ele>67.11</ele>
        <time>2021-04-06T09:41:09Z</time>
      </trkpt>
      <trkpt lat="56.71028" lon="-4.99093">
        <ele>65.5</ele>
        <time>2021-04-06T09:41:12Z</time>
      </trkpt>
      <trkpt lat="56.71039" lon="-4.99063">
        <ele>67.15</ele>
        <time>2021-04-06T09:41:15Z</time>
      </trkpt>
      <trkpt lat="56.71044" lon="-4.99018">
        <ele>68.74</ele>
        <time>2021-04-06T09:41:18Z</time>
      </trkpt>
      <trkpt lat="56.71057" lon="-4.98851">
        <ele>71.8</ele>
        <time>2021-04-06T09:41:21Z</time>
      </trkpt>
      <trkpt lat="56.71066" lon="-4.98658">
        <ele>70.48</ele>
        <time>2021-04-06T09:41:24Z</time>
      </trkpt>
      <trkpt lat="56.71067" lon="-4.98609">
        <ele>68.95</ele>
        <time>2021-04-06T09:41:27Z</time>
      </trkpt>
      <trkpt lat="56.71067" lon="-4.98424">
        <ele>73.29</ele>
        <time>2021-04-06T09:41:30Z</time>
      </trkpt>
      <trkpt lat="56.7107" lon="-4.98396">
        <ele>73.79</ele>
        <time>2021-04-06T09:41:33Z</time>
      </trkpt>
      <trkpt lat="56.71081" lon="-4.98361">
        <ele>71.8</ele>
        <time>2021-04-06T09:41:36Z</time>
      </trkpt>
      <trkpt lat="56.71095" lon="-4.98329">
        <ele>71.18</ele>
        <time>2021-04-06T09:41:39Z</time>
      </trkpt>
      <trkpt lat="56.71152" lon="-4.9826">
        <ele>64.49</ele>
        <time>2021-04-06T09:41:42Z</time>
      </trkpt>
      <trkpt lat="56.71162" lon="-4.9824">
        <ele>64.16</ele>
        <time>2021-04-06T09:41:45Z</time>
      </trkpt>
      <trkpt lat="56.71186" lon="-4.98173">
        <ele>61.96</ele>
        <time>2021-04-06T09:41:48Z</time>
      </trkpt>
      <trkpt lat="56.71199" lon="-4.98129">
        <ele>63.75</ele>
        <time>2021-04-06T09:41:51Z</time>
      </trkpt>
      <trkpt lat="56.71202" lon="-4.98096">
        <ele>62.59</ele>
        <time>2021-04-06T09:41:54Z</time>
      </trkpt>
      <trkpt lat="56.71202" lon="-4.98061">
        <ele>60.76</ele>
        <time>2021-04-06T09:41:57Z</time>
      </trkpt>
      <trkpt lat="56.71201" lon="-4.98034">
        <ele>62.08</ele>
        <time>2021-04-06T09:42:00Z</time>
      </trkpt>
      <trkpt lat="56.71181" lon="-4.97901">
        <ele>59.2</ele>
        <time>2021-04-06T09:42:03Z</time>
      </trkpt>
      <trkpt lat="56.7117" lon="-4.97855">
        <ele>60.25</ele>
        <time>2021-04-06T09:42:06Z</time>
      </trkpt>
      <trkpt lat="56.71168" lon="-4.97823">
        <ele>59.39</ele>
        <time>2021-04-06T09:42:09Z</time>
      </trkpt>
      <trkpt lat="56.71168" lon="-4.97784">
        <ele>55.17</ele>
        <time>2021-04-06T09:42:12Z</time>
      </trkpt>
      <trkpt lat="56.71161" lon="-4.97697">
        <ele>55.03</ele>
        <time>2021-04-06T09:42:15Z</time>
      </trkpt>
      <trkpt lat="56.71159" lon="-4.97652">
        <ele>54.36</ele>
        <time>2021-04-06T09:42:18Z</time>
      </trkpt>
      <trkpt lat="56.71167" lon="-4.97624">
        <ele>50.3</ele>
        <time>2021-04-06T09:42:21Z</time>
      </trkpt>
      <trkpt lat="56.71181" lon="-4.97594">
        <ele>47.07</ele>
        <time>2021-04-06T09:42:24Z</time>
      </trkpt>
      <trkpt lat="56.71236" lon="-4.97532">
        <ele>38.52</ele>
        <time>2021-04-06T09:42:27Z</time>
      </trkpt>
      <trkpt lat="56.71244" lon="-4.97515">
        <ele>38.42</ele>
        <time>2021-04-06T09:42:30Z</time>
      </trkpt>
      <trkpt lat="56.71247" lon="-4.97491">
        <ele>39.78</ele>
        <time>2021-04-06T09:42:33Z</time>
      </trkpt>
      <trkpt lat="56.71246" lon="-4.97465">
        <ele>40.41</ele>
        <time>2021-04-06T09:42:36Z</time>
      </trkpt>
      <trkpt lat="56.71236" lon="-4.97372">
        <ele>39.26</ele>
        <time>2021-04-06T09:42:39Z</time>
      </trkpt>
      <trkpt lat="56.71236" lon="-4.97331">
        <ele>36.59</ele>
        <time>2021-04-06T09:42:42Z</time>
      </trkpt>
      <trkpt lat="56.71241" lon="-4.97296">
        <ele>34.46</ele>
        <time>2021-04-06T09:42:45Z</time>
      </trkpt>
      <trkpt lat="56.71253" lon="-4.9724">
        <ele>30.87</ele>
        <time>2021-04-06T09:42:48Z</time>
      </trkpt>
      <trkpt lat="56.71271" lon="-4.9716">
        <ele>23.52</ele>
        <time>2021-04-06T09:42:51Z</time>
      </trkpt>
      <trkpt lat="56.71284" lon="-4.97134">
        <ele>20.99</ele>
        <time>2021-04-06T09:42:54Z</time>
      </trkpt>
      <trkpt lat="56.71312" lon="-4.97099">
        <ele>19.48</ele>
        <time>2021-04-06T09:42:58Z</time>
      </trkpt>
      <trkpt lat="56.71323" lon="-4.97078">
        <ele>18.72</ele>
        <time>2021-04-06T09:43:01Z</time>
      </trkpt>
      <trkpt lat="56.7133" lon="-4.97054">
        <ele>17.94</ele>
        <time>2021-04-06T09:43:04Z</time>
      </trkpt>
      <trkpt lat="56.71333" lon="-4.97026">
        <ele>17.05</ele>
        <time>2021-04-06T09:43:07Z</time>
      </trkpt>
      <trkpt lat="56.71328" lon="-4.9691">
        <ele>13.24</ele>
        <time>2021-04-06T09:43:10Z</time>
      </trkpt>
      <trkpt lat="56.71324" lon="-4.96859">
        <ele>11.48</ele>
        <time>2021-04-06T09:43:13Z</time>
      </trkpt>
      <trkpt lat="56.71317" lon="-4.96802">
        <ele>9.73</ele>
        <time>2021-04-06T09:43:16Z</time>
      </trkpt>
      <trkpt lat="56.71306" lon="-4.96732">
        <ele>9.33</ele>
        <time>2021-04-06T09:43:19Z</time>
      </trkpt>
      <trkpt lat="56.713" lon="-4.96659">
        <ele>8.21</ele>
        <time>2021-04-06T09:43:22Z</time>
      </trkpt>
      <trkpt lat="56.71298" lon="-4.96602">
        <ele>8.28</ele>
        <time>2021-04-06T09:43:25Z</time>
      </trkpt>
      <trkpt lat="56.71301" lon="-4.96531">
        <ele>9</ele>
        <time>2021-04-06T09:43:28Z</time>
      </trkpt>
      <trkpt lat="56.71312" lon="-4.96427">
        <ele>10.57</ele>
        <time>2021-04-06T09:43:31Z</time>
      </trkpt>
      <trkpt lat="56.71322" lon="-4.96369">
        <ele>10.81</ele>
        <time>2021-04-06T09:43:34Z</time>
      </trkpt>
      <trkpt lat="56.71332" lon="-4.96333">
        <ele>11.07</ele>
        <time>2021-04-06T09:43:37Z</time>
      </trkpt>
      <trkpt lat="56.71339" lon="-4.96316">
        <ele>10.74</ele>
        <time>2021-04-06T09:43:40Z</time>
      </trkpt>
      <trkpt lat="56.71353" lon="-4.96297">
        <ele>10.51</ele>
        <time>2021-04-06T09:43:43Z</time>
      </trkpt>
      <trkpt lat="56.71365" lon="-4.96289">
        <ele>10.45</ele>
        <time>2021-04-06T09:43:46Z</time>
      </trkpt>
      <trkpt lat="56.71389" lon="-4.96286">
        <ele>9.72</ele>
        <time>2021-04-06T09:43:49Z</time>
      </trkpt>
      <trkpt lat="56.71424" lon="-4.963">
        <ele>10.71</ele>
        <time>2021-04-06T09:43:52Z</time>
      </trkpt>
      <trkpt lat="56.71476" lon="-4.96334">
        <ele>13.4</ele>
        <time>2021-04-06T09:43:55Z</time>
      </trkpt>
      <trkpt lat="56.71524" lon="-4.96386">
        <ele>13.92</ele>
        <time>2021-04-06T09:43:58Z</time>
      </trkpt>
      <trkpt lat="56.7156" lon="-4.96428">
        <ele>13.65</ele>
        <time>2021-04-06T09:44:01Z</time>
      </trkpt>
      <trkpt lat="56.71659" lon="-4.96551">
        <ele>15.47</ele>
        <time>2021-04-06T09:44:04Z</time>
      </trkpt>
      <trkpt lat="56.71708" lon="-4.96614">
        <ele>18.5</ele>
        <time>2021-04-06T09:44:07Z</time>
      </trkpt>
      <trkpt lat="56.71719" lon="-4.96638">
        <ele>20.42</ele>
        <time>2021-04-06T09:44:10Z</time>
      </trkpt>
      <trkpt lat="56.71727" lon="-4.96659">
        <ele>22.84</ele>
        <time>2021-04-06T09:44:13Z</time>
      </trkpt>
      <trkpt lat="56.71731" lon="-4.96687">
        <ele>24.45</ele>
        <time>2021-04-06T09:44:16Z</time>
      </trkpt>
      <trkpt lat="56.71732" lon="-4.96716">
        <ele>24.7</ele>
        <time>2021-04-06T09:44:19Z</time>
      </trkpt>
      <trkpt lat="56.71728" lon="-4.9677">
        <ele>22.03</ele>
        <time>2021-04-06T09:44:22Z</time>
      </trkpt>
      <trkpt lat="56.71719" lon="-4.96821">
        <ele>19.37</ele>
        <time>2021-04-06T09:44:25Z</time>
      </trkpt>
      <trkpt lat="56.71695" lon="-4.96902">
        <ele>15.14</ele>
        <time>2021-04-06T09:44:28Z</time>
      </trkpt>
      <trkpt lat="56.71688" lon="-4.96938">
        <ele>14.1</ele>
        <time>2021-04-06T09:44:31Z</time>
      </trkpt>
      <trkpt lat="56.71678" lon="-4.97047">
        <ele>12.19</ele>
        <time>2021-04-06T09:44:34Z</time>
      </trkpt>
      <trkpt lat="56.71673" lon="-4.97102">
        <ele>10.93</ele>
        <time>2021-04-06T09:44:37Z</time>
      </trkpt>
      <trkpt lat="56.71662" lon="-4.97301">
        <ele>10.2</ele>
        <time>2021-04-06T09:44:40Z</time>
      </trkpt>
      <trkpt lat="56.7166" lon="-4.97384">
        <ele>9.08</ele>
        <time>2021-04-06T09:44:43Z</time>
      </trkpt>
      <trkpt lat="56.71663" lon="-4.97467">
        <ele>11.26</ele>
        <time>2021-04-06T09:44:46Z</time>
      </trkpt>
      <trkpt lat="56.71664" lon="-4.97572">
        <ele>12.06</ele>
        <time>2021-04-06T09:44:49Z</time>
      </trkpt>
      <trkpt lat="56.71662" lon="-4.97609">
        <ele>11.9</ele>
        <time>2021-04-06T09:44:52Z</time>
      </trkpt>
      <trkpt lat="56.71656" lon="-4.97639">
        <ele>12.65</ele>
        <time>2021-04-06T09:44:55Z</time>
      </trkpt>
      <trkpt lat="56.71624" lon="-4.97732">
        <ele>15.31</ele>
        <time>2021-04-06T09:44:58Z</time>
      </trkpt>
      <trkpt lat="56.71618" lon="-4.97783">
        <ele>16.51</ele>
        <time>2021-04-06T09:45:01Z</time>
      </trkpt>
      <trkpt lat="56.7162" lon="-4.97911">
        <ele>19.09</ele>
        <time>2021-04-06T09:45:04Z</time>
      </trkpt>
      <trkpt lat="56.71625" lon="-4.97979">
        <ele>21.09</ele>
        <time>2021-04-06T09:45:07Z</time>
      </trkpt>
      <trkpt lat="56.71647" lon="-4.98152">
        <ele>24.44</ele>
        <time>2021-04-06T09:45:11Z</time>
      </trkpt>
      <trkpt lat="56.71647" lon="-4.98183">
        <ele>24.43</ele>
        <time>2021-04-06T09:45:14Z</time>
      </trkpt>
      <trkpt lat="56.71643" lon="-4.98214">
        <ele>23.65</ele>
        <time>2021-04-06T09:45:17Z</time>
      </trkpt>
      <trkpt lat="56.71628" lon="-4.98279">
        <ele>22.77</ele>
        <time>2021-04-06T09:45:20Z</time>
      </trkpt>
      <trkpt lat="56.71627" lon="-4.98315">
        <ele>22.12</ele>
        <time>2021-04-06T09:45:23Z</time>
      </trkpt>
      <trkpt lat="56.71633" lon="-4.98352">
        <ele>21.74</ele>
        <time>2021-04-06T09:45:26Z</time>
      </trkpt>
      <trkpt lat="56.71667" lon="-4.98464">
        <ele>22.32</ele>
        <time>2021-04-06T09:45:29Z</time>
      </trkpt>
      <trkpt lat="56.71683" lon="-4.98528">
        <ele>22.18</ele>
        <time>2021-04-06T09:45:32Z</time>
      </trkpt>
      <trkpt lat="56.71689" lon="-4.98579">
        <ele>23.11</ele>
        <time>2021-04-06T09:45:35Z</time>
      </trkpt>
      <trkpt lat="56.71694" lon="-4.98661">
        <ele>23.89</ele>
        <time>2021-04-06T09:45:38Z</time>
      </trkpt>
      <trkpt lat="56.71692" lon="-4.98699">
        <ele>24.49</ele>
        <time>2021-04-06T09:45:41Z</time>
      </trkpt>
      <trkpt lat="56.7168" lon="-4.98749">
        <ele>24.4</ele>
        <time>2021-04-06T09:45:44Z</time>
      </trkpt>
      <trkpt lat="56.71665" lon="-4.98793">
        <ele>24.51</ele>
        <time>2021-04-06T09:45:47Z</time>
      </trkpt>
      <trkpt lat="56.71629" lon="-4.98857">
        <ele>25.52</ele>
        <time>2021-04-06T09:45:50Z</time>
      </trkpt>
      <trkpt lat="56.71619" lon="-4.98889">
        <ele>25.56</ele>
        <time>2021-04-06T09:45:53Z</time>
      </trkpt>
      <trkpt lat="56.71606" lon="-4.99">
        <ele>23.84</ele>
        <time>2021-04-06T09:45:56Z</time>
      </trkpt>
      <trkpt lat="56.71594" lon="-4.99054">
        <ele>26.44</ele>
        <time>2021-04-06T09:45:59Z</time>
      </trkpt>
      <trkpt lat="56.71568" lon="-4.99124">
        <ele>24.36</ele>
        <time>2021-04-06T09:46:02Z</time>
      </trkpt>
      <trkpt lat="56.71557" lon="-4.99166">
        <ele>21.3</ele>
        <time>2021-04-06T09:46:05Z</time>
      </trkpt>
      <trkpt lat="56.7155" lon="-4.99221">
        <ele>19.04</ele>
        <time>2021-04-06T09:46:08Z</time>
      </trkpt>
      <trkpt lat="56.71537" lon="-4.99351">
        <ele>14.15</ele>
        <time>2021-04-06T09:46:11Z</time>
      </trkpt>
      <trkpt lat="56.71529" lon="-4.99405">
        <ele>15.1</ele>
        <time>2021-04-06T09:46:14Z</time>
      </trkpt>
      <trkpt lat="56.71514" lon="-4.99458">
        <ele>17.85</ele>
        <time>2021-04-06T09:46:17Z</time>
      </trkpt>
      <trkpt lat="56.71496" lon="-4.99498">
        <ele>17.9</ele>
        <time>2021-04-06T09:46:20Z</time>
      </trkpt>
      <trkpt lat="56.71465" lon="-4.99549">
        <ele>17.98</ele>
        <time>2021-04-06T09:46:23Z</time>
      </trkpt>
      <trkpt lat="56.71451" lon="-4.99587">
        <ele>18.37</ele>
        <time>2021-04-06T09:46:26Z</time>
      </trkpt>
      <trkpt lat="56.71443" lon="-4.99638">
        <ele>18.59</ele>
        <time>2021-04-06T09:46:29Z</time>
      </trkpt>
      <trkpt lat="56.71432" lon="-4.9974">
        <ele>17.62</ele>
        <time>2021-04-06T09:46:32Z</time>
      </trkpt>
      <trkpt lat="56.71423" lon="-4.99793">
        <ele>15.52</ele>
        <time>2021-04-06T09:46:35Z</time>
      </trkpt>
      <trkpt lat="56.71421" lon="-4.99831">
        <ele>15.11</ele>
        <time>2021-04-06T09:46:38Z</time>
      </trkpt>
      <trkpt lat="56.71426" lon="-4.99869">
        <ele>16.68</ele>
        <time>2021-04-06T09:46:41Z</time>
      </trkpt>
      <trkpt lat="56.71426" lon="-4.99899">
        <ele>16.8</ele>
        <time>2021-04-06T09:46:44Z</time>
      </trkpt>
      <trkpt lat="56.71421" lon="-4.9993">
        <ele>15.49</ele>
        <time>2021-04-06T09:46:47Z</time>
      </trkpt>
      <trkpt lat="56.71397" lon="-5.00006">
        <ele>12.26</ele>
        <time>2021-04-06T09:46:50Z</time>
      </trkpt>
      <trkpt lat="56.71378" lon="-5.00086">
        <ele>9.82</ele>
        <time>2021-04-06T09:46:53Z</time>
      </trkpt>
      <trkpt lat="56.71352" lon="-5.00211">
        <ele>9.36</ele>
        <time>2021-04-06T09:46:56Z</time>
      </trkpt>
      <trkpt lat="56.71343" lon="-5.00275">
        <ele>9.73</ele>
        <time>2021-04-06T09:46:59Z</time>
      </trkpt>
      <trkpt lat="56.7134" lon="-5.00503">
        <ele>6.63</ele>
        <time>2021-04-06T09:47:02Z</time>
      </trkpt>
      <trkpt lat="56.71345" lon="-5.00562">
        <ele>5.96</ele>
        <time>2021-04-06T09:47:05Z</time>
      </trkpt>
      <trkpt lat="56.71358" lon="-5.00603">
        <ele>5.16</ele>
        <time>2021-04-06T09:47:08Z</time>
      </trkpt>
      <trkpt lat="56.71375" lon="-5.00633">
        <ele>4.71</ele>
        <time>2021-04-06T09:47:11Z</time>
      </trkpt>
      <trkpt lat="56.71442" lon="-5.00742">
        <ele>7.53</ele>
        <time>2021-04-06T09:47:14Z</time>
      </trkpt>
      <trkpt lat="56.71454" lon="-5.00789">
        <ele>11.15</ele>
        <time>2021-04-06T09:47:17Z</time>
      </trkpt>
      <trkpt lat="56.71454" lon="-5.00837">
        <ele>13.07</ele>
        <time>2021-04-06T09:47:21Z</time>
      </trkpt>
      <trkpt lat="56.71444" lon="-5.00884">
        <ele>10.9</ele>
        <time>2021-04-06T09:47:24Z</time>
      </trkpt>
      <trkpt lat="56.71412" lon="-5.00986">
        <ele>7.65</ele>
        <time>2021-04-06T09:47:27Z</time>
      </trkpt>
      <trkpt lat="56.71408" lon="-5.01033">
        <ele>8.86</ele>
        <time>2021-04-06T09:47:30Z</time>
      </trkpt>
      <trkpt lat="56.71414" lon="-5.01073">
        <ele>9.02</ele>
        <time>2021-04-06T09:47:33Z</time>
      </trkpt>
      <trkpt lat="56.71432" lon="-5.01166">
        <ele>13.47</ele>
        <time>2021-04-06T09:47:36Z</time>
      </trkpt>
      <trkpt lat="56.7144" lon="-5.01215">
        <ele>14.8</ele>
        <time>2021-04-06T09:47:39Z</time>
      </trkpt>
      <trkpt lat="56.71441" lon="-5.01258">
        <ele>17.39</ele>
        <time>2021-04-06T09:47:42Z</time>
      </trkpt>
      <trkpt lat="56.71429" lon="-5.01324">
        <ele>16.75</ele>
        <time>2021-04-06T09:47:45Z</time>
      </trkpt>
      <trkpt lat="56.71403" lon="-5.01414">
        <ele>14.41</ele>
        <time>2021-04-06T09:47:48Z</time>
      </trkpt>
      <trkpt lat="56.71355" lon="-5.01535">
        <ele>16.39</ele>
        <time>2021-04-06T09:47:51Z</time>
      </trkpt>
      <trkpt lat="56.71318" lon="-5.01638">
        <ele>20.57</ele>
        <time>2021-04-06T09:47:54Z</time>
      </trkpt>
      <trkpt lat="56.71279" lon="-5.01715">
        <ele>9.07</ele>
        <time>2021-04-06T09:47:57Z</time>
      </trkpt>
      <trkpt lat="56.71248" lon="-5.01783">
        <ele>11.43</ele>
        <time>2021-04-06T09:48:00Z</time>
      </trkpt>
      <trkpt lat="56.71213" lon="-5.01882">
        <ele>14.21</ele>
        <time>2021-04-06T09:48:03Z</time>
      </trkpt>
      <trkpt lat="56.71196" lon="-5.01938">
        <ele>13.78</ele>
        <time>2021-04-06T09:48:06Z</time>
      </trkpt>
      <trkpt lat="56.71169" lon="-5.02003">
        <ele>11.57</ele>
        <time>2021-04-06T09:48:09Z</time>
      </trkpt>
      <trkpt lat="56.71157" lon="-5.02046">
        <ele>10.55</ele>
        <time>2021-04-06T09:48:12Z</time>
      </trkpt>
      <trkpt lat="56.71153" lon="-5.02103">
        <ele>7.34</ele>
        <time>2021-04-06T09:48:15Z</time>
      </trkpt>
      <trkpt lat="56.71154" lon="-5.02176">
        <ele>4.24</ele>
        <time>2021-04-06T09:48:18Z</time>
      </trkpt>
      <trkpt lat="56.71151" lon="-5.02352">
        <ele>10.28</ele>
        <time>2021-04-06T09:48:21Z</time>
      </trkpt>
      <trkpt lat="56.71151" lon="-5.02352">
        <ele>10.28</ele>
        <time>2021-04-06T09:48:21Z</time>
      </trkpt>
      <trkpt lat="56.71154" lon="-5.02176">
        <ele>4.24</ele>
        <time>2021-04-06T09:48:24Z</time>
      </trkpt>
      <trkpt lat="56.71153" lon="-5.02103">
        <ele>7.34</ele>
        <time>2021-04-06T09:48:27Z</time>
      </trkpt>
      <trkpt lat="56.71157" lon="-5.02046">
        <ele>10.55</ele>
        <time>2021-04-06T09:48:30Z</time>
      </trkpt>
      <trkpt lat="56.71169" lon="-5.02003">
        <ele>11.57</ele>
        <time>2021-04-06T09:48:34Z</time>
      </trkpt>
      <trkpt lat="56.71196" lon="-5.01938">
        <ele>13.78</ele>
        <time>2021-04-06T09:48:37Z</time>
      </trkpt>
      <trkpt lat="56.71213" lon="-5.01882">
        <ele>14.21</ele>
        <time>2021-04-06T09:48:40Z</time>
      </trkpt>
      <trkpt lat="56.71248" lon="-5.01783">
        <ele>11.43</ele>
        <time>2021-04-06T09:48:43Z</time>
      </trkpt>
      <trkpt lat="56.71279" lon="-5.01715">
        <ele>9.07</ele>
        <time>2021-04-06T09:48:46Z</time>
      </trkpt>
      <trkpt lat="56.71318" lon="-5.01638">
        <ele>20.57</ele>
        <time>2021-04-06T09:48:49Z</time>
      </trkpt>
      <trkpt lat="56.71355" lon="-5.01535">
        <ele>16.39</ele>
        <time>2021-04-06T09:48:52Z</time>
      </trkpt>
      <trkpt lat="56.71403" lon="-5.01414">
        <ele>14.41</ele>
        <time>2021-04-06T09:48:55Z</time>
      </trkpt>
      <trkpt lat="56.71429" lon="-5.01324">
        <ele>16.75</ele>
        <time>2021-04-06T09:48:58Z</time>
      </trkpt>
      <trkpt lat="56.71441" lon="-5.01258">
        <ele>17.39</ele>
        <time>2021-04-06T09:49:01Z</time>
      </trkpt>
      <trkpt lat="56.7144" lon="-5.01215">
        <ele>14.8</ele>
        <time>2021-04-06T09:49:05Z</time>
      </trkpt>
      <trkpt lat="56.71432" lon="-5.01166">
        <ele>13.47</ele>
        <time>2021-04-06T09:49:08Z</time>
      </trkpt>
      <trkpt lat="56.71414" lon="-5.01073">
        <ele>9.02</ele>
        <time>2021-04-06T09:49:11Z</time>
      </trkpt>
      <trkpt lat="56.71408" lon="-5.01033">
        <ele>8.86</ele>
        <time>2021-04-06T09:49:14Z</time>
      </trkpt>
      <trkpt lat="56.71412" lon="-5.00986">
        <ele>7.65</ele>
        <time>2021-04-06T09:49:17Z</time>
      </trkpt>
      <trkpt lat="56.71444" lon="-5.00884">
        <ele>10.9</ele>
        <time>2021-04-06T09:49:20Z</time>
      </trkpt>
      <trkpt lat="56.71454" lon="-5.00837">
        <ele>13.07</ele>
        <time>2021-04-06T09:49:23Z</time>
      </trkpt>
      <trkpt lat="56.71454" lon="-5.00789">
        <ele>11.15</ele>
        <time>2021-04-06T09:49:26Z</time>
      </trkpt>
      <trkpt lat="56.71442" lon="-5.00742">
        <ele>7.53</ele>
        <time>2021-04-06T09:49:29Z</time>
      </trkpt>
      <trkpt lat="56.71375" lon="-5.00633">
        <ele>4.71</ele>
        <time>2021-04-06T09:49:33Z</time>
      </trkpt>
      <trkpt lat="56.71358" lon="-5.00603">
        <ele>5.16</ele>
        <time>2021-04-06T09:49:36Z</time>
      </trkpt>
      <trkpt lat="56.71345" lon="-5.00562">
        <ele>5.96</ele>
        <time>2021-04-06T09:49:39Z</time>
      </trkpt>
      <trkpt lat="56.7134" lon="-5.00503">
        <ele>6.63</ele>
        <time>2021-04-06T09:49:42Z</time>
      </trkpt>
      <trkpt lat="56.71343" lon="-5.00275">
        <ele>9.73</ele>
        <time>2021-04-06T09:49:45Z</time>
      </trkpt>
      <trkpt lat="56.71352" lon="-5.00211">
        <ele>9.36</ele>
        <time>2021-04-06T09:49:48Z</time>
      </trkpt>
      <trkpt lat="56.71378" lon="-5.00086">
        <ele>9.82</ele>
        <time>2021-04-06T09:49:51Z</time>
      </trkpt>
      <trkpt lat="56.71397" lon="-5.00006">
        <ele>12.26</ele>
        <time>2021-04-06T09:49:54Z</time>
      </trkpt>
      <trkpt lat="56.71421" lon="-4.9993">
        <ele>15.49</ele>
        <time>2021-04-06T09:49:57Z</time>
      </trkpt>
      <trkpt lat="56.71426" lon="-4.99899">
        <ele>16.8</ele>
        <time>2021-04-06T09:50:00Z</time>
      </trkpt>
      <trkpt lat="56.71426" lon="-4.99869">
        <ele>16.68</ele>
        <time>2021-04-06T09:50:04Z</time>
      </trkpt>
      <trkpt lat="56.71421" lon="-4.99831">
        <ele>15.11</ele>
        <time>2021-04-06T09:50:07Z</time>
      </trkpt>
      <trkpt lat="56.71423" lon="-4.99793">
        <ele>15.52</ele>
        <time>2021-04-06T09:50:10Z</time>
      </trkpt>
      <trkpt lat="56.71432" lon="-4.9974">
        <ele>17.62</ele>
        <time>2021-04-06T09:50:13Z</time>
      </trkpt>
      <trkpt lat="56.71443" lon="-4.99638">
        <ele>18.59</ele>
        <time>2021-04-06T09:50:16Z</time>
      </trkpt>
      <trkpt lat="56.71451" lon="-4.99587">
        <ele>18.37</ele>
        <time>2021-04-06T09:50:19Z</time>
      </trkpt>
      <trkpt lat="56.71465" lon="-4.99549">
        <ele>17.98</ele>
        <time>2021-04-06T09:50:22Z</time>
      </trkpt>
      <trkpt lat="56.71496" lon="-4.99498">
        <ele>17.9</ele>
        <time>2021-04-06T09:50:25Z</time>
      </trkpt>
      <trkpt lat="56.71514" lon="-4.99458">
        <ele>17.85</ele>
        <time>2021-04-06T09:50:28Z</time>
      </trkpt>
      <trkpt lat="56.71529" lon="-4.99405">
        <ele>15.1</ele>
        <time>2021-04-06T09:50:31Z</time>
      </trkpt>
      <trkpt lat="56.71537" lon="-4.99351">
        <ele>14.15</ele>
        <time>2021-04-06T09:50:35Z</time>
      </trkpt>
      <trkpt lat="56.7155" lon="-4.99221">
        <ele>19.04</ele>
        <time>2021-04-06T09:50:38Z</time>
      </trkpt>
      <trkpt lat="56.71557" lon="-4.99166">
        <ele>21.3</ele>
        <time>2021-04-06T09:50:41Z</time>
      </trkpt>
      <trkpt lat="56.71568" lon="-4.99124">
        <ele>24.36</ele>
        <time>2021-04-06T09:50:44Z</time>
      </trkpt>
      <trkpt lat="56.71594" lon="-4.99054">
        <ele>26.44</ele>
        <time>2021-04-06T09:50:47Z</time>
      </trkpt>
      <trkpt lat="56.71606" lon="-4.99">
        <ele>23.84</ele>
        <time>2021-04-06T09:50:50Z</time>
      </trkpt>
      <trkpt lat="56.71619" lon="-4.98889">
        <ele>25.56</ele>
        <time>2021-04-06T09:50:53Z</time>
      </trkpt>
      <trkpt lat="56.71629" lon="-4.98857">
        <ele>25.52</ele>
        <time>2021-04-06T09:50:56Z</time>
      </trkpt>
      <trkpt lat="56.71665" lon="-4.98793">
        <ele>24.51</ele>
        <time>2021-04-06T09:50:59Z</time>
      </trkpt>
      <trkpt lat="56.7168" lon="-4.98749">
        <ele>24.4</ele>
        <time>2021-04-06T09:51:02Z</time>
      </trkpt>
      <trkpt lat="56.71692" lon="-4.98699">
        <ele>24.49</ele>
        <time>2021-04-06T09:51:06Z</time>
      </trkpt>
      <trkpt lat="56.71694" lon="-4.98661">
        <ele>23.89</ele>
        <time>2021-04-06T09:51:09Z</time>
      </trkpt>
      <trkpt lat="56.71689" lon="-4.98579">
        <ele>23.11</ele>
        <time>2021-04-06T09:51:12Z</time>
      </trkpt>
      <trkpt lat="56.71683" lon="-4.98528">
        <ele>22.18</ele>
        <time>2021-04-06T09:51:15Z</time>
      </trkpt>
      <trkpt lat="56.71667" lon="-4.98464">
        <ele>22.32</ele>
        <time>2021-04-06T09:51:18Z</time>
      </trkpt>
      <trkpt lat="56.71633" lon="-4.98352">
        <ele>21.74</ele>
        <time>2021-04-06T09:51:21Z</time>
      </trkpt>
      <trkpt lat="56.71627" lon="-4.98315">
        <ele>22.12</ele>
        <time>2021-04-06T09:51:24Z</time>
      </trkpt>
      <trkpt lat="56.71628" lon="-4.98279">
        <ele>22.77</ele>
        <time>2021-04-06T09:51:27Z</time>
      </trkpt>
      <trkpt lat="56.71643" lon="-4.98214">
        <ele>23.65</ele>
        <time>2021-04-06T09:51:30Z</time>
      </trkpt>
      <trkpt lat="56.71647" lon="-4.98183">
        <ele>24.43</ele>
        <time>2021-04-06T09:51:34Z</time>
      </trkpt>
      <trkpt lat="56.71647" lon="-4.98152">
        <ele>24.44</ele>
        <time>2021-04-06T09:51:37Z</time>
      </trkpt>
      <trkpt lat="56.71625" lon="-4.97979">
        <ele>21.09</ele>
        <time>2021-04-06T09:51:40Z</time>
      </trkpt>
      <trkpt lat="56.7162" lon="-4.97911">
        <ele>19.09</ele>
        <time>2021-04-06T09:51:43Z</time>
      </trkpt>
      <trkpt lat="56.71618" lon="-4.97783">
        <ele>16.51</ele>
        <time>2021-04-06T09:51:46Z</time>
      </trkpt>
      <trkpt lat="56.71624" lon="-4.97732">
        <ele>15.31</ele>
        <time>2021-04-06T09:51:49Z</time>
      </trkpt>
      <trkpt lat="56.71656" lon="-4.97639">
        <ele>12.65</ele>
        <time>2021-04-06T09:51:52Z</time>
      </trkpt>
      <trkpt lat="56.71662" lon="-4.97609">
        <ele>11.9</ele>
        <time>2021-04-06T09:51:55Z</time>
      </trkpt>
      <trkpt lat="56.71664" lon="-4.97572">
        <ele>12.06</ele>
        <time>2021-04-06T09:51:58Z</time>
      </trkpt>
      <trkpt lat="56.71663" lon="-4.97467">
        <ele>11.26</ele>
        <time>2021-04-06T09:52:01Z</time>
      </trkpt>
      <trkpt lat="56.7166" lon="-4.97384">
        <ele>9.08</ele>
        <time>2021-04-06T09:52:05Z</time>
      </trkpt>
      <trkpt lat="56.71662" lon="-4.97301">
        <ele>10.2</ele>
        <time>2021-04-06T09:52:08Z</time>
      </trkpt>
      <trkpt lat="56.71673" lon="-4.97102">
        <ele>10.93</ele>
        <time>2021-04-06T09:52:11Z</time>
      </trkpt>
      <trkpt lat="56.71678" lon="-4.97047">
        <ele>12.19</ele>
        <time>2021-04-06T09:52:14Z</time>
      </trkpt>
      <trkpt lat="56.71688" lon="-4.96938">
        <ele>14.1</ele>
        <time>2021-04-06T09:52:17Z</time>
      </trkpt>
      <trkpt lat="56.71695" lon="-4.96902">
        <ele>15.14</ele>
        <time>2021-04-06T09:52:20Z</time>
      </trkpt>
      <trkpt lat="56.71719" lon="-4.96821">
        <ele>19.37</ele>
        <time>2021-04-06T09:52:23Z</time>
      </trkpt>
      <trkpt lat="56.71728" lon="-4.9677">
        <ele>22.03</ele>
        <time>2021-04-06T09:52:26Z</time>
      </trkpt>
      <trkpt lat="56.71732" lon="-4.96716">
        <ele>24.7</ele>
        <time>2021-04-06T09:52:29Z</time>
      </trkpt>
      <trkpt lat="56.71731" lon="-4.96687">
        <ele>24.45</ele>
        <time>2021-04-06T09:52:32Z</time>
      </trkpt>
      <trkpt lat="56.71727" lon="-4.96659">
        <ele>22.84</ele>
        <time>2021-04-06T09:52:36Z</time>
      </trkpt>
      <trkpt lat="56.71719" lon="-4.96638">
        <ele>20.42</ele>
        <time>2021-04-06T09:52:39Z</time>
      </trkpt>
      <trkpt lat="56.71708" lon="-4.96614">
        <ele>18.5</ele>
        <time>2021-04-06T09:52:42Z</time>
      </trkpt>
      <trkpt lat="56.71659" lon="-4.96551">
        <ele>15.47</ele>
        <time>2021-04-06T09:52:45Z</time>
      </trkpt>
      <trkpt lat="56.71537" lon="-4.96402">
        <ele>13.79</ele>
        <time>2021-04-06T09:52:48Z</time>
      </trkpt>
      <trkpt lat="56.71537" lon="-4.96402">
        <ele>13.79</ele>
        <time>2021-04-06T09:52:48Z</time>
      </trkpt>
      <trkpt lat="56.71476" lon="-4.96334">
        <ele>13.4</ele>
        <time>2021-04-06T09:52:51Z</time>
      </trkpt>
      <trkpt lat="56.71424" lon="-4.963">
        <ele>10.71</ele>
        <time>2021-04-06T09:52:54Z</time>
      </trkpt>
      <trkpt lat="56.71389" lon="-4.96286">
        <ele>9.72</ele>
        <time>2021-04-06T09:52:57Z</time>
      </trkpt>
      <trkpt lat="56.71365" lon="-4.96289">
        <ele>10.45</ele>
        <time>2021-04-06T09:53:00Z</time>
      </trkpt>
      <trkpt lat="56.71353" lon="-4.96297">
        <ele>10.51</ele>
        <time>2021-04-06T09:53:03Z</time>
      </trkpt>
      <trkpt lat="56.71339" lon="-4.96316">
        <ele>10.74</ele>
        <time>2021-04-06T09:53:06Z</time>
      </trkpt>
      <trkpt lat="56.71332" lon="-4.96333">
        <ele>11.07</ele>
        <time>2021-04-06T09:53:09Z</time>
      </trkpt>
      <trkpt lat="56.71322" lon="-4.96369">
        <ele>10.81</ele>
        <time>2021-04-06T09:53:12Z</time>
      </trkpt>
      <trkpt lat="56.71312" lon="-4.96427">
        <ele>10.57</ele>
        <time>2021-04-06T09:53:15Z</time>
      </trkpt>
      <trkpt lat="56.71301" lon="-4.96531">
        <ele>9</ele>
        <time>2021-04-06T09:53:18Z</time>
      </trkpt>
      <trkpt lat="56.71298" lon="-4.96602">
        <ele>8.28</ele>
        <time>2021-04-06T09:53:21Z</time>
      </trkpt>
      <trkpt lat="56.713" lon="-4.96659">
        <ele>8.21</ele>
        <time>2021-04-06T09:53:24Z</time>
      </trkpt>
      <trkpt lat="56.71306" lon="-4.96732">
        <ele>9.33</ele>
        <time>2021-04-06T09:53:27Z</time>
      </trkpt>
      <trkpt lat="56.71317" lon="-4.96802">
        <ele>9.73</ele>
        <time>2021-04-06T09:53:30Z</time>
      </trkpt>
      <trkpt lat="56.71324" lon="-4.96859">
        <ele>11.48</ele>
        <time>2021-04-06T09:53:33Z</time>
      </trkpt>
      <trkpt lat="56.71328" lon="-4.9691">
        <ele>13.24</ele>
        <time>2021-04-06T09:53:36Z</time>
      </trkpt>
      <trkpt lat="56.71333" lon="-4.97026">
        <ele>17.05</ele>
        <time>2021-04-06T09:53:39Z</time>
      </trkpt>
      <trkpt lat="56.7133" lon="-4.97054">
        <ele>17.94</ele>
        <time>2021-04-06T09:53:42Z</time>
      </trkpt>
      <trkpt lat="56.71323" lon="-4.97078">
        <ele>18.72</ele>
        <time>2021-04-06T09:53:45Z</time>
      </trkpt>
      <trkpt lat="56.71312" lon="-4.97099">
        <ele>19.48</ele>
        <time>2021-04-06T09:53:48Z</time>
      </trkpt>
      <trkpt lat="56.71284" lon="-4.97134">
        <ele>20.99</ele>
        <time>2021-04-06T09:53:51Z</time>
      </trkpt>
      <trkpt lat="56.71271" lon="-4.9716">
        <ele>23.52</ele>
        <time>2021-04-06T09:53:54Z</time>
      </trkpt>
      <trkpt lat="56.71253" lon="-4.9724">
        <ele>30.87</ele>
        <time>2021-04-06T09:53:57Z</time>
      </trkpt>
      <trkpt lat="56.71241" lon="-4.97296">
        <ele>34.46</ele>
        <time>2021-04-06T09:54:00Z</time>
      </trkpt>
      <trkpt lat="56.71236" lon="-4.97331">
        <ele>36.59</ele>
        <time>2021-04-06T09:54:03Z</time>
      </trkpt>
      <trkpt lat="56.71236" lon="-4.97372">
        <ele>39.26</ele>
        <time>2021-04-06T09:54:06Z</time>
      </trkpt>
      <trkpt lat="56.71246" lon="-4.97465">
        <ele>40.41</ele>
        <time>2021-04-06T09:54:09Z</time>
      </trkpt>
      <trkpt lat="56.71247" lon="-4.97491">
        <ele>39.78</ele>
        <time>2021-04-06T09:54:12Z</time>
      </trkpt>
      <trkpt lat="56.71244" lon="-4.97515">
        <ele>38.42</ele>
        <time>2021-04-06T09:54:15Z</time>
      </trkpt>
      <trkpt lat="56.71236" lon="-4.97532">
        <ele>38.52</ele>
        <time>2021-04-06T09:54:18Z</time>
      </trkpt>
      <trkpt lat="56.71181" lon="-4.97594">
        <ele>47.07</ele>
        <time>2021-04-06T09:54:21Z</time>
      </trkpt>
      <trkpt lat="56.71167" lon="-4.97624">
        <ele>50.3</ele>
        <time>2021-04-06T09:54:24Z</time>
      </trkpt>
      <trkpt lat="56.71159" lon="-4.97652">
        <ele>54.36</ele>
        <time>2021-04-06T09:54:27Z</time>
      </trkpt>
      <trkpt lat="56.71161" lon="-4.97697">
        <ele>55.03</ele>
        <time>2021-04-06T09:54:30Z</time>
      </trkpt>
      <trkpt lat="56.71168" lon="-4.97784">
        <ele>55.17</ele>
        <time>2021-04-06T09:54:33Z</time>
      </trkpt>
      <trkpt lat="56.71168" lon="-4.97823">
        <ele>59.39</ele>
        <time>2021-04-06T09:54:36Z</time>
      </trkpt>
      <trkpt lat="56.7117" lon="-4.97855">
        <ele>60.25</ele>
        <time>2021-04-06T09:54:39Z</time>
      </trkpt>
      <trkpt lat="56.71181" lon="-4.97901">
        <ele>59.2</ele>
        <time>2021-04-06T09:54:42Z</time>
      </trkpt>
      <trkpt lat="56.71201" lon="-4.98034">
        <ele>62.08</ele>
        <time>2021-04-06T09:54:45Z</time>
      </trkpt>
      <trkpt lat="56.71202" lon="-4.98061">
        <ele>60.76</ele>
        <time>2021-04-06T09:54:48Z</time>
      </trkpt>
      <trkpt lat="56.71202" lon="-4.98096">
        <ele>62.59</ele>
        <time>2021-04-06T09:54:51Z</time>
      </trkpt>
      <trkpt lat="56.71199" lon="-4.98129">
        <ele>63.75</ele>
        <time>2021-04-06T09:54:54Z</time>
      </trkpt>
      <trkpt lat="56.71186" lon="-4.98173">
        <ele>61.96</ele>
        <time>2021-04-06T09:54:57Z</time>
      </trkpt>
      <trkpt lat="56.71162" lon="-4.9824">
        <ele>64.16</ele>
        <time>2021-04-06T09:55:00Z</time>
      </trkpt>
      <trkpt lat="56.71152" lon="-4.9826">
        <ele>64.49</ele>
        <time>2021-04-06T09:55:03Z</time>
      </trkpt>
      <trkpt lat="56.71095" lon="-4.98329">
        <ele>71.18</ele>
        <time>2021-04-06T09:55:06Z</time>
      </trkpt>
      <trkpt lat="56.71081" lon="-4.98361">
        <ele>71.8</ele>
        <time>2021-04-06T09:55:09Z</time>
      </trkpt>
      <trkpt lat="56.7107" lon="-4.98396">
        <ele>73.79</ele>
        <time>2021-04-06T09:55:12Z</time>
      </trkpt>
      <trkpt lat="56.71067" lon="-4.98424">
        <ele>73.29</ele>
        <time>2021-04-06T09:55:15Z</time>
      </trkpt>
      <trkpt lat="56.71067" lon="-4.98609">
        <ele>68.95</ele>
        <time>2021-04-06T09:55:18Z</time>
      </trkpt>
      <trkpt lat="56.71066" lon="-4.98658">
        <ele>70.48</ele>
        <time>2021-04-06T09:55:21Z</time>
      </trkpt>
      <trkpt lat="56.71057" lon="-4.98851">
        <ele>71.8</ele>
        <time>2021-04-06T09:55:24Z</time>
      </trkpt>
      <trkpt lat="56.71044" lon="-4.99018">
        <ele>68.74</ele>
        <time>2021-04-06T09:55:27Z</time>
      </trkpt>
      <trkpt lat="56.71039" lon="-4.99063">
        <ele>67.15</ele>
        <time>2021-04-06T09:55:30Z</time>
      </trkpt>
      <trkpt lat="56.71028" lon="-4.99093">
        <ele>65.5</ele>
        <time>2021-04-06T09:55:33Z</time>
      </trkpt>
      <trkpt lat="56.70979" lon="-4.99193">
        <ele>67.11</ele>
        <time>2021-04-06T09:55:36Z</time>
      </trkpt>
      <trkpt lat="56.70969" lon="-4.99221">
        <ele>68.57</ele>
        <time>2021-04-06T09:55:39Z</time>
      </trkpt>
      <trkpt lat="56.70966" lon="-4.99256">
        <ele>68.68</ele>
        <time>2021-04-06T09:55:42Z</time>
      </trkpt>
      <trkpt lat="56.70967" lon="-4.99319">
        <ele>69.64</ele>
        <time>2021-04-06T09:55:45Z</time>
      </trkpt>
      <trkpt lat="56.70973" lon="-4.99392">
        <ele>71.15</ele>
        <time>2021-04-06T09:55:48Z</time>
      </trkpt>
      <trkpt lat="56.70991" lon="-4.995">
        <ele>70.86</ele>
        <time>2021-04-06T09:55:51Z</time>
      </trkpt>
      <trkpt lat="56.70995" lon="-4.99535">
        <ele>69.12</ele>
        <time>2021-04-06T09:55:54Z</time>
      </trkpt>
      <trkpt lat="56.70992" lon="-4.99576">
        <ele>69.03</ele>
        <time>2021-04-06T09:55:57Z</time>
      </trkpt>
      <trkpt lat="56.70986" lon="-4.99632">
        <ele>69.21</ele>
        <time>2021-04-06T09:56:00Z</time>
      </trkpt>
      <trkpt lat="56.70978" lon="-4.99735">
        <ele>68.2</ele>
        <time>2021-04-06T09:56:03Z</time>
      </trkpt>
      <trkpt lat="56.70972" lon="-4.99772">
        <ele>67.42</ele>
        <time>2021-04-06T09:56:06Z</time>
      </trkpt>
      <trkpt lat="56.70949" lon="-4.9982">
        <ele>69.97</ele>
        <time>2021-04-06T09:56:09Z</time>
      </trkpt>
      <trkpt lat="56.70943" lon="-4.99844">
        <ele>70.22</ele>
        <time>2021-04-06T09:56:12Z</time>
      </trkpt>
      <trkpt lat="56.70944" lon="-4.9987">
        <ele>69.34</ele>
        <time>2021-04-06T09:56:15Z</time>
      </trkpt>
      <trkpt lat="56.7095" lon="-4.99954">
        <ele>67.04</ele>
        <time>2021-04-06T09:56:18Z</time>
      </trkpt>
      <trkpt lat="56.70952" lon="-4.99997">
        <ele>65.32</ele>
        <time>2021-04-06T09:56:21Z</time>
      </trkpt>
      <trkpt lat="56.70942" lon="-5.00096">
        <ele>64.19</ele>
        <time>2021-04-06T09:56:24Z</time>
      </trkpt>
      <trkpt lat="56.70939" lon="-5.00153">
        <ele>61.94</ele>
        <time>2021-04-06T09:56:27Z</time>
      </trkpt>
      <trkpt lat="56.70938" lon="-5.00268">
        <ele>60.33</ele>
        <time>2021-04-06T09:56:30Z</time>
      </trkpt>
      <trkpt lat="56.70933" lon="-5.0029">
        <ele>61.34</ele>
        <time>2021-04-06T09:56:33Z</time>
      </trkpt>
      <trkpt lat="56.70925" lon="-5.0031">
        <ele>62.49</ele>
        <time>2021-04-06T09:56:36Z</time>
      </trkpt>
      <trkpt lat="56.7085" lon="-5.00429">
        <ele>58.52</ele>
        <time>2021-04-06T09:56:39Z</time>
      </trkpt>
      <trkpt lat="56.70735" lon="-5.00679">
        <ele>48.21</ele>
        <time>2021-04-06T09:56:42Z</time>
      </trkpt>
      <trkpt lat="56.70712" lon="-5.00744">
        <ele>47.42</ele>
        <time>2021-04-06T09:56:45Z</time>
      </trkpt>
      <trkpt lat="56.70688" lon="-5.00853">
        <ele>45.31</ele>
        <time>2021-04-06T09:56:48Z</time>
      </trkpt>
      <trkpt lat="56.70683" lon="-5.00908">
        <ele>45.19</ele>
        <time>2021-04-06T09:56:51Z</time>
      </trkpt>
      <trkpt lat="56.70692" lon="-5.01063">
        <ele>38.85</ele>
        <time>2021-04-06T09:56:54Z</time>
      </trkpt>
      <trkpt lat="56.707" lon="-5.01143">
        <ele>32.85</ele>
        <time>2021-04-06T09:56:57Z</time>
      </trkpt>
      <trkpt lat="56.70701" lon="-5.01181">
        <ele>30.72</ele>
        <time>2021-04-06T09:57:00Z</time>
      </trkpt>
      <trkpt lat="56.70689" lon="-5.01264">
        <ele>31.14</ele>
        <time>2021-04-06T09:57:03Z</time>
      </trkpt>
      <trkpt lat="56.7068" lon="-5.01337">
        <ele>30.77</ele>
        <time>2021-04-06T09:57:06Z</time>
      </trkpt>
      <trkpt lat="56.70667" lon="-5.01572">
        <ele>23.92</ele>
        <time>2021-04-06T09:57:09Z</time>
      </trkpt>
      <trkpt lat="56.7066" lon="-5.01618">
        <ele>20.7</ele>
        <time>2021-04-06T09:57:12Z</time>
      </trkpt>
      <trkpt lat="56.7062" lon="-5.01737">
        <ele>18.43</ele>
        <time>2021-04-06T09:57:15Z</time>
      </trkpt>
      <trkpt lat="56.70613" lon="-5.01773">
        <ele>17.8</ele>
        <time>2021-04-06T09:57:18Z</time>
      </trkpt>
      <trkpt lat="56.70611" lon="-5.01807">
        <ele>19.01</ele>
        <time>2021-04-06T09:57:21Z</time>
      </trkpt>
      <trkpt lat="56.7064" lon="-5.02028">
        <ele>10.73</ele>
        <time>2021-04-06T09:57:24Z</time>
      </trkpt>
      <trkpt lat="56.70641" lon="-5.02099">
        <ele>11.61</ele>
        <time>2021-04-06T09:57:27Z</time>
      </trkpt>
      <trkpt lat="56.70637" lon="-5.02169">
        <ele>11.43</ele>
        <time>2021-04-06T09:57:30Z</time>
      </trkpt>
      <trkpt lat="56.70608" lon="-5.02323">
        <ele>7.76</ele>
        <time>2021-04-06T09:57:33Z</time>
      </trkpt>
      <trkpt lat="56.70579" lon="-5.02431">
        <ele>12.33</ele>
        <time>2021-04-06T09:57:36Z</time>
      </trkpt>
      <trkpt lat="56.70549" lon="-5.02496">
        <ele>13.01</ele>
        <time>2021-04-06T09:57:39Z</time>
      </trkpt>
      <trkpt lat="56.7045" lon="-5.02656">
        <ele>18.33</ele>
        <time>2021-04-06T09:57:42Z</time>
      </trkpt>
      <trkpt lat="56.70431" lon="-5.02707">
        <ele>20.43</ele>
        <time>2021-04-06T09:57:45Z</time>
      </trkpt>
      <trkpt lat="56.70407" lon="-5.02806">
        <ele>23.84</ele>
        <time>2021-04-06T09:57:48Z</time>
      </trkpt>
      <trkpt lat="56.704" lon="-5.02851">
        <ele>26.33</ele>
        <time>2021-04-06T09:57:51Z</time>
      </trkpt>
      <trkpt lat="56.70383" lon="-5.02998">
        <ele>28.76</ele>
        <time>2021-04-06T09:57:54Z</time>
      </trkpt>
      <trkpt lat="56.70371" lon="-5.03151">
        <ele>34.16</ele>
        <time>2021-04-06T09:57:57Z</time>
      </trkpt>
      <trkpt lat="56.70359" lon="-5.03214">
        <ele>33.44</ele>
        <time>2021-04-06T09:58:00Z</time>
      </trkpt>
      <trkpt lat="56.70338" lon="-5.03272">
        <ele>36.22</ele>
        <time>2021-04-06T09:58:03Z</time>
      </trkpt>
      <trkpt lat="56.70231" lon="-5.03449">
        <ele>40.81</ele>
        <time>2021-04-06T09:58:06Z</time>
      </trkpt>
      <trkpt lat="56.70215" lon="-5.03472">
        <ele>40.31</ele>
        <time>2021-04-06T09:58:09Z</time>
      </trkpt>
      <trkpt lat="56.70181" lon="-5.03497">
        <ele>40.19</ele>
        <time>2021-04-06T09:58:12Z</time>
      </trkpt>
      <trkpt lat="56.70164" lon="-5.0352">
        <ele>40.65</ele>
        <time>2021-04-06T09:58:15Z</time>
      </trkpt>
      <trkpt lat="56.70152" lon="-5.03568">
        <ele>40.63</ele>
        <time>2021-04-06T09:58:18Z</time>
      </trkpt>
      <trkpt lat="56.70151" lon="-5.03582">
        <ele>40.31</ele>
        <time>2021-04-06T09:58:21Z</time>
      </trkpt>
      <trkpt lat="56.70152" lon="-5.03704">
        <ele>38.18</ele>
        <time>2021-04-06T09:58:24Z</time>
      </trkpt>
      <trkpt lat="56.70149" lon="-5.03777">
        <ele>37.07</ele>
        <time>2021-04-06T09:58:27Z</time>
      </trkpt>
      <trkpt lat="56.70137" lon="-5.0387">
        <ele>34.71</ele>
        <time>2021-04-06T09:58:30Z</time>
      </trkpt>
      <trkpt lat="56.7012" lon="-5.03981">
        <ele>31.07</ele>
        <time>2021-04-06T09:58:33Z</time>
      </trkpt>
      <trkpt lat="56.70117" lon="-5.04031">
        <ele>31.15</ele>
        <time>2021-04-06T09:58:36Z</time>
      </trkpt>
      <trkpt lat="56.70119" lon="-5.04194">
        <ele>30.52</ele>
        <time>2021-04-06T09:58:39Z</time>
      </trkpt>
      <trkpt lat="56.70142" lon="-5.04347">
        <ele>33.02</ele>
        <time>2021-04-06T09:58:42Z</time>
      </trkpt>
      <trkpt lat="56.70156" lon="-5.04505">
        <ele>31.99</ele>
        <time>2021-04-06T09:58:45Z</time>
      </trkpt>
      <trkpt lat="56.70156" lon="-5.04572">
        <ele>33.76</ele>
        <time>2021-04-06T09:58:48Z</time>
      </trkpt>
      <trkpt lat="56.70133" lon="-5.04752">
        <ele>42.23</ele>
        <time>2021-04-06T09:58:51Z</time>
      </trkpt>
      <trkpt lat="56.70133" lon="-5.04835">
        <ele>43</ele>
        <time>2021-04-06T09:58:54Z</time>
      </trkpt>
      <trkpt lat="56.70137" lon="-5.04916">
        <ele>42.08</ele>
        <time>2021-04-06T09:58:58Z</time>
      </trkpt>
      <trkpt lat="56.70136" lon="-5.04983">
        <ele>40.77</ele>
        <time>2021-04-06T09:59:01Z</time>
      </trkpt>
      <trkpt lat="56.70127" lon="-5.05041">
        <ele>42.33</ele>
        <time>2021-04-06T09:59:04Z</time>
      </trkpt>
      <trkpt lat="56.70109" lon="-5.05105">
        <ele>45.9</ele>
        <time>2021-04-06T09:59:07Z</time>
      </trkpt>
      <trkpt lat="56.70042" lon="-5.05275">
        <ele>44.31</ele>
        <time>2021-04-06T09:59:10Z</time>
      </trkpt>
      <trkpt lat="56.70004" lon="-5.05407">
        <ele>44.47</ele>
        <time>2021-04-06T09:59:13Z</time>
      </trkpt>
      <trkpt lat="56.69962" lon="-5.056">
        <ele>45.89</ele>
        <time>2021-04-06T09:59:16Z</time>
      </trkpt>
      <trkpt lat="56.699" lon="-5.05794">
        <ele>48.22</ele>
        <time>2021-04-06T09:59:19Z</time>
      </trkpt>
      <trkpt lat="56.69862" lon="-5.05946">
        <ele>44.78</ele>
        <time>2021-04-06T09:59:22Z</time>
      </trkpt>
      <trkpt lat="56.69846" lon="-5.06041">
        <ele>48.7</ele>
        <time>2021-04-06T09:59:25Z</time>
      </trkpt>
      <trkpt lat="56.69848" lon="-5.06081">
        <ele>49.74</ele>
        <time>2021-04-06T09:59:28Z</time>
      </trkpt>
      <trkpt lat="56.69862" lon="-5.06138">
        <ele>50.71</ele>
        <time>2021-04-06T09:59:31Z</time>
      </trkpt>
      <trkpt lat="56.69866" lon="-5.06169">
        <ele>50.86</ele>
        <time>2021-04-06T09:59:34Z</time>
      </trkpt>
      <trkpt lat="56.69867" lon="-5.06208">
        <ele>51.17</ele>
        <time>2021-04-06T09:59:37Z</time>
      </trkpt>
      <trkpt lat="56.69855" lon="-5.06284">
        <ele>55.01</ele>
        <time>2021-04-06T09:59:40Z</time>
      </trkpt>
      <trkpt lat="56.69856" lon="-5.06311">
        <ele>55.86</ele>
        <time>2021-04-06T09:59:43Z</time>
      </trkpt>
      <trkpt lat="56.69877" lon="-5.0641">
        <ele>54.47</ele>
        <time>2021-04-06T09:59:46Z</time>
      </trkpt>
      <trkpt lat="56.69883" lon="-5.06476">
        <ele>54.55</ele>
        <time>2021-04-06T09:59:49Z</time>
      </trkpt>
      <trkpt lat="56.69885" lon="-5.06526">
        <ele>54.84</ele>
        <time>2021-04-06T09:59:52Z</time>
      </trkpt>
      <trkpt lat="56.69882" lon="-5.06579">
        <ele>56.58</ele>
        <time>2021-04-06T09:59:55Z</time>
      </trkpt>
      <trkpt lat="56.69867" lon="-5.06669">
        <ele>60.97</ele>
        <time>2021-04-06T09:59:58Z</time>
      </trkpt>
      <trkpt lat="56.69863" lon="-5.0671">
        <ele>63.94</ele>
        <time>2021-04-06T10:00:01Z</time>
      </trkpt>
      <trkpt lat="56.69864" lon="-5.06737">
        <ele>62.99</ele>
        <time>2021-04-06T10:00:04Z</time>
      </trkpt>
      <trkpt lat="56.69874" lon="-5.06796">
        <ele>57.77</ele>
        <time>2021-04-06T10:00:07Z</time>
      </trkpt>
      <trkpt lat="56.69875" lon="-5.06828">
        <ele>56.34</ele>
        <time>2021-04-06T10:00:10Z</time>
      </trkpt>
      <trkpt lat="56.69871" lon="-5.06849">
        <ele>55.19</ele>
        <time>2021-04-06T10:00:13Z</time>
      </trkpt>
      <trkpt lat="56.69863" lon="-5.0687">
        <ele>55.64</ele>
        <time>2021-04-06T10:00:16Z</time>
      </trkpt>
      <trkpt lat="56.6984" lon="-5.06914">
        <ele>57.62</ele>
        <time>2021-04-06T10:00:19Z</time>
      </trkpt>
      <trkpt lat="56.69821" lon="-5.06956">
        <ele>59.25</ele>
        <time>2021-04-06T10:00:22Z</time>
      </trkpt>
      <trkpt lat="56.69798" lon="-5.07032">
        <ele>58</ele>
        <time>2021-04-06T10:00:25Z</time>
      </trkpt>
      <trkpt lat="56.69753" lon="-5.07163">
        <ele>57.27</ele>
        <time>2021-04-06T10:00:28Z</time>
      </trkpt>
      <trkpt lat="56.69747" lon="-5.07204">
        <ele>55.27</ele>
        <time>2021-04-06T10:00:31Z</time>
      </trkpt>
      <trkpt lat="56.69748" lon="-5.07246">
        <ele>51.54</ele>
        <time>2021-04-06T10:00:34Z</time>
      </trkpt>
      <trkpt lat="56.69755" lon="-5.0735">
        <ele>44.36</ele>
        <time>2021-04-06T10:00:37Z</time>
      </trkpt>
      <trkpt lat="56.69753" lon="-5.074">
        <ele>44</ele>
        <time>2021-04-06T10:00:40Z</time>
      </trkpt>
      <trkpt lat="56.69724" lon="-5.07566">
        <ele>41.52</ele>
        <time>2021-04-06T10:00:43Z</time>
      </trkpt>
      <trkpt lat="56.69683" lon="-5.07841">
        <ele>45.45</ele>
        <time>2021-04-06T10:00:46Z</time>
      </trkpt>
      <trkpt lat="56.69638" lon="-5.08043">
        <ele>39.12</ele>
        <time>2021-04-06T10:00:49Z</time>
      </trkpt>
      <trkpt lat="56.69623" lon="-5.08094">
        <ele>37.17</ele>
        <time>2021-04-06T10:00:52Z</time>
      </trkpt>
      <trkpt lat="56.69586" lon="-5.08194">
        <ele>35.36</ele>
        <time>2021-04-06T10:00:55Z</time>
      </trkpt>
      <trkpt lat="56.69576" lon="-5.0823">
        <ele>36.38</ele>
        <time>2021-04-06T10:00:58Z</time>
      </trkpt>
      <trkpt lat="56.69534" lon="-5.08437">
        <ele>29.27</ele>
        <time>2021-04-06T10:01:01Z</time>
      </trkpt>
      <trkpt lat="56.69511" lon="-5.08516">
        <ele>27.73</ele>
        <time>2021-04-06T10:01:04Z</time>
      </trkpt>
      <trkpt lat="56.69464" lon="-5.08621">
        <ele>23.57</ele>
        <time>2021-04-06T10:01:07Z</time>
      </trkpt>
      <trkpt lat="56.69448" lon="-5.08682">
        <ele>21.03</ele>
        <time>2021-04-06T10:01:10Z</time>
      </trkpt>
      <trkpt lat="56.6944" lon="-5.08793">
        <ele>20.82</ele>
        <time>2021-04-06T10:01:13Z</time>
      </trkpt>
      <trkpt lat="56.6942" lon="-5.09271">
        <ele>21.85</ele>
        <time>2021-04-06T10:01:16Z</time>
      </trkpt>
      <trkpt lat="56.69368" lon="-5.09634">
        <ele>14.07</ele>
        <time>2021-04-06T10:01:19Z</time>
      </trkpt>
      <trkpt lat="56.69332" lon="-5.09846">
        <ele>12.88</ele>
        <time>2021-04-06T10:01:22Z</time>
      </trkpt>
      <trkpt lat="56.69321" lon="-5.09899">
        <ele>10.87</ele>
        <time>2021-04-06T10:01:25Z</time>
      </trkpt>
      <trkpt lat="56.69308" lon="-5.09934">
        <ele>10.09</ele>
        <time>2021-04-06T10:01:28Z</time>
      </trkpt>
      <trkpt lat="56.69256" lon="-5.10019">
        <ele>13.71</ele>
        <time>2021-04-06T10:01:31Z</time>
      </trkpt>
      <trkpt lat="56.69244" lon="-5.1006">
        <ele>11.05</ele>
        <time>2021-04-06T10:01:34Z</time>
      </trkpt>
      <trkpt lat="56.69238" lon="-5.10098">
        <ele>10.91</ele>
        <time>2021-04-06T10:01:37Z</time>
      </trkpt>
      <trkpt lat="56.69237" lon="-5.10168">
        <ele>9.17</ele>
        <time>2021-04-06T10:01:40Z</time>
      </trkpt>
      <trkpt lat="56.69228" lon="-5.1022">
        <ele>7.97</ele>
        <time>2021-04-06T10:01:43Z</time>
      </trkpt>
      <trkpt lat="56.69208" lon="-5.10297">
        <ele>10.7</ele>
        <time>2021-04-06T10:01:46Z</time>
      </trkpt>
      <trkpt lat="56.69198" lon="-5.10354">
        <ele>13.98</ele>
        <time>2021-04-06T10:01:49Z</time>
      </trkpt>
      <trkpt lat="56.69191" lon="-5.10438">
        <ele>18.63</ele>
        <time>2021-04-06T10:01:52Z</time>
      </trkpt>
      <trkpt lat="56.69179" lon="-5.10488">
        <ele>17.47</ele>
        <time>2021-04-06T10:01:55Z</time>
      </trkpt>
      <trkpt lat="56.69142" lon="-5.10576">
        <ele>18.59</ele>
        <time>2021-04-06T10:01:58Z</time>
      </trkpt>
      <trkpt lat="56.69131" lon="-5.10595">
        <ele>18.67</ele>
        <time>2021-04-06T10:02:01Z</time>
      </trkpt>
      <trkpt lat="56.69115" lon="-5.10617">
        <ele>18.03</ele>
        <time>2021-04-06T10:02:04Z</time>
      </trkpt>
      <trkpt lat="56.69069" lon="-5.10651">
        <ele>16.54</ele>
        <time>2021-04-06T10:02:07Z</time>
      </trkpt>
      <trkpt lat="56.69032" lon="-5.10666">
        <ele>14.17</ele>
        <time>2021-04-06T10:02:10Z</time>
      </trkpt>
      <trkpt lat="56.68989" lon="-5.10673">
        <ele>15.66</ele>
        <time>2021-04-06T10:02:13Z</time>
      </trkpt>
      <trkpt lat="56.68956" lon="-5.10673">
        <ele>15.02</ele>
        <time>2021-04-06T10:02:16Z</time>
      </trkpt>
      <trkpt lat="56.68896" lon="-5.10658">
        <ele>9.68</ele>
        <time>2021-04-06T10:02:19Z</time>
      </trkpt>
      <trkpt lat="56.68878" lon="-5.1065">
        <ele>9.6</ele>
        <time>2021-04-06T10:02:22Z</time>
      </trkpt>
      <trkpt lat="56.68835" lon="-5.10622">
        <ele>9.33</ele>
        <time>2021-04-06T10:02:25Z</time>
      </trkpt>
      <trkpt lat="56.68725" lon="-5.1053">
        <ele>7.2</ele>
        <time>2021-04-06T10:02:28Z</time>
      </trkpt>
      <trkpt lat="56.68703" lon="-5.10515">
        <ele>6.89</ele>
        <time>2021-04-06T10:02:31Z</time>
      </trkpt>
      <trkpt lat="56.68687" lon="-5.1051">
        <ele>6.48</ele>
        <time>2021-04-06T10:02:34Z</time>
      </trkpt>
      <trkpt lat="56.68672" lon="-5.10509">
        <ele>6.14</ele>
        <time>2021-04-06T10:02:37Z</time>
      </trkpt>
      <trkpt lat="56.68657" lon="-5.10515">
        <ele>6</ele>
        <time>2021-04-06T10:02:40Z</time>
      </trkpt>
      <trkpt lat="56.68637" lon="-5.10529">
        <ele>5.92</ele>
        <time>2021-04-06T10:02:43Z</time>
      </trkpt>
      <trkpt lat="56.685" lon="-5.10648">
        <ele>1.99</ele>
        <time>2021-04-06T10:02:46Z</time>
      </trkpt>
      <trkpt lat="56.68482" lon="-5.1066">
        <ele>2</ele>
        <time>2021-04-06T10:02:49Z</time>
      </trkpt>
      <trkpt lat="56.68468" lon="-5.10666">
        <ele>2.14</ele>
        <time>2021-04-06T10:02:52Z</time>
      </trkpt>
      <trkpt lat="56.68232" lon="-5.10682">
        <ele>3.09</ele>
        <time>2021-04-06T10:02:55Z</time>
      </trkpt>
      <trkpt lat="56.68214" lon="-5.1069">
        <ele>3.46</ele>
        <time>2021-04-06T10:02:58Z</time>
      </trkpt>
      <trkpt lat="56.68165" lon="-5.10737">
        <ele>3.51</ele>
        <time>2021-04-06T10:03:01Z</time>
      </trkpt>
      <trkpt lat="56.6816" lon="-5.10719">
        <ele>4.22</ele>
        <time>2021-04-06T10:03:06Z</time>
      </trkpt>
      <trkpt lat="56.68159" lon="-5.10705">
        <ele>4.27</ele>
        <time>2021-04-06T10:03:10Z</time>
      </trkpt>
      <trkpt lat="56.68162" lon="-5.10687">
        <ele>4.45</ele>
        <time>2021-04-06T10:03:15Z</time>
      </trkpt>
      <trkpt lat="56.68275" lon="-5.10123">
        <ele>12.91</ele>
        <time>2021-04-06T10:03:19Z</time>
      </trkpt>
      <trkpt lat="56.68324" lon="-5.09886">
        <ele>12</ele>
        <time>2021-04-06T10:03:24Z</time>
      </trkpt>
      <trkpt lat="56.68354" lon="-5.09752">
        <ele>12.26</ele>
        <time>2021-04-06T10:03:28Z</time>
      </trkpt>
      <trkpt lat="56.68366" lon="-5.09709">
        <ele>13.18</ele>
        <time>2021-04-06T10:03:33Z</time>
      </trkpt>
      <trkpt lat="56.68371" lon="-5.09681">
        <ele>13.85</ele>
        <time>2021-04-06T10:03:37Z</time>
      </trkpt>
      <trkpt lat="56.68372" lon="-5.09657">
        <ele>14.72</ele>
        <time>2021-04-06T10:03:42Z</time>
      </trkpt>
      <trkpt lat="56.68368" lon="-5.09635">
        <ele>15.43</ele>
        <time>2021-04-06T10:03:47Z</time>
      </trkpt>
      <trkpt lat="56.68286" lon="-5.09387">
        <ele>26.75</ele>
        <time>2021-04-06T10:03:51Z</time>
      </trkpt>
      <trkpt lat="56.6825" lon="-5.09308">
        <ele>20.08</ele>
        <time>2021-04-06T10:03:56Z</time>
      </trkpt>
      <trkpt lat="56.68224" lon="-5.09215">
        <ele>20.02</ele>
        <time>2021-04-06T10:04:00Z</time>
      </trkpt>
      <trkpt lat="56.68178" lon="-5.08977">
        <ele>19.24</ele>
        <time>2021-04-06T10:04:05Z</time>
      </trkpt>
      <trkpt lat="56.68062" lon="-5.0858">
        <ele>21.06</ele>
        <time>2021-04-06T10:04:09Z</time>
      </trkpt>
      <trkpt lat="56.68012" lon="-5.08435">
        <ele>22.78</ele>
        <time>2021-04-06T10:04:14Z</time>
      </trkpt>
      <trkpt lat="56.67991" lon="-5.08406">
        <ele>23.44</ele>
        <time>2021-04-06T10:04:19Z</time>
      </trkpt>
      <trkpt lat="56.67959" lon="-5.08379">
        <ele>23.36</ele>
        <time>2021-04-06T10:04:23Z</time>
      </trkpt>
      <trkpt lat="56.67725" lon="-5.08055">
        <ele>25.53</ele>
        <time>2021-04-06T10:04:28Z</time>
      </trkpt>
      <trkpt lat="56.6766" lon="-5.07876">
        <ele>34.69</ele>
        <time>2021-04-06T10:04:32Z</time>
      </trkpt>
      <trkpt lat="56.67605" lon="-5.07742">
        <ele>30.75</ele>
        <time>2021-04-06T10:04:37Z</time>
      </trkpt>
      <trkpt lat="56.67548" lon="-5.07672">
        <ele>29.94</ele>
        <time>2021-04-06T10:04:41Z</time>
      </trkpt>
      <trkpt lat="56.67408" lon="-5.07572">
        <ele>38.63</ele>
        <time>2021-04-06T10:04:46Z</time>
      </trkpt>
      <trkpt lat="56.67374" lon="-5.07537">
        <ele>39.05</ele>
        <time>2021-04-06T10:04:50Z</time>
      </trkpt>
      <trkpt lat="56.67344" lon="-5.07482">
        <ele>38.85</ele>
        <time>2021-04-06T10:04:55Z</time>
      </trkpt>
      <trkpt lat="56.67301" lon="-5.0742">
        <ele>39.17</ele>
        <time>2021-04-06T10:05:00Z</time>
      </trkpt>
      <trkpt lat="56.67277" lon="-5.0739">
        <ele>39.89</ele>
        <time>2021-04-06T10:05:04Z</time>
      </trkpt>
      <trkpt lat="56.67202" lon="-5.07341">
        <ele>42.56</ele>
        <time>2021-04-06T10:05:09Z</time>
      </trkpt>
      <trkpt lat="56.67169" lon="-5.07294">
        <ele>43.12</ele>
        <time>2021-04-06T10:05:13Z</time>
      </trkpt>
      <trkpt lat="56.67131" lon="-5.07181">
        <ele>40.35</ele>
        <time>2021-04-06T10:05:18Z</time>
      </trkpt>
      <trkpt lat="56.67095" lon="-5.07099">
        <ele>39.36</ele>
        <time>2021-04-06T10:05:22Z</time>
      </trkpt>
      <trkpt lat="56.67057" lon="-5.06963">
        <ele>42.67</ele>
        <time>2021-04-06T10:05:27Z</time>
      </trkpt>
      <trkpt lat="56.66884" lon="-5.06501">
        <ele>46.44</ele>
        <time>2021-04-06T10:05:32Z</time>
      </trkpt>
      <trkpt lat="56.66824" lon="-5.0631">
        <ele>49.46</ele>
        <time>2021-04-06T10:05:36Z</time>
      </trkpt>
      <trkpt lat="56.66793" lon="-5.06224">
        <ele>49.67</ele>
        <time>2021-04-06T10:05:41Z</time>
      </trkpt>
      <trkpt lat="56.66754" lon="-5.0615">
        <ele>53.65</ele>
        <time>2021-04-06T10:05:45Z</time>
      </trkpt>
      <trkpt lat="56.66731" lon="-5.06114">
        <ele>58.62</ele>
        <time>2021-04-06T10:05:50Z</time>
      </trkpt>
      <trkpt lat="56.66694" lon="-5.06062">
        <ele>62.53</ele>
        <time>2021-04-06T10:05:54Z</time>
      </trkpt>
      <trkpt lat="56.66651" lon="-5.05987">
        <ele>64.96</ele>
        <time>2021-04-06T10:05:59Z</time>
      </trkpt>
      <trkpt lat="56.66634" lon="-5.05948">
        <ele>66.08</ele>
        <time>2021-04-06T10:06:03Z</time>
      </trkpt>
      <trkpt lat="56.66612" lon="-5.05869">
        <ele>70.53</ele>
        <time>2021-04-06T10:06:08Z</time>
      </trkpt>
      <trkpt lat="56.66591" lon="-5.0581">
        <ele>74.33</ele>
        <time>2021-04-06T10:06:13Z</time>
      </trkpt>
      <trkpt lat="56.66573" lon="-5.05761">
        <ele>75.37</ele>
        <time>2021-04-06T10:06:17Z</time>
      </trkpt>
      <trkpt lat="56.66555" lon="-5.05725">
        <ele>74.17</ele>
        <time>2021-04-06T10:06:22Z</time>
      </trkpt>
      <trkpt lat="56.66531" lon="-5.05687">
        <ele>74.56</ele>
        <time>2021-04-06T10:06:26Z</time>
      </trkpt>
      <trkpt lat="56.66473" lon="-5.05612">
        <ele>69.04</ele>
        <time>2021-04-06T10:06:31Z</time>
      </trkpt>
      <trkpt lat="56.66446" lon="-5.0556">
        <ele>67.24</ele>
        <time>2021-04-06T10:06:35Z</time>
      </trkpt>
      <trkpt lat="56.66411" lon="-5.05474">
        <ele>65.19</ele>
        <time>2021-04-06T10:06:40Z</time>
      </trkpt>
      <trkpt lat="56.66388" lon="-5.05407">
        <ele>66.67</ele>
        <time>2021-04-06T10:06:45Z</time>
      </trkpt>
      <trkpt lat="56.66382" lon="-5.05381">
        <ele>66.25</ele>
        <time>2021-04-06T10:06:49Z</time>
      </trkpt>
      <trkpt lat="56.66367" lon="-5.05291">
        <ele>66.8</ele>
        <time>2021-04-06T10:06:54Z</time>
      </trkpt>
      <trkpt lat="56.66358" lon="-5.05254">
        <ele>67.1</ele>
        <time>2021-04-06T10:06:58Z</time>
      </trkpt>
      <trkpt lat="56.6633" lon="-5.05153">
        <ele>64.11</ele>
        <time>2021-04-06T10:07:03Z</time>
      </trkpt>
      <trkpt lat="56.66316" lon="-5.05094">
        <ele>65.23</ele>
        <time>2021-04-06T10:07:07Z</time>
      </trkpt>
      <trkpt lat="56.66309" lon="-5.05047">
        <ele>66.11</ele>
        <time>2021-04-06T10:07:12Z</time>
      </trkpt>
      <trkpt lat="56.66308" lon="-5.04923">
        <ele>67.85</ele>
        <time>2021-04-06T10:07:16Z</time>
      </trkpt>
      <trkpt lat="56.66311" lon="-5.04893">
        <ele>69.03</ele>
        <time>2021-04-06T10:07:21Z</time>
      </trkpt>
      <trkpt lat="56.66375" lon="-5.04621">
        <ele>75.4</ele>
        <time>2021-04-06T10:07:26Z</time>
      </trkpt>
      <trkpt lat="56.66404" lon="-5.04565">
        <ele>78.93</ele>
        <time>2021-04-06T10:07:30Z</time>
      </trkpt>
      <trkpt lat="56.66415" lon="-5.04534">
        <ele>79.76</ele>
        <time>2021-04-06T10:07:35Z</time>
      </trkpt>
      <trkpt lat="56.66423" lon="-5.04502">
        <ele>80.9</ele>
        <time>2021-04-06T10:07:39Z</time>
      </trkpt>
      <trkpt lat="56.66428" lon="-5.04466">
        <ele>81.03</ele>
        <time>2021-04-06T10:07:44Z</time>
      </trkpt>
      <trkpt lat="56.66434" lon="-5.04386">
        <ele>82.46</ele>
        <time>2021-04-06T10:07:48Z</time>
      </trkpt>
      <trkpt lat="56.66439" lon="-5.04333">
        <ele>84.24</ele>
        <time>2021-04-06T10:07:53Z</time>
      </trkpt>
      <trkpt lat="56.66452" lon="-5.04218">
        <ele>85.05</ele>
        <time>2021-04-06T10:07:58Z</time>
      </trkpt>
      <trkpt lat="56.66458" lon="-5.0418">
        <ele>86.18</ele>
        <time>2021-04-06T10:08:02Z</time>
      </trkpt>
      <trkpt lat="56.66457" lon="-5.04144">
        <ele>86.78</ele>
        <time>2021-04-06T10:08:07Z</time>
      </trkpt>
      <trkpt lat="56.6645" lon="-5.04099">
        <ele>87.02</ele>
        <time>2021-04-06T10:08:11Z</time>
      </trkpt>
      <trkpt lat="56.6645" lon="-5.04061">
        <ele>89.21</ele>
        <time>2021-04-06T10:08:16Z</time>
      </trkpt>
      <trkpt lat="56.66446" lon="-5.04049">
        <ele>89.13</ele>
        <time>2021-04-06T10:08:20Z</time>
      </trkpt>
      <trkpt lat="56.66436" lon="-5.0404">
        <ele>88.7</ele>
        <time>2021-04-06T10:08:25Z</time>
      </trkpt>
      <trkpt lat="56.66461" lon="-5.03937">
        <ele>91.01</ele>
        <time>2021-04-06T10:08:29Z</time>
      </trkpt>
      <trkpt lat="56.66475" lon="-5.03884">
        <ele>90.21</ele>
        <time>2021-04-06T10:08:33Z</time>
      </trkpt>
      <trkpt lat="56.66492" lon="-5.03838">
        <ele>91.45</ele>
        <time>2021-04-06T10:08:36Z</time>
      </trkpt>
      <trkpt lat="56.66511" lon="-5.03799">
        <ele>93.13</ele>
        <time>2021-04-06T10:08:40Z</time>
      </trkpt>
      <trkpt lat="56.66535" lon="-5.03761">
        <ele>94.11</ele>
        <time>2021-04-06T10:08:44Z</time>
      </trkpt>
      <trkpt lat="56.6656" lon="-5.03727">
        <ele>93.57</ele>
        <time>2021-04-06T10:08:48Z</time>
      </trkpt>
      <trkpt lat="56.6659" lon="-5.03682">
        <ele>96.05</ele>
        <time>2021-04-06T10:08:52Z</time>
      </trkpt>
      <trkpt lat="56.66619" lon="-5.03611">
        <ele>98.79</ele>
        <time>2021-04-06T10:08:56Z</time>
      </trkpt>
      <trkpt lat="56.66632" lon="-5.03563">
        <ele>97.72</ele>
        <time>2021-04-06T10:09:00Z</time>
      </trkpt>
      <trkpt lat="56.66658" lon="-5.03441">
        <ele>94.56</ele>
        <time>2021-04-06T10:09:03Z</time>
      </trkpt>
      <trkpt lat="56.66671" lon="-5.03388">
        <ele>94.16</ele>
        <time>2021-04-06T10:09:07Z</time>
      </trkpt>
      <trkpt lat="56.66698" lon="-5.03302">
        <ele>94.7</ele>
        <time>2021-04-06T10:09:11Z</time>
      </trkpt>
      <trkpt lat="56.66794" lon="-5.03023">
        <ele>96.28</ele>
        <time>2021-04-06T10:09:15Z</time>
      </trkpt>
      <trkpt lat="56.66825" lon="-5.02921">
        <ele>96.7</ele>
        <time>2021-04-06T10:09:19Z</time>
      </trkpt>
      <trkpt lat="56.66858" lon="-5.02796">
        <ele>94.85</ele>
        <time>2021-04-06T10:09:23Z</time>
      </trkpt>
      <trkpt lat="56.6689" lon="-5.02661">
        <ele>96.99</ele>
        <time>2021-04-06T10:09:26Z</time>
      </trkpt>
      <trkpt lat="56.66923" lon="-5.0249">
        <ele>92.97</ele>
        <time>2021-04-06T10:09:30Z</time>
      </trkpt>
      <trkpt lat="56.66948" lon="-5.0233">
        <ele>96.39</ele>
        <time>2021-04-06T10:09:34Z</time>
      </trkpt>
      <trkpt lat="56.66965" lon="-5.02196">
        <ele>96.93</ele>
        <time>2021-04-06T10:09:38Z</time>
      </trkpt>
      <trkpt lat="56.66984" lon="-5.01977">
        <ele>100.31</ele>
        <time>2021-04-06T10:09:42Z</time>
      </trkpt>
      <trkpt lat="56.66994" lon="-5.01786">
        <ele>103.5</ele>
        <time>2021-04-06T10:09:46Z</time>
      </trkpt>
      <trkpt lat="56.66997" lon="-5.01647">
        <ele>105.17</ele>
        <time>2021-04-06T10:09:49Z</time>
      </trkpt>
      <trkpt lat="56.66996" lon="-5.01525">
        <ele>105.3</ele>
        <time>2021-04-06T10:09:53Z</time>
      </trkpt>
      <trkpt lat="56.66991" lon="-5.01393">
        <ele>106.55</ele>
        <time>2021-04-06T10:09:57Z</time>
      </trkpt>
      <trkpt lat="56.66979" lon="-5.0117">
        <ele>109.43</ele>
        <time>2021-04-06T10:10:01Z</time>
      </trkpt>
      <trkpt lat="56.66947" lon="-5.0068">
        <ele>118.14</ele>
        <time>2021-04-06T10:10:05Z</time>
      </trkpt>
      <trkpt lat="56.66926" lon="-5.00327">
        <ele>127.31</ele>
        <time>2021-04-06T10:10:09Z</time>
      </trkpt>
      <trkpt lat="56.6692" lon="-4.99971">
        <ele>143.08</ele>
        <time>2021-04-06T10:10:13Z</time>
      </trkpt>
      <trkpt lat="56.66916" lon="-4.99916">
        <ele>142.91</ele>
        <time>2021-04-06T10:10:16Z</time>
      </trkpt>
      <trkpt lat="56.66906" lon="-4.99858">
        <ele>143.23</ele>
        <time>2021-04-06T10:10:20Z</time>
      </trkpt>
      <trkpt lat="56.66895" lon="-4.99823">
        <ele>143.25</ele>
        <time>2021-04-06T10:10:24Z</time>
      </trkpt>
      <trkpt lat="56.6688" lon="-4.99787">
        <ele>144.35</ele>
        <time>2021-04-06T10:10:28Z</time>
      </trkpt>
      <trkpt lat="56.66839" lon="-4.9971">
        <ele>150.15</ele>
        <time>2021-04-06T10:10:32Z</time>
      </trkpt>
      <trkpt lat="56.66823" lon="-4.9967">
        <ele>152.24</ele>
        <time>2021-04-06T10:10:36Z</time>
      </trkpt>
      <trkpt lat="56.66813" lon="-4.99634">
        <ele>151.29</ele>
        <time>2021-04-06T10:10:39Z</time>
      </trkpt>
      <trkpt lat="56.66804" lon="-4.99576">
        <ele>150.96</ele>
        <time>2021-04-06T10:10:43Z</time>
      </trkpt>
      <trkpt lat="56.66802" lon="-4.99522">
        <ele>152.14</ele>
        <time>2021-04-06T10:10:47Z</time>
      </trkpt>
      <trkpt lat="56.66805" lon="-4.9946">
        <ele>153.76</ele>
        <time>2021-04-06T10:10:51Z</time>
      </trkpt>
      <trkpt lat="56.66823" lon="-4.99308">
        <ele>156.68</ele>
        <time>2021-04-06T10:10:55Z</time>
      </trkpt>
      <trkpt lat="56.66827" lon="-4.99247">
        <ele>157.5</ele>
        <time>2021-04-06T10:10:59Z</time>
      </trkpt>
      <trkpt lat="56.66826" lon="-4.99198">
        <ele>157.63</ele>
        <time>2021-04-06T10:11:03Z</time>
      </trkpt>
      <trkpt lat="56.66793" lon="-4.98697">
        <ele>173.52</ele>
        <time>2021-04-06T10:11:06Z</time>
      </trkpt>
      <trkpt lat="56.66782" lon="-4.98554">
        <ele>176.24</ele>
        <time>2021-04-06T10:11:10Z</time>
      </trkpt>
      <trkpt lat="56.66772" lon="-4.98497">
        <ele>176.73</ele>
        <time>2021-04-06T10:11:14Z</time>
      </trkpt>
      <trkpt lat="56.66763" lon="-4.98459">
        <ele>174.35</ele>
        <time>2021-04-06T10:11:18Z</time>
      </trkpt>
      <trkpt lat="56.66751" lon="-4.98416">
        <ele>175.65</ele>
        <time>2021-04-06T10:11:22Z</time>
      </trkpt>
      <trkpt lat="56.66733" lon="-4.98368">
        <ele>179.82</ele>
        <time>2021-04-06T10:11:26Z</time>
      </trkpt>
      <trkpt lat="56.66709" lon="-4.98321">
        <ele>183.72</ele>
        <time>2021-04-06T10:11:29Z</time>
      </trkpt>
      <trkpt lat="56.66687" lon="-4.98286">
        <ele>183.38</ele>
        <time>2021-04-06T10:11:33Z</time>
      </trkpt>
      <trkpt lat="56.66665" lon="-4.98257">
        <ele>183.62</ele>
        <time>2021-04-06T10:11:37Z</time>
      </trkpt>
      <trkpt lat="56.66601" lon="-4.98187">
        <ele>182.86</ele>
        <time>2021-04-06T10:11:41Z</time>
      </trkpt>
      <trkpt lat="56.66589" lon="-4.9817">
        <ele>183.58</ele>
        <time>2021-04-06T10:11:45Z</time>
      </trkpt>
      <trkpt lat="56.66577" lon="-4.98144">
        <ele>183.29</ele>
        <time>2021-04-06T10:11:49Z</time>
      </trkpt>
      <trkpt lat="56.66569" lon="-4.9812">
        <ele>183.55</ele>
        <time>2021-04-06T10:11:52Z</time>
      </trkpt>
      <trkpt lat="56.66562" lon="-4.98093">
        <ele>183.9</ele>
        <time>2021-04-06T10:11:56Z</time>
      </trkpt>
      <trkpt lat="56.66547" lon="-4.98022">
        <ele>186.65</ele>
        <time>2021-04-06T10:12:00Z</time>
      </trkpt>
      <trkpt lat="56.66535" lon="-4.97947">
        <ele>190.03</ele>
        <time>2021-04-06T10:12:04Z</time>
      </trkpt>
      <trkpt lat="56.66532" lon="-4.97918">
        <ele>189.44</ele>
        <time>2021-04-06T10:12:08Z</time>
      </trkpt>
      <trkpt lat="56.66533" lon="-4.97876">
        <ele>189.52</ele>
        <time>2021-04-06T10:12:12Z</time>
      </trkpt>
      <trkpt lat="56.66536" lon="-4.97854">
        <ele>189.86</ele>
        <time>2021-04-06T10:12:16Z</time>
      </trkpt>
      <trkpt lat="56.66551" lon="-4.97788">
        <ele>194.59</ele>
        <time>2021-04-06T10:12:19Z</time>
      </trkpt>
      <trkpt lat="56.66553" lon="-4.97764">
        <ele>195.34</ele>
        <time>2021-04-06T10:12:23Z</time>
      </trkpt>
      <trkpt lat="56.66553" lon="-4.97737">
        <ele>195.9</ele>
        <time>2021-04-06T10:12:27Z</time>
      </trkpt>
      <trkpt lat="56.66549" lon="-4.97702">
        <ele>195.95</ele>
        <time>2021-04-06T10:12:31Z</time>
      </trkpt>
      <trkpt lat="56.66506" lon="-4.97542">
        <ele>200.1</ele>
        <time>2021-04-06T10:12:35Z</time>
      </trkpt>
      <trkpt lat="56.66501" lon="-4.97513">
        <ele>199.7</ele>
        <time>2021-04-06T10:12:39Z</time>
      </trkpt>
      <trkpt lat="56.66492" lon="-4.97453">
        <ele>199.07</ele>
        <time>2021-04-06T10:12:42Z</time>
      </trkpt>
      <trkpt lat="56.6649" lon="-4.97406">
        <ele>200.52</ele>
        <time>2021-04-06T10:12:46Z</time>
      </trkpt>
      <trkpt lat="56.6649" lon="-4.97225">
        <ele>209.36</ele>
        <time>2021-04-06T10:12:50Z</time>
      </trkpt>
      <trkpt lat="56.66488" lon="-4.97193">
        <ele>211.36</ele>
        <time>2021-04-06T10:12:54Z</time>
      </trkpt>
      <trkpt lat="56.66483" lon="-4.9716">
        <ele>212.97</ele>
        <time>2021-04-06T10:12:58Z</time>
      </trkpt>
      <trkpt lat="56.66477" lon="-4.97138">
        <ele>213.88</ele>
        <time>2021-04-06T10:13:02Z</time>
      </trkpt>
      <trkpt lat="56.66468" lon="-4.97119">
        <ele>213.66</ele>
        <time>2021-04-06T10:13:06Z</time>
      </trkpt>
      <trkpt lat="56.66457" lon="-4.971">
        <ele>213.77</ele>
        <time>2021-04-06T10:13:09Z</time>
      </trkpt>
      <trkpt lat="56.66443" lon="-4.97085">
        <ele>213.42</ele>
        <time>2021-04-06T10:13:13Z</time>
      </trkpt>
      <trkpt lat="56.66412" lon="-4.97061">
        <ele>210.84</ele>
        <time>2021-04-06T10:13:17Z</time>
      </trkpt>
      <trkpt lat="56.66396" lon="-4.97043">
        <ele>212.01</ele>
        <time>2021-04-06T10:13:21Z</time>
      </trkpt>
      <trkpt lat="56.66372" lon="-4.97003">
        <ele>215.57</ele>
        <time>2021-04-06T10:13:25Z</time>
      </trkpt>
      <trkpt lat="56.66272" lon="-4.96756">
        <ele>229.06</ele>
        <time>2021-04-06T10:13:29Z</time>
      </trkpt>
      <trkpt lat="56.66258" lon="-4.96711">
        <ele>228.65</ele>
        <time>2021-04-06T10:13:32Z</time>
      </trkpt>
      <trkpt lat="56.66252" lon="-4.96683">
        <ele>228.29</ele>
        <time>2021-04-06T10:13:36Z</time>
      </trkpt>
      <trkpt lat="56.66251" lon="-4.96642">
        <ele>227.21</ele>
        <time>2021-04-06T10:13:40Z</time>
      </trkpt>
      <trkpt lat="56.66252" lon="-4.96615">
        <ele>228.37</ele>
        <time>2021-04-06T10:13:44Z</time>
      </trkpt>
      <trkpt lat="56.66257" lon="-4.96582">
        <ele>229.78</ele>
        <time>2021-04-06T10:13:48Z</time>
      </trkpt>
      <trkpt lat="56.66265" lon="-4.96554">
        <ele>231</ele>
        <time>2021-04-06T10:13:52Z</time>
      </trkpt>
      <trkpt lat="56.6628" lon="-4.9652">
        <ele>232.52</ele>
        <time>2021-04-06T10:13:55Z</time>
      </trkpt>
      <trkpt lat="56.66404" lon="-4.96278">
        <ele>246.4</ele>
        <time>2021-04-06T10:13:59Z</time>
      </trkpt>
      <trkpt lat="56.66413" lon="-4.96249">
        <ele>245.93</ele>
        <time>2021-04-06T10:14:03Z</time>
      </trkpt>
      <trkpt lat="56.66416" lon="-4.96208">
        <ele>247.86</ele>
        <time>2021-04-06T10:14:07Z</time>
      </trkpt>
      <trkpt lat="56.66412" lon="-4.9615">
        <ele>252.7</ele>
        <time>2021-04-06T10:14:11Z</time>
      </trkpt>
      <trkpt lat="56.66407" lon="-4.96131">
        <ele>253.98</ele>
        <time>2021-04-06T10:14:15Z</time>
      </trkpt>
      <trkpt lat="56.66388" lon="-4.96084">
        <ele>254.2</ele>
        <time>2021-04-06T10:14:19Z</time>
      </trkpt>
      <trkpt lat="56.66369" lon="-4.96048">
        <ele>254.53</ele>
        <time>2021-04-06T10:14:22Z</time>
      </trkpt>
      <trkpt lat="56.66339" lon="-4.95972">
        <ele>253.6</ele>
        <time>2021-04-06T10:14:26Z</time>
      </trkpt>
      <trkpt lat="56.66231" lon="-4.95647">
        <ele>254.03</ele>
        <time>2021-04-06T10:14:30Z</time>
      </trkpt>
      <trkpt lat="56.66216" lon="-4.95586">
        <ele>255.09</ele>
        <time>2021-04-06T10:14:34Z</time>
      </trkpt>
      <trkpt lat="56.66209" lon="-4.95521">
        <ele>257.59</ele>
        <time>2021-04-06T10:14:38Z</time>
      </trkpt>
      <trkpt lat="56.66208" lon="-4.95483">
        <ele>258.63</ele>
        <time>2021-04-06T10:14:42Z</time>
      </trkpt>
      <trkpt lat="56.66212" lon="-4.9543">
        <ele>259.48</ele>
        <time>2021-04-06T10:14:45Z</time>
      </trkpt>
      <trkpt lat="56.66221" lon="-4.95386">
        <ele>260.55</ele>
        <time>2021-04-06T10:14:49Z</time>
      </trkpt>
      <trkpt lat="56.66242" lon="-4.95321">
        <ele>261.77</ele>
        <time>2021-04-06T10:14:53Z</time>
      </trkpt>
      <trkpt lat="56.66268" lon="-4.95247">
        <ele>262.29</ele>
        <time>2021-04-06T10:14:57Z</time>
      </trkpt>
      <trkpt lat="56.66362" lon="-4.95001">
        <ele>272.92</ele>
        <time>2021-04-06T10:15:01Z</time>
      </trkpt>
      <trkpt lat="56.66371" lon="-4.94974">
        <ele>273.56</ele>
        <time>2021-04-06T10:15:05Z</time>
      </trkpt>
      <trkpt lat="56.66408" lon="-4.94851">
        <ele>276.04</ele>
        <time>2021-04-06T10:15:09Z</time>
      </trkpt>
      <trkpt lat="56.66424" lon="-4.94783">
        <ele>277.21</ele>
        <time>2021-04-06T10:15:12Z</time>
      </trkpt>
      <trkpt lat="56.66434" lon="-4.94709">
        <ele>279.67</ele>
        <time>2021-04-06T10:15:16Z</time>
      </trkpt>
      <trkpt lat="56.66438" lon="-4.94658">
        <ele>281.57</ele>
        <time>2021-04-06T10:15:20Z</time>
      </trkpt>
      <trkpt lat="56.66443" lon="-4.94544">
        <ele>284.35</ele>
        <time>2021-04-06T10:15:24Z</time>
      </trkpt>
      <trkpt lat="56.66441" lon="-4.94482">
        <ele>285.7</ele>
        <time>2021-04-06T10:15:28Z</time>
      </trkpt>
      <trkpt lat="56.66434" lon="-4.94398">
        <ele>286.23</ele>
        <time>2021-04-06T10:15:32Z</time>
      </trkpt>
      <trkpt lat="56.66154" lon="-4.9174">
        <ele>314.02</ele>
        <time>2021-04-06T10:15:35Z</time>
      </trkpt>
      <trkpt lat="56.66145" lon="-4.91644">
        <ele>311.6</ele>
        <time>2021-04-06T10:15:39Z</time>
      </trkpt>
      <trkpt lat="56.66139" lon="-4.91554">
        <ele>309.03</ele>
        <time>2021-04-06T10:15:43Z</time>
      </trkpt>
      <trkpt lat="56.66141" lon="-4.91455">
        <ele>310.09</ele>
        <time>2021-04-06T10:15:47Z</time>
      </trkpt>
      <trkpt lat="56.66149" lon="-4.91368">
        <ele>310.09</ele>
        <time>2021-04-06T10:15:51Z</time>
      </trkpt>
      <trkpt lat="56.66163" lon="-4.91275">
        <ele>307.88</ele>
        <time>2021-04-06T10:15:55Z</time>
      </trkpt>
      <trkpt lat="56.66193" lon="-4.9117">
        <ele>304.03</ele>
        <time>2021-04-06T10:15:58Z</time>
      </trkpt>
      <trkpt lat="56.66211" lon="-4.91114">
        <ele>304.14</ele>
        <time>2021-04-06T10:16:02Z</time>
      </trkpt>
      <trkpt lat="56.66235" lon="-4.91059">
        <ele>302.27</ele>
        <time>2021-04-06T10:16:06Z</time>
      </trkpt>
      <trkpt lat="56.66259" lon="-4.91015">
        <ele>300.58</ele>
        <time>2021-04-06T10:16:10Z</time>
      </trkpt>
      <trkpt lat="56.66369" lon="-4.90849">
        <ele>295.6</ele>
        <time>2021-04-06T10:16:14Z</time>
      </trkpt>
      <trkpt lat="56.66407" lon="-4.90782">
        <ele>296.76</ele>
        <time>2021-04-06T10:16:18Z</time>
      </trkpt>
      <trkpt lat="56.66444" lon="-4.9068">
        <ele>295.33</ele>
        <time>2021-04-06T10:16:22Z</time>
      </trkpt>
      <trkpt lat="56.66455" lon="-4.90632">
        <ele>292.9</ele>
        <time>2021-04-06T10:16:25Z</time>
      </trkpt>
      <trkpt lat="56.66468" lon="-4.90548">
        <ele>291.44</ele>
        <time>2021-04-06T10:16:29Z</time>
      </trkpt>
      <trkpt lat="56.66476" lon="-4.9045">
        <ele>292.82</ele>
        <time>2021-04-06T10:16:33Z</time>
      </trkpt>
      <trkpt lat="56.66475" lon="-4.90408">
        <ele>292.84</ele>
        <time>2021-04-06T10:16:37Z</time>
      </trkpt>
      <trkpt lat="56.66473" lon="-4.90375">
        <ele>292.26</ele>
        <time>2021-04-06T10:16:41Z</time>
      </trkpt>
      <trkpt lat="56.6646" lon="-4.90279">
        <ele>291.72</ele>
        <time>2021-04-06T10:16:45Z</time>
      </trkpt>
      <trkpt lat="56.6645" lon="-4.9025">
        <ele>290.45</ele>
        <time>2021-04-06T10:16:48Z</time>
      </trkpt>
      <trkpt lat="56.66436" lon="-4.90192">
        <ele>288.29</ele>
        <time>2021-04-06T10:16:52Z</time>
      </trkpt>
      <trkpt lat="56.66401" lon="-4.90061">
        <ele>283.13</ele>
        <time>2021-04-06T10:16:56Z</time>
      </trkpt>
      <trkpt lat="56.65831" lon="-4.88064">
        <ele>272.48</ele>
        <time>2021-04-06T10:17:00Z</time>
      </trkpt>
      <trkpt lat="56.65816" lon="-4.88018">
        <ele>272.85</ele>
        <time>2021-04-06T10:17:04Z</time>
      </trkpt>
      <trkpt lat="56.65783" lon="-4.87941">
        <ele>274.59</ele>
        <time>2021-04-06T10:17:08Z</time>
      </trkpt>
      <trkpt lat="56.65746" lon="-4.87876">
        <ele>274.99</ele>
        <time>2021-04-06T10:17:12Z</time>
      </trkpt>
      <trkpt lat="56.65701" lon="-4.87777">
        <ele>273.68</ele>
        <time>2021-04-06T10:17:15Z</time>
      </trkpt>
      <trkpt lat="56.65692" lon="-4.87749">
        <ele>272.72</ele>
        <time>2021-04-06T10:17:19Z</time>
      </trkpt>
      <trkpt lat="56.65673" lon="-4.87679">
        <ele>271.66</ele>
        <time>2021-04-06T10:17:23Z</time>
      </trkpt>
      <trkpt lat="56.6566" lon="-4.87618">
        <ele>270.29</ele>
        <time>2021-04-06T10:17:27Z</time>
      </trkpt>
      <trkpt lat="56.65655" lon="-4.87584">
        <ele>269.76</ele>
        <time>2021-04-06T10:17:31Z</time>
      </trkpt>
      <trkpt lat="56.65649" lon="-4.87481">
        <ele>268.38</ele>
        <time>2021-04-06T10:17:35Z</time>
      </trkpt>
      <trkpt lat="56.65649" lon="-4.87426">
        <ele>266.39</ele>
        <time>2021-04-06T10:17:38Z</time>
      </trkpt>
      <trkpt lat="56.65654" lon="-4.87329">
        <ele>264.49</ele>
        <time>2021-04-06T10:17:42Z</time>
      </trkpt>
      <trkpt lat="56.65657" lon="-4.87203">
        <ele>260.93</ele>
        <time>2021-04-06T10:17:46Z</time>
      </trkpt>
      <trkpt lat="56.65655" lon="-4.87154">
        <ele>260.15</ele>
        <time>2021-04-06T10:17:50Z</time>
      </trkpt>
      <trkpt lat="56.65651" lon="-4.87107">
        <ele>259.82</ele>
        <time>2021-04-06T10:17:54Z</time>
      </trkpt>
      <trkpt lat="56.65642" lon="-4.87054">
        <ele>260.46</ele>
        <time>2021-04-06T10:17:58Z</time>
      </trkpt>
      <trkpt lat="56.6563" lon="-4.87">
        <ele>260.7</ele>
        <time>2021-04-06T10:18:02Z</time>
      </trkpt>
      <trkpt lat="56.65608" lon="-4.86913">
        <ele>258.79</ele>
        <time>2021-04-06T10:18:05Z</time>
      </trkpt>
      <trkpt lat="56.65425" lon="-4.86224">
        <ele>253.61</ele>
        <time>2021-04-06T10:18:09Z</time>
      </trkpt>
      <trkpt lat="56.65417" lon="-4.86135">
        <ele>252.87</ele>
        <time>2021-04-06T10:18:12Z</time>
      </trkpt>
      <trkpt lat="56.65404" lon="-4.86147">
        <ele>252.11</ele>
        <time>2021-04-06T10:18:14Z</time>
      </trkpt>
      <trkpt lat="56.6507" lon="-4.84902">
        <ele>243.47</ele>
        <time>2021-04-06T10:18:19Z</time>
      </trkpt>
      <trkpt lat="56.65032" lon="-4.84806">
        <ele>247.5</ele>
        <time>2021-04-06T10:18:25Z</time>
      </trkpt>
      <trkpt lat="56.64964" lon="-4.84681">
        <ele>249.06</ele>
        <time>2021-04-06T10:18:31Z</time>
      </trkpt>
      <trkpt lat="56.64844" lon="-4.84512">
        <ele>252.88</ele>
        <time>2021-04-06T10:18:37Z</time>
      </trkpt>
      <trkpt lat="56.64752" lon="-4.84375">
        <ele>255.83</ele>
        <time>2021-04-06T10:18:43Z</time>
      </trkpt>
      <trkpt lat="56.64725" lon="-4.84316">
        <ele>255.94</ele>
        <time>2021-04-06T10:18:49Z</time>
      </trkpt>
      <trkpt lat="56.64702" lon="-4.84259">
        <ele>257.47</ele>
        <time>2021-04-06T10:18:54Z</time>
      </trkpt>
      <trkpt lat="56.64686" lon="-4.84191">
        <ele>258.61</ele>
        <time>2021-04-06T10:19:00Z</time>
      </trkpt>
      <trkpt lat="56.64673" lon="-4.84078">
        <ele>261.55</ele>
        <time>2021-04-06T10:19:06Z</time>
      </trkpt>
      <trkpt lat="56.6467" lon="-4.83858">
        <ele>264.88</ele>
        <time>2021-04-06T10:19:12Z</time>
      </trkpt>
      <trkpt lat="56.64658" lon="-4.83731">
        <ele>270.28</ele>
        <time>2021-04-06T10:19:18Z</time>
      </trkpt>
      <trkpt lat="56.64639" lon="-4.83616">
        <ele>273.96</ele>
        <time>2021-04-06T10:19:24Z</time>
      </trkpt>
      <trkpt lat="56.64607" lon="-4.83482">
        <ele>275.29</ele>
        <time>2021-04-06T10:19:29Z</time>
      </trkpt>
      <trkpt lat="56.64508" lon="-4.83225">
        <ele>281.7</ele>
        <time>2021-04-06T10:19:35Z</time>
      </trkpt>
      <trkpt lat="56.6449" lon="-4.83176">
        <ele>282.79</ele>
        <time>2021-04-06T10:19:41Z</time>
      </trkpt>
      <trkpt lat="56.64323" lon="-4.82748">
        <ele>290.39</ele>
        <time>2021-04-06T10:19:47Z</time>
      </trkpt>
      <trkpt lat="56.64303" lon="-4.827">
        <ele>292.1</ele>
        <time>2021-04-06T10:19:53Z</time>
      </trkpt>
      <trkpt lat="56.64151" lon="-4.82303">
        <ele>300.55</ele>
        <time>2021-04-06T10:19:58Z</time>
      </trkpt>
      <trkpt lat="56.63834" lon="-4.81489">
        <ele>308.98</ele>
        <time>2021-04-06T10:20:04Z</time>
      </trkpt>
      <trkpt lat="56.63754" lon="-4.81266">
        <ele>309.87</ele>
        <time>2021-04-06T10:20:10Z</time>
      </trkpt>
      <trkpt lat="56.63678" lon="-4.81022">
        <ele>312.37</ele>
        <time>2021-04-06T10:20:16Z</time>
      </trkpt>
      <trkpt lat="56.63594" lon="-4.80663">
        <ele>318.62</ele>
        <time>2021-04-06T10:20:22Z</time>
      </trkpt>
      <trkpt lat="56.63492" lon="-4.80194">
        <ele>323.64</ele>
        <time>2021-04-06T10:20:28Z</time>
      </trkpt>
      <trkpt lat="56.63412" lon="-4.7985">
        <ele>328.14</ele>
        <time>2021-04-06T10:20:33Z</time>
      </trkpt>
      <trkpt lat="56.63353" lon="-4.79581">
        <ele>330.22</ele>
        <time>2021-04-06T10:20:39Z</time>
      </trkpt>
      <trkpt lat="56.63326" lon="-4.79445">
        <ele>328.57</ele>
        <time>2021-04-06T10:20:45Z</time>
      </trkpt>
      <trkpt lat="56.63245" lon="-4.79096">
        <ele>332.39</ele>
        <time>2021-04-06T10:20:51Z</time>
      </trkpt>
      <trkpt lat="56.63213" lon="-4.78924">
        <ele>335.67</ele>
        <time>2021-04-06T10:20:57Z</time>
      </trkpt>
      <trkpt lat="56.63107" lon="-4.78451">
        <ele>340.26</ele>
        <time>2021-04-06T10:21:03Z</time>
      </trkpt>
      <trkpt lat="56.63059" lon="-4.78228">
        <ele>342.65</ele>
        <time>2021-04-06T10:21:08Z</time>
      </trkpt>
      <trkpt lat="56.63007" lon="-4.77971">
        <ele>340.47</ele>
        <time>2021-04-06T10:21:14Z</time>
      </trkpt>
      <trkpt lat="56.62947" lon="-4.77731">
        <ele>342.02</ele>
        <time>2021-04-06T10:21:20Z</time>
      </trkpt>
      <trkpt lat="56.62873" lon="-4.77397">
        <ele>342.86</ele>
        <time>2021-04-06T10:21:26Z</time>
      </trkpt>
      <trkpt lat="56.62812" lon="-4.77137">
        <ele>344.85</ele>
        <time>2021-04-06T10:21:32Z</time>
      </trkpt>
      <trkpt lat="56.62771" lon="-4.77005">
        <ele>347.64</ele>
        <time>2021-04-06T10:21:38Z</time>
      </trkpt>
      <trkpt lat="56.62719" lon="-4.76894">
        <ele>348.12</ele>
        <time>2021-04-06T10:21:43Z</time>
      </trkpt>
      <trkpt lat="56.62646" lon="-4.76779">
        <ele>347.04</ele>
        <time>2021-04-06T10:21:49Z</time>
      </trkpt>
      <trkpt lat="56.62542" lon="-4.76674">
        <ele>346.75</ele>
        <time>2021-04-06T10:21:55Z</time>
      </trkpt>
      <trkpt lat="56.62325" lon="-4.76559">
        <ele>343.27</ele>
        <time>2021-04-06T10:22:01Z</time>
      </trkpt>
      <trkpt lat="56.62238" lon="-4.76539">
        <ele>343</ele>
        <time>2021-04-06T10:22:07Z</time>
      </trkpt>
      <trkpt lat="56.62163" lon="-4.76555">
        <ele>341.76</ele>
        <time>2021-04-06T10:22:13Z</time>
      </trkpt>
      <trkpt lat="56.62082" lon="-4.7661">
        <ele>338.89</ele>
        <time>2021-04-06T10:22:18Z</time>
      </trkpt>
      <trkpt lat="56.61992" lon="-4.76634">
        <ele>335.57</ele>
        <time>2021-04-06T10:22:24Z</time>
      </trkpt>
      <trkpt lat="56.61918" lon="-4.7662">
        <ele>333.98</ele>
        <time>2021-04-06T10:22:30Z</time>
      </trkpt>
      <trkpt lat="56.61805" lon="-4.76546">
        <ele>326.68</ele>
        <time>2021-04-06T10:22:36Z</time>
      </trkpt>
      <trkpt lat="56.61578" lon="-4.7635">
        <ele>321.4</ele>
        <time>2021-04-06T10:22:42Z</time>
      </trkpt>
      <trkpt lat="56.6132" lon="-4.76151">
        <ele>309.01</ele>
        <time>2021-04-06T10:22:48Z</time>
      </trkpt>
      <trkpt lat="56.60801" lon="-4.75732">
        <ele>296.65</ele>
        <time>2021-04-06T10:22:53Z</time>
      </trkpt>
      <trkpt lat="56.60662" lon="-4.75627">
        <ele>294</ele>
        <time>2021-04-06T10:22:59Z</time>
      </trkpt>
      <trkpt lat="56.6055" lon="-4.75535">
        <ele>295</ele>
        <time>2021-04-06T10:23:05Z</time>
      </trkpt>
      <trkpt lat="56.60476" lon="-4.75463">
        <ele>293</ele>
        <time>2021-04-06T10:23:11Z</time>
      </trkpt>
      <trkpt lat="56.60385" lon="-4.75361">
        <ele>297</ele>
        <time>2021-04-06T10:23:17Z</time>
      </trkpt>
      <trkpt lat="56.6031" lon="-4.75266">
        <ele>296.64</ele>
        <time>2021-04-06T10:23:22Z</time>
      </trkpt>
      <trkpt lat="56.60256" lon="-4.75188">
        <ele>294.95</ele>
        <time>2021-04-06T10:23:28Z</time>
      </trkpt>
      <trkpt lat="56.60206" lon="-4.75112">
        <ele>296.57</ele>
        <time>2021-04-06T10:23:34Z</time>
      </trkpt>
      <trkpt lat="56.60114" lon="-4.7495">
        <ele>296.93</ele>
        <time>2021-04-06T10:23:40Z</time>
      </trkpt>
      <trkpt lat="56.59934" lon="-4.74617">
        <ele>297</ele>
        <time>2021-04-06T10:23:46Z</time>
      </trkpt>
      <trkpt lat="56.59876" lon="-4.74516">
        <ele>297.7</ele>
        <time>2021-04-06T10:23:52Z</time>
      </trkpt>
      <trkpt lat="56.59828" lon="-4.74455">
        <ele>298</ele>
        <time>2021-04-06T10:23:57Z</time>
      </trkpt>
      <trkpt lat="56.5978" lon="-4.74409">
        <ele>298</ele>
        <time>2021-04-06T10:24:03Z</time>
      </trkpt>
      <trkpt lat="56.59723" lon="-4.7437">
        <ele>298</ele>
        <time>2021-04-06T10:24:09Z</time>
      </trkpt>
      <trkpt lat="56.59667" lon="-4.74345">
        <ele>296.57</ele>
        <time>2021-04-06T10:24:15Z</time>
      </trkpt>
      <trkpt lat="56.59625" lon="-4.74336">
        <ele>296.44</ele>
        <time>2021-04-06T10:24:21Z</time>
      </trkpt>
      <trkpt lat="56.59576" lon="-4.74336">
        <ele>296</ele>
        <time>2021-04-06T10:24:27Z</time>
      </trkpt>
      <trkpt lat="56.59517" lon="-4.74349">
        <ele>295.65</ele>
        <time>2021-04-06T10:24:32Z</time>
      </trkpt>
      <trkpt lat="56.58846" lon="-4.74628">
        <ele>306.14</ele>
        <time>2021-04-06T10:24:38Z</time>
      </trkpt>
      <trkpt lat="56.58788" lon="-4.74656">
        <ele>306.65</ele>
        <time>2021-04-06T10:24:44Z</time>
      </trkpt>
      <trkpt lat="56.58631" lon="-4.74712">
        <ele>313.28</ele>
        <time>2021-04-06T10:24:50Z</time>
      </trkpt>
      <trkpt lat="56.58529" lon="-4.7479">
        <ele>315.83</ele>
        <time>2021-04-06T10:24:56Z</time>
      </trkpt>
      <trkpt lat="56.58464" lon="-4.7485">
        <ele>315.69</ele>
        <time>2021-04-06T10:25:02Z</time>
      </trkpt>
      <trkpt lat="56.58358" lon="-4.74989">
        <ele>313.35</ele>
        <time>2021-04-06T10:25:07Z</time>
      </trkpt>
      <trkpt lat="56.58244" lon="-4.75168">
        <ele>311.41</ele>
        <time>2021-04-06T10:25:13Z</time>
      </trkpt>
      <trkpt lat="56.58131" lon="-4.75323">
        <ele>305.86</ele>
        <time>2021-04-06T10:25:19Z</time>
      </trkpt>
      <trkpt lat="56.58034" lon="-4.75445">
        <ele>302.46</ele>
        <time>2021-04-06T10:25:25Z</time>
      </trkpt>
      <trkpt lat="56.57941" lon="-4.75546">
        <ele>297.75</ele>
        <time>2021-04-06T10:25:31Z</time>
      </trkpt>
      <trkpt lat="56.57746" lon="-4.75671">
        <ele>294.53</ele>
        <time>2021-04-06T10:25:37Z</time>
      </trkpt>
      <trkpt lat="56.57489" lon="-4.7582">
        <ele>289</ele>
        <time>2021-04-06T10:25:42Z</time>
      </trkpt>
      <trkpt lat="56.57284" lon="-4.7593">
        <ele>283.64</ele>
        <time>2021-04-06T10:25:48Z</time>
      </trkpt>
      <trkpt lat="56.5727" lon="-4.75936">
        <ele>283.03</ele>
        <time>2021-04-06T10:25:54Z</time>
      </trkpt>
      <trkpt lat="56.57252" lon="-4.75939">
        <ele>282.25</ele>
        <time>2021-04-06T10:26:00Z</time>
      </trkpt>
      <trkpt lat="56.57223" lon="-4.75939">
        <ele>281.21</ele>
        <time>2021-04-06T10:26:06Z</time>
      </trkpt>
      <trkpt lat="56.5721" lon="-4.75937">
        <ele>280.83</ele>
        <time>2021-04-06T10:26:11Z</time>
      </trkpt>
      <trkpt lat="56.57175" lon="-4.75923">
        <ele>279.42</ele>
        <time>2021-04-06T10:26:17Z</time>
      </trkpt>
      <trkpt lat="56.57163" lon="-4.75915">
        <ele>278.46</ele>
        <time>2021-04-06T10:26:23Z</time>
      </trkpt>
      <trkpt lat="56.57139" lon="-4.75895">
        <ele>275.86</ele>
        <time>2021-04-06T10:26:29Z</time>
      </trkpt>
      <trkpt lat="56.57114" lon="-4.75865">
        <ele>273.35</ele>
        <time>2021-04-06T10:26:35Z</time>
      </trkpt>
      <trkpt lat="56.57102" lon="-4.75846">
        <ele>273.08</ele>
        <time>2021-04-06T10:26:41Z</time>
      </trkpt>
      <trkpt lat="56.57081" lon="-4.75805">
        <ele>271.7</ele>
        <time>2021-04-06T10:26:46Z</time>
      </trkpt>
      <trkpt lat="56.57017" lon="-4.75654">
        <ele>261.9</ele>
        <time>2021-04-06T10:26:52Z</time>
      </trkpt>
      <trkpt lat="56.57007" lon="-4.75634">
        <ele>261.35</ele>
        <time>2021-04-06T10:26:58Z</time>
      </trkpt>
      <trkpt lat="56.56988" lon="-4.756">
        <ele>260.14</ele>
        <time>2021-04-06T10:27:04Z</time>
      </trkpt>
      <trkpt lat="56.56961" lon="-4.75565">
        <ele>257.72</ele>
        <time>2021-04-06T10:27:10Z</time>
      </trkpt>
      <trkpt lat="56.56944" lon="-4.75547">
        <ele>256.32</ele>
        <time>2021-04-06T10:27:16Z</time>
      </trkpt>
      <trkpt lat="56.56909" lon="-4.75516">
        <ele>256.47</ele>
        <time>2021-04-06T10:27:21Z</time>
      </trkpt>
      <trkpt lat="56.56855" lon="-4.75473">
        <ele>254.27</ele>
        <time>2021-04-06T10:27:27Z</time>
      </trkpt>
      <trkpt lat="56.56829" lon="-4.7544">
        <ele>252.65</ele>
        <time>2021-04-06T10:27:33Z</time>
      </trkpt>
      <trkpt lat="56.56817" lon="-4.75417">
        <ele>251.84</ele>
        <time>2021-04-06T10:27:39Z</time>
      </trkpt>
      <trkpt lat="56.56809" lon="-4.75393">
        <ele>252.13</ele>
        <time>2021-04-06T10:27:45Z</time>
      </trkpt>
      <trkpt lat="56.56803" lon="-4.75361">
        <ele>250.68</ele>
        <time>2021-04-06T10:27:51Z</time>
      </trkpt>
      <trkpt lat="56.568" lon="-4.75327">
        <ele>249.13</ele>
        <time>2021-04-06T10:27:56Z</time>
      </trkpt>
      <trkpt lat="56.56803" lon="-4.75275">
        <ele>247.27</ele>
        <time>2021-04-06T10:28:02Z</time>
      </trkpt>
      <trkpt lat="56.56819" lon="-4.75097">
        <ele>241.4</ele>
        <time>2021-04-06T10:28:08Z</time>
      </trkpt>
      <trkpt lat="56.56822" lon="-4.75022">
        <ele>239</ele>
        <time>2021-04-06T10:28:14Z</time>
      </trkpt>
      <trkpt lat="56.56818" lon="-4.74946">
        <ele>235.97</ele>
        <time>2021-04-06T10:28:20Z</time>
      </trkpt>
      <trkpt lat="56.56811" lon="-4.74896">
        <ele>234.6</ele>
        <time>2021-04-06T10:28:26Z</time>
      </trkpt>
      <trkpt lat="56.5675" lon="-4.74655">
        <ele>225.93</ele>
        <time>2021-04-06T10:28:31Z</time>
      </trkpt>
      <trkpt lat="56.56744" lon="-4.74628">
        <ele>224.51</ele>
        <time>2021-04-06T10:28:37Z</time>
      </trkpt>
      <trkpt lat="56.56739" lon="-4.74599">
        <ele>223.07</ele>
        <time>2021-04-06T10:28:43Z</time>
      </trkpt>
      <trkpt lat="56.56735" lon="-4.74537">
        <ele>220.55</ele>
        <time>2021-04-06T10:28:49Z</time>
      </trkpt>
      <trkpt lat="56.56735" lon="-4.74486">
        <ele>219.07</ele>
        <time>2021-04-06T10:28:55Z</time>
      </trkpt>
      <trkpt lat="56.56741" lon="-4.74422">
        <ele>218.67</ele>
        <time>2021-04-06T10:29:00Z</time>
      </trkpt>
      <trkpt lat="56.5679" lon="-4.74008">
        <ele>210.94</ele>
        <time>2021-04-06T10:29:06Z</time>
      </trkpt>
      <trkpt lat="56.56791" lon="-4.73965">
        <ele>209.02</ele>
        <time>2021-04-06T10:29:12Z</time>
      </trkpt>
      <trkpt lat="56.56786" lon="-4.73925">
        <ele>206.74</ele>
        <time>2021-04-06T10:29:18Z</time>
      </trkpt>
      <trkpt lat="56.56782" lon="-4.73908">
        <ele>205.35</ele>
        <time>2021-04-06T10:29:24Z</time>
      </trkpt>
      <trkpt lat="56.56769" lon="-4.73876">
        <ele>203.07</ele>
        <time>2021-04-06T10:29:30Z</time>
      </trkpt>
      <trkpt lat="56.56755" lon="-4.73851">
        <ele>201.2</ele>
        <time>2021-04-06T10:29:35Z</time>
      </trkpt>
      <trkpt lat="56.56745" lon="-4.73839">
        <ele>199.89</ele>
        <time>2021-04-06T10:29:41Z</time>
      </trkpt>
      <trkpt lat="56.56723" lon="-4.73822">
        <ele>198.05</ele>
        <time>2021-04-06T10:29:47Z</time>
      </trkpt>
      <trkpt lat="56.56711" lon="-4.73818">
        <ele>197.17</ele>
        <time>2021-04-06T10:29:53Z</time>
      </trkpt>
      <trkpt lat="56.56687" lon="-4.73817">
        <ele>195.19</ele>
        <time>2021-04-06T10:29:59Z</time>
      </trkpt>
      <trkpt lat="56.56673" lon="-4.73823">
        <ele>193.7</ele>
        <time>2021-04-06T10:30:05Z</time>
      </trkpt>
      <trkpt lat="56.56658" lon="-4.73834">
        <ele>192.37</ele>
        <time>2021-04-06T10:30:10Z</time>
      </trkpt>
      <trkpt lat="56.56644" lon="-4.7385">
        <ele>191.97</ele>
        <time>2021-04-06T10:30:16Z</time>
      </trkpt>
      <trkpt lat="56.5663" lon="-4.73874">
        <ele>191.68</ele>
        <time>2021-04-06T10:30:22Z</time>
      </trkpt>
      <trkpt lat="56.56619" lon="-4.73903">
        <ele>191.4</ele>
        <time>2021-04-06T10:30:28Z</time>
      </trkpt>
      <trkpt lat="56.5659" lon="-4.7401">
        <ele>187.69</ele>
        <time>2021-04-06T10:30:34Z</time>
      </trkpt>
      <trkpt lat="56.56566" lon="-4.74086">
        <ele>186.73</ele>
        <time>2021-04-06T10:30:40Z</time>
      </trkpt>
      <trkpt lat="56.5654" lon="-4.74159">
        <ele>184.86</ele>
        <time>2021-04-06T10:30:45Z</time>
      </trkpt>
      <trkpt lat="56.56492" lon="-4.74264">
        <ele>180.45</ele>
        <time>2021-04-06T10:30:51Z</time>
      </trkpt>
      <trkpt lat="56.56464" lon="-4.74315">
        <ele>179.13</ele>
        <time>2021-04-06T10:30:57Z</time>
      </trkpt>
      <trkpt lat="56.56427" lon="-4.74376">
        <ele>176.92</ele>
        <time>2021-04-06T10:31:03Z</time>
      </trkpt>
      <trkpt lat="56.56368" lon="-4.74451">
        <ele>171.48</ele>
        <time>2021-04-06T10:31:09Z</time>
      </trkpt>
      <trkpt lat="56.56321" lon="-4.74495">
        <ele>169.55</ele>
        <time>2021-04-06T10:31:15Z</time>
      </trkpt>
      <trkpt lat="56.56286" lon="-4.7452">
        <ele>168.51</ele>
        <time>2021-04-06T10:31:20Z</time>
      </trkpt>
      <trkpt lat="56.56205" lon="-4.74565">
        <ele>167.38</ele>
        <time>2021-04-06T10:31:26Z</time>
      </trkpt>
      <trkpt lat="56.55367" lon="-4.74942">
        <ele>168.66</ele>
        <time>2021-04-06T10:31:32Z</time>
      </trkpt>
      <trkpt lat="56.55331" lon="-4.74961">
        <ele>168.45</ele>
        <time>2021-04-06T10:31:38Z</time>
      </trkpt>
      <trkpt lat="56.55287" lon="-4.74989">
        <ele>169.37</ele>
        <time>2021-04-06T10:31:44Z</time>
      </trkpt>
      <trkpt lat="56.55237" lon="-4.75032">
        <ele>170.71</ele>
        <time>2021-04-06T10:31:50Z</time>
      </trkpt>
      <trkpt lat="56.55192" lon="-4.7508">
        <ele>171.46</ele>
        <time>2021-04-06T10:31:55Z</time>
      </trkpt>
      <trkpt lat="56.55155" lon="-4.75125">
        <ele>172.5</ele>
        <time>2021-04-06T10:32:01Z</time>
      </trkpt>
      <trkpt lat="56.55113" lon="-4.75188">
        <ele>172.55</ele>
        <time>2021-04-06T10:32:07Z</time>
      </trkpt>
      <trkpt lat="56.55083" lon="-4.75238">
        <ele>171.95</ele>
        <time>2021-04-06T10:32:13Z</time>
      </trkpt>
      <trkpt lat="56.54983" lon="-4.75435">
        <ele>174.15</ele>
        <time>2021-04-06T10:32:19Z</time>
      </trkpt>
      <trkpt lat="56.5495" lon="-4.7549">
        <ele>175.14</ele>
        <time>2021-04-06T10:32:24Z</time>
      </trkpt>
      <trkpt lat="56.54923" lon="-4.7553">
        <ele>178.85</ele>
        <time>2021-04-06T10:32:30Z</time>
      </trkpt>
      <trkpt lat="56.54886" lon="-4.7558">
        <ele>180.07</ele>
        <time>2021-04-06T10:32:36Z</time>
      </trkpt>
      <trkpt lat="56.54817" lon="-4.75659">
        <ele>184.4</ele>
        <time>2021-04-06T10:32:42Z</time>
      </trkpt>
      <trkpt lat="56.54712" lon="-4.75772">
        <ele>183.63</ele>
        <time>2021-04-06T10:32:48Z</time>
      </trkpt>
      <trkpt lat="56.54511" lon="-4.76009">
        <ele>186.16</ele>
        <time>2021-04-06T10:32:54Z</time>
      </trkpt>
      <trkpt lat="56.54413" lon="-4.76117">
        <ele>187.67</ele>
        <time>2021-04-06T10:32:59Z</time>
      </trkpt>
      <trkpt lat="56.5421" lon="-4.7635">
        <ele>190.25</ele>
        <time>2021-04-06T10:33:05Z</time>
      </trkpt>
      <trkpt lat="56.54131" lon="-4.76437">
        <ele>192</ele>
        <time>2021-04-06T10:33:11Z</time>
      </trkpt>
      <trkpt lat="56.54086" lon="-4.76481">
        <ele>193.81</ele>
        <time>2021-04-06T10:33:17Z</time>
      </trkpt>
      <trkpt lat="56.54039" lon="-4.76522">
        <ele>193.2</ele>
        <time>2021-04-06T10:33:23Z</time>
      </trkpt>
      <trkpt lat="56.53962" lon="-4.76574">
        <ele>191.95</ele>
        <time>2021-04-06T10:33:29Z</time>
      </trkpt>
      <trkpt lat="56.53918" lon="-4.76598">
        <ele>191</ele>
        <time>2021-04-06T10:33:34Z</time>
      </trkpt>
      <trkpt lat="56.53864" lon="-4.76621">
        <ele>190.42</ele>
        <time>2021-04-06T10:33:40Z</time>
      </trkpt>
      <trkpt lat="56.53821" lon="-4.76635">
        <ele>188.43</ele>
        <time>2021-04-06T10:33:46Z</time>
      </trkpt>
      <trkpt lat="56.53741" lon="-4.76655">
        <ele>185.33</ele>
        <time>2021-04-06T10:33:52Z</time>
      </trkpt>
      <trkpt lat="56.5215" lon="-4.76713">
        <ele>161.81</ele>
        <time>2021-04-06T10:33:58Z</time>
      </trkpt>
      <trkpt lat="56.52087" lon="-4.76722">
        <ele>163.79</ele>
        <time>2021-04-06T10:34:04Z</time>
      </trkpt>
      <trkpt lat="56.52055" lon="-4.7673">
        <ele>163.71</ele>
        <time>2021-04-06T10:34:09Z</time>
      </trkpt>
      <trkpt lat="56.52" lon="-4.76752">
        <ele>162.95</ele>
        <time>2021-04-06T10:34:15Z</time>
      </trkpt>
      <trkpt lat="56.51886" lon="-4.76813">
        <ele>161.83</ele>
        <time>2021-04-06T10:34:21Z</time>
      </trkpt>
      <trkpt lat="56.51879" lon="-4.76817">
        <ele>161.95</ele>
        <time>2021-04-06T10:34:27Z</time>
      </trkpt>
      <trkpt lat="56.5183" lon="-4.76843">
        <ele>162.31</ele>
        <time>2021-04-06T10:34:33Z</time>
      </trkpt>
      <trkpt lat="56.51786" lon="-4.76863">
        <ele>161.64</ele>
        <time>2021-04-06T10:34:39Z</time>
      </trkpt>
      <trkpt lat="56.51757" lon="-4.76873">
        <ele>162.32</ele>
        <time>2021-04-06T10:34:44Z</time>
      </trkpt>
      <trkpt lat="56.51727" lon="-4.76879">
        <ele>163.18</ele>
        <time>2021-04-06T10:34:50Z</time>
      </trkpt>
      <trkpt lat="56.51661" lon="-4.76886">
        <ele>160.99</ele>
        <time>2021-04-06T10:34:56Z</time>
      </trkpt>
      <trkpt lat="56.51619" lon="-4.76882">
        <ele>159.6</ele>
        <time>2021-04-06T10:35:02Z</time>
      </trkpt>
      <trkpt lat="56.51572" lon="-4.76873">
        <ele>158</ele>
        <time>2021-04-06T10:35:08Z</time>
      </trkpt>
      <trkpt lat="56.51445" lon="-4.76839">
        <ele>158.55</ele>
        <time>2021-04-06T10:35:13Z</time>
      </trkpt>
      <trkpt lat="56.51345" lon="-4.76809">
        <ele>156.28</ele>
        <time>2021-04-06T10:35:19Z</time>
      </trkpt>
      <trkpt lat="56.5126" lon="-4.76803">
        <ele>154.52</ele>
        <time>2021-04-06T10:35:25Z</time>
      </trkpt>
      <trkpt lat="56.50841" lon="-4.76825">
        <ele>158.72</ele>
        <time>2021-04-06T10:35:31Z</time>
      </trkpt>
      <trkpt lat="56.50768" lon="-4.76827">
        <ele>161.34</ele>
        <time>2021-04-06T10:35:37Z</time>
      </trkpt>
      <trkpt lat="56.50731" lon="-4.76823">
        <ele>162.15</ele>
        <time>2021-04-06T10:35:43Z</time>
      </trkpt>
      <trkpt lat="56.50695" lon="-4.76817">
        <ele>161.6</ele>
        <time>2021-04-06T10:35:48Z</time>
      </trkpt>
      <trkpt lat="56.50661" lon="-4.76807">
        <ele>160.18</ele>
        <time>2021-04-06T10:35:54Z</time>
      </trkpt>
      <trkpt lat="56.50465" lon="-4.7676">
        <ele>170.73</ele>
        <time>2021-04-06T10:36:00Z</time>
      </trkpt>
      <trkpt lat="56.50409" lon="-4.76737">
        <ele>170.72</ele>
        <time>2021-04-06T10:36:06Z</time>
      </trkpt>
      <trkpt lat="56.50382" lon="-4.76722">
        <ele>172.79</ele>
        <time>2021-04-06T10:36:12Z</time>
      </trkpt>
      <trkpt lat="56.50341" lon="-4.7669">
        <ele>172.91</ele>
        <time>2021-04-06T10:36:18Z</time>
      </trkpt>
      <trkpt lat="56.50299" lon="-4.76646">
        <ele>174.48</ele>
        <time>2021-04-06T10:36:23Z</time>
      </trkpt>
      <trkpt lat="56.5025" lon="-4.76575">
        <ele>175.15</ele>
        <time>2021-04-06T10:36:29Z</time>
      </trkpt>
      <trkpt lat="56.49465" lon="-4.7536">
        <ele>200.57</ele>
        <time>2021-04-06T10:36:35Z</time>
      </trkpt>
      <trkpt lat="56.49341" lon="-4.75172">
        <ele>202.97</ele>
        <time>2021-04-06T10:36:41Z</time>
      </trkpt>
      <trkpt lat="56.48905" lon="-4.74594">
        <ele>220.7</ele>
        <time>2021-04-06T10:36:47Z</time>
      </trkpt>
      <trkpt lat="56.48813" lon="-4.74463">
        <ele>223.34</ele>
        <time>2021-04-06T10:36:53Z</time>
      </trkpt>
      <trkpt lat="56.48708" lon="-4.74303">
        <ele>225.55</ele>
        <time>2021-04-06T10:36:58Z</time>
      </trkpt>
      <trkpt lat="56.48645" lon="-4.74212">
        <ele>225.76</ele>
        <time>2021-04-06T10:37:04Z</time>
      </trkpt>
      <trkpt lat="56.48611" lon="-4.7417">
        <ele>227.69</ele>
        <time>2021-04-06T10:37:10Z</time>
      </trkpt>
      <trkpt lat="56.48414" lon="-4.73948">
        <ele>238.69</ele>
        <time>2021-04-06T10:37:16Z</time>
      </trkpt>
      <trkpt lat="56.48373" lon="-4.73893">
        <ele>239.93</ele>
        <time>2021-04-06T10:37:22Z</time>
      </trkpt>
      <trkpt lat="56.48218" lon="-4.7366">
        <ele>245.53</ele>
        <time>2021-04-06T10:37:28Z</time>
      </trkpt>
      <trkpt lat="56.48156" lon="-4.73578">
        <ele>244.13</ele>
        <time>2021-04-06T10:37:33Z</time>
      </trkpt>
      <trkpt lat="56.48125" lon="-4.73539">
        <ele>245.41</ele>
        <time>2021-04-06T10:37:39Z</time>
      </trkpt>
      <trkpt lat="56.48082" lon="-4.73492">
        <ele>248.74</ele>
        <time>2021-04-06T10:37:45Z</time>
      </trkpt>
      <trkpt lat="56.47982" lon="-4.73401">
        <ele>252.85</ele>
        <time>2021-04-06T10:37:51Z</time>
      </trkpt>
      <trkpt lat="56.47949" lon="-4.73368">
        <ele>255.92</ele>
        <time>2021-04-06T10:37:57Z</time>
      </trkpt>
      <trkpt lat="56.47911" lon="-4.73319">
        <ele>254.1</ele>
        <time>2021-04-06T10:38:03Z</time>
      </trkpt>
      <trkpt lat="56.47832" lon="-4.73199">
        <ele>256.09</ele>
        <time>2021-04-06T10:38:08Z</time>
      </trkpt>
      <trkpt lat="56.478" lon="-4.73156">
        <ele>256.8</ele>
        <time>2021-04-06T10:38:14Z</time>
      </trkpt>
      <trkpt lat="56.4777" lon="-4.73126">
        <ele>257.81</ele>
        <time>2021-04-06T10:38:20Z</time>
      </trkpt>
      <trkpt lat="56.47324" lon="-4.72735">
        <ele>270.5</ele>
        <time>2021-04-06T10:38:26Z</time>
      </trkpt>
      <trkpt lat="56.47274" lon="-4.72697">
        <ele>274</ele>
        <time>2021-04-06T10:38:32Z</time>
      </trkpt>
      <trkpt lat="56.4723" lon="-4.72667">
        <ele>273.63</ele>
        <time>2021-04-06T10:38:37Z</time>
      </trkpt>
      <trkpt lat="56.46901" lon="-4.72467">
        <ele>286.68</ele>
        <time>2021-04-06T10:38:43Z</time>
      </trkpt>
      <trkpt lat="56.46873" lon="-4.72457">
        <ele>286.76</ele>
        <time>2021-04-06T10:38:49Z</time>
      </trkpt>
      <trkpt lat="56.4685" lon="-4.72455">
        <ele>287.2</ele>
        <time>2021-04-06T10:38:55Z</time>
      </trkpt>
      <trkpt lat="56.46829" lon="-4.72457">
        <ele>288.11</ele>
        <time>2021-04-06T10:39:01Z</time>
      </trkpt>
      <trkpt lat="56.4681" lon="-4.72463">
        <ele>288.57</ele>
        <time>2021-04-06T10:39:07Z</time>
      </trkpt>
      <trkpt lat="56.4679" lon="-4.72473">
        <ele>290.1</ele>
        <time>2021-04-06T10:39:12Z</time>
      </trkpt>
      <trkpt lat="56.46735" lon="-4.72511">
        <ele>294.48</ele>
        <time>2021-04-06T10:39:18Z</time>
      </trkpt>
      <trkpt lat="56.46707" lon="-4.72523">
        <ele>293.98</ele>
        <time>2021-04-06T10:39:24Z</time>
      </trkpt>
      <trkpt lat="56.46693" lon="-4.72524">
        <ele>292.22</ele>
        <time>2021-04-06T10:39:30Z</time>
      </trkpt>
      <trkpt lat="56.46668" lon="-4.7252">
        <ele>289.62</ele>
        <time>2021-04-06T10:39:36Z</time>
      </trkpt>
      <trkpt lat="56.46639" lon="-4.72505">
        <ele>286.71</ele>
        <time>2021-04-06T10:39:42Z</time>
      </trkpt>
      <trkpt lat="56.46609" lon="-4.72471">
        <ele>285.15</ele>
        <time>2021-04-06T10:39:47Z</time>
      </trkpt>
      <trkpt lat="56.46597" lon="-4.72452">
        <ele>286.75</ele>
        <time>2021-04-06T10:39:53Z</time>
      </trkpt>
      <trkpt lat="56.46578" lon="-4.72407">
        <ele>291.01</ele>
        <time>2021-04-06T10:39:59Z</time>
      </trkpt>
      <trkpt lat="56.46491" lon="-4.72087">
        <ele>298.78</ele>
        <time>2021-04-06T10:40:05Z</time>
      </trkpt>
      <trkpt lat="56.46472" lon="-4.72037">
        <ele>301.7</ele>
        <time>2021-04-06T10:40:11Z</time>
      </trkpt>
      <trkpt lat="56.46448" lon="-4.71992">
        <ele>299.7</ele>
        <time>2021-04-06T10:40:17Z</time>
      </trkpt>
      <trkpt lat="56.46162" lon="-4.71582">
        <ele>310.67</ele>
        <time>2021-04-06T10:40:22Z</time>
      </trkpt>
      <trkpt lat="56.46136" lon="-4.71548">
        <ele>312.07</ele>
        <time>2021-04-06T10:40:28Z</time>
      </trkpt>
      <trkpt lat="56.46072" lon="-4.71477">
        <ele>314.36</ele>
        <time>2021-04-06T10:40:34Z</time>
      </trkpt>
      <trkpt lat="56.45973" lon="-4.7139">
        <ele>317.07</ele>
        <time>2021-04-06T10:40:40Z</time>
      </trkpt>
      <trkpt lat="56.45917" lon="-4.71351">
        <ele>321.47</ele>
        <time>2021-04-06T10:40:46Z</time>
      </trkpt>
      <trkpt lat="56.45818" lon="-4.71296">
        <ele>319.56</ele>
        <time>2021-04-06T10:40:52Z</time>
      </trkpt>
      <trkpt lat="56.45637" lon="-4.71204">
        <ele>319.33</ele>
        <time>2021-04-06T10:40:57Z</time>
      </trkpt>
      <trkpt lat="56.45619" lon="-4.71198">
        <ele>317.8</ele>
        <time>2021-04-06T10:41:03Z</time>
      </trkpt>
      <trkpt lat="56.45596" lon="-4.71194">
        <ele>316.84</ele>
        <time>2021-04-06T10:41:09Z</time>
      </trkpt>
      <trkpt lat="56.45507" lon="-4.71204">
        <ele>319.08</ele>
        <time>2021-04-06T10:41:15Z</time>
      </trkpt>
      <trkpt lat="56.45489" lon="-4.71202">
        <ele>318.72</ele>
        <time>2021-04-06T10:41:21Z</time>
      </trkpt>
      <trkpt lat="56.45469" lon="-4.71195">
        <ele>318.29</ele>
        <time>2021-04-06T10:41:26Z</time>
      </trkpt>
      <trkpt lat="56.44953" lon="-4.70964">
        <ele>311</ele>
        <time>2021-04-06T10:41:32Z</time>
      </trkpt>
      <trkpt lat="56.44923" lon="-4.70954">
        <ele>308.23</ele>
        <time>2021-04-06T10:41:38Z</time>
      </trkpt>
      <trkpt lat="56.4486" lon="-4.70944">
        <ele>305.77</ele>
        <time>2021-04-06T10:41:44Z</time>
      </trkpt>
      <trkpt lat="56.44829" lon="-4.70944">
        <ele>303.64</ele>
        <time>2021-04-06T10:41:50Z</time>
      </trkpt>
      <trkpt lat="56.44794" lon="-4.7095">
        <ele>301.46</ele>
        <time>2021-04-06T10:41:56Z</time>
      </trkpt>
      <trkpt lat="56.44738" lon="-4.70969">
        <ele>299.17</ele>
        <time>2021-04-06T10:42:01Z</time>
      </trkpt>
      <trkpt lat="56.44711" lon="-4.70983">
        <ele>298.39</ele>
        <time>2021-04-06T10:42:07Z</time>
      </trkpt>
      <trkpt lat="56.44678" lon="-4.71006">
        <ele>296.58</ele>
        <time>2021-04-06T10:42:13Z</time>
      </trkpt>
      <trkpt lat="56.44606" lon="-4.71068">
        <ele>297.98</ele>
        <time>2021-04-06T10:42:19Z</time>
      </trkpt>
      <trkpt lat="56.44582" lon="-4.71083">
        <ele>296.73</ele>
        <time>2021-04-06T10:42:25Z</time>
      </trkpt>
      <trkpt lat="56.44564" lon="-4.7109">
        <ele>294.47</ele>
        <time>2021-04-06T10:42:31Z</time>
      </trkpt>
      <trkpt lat="56.44544" lon="-4.71094">
        <ele>292.9</ele>
        <time>2021-04-06T10:42:36Z</time>
      </trkpt>
      <trkpt lat="56.4452" lon="-4.71095">
        <ele>291.77</ele>
        <time>2021-04-06T10:42:42Z</time>
      </trkpt>
      <trkpt lat="56.44467" lon="-4.71087">
        <ele>287.34</ele>
        <time>2021-04-06T10:42:48Z</time>
      </trkpt>
      <trkpt lat="56.44467" lon="-4.71087">
        <ele>287.34</ele>
        <time>2021-04-06T10:42:48Z</time>
      </trkpt>
      <trkpt lat="56.44414" lon="-4.71079">
        <ele>282.92</ele>
        <time>2021-04-06T10:42:52Z</time>
      </trkpt>
      <trkpt lat="56.44391" lon="-4.71081">
        <ele>280.76</ele>
        <time>2021-04-06T10:42:56Z</time>
      </trkpt>
      <trkpt lat="56.44374" lon="-4.71085">
        <ele>279.12</ele>
        <time>2021-04-06T10:43:00Z</time>
      </trkpt>
      <trkpt lat="56.44353" lon="-4.71095">
        <ele>277.43</ele>
        <time>2021-04-06T10:43:03Z</time>
      </trkpt>
      <trkpt lat="56.44272" lon="-4.71139">
        <ele>281.12</ele>
        <time>2021-04-06T10:43:07Z</time>
      </trkpt>
      <trkpt lat="56.44225" lon="-4.71168">
        <ele>279.73</ele>
        <time>2021-04-06T10:43:11Z</time>
      </trkpt>
      <trkpt lat="56.44205" lon="-4.7119">
        <ele>277.73</ele>
        <time>2021-04-06T10:43:15Z</time>
      </trkpt>
      <trkpt lat="56.44176" lon="-4.71228">
        <ele>273.93</ele>
        <time>2021-04-06T10:43:18Z</time>
      </trkpt>
      <trkpt lat="56.44163" lon="-4.71253">
        <ele>273.41</ele>
        <time>2021-04-06T10:43:22Z</time>
      </trkpt>
      <trkpt lat="56.4415" lon="-4.71281">
        <ele>273.11</ele>
        <time>2021-04-06T10:43:26Z</time>
      </trkpt>
      <trkpt lat="56.44136" lon="-4.71323">
        <ele>273.42</ele>
        <time>2021-04-06T10:43:29Z</time>
      </trkpt>
      <trkpt lat="56.44123" lon="-4.71377">
        <ele>271.53</ele>
        <time>2021-04-06T10:43:33Z</time>
      </trkpt>
      <trkpt lat="56.44084" lon="-4.71591">
        <ele>265.48</ele>
        <time>2021-04-06T10:43:37Z</time>
      </trkpt>
      <trkpt lat="56.44056" lon="-4.71734">
        <ele>262.52</ele>
        <time>2021-04-06T10:43:41Z</time>
      </trkpt>
      <trkpt lat="56.4405" lon="-4.71753">
        <ele>261.42</ele>
        <time>2021-04-06T10:43:44Z</time>
      </trkpt>
      <trkpt lat="56.44041" lon="-4.71772">
        <ele>259.58</ele>
        <time>2021-04-06T10:43:48Z</time>
      </trkpt>
      <trkpt lat="56.44032" lon="-4.71785">
        <ele>258.05</ele>
        <time>2021-04-06T10:43:52Z</time>
      </trkpt>
      <trkpt lat="56.4401" lon="-4.71805">
        <ele>255.1</ele>
        <time>2021-04-06T10:43:56Z</time>
      </trkpt>
      <trkpt lat="56.43998" lon="-4.71809">
        <ele>253</ele>
        <time>2021-04-06T10:43:59Z</time>
      </trkpt>
      <trkpt lat="56.43974" lon="-4.7181">
        <ele>250.37</ele>
        <time>2021-04-06T10:44:03Z</time>
      </trkpt>
      <trkpt lat="56.43953" lon="-4.71799">
        <ele>249.57</ele>
        <time>2021-04-06T10:44:07Z</time>
      </trkpt>
      <trkpt lat="56.43943" lon="-4.71789">
        <ele>248.81</ele>
        <time>2021-04-06T10:44:11Z</time>
      </trkpt>
      <trkpt lat="56.43927" lon="-4.71764">
        <ele>248.15</ele>
        <time>2021-04-06T10:44:14Z</time>
      </trkpt>
      <trkpt lat="56.43916" lon="-4.71743">
        <ele>247.82</ele>
        <time>2021-04-06T10:44:18Z</time>
      </trkpt>
      <trkpt lat="56.43905" lon="-4.71717">
        <ele>247.62</ele>
        <time>2021-04-06T10:44:22Z</time>
      </trkpt>
      <trkpt lat="56.43888" lon="-4.71656">
        <ele>245.63</ele>
        <time>2021-04-06T10:44:26Z</time>
      </trkpt>
      <trkpt lat="56.43875" lon="-4.71578">
        <ele>243.84</ele>
        <time>2021-04-06T10:44:29Z</time>
      </trkpt>
      <trkpt lat="56.4386" lon="-4.71478">
        <ele>241.17</ele>
        <time>2021-04-06T10:44:33Z</time>
      </trkpt>
      <trkpt lat="56.43831" lon="-4.7135">
        <ele>238.31</ele>
        <time>2021-04-06T10:44:37Z</time>
      </trkpt>
      <trkpt lat="56.4382" lon="-4.71311">
        <ele>238.92</ele>
        <time>2021-04-06T10:44:41Z</time>
      </trkpt>
      <trkpt lat="56.43807" lon="-4.71289">
        <ele>239.6</ele>
        <time>2021-04-06T10:44:44Z</time>
      </trkpt>
      <trkpt lat="56.43778" lon="-4.71255">
        <ele>238.99</ele>
        <time>2021-04-06T10:44:48Z</time>
      </trkpt>
      <trkpt lat="56.4362" lon="-4.71095">
        <ele>230.63</ele>
        <time>2021-04-06T10:44:52Z</time>
      </trkpt>
      <trkpt lat="56.43583" lon="-4.71055">
        <ele>229</ele>
        <time>2021-04-06T10:44:56Z</time>
      </trkpt>
      <trkpt lat="56.43533" lon="-4.7099">
        <ele>229.84</ele>
        <time>2021-04-06T10:44:59Z</time>
      </trkpt>
      <trkpt lat="56.43512" lon="-4.70955">
        <ele>231.11</ele>
        <time>2021-04-06T10:45:03Z</time>
      </trkpt>
      <trkpt lat="56.43472" lon="-4.70895">
        <ele>230.55</ele>
        <time>2021-04-06T10:45:07Z</time>
      </trkpt>
      <trkpt lat="56.43421" lon="-4.70811">
        <ele>225.48</ele>
        <time>2021-04-06T10:45:11Z</time>
      </trkpt>
      <trkpt lat="56.43395" lon="-4.70775">
        <ele>224.54</ele>
        <time>2021-04-06T10:45:14Z</time>
      </trkpt>
      <trkpt lat="56.43212" lon="-4.70499">
        <ele>221.96</ele>
        <time>2021-04-06T10:45:18Z</time>
      </trkpt>
      <trkpt lat="56.43189" lon="-4.70449">
        <ele>222.14</ele>
        <time>2021-04-06T10:45:22Z</time>
      </trkpt>
      <trkpt lat="56.43155" lon="-4.70354">
        <ele>221.76</ele>
        <time>2021-04-06T10:45:26Z</time>
      </trkpt>
      <trkpt lat="56.43136" lon="-4.70311">
        <ele>222.19</ele>
        <time>2021-04-06T10:45:29Z</time>
      </trkpt>
      <trkpt lat="56.43124" lon="-4.70291">
        <ele>222.4</ele>
        <time>2021-04-06T10:45:33Z</time>
      </trkpt>
      <trkpt lat="56.43098" lon="-4.70256">
        <ele>220.72</ele>
        <time>2021-04-06T10:45:37Z</time>
      </trkpt>
      <trkpt lat="56.43059" lon="-4.70209">
        <ele>218.82</ele>
        <time>2021-04-06T10:45:40Z</time>
      </trkpt>
      <trkpt lat="56.43047" lon="-4.70191">
        <ele>219.36</ele>
        <time>2021-04-06T10:45:44Z</time>
      </trkpt>
      <trkpt lat="56.43038" lon="-4.70172">
        <ele>220.03</ele>
        <time>2021-04-06T10:45:48Z</time>
      </trkpt>
      <trkpt lat="56.42946" lon="-4.69912">
        <ele>216.45</ele>
        <time>2021-04-06T10:45:52Z</time>
      </trkpt>
      <trkpt lat="56.42927" lon="-4.69867">
        <ele>214.88</ele>
        <time>2021-04-06T10:45:55Z</time>
      </trkpt>
      <trkpt lat="56.42878" lon="-4.69765">
        <ele>213.1</ele>
        <time>2021-04-06T10:45:59Z</time>
      </trkpt>
      <trkpt lat="56.42839" lon="-4.69663">
        <ele>210.62</ele>
        <time>2021-04-06T10:46:03Z</time>
      </trkpt>
      <trkpt lat="56.42801" lon="-4.69571">
        <ele>209.2</ele>
        <time>2021-04-06T10:46:07Z</time>
      </trkpt>
      <trkpt lat="56.42784" lon="-4.69517">
        <ele>208.43</ele>
        <time>2021-04-06T10:46:10Z</time>
      </trkpt>
      <trkpt lat="56.42754" lon="-4.69405">
        <ele>206.3</ele>
        <time>2021-04-06T10:46:14Z</time>
      </trkpt>
      <trkpt lat="56.42736" lon="-4.69329">
        <ele>205.02</ele>
        <time>2021-04-06T10:46:18Z</time>
      </trkpt>
      <trkpt lat="56.42692" lon="-4.69157">
        <ele>200.79</ele>
        <time>2021-04-06T10:46:22Z</time>
      </trkpt>
      <trkpt lat="56.42583" lon="-4.68721">
        <ele>190.98</ele>
        <time>2021-04-06T10:46:25Z</time>
      </trkpt>
      <trkpt lat="56.42457" lon="-4.68202">
        <ele>181.34</ele>
        <time>2021-04-06T10:46:29Z</time>
      </trkpt>
      <trkpt lat="56.42425" lon="-4.68084">
        <ele>179.21</ele>
        <time>2021-04-06T10:46:33Z</time>
      </trkpt>
      <trkpt lat="56.42408" lon="-4.68031">
        <ele>177.75</ele>
        <time>2021-04-06T10:46:37Z</time>
      </trkpt>
      <trkpt lat="56.42391" lon="-4.67987">
        <ele>175.29</ele>
        <time>2021-04-06T10:46:40Z</time>
      </trkpt>
      <trkpt lat="56.42365" lon="-4.67925">
        <ele>174</ele>
        <time>2021-04-06T10:46:44Z</time>
      </trkpt>
      <trkpt lat="56.42332" lon="-4.67856">
        <ele>172.77</ele>
        <time>2021-04-06T10:46:48Z</time>
      </trkpt>
      <trkpt lat="56.42276" lon="-4.6777">
        <ele>172</ele>
        <time>2021-04-06T10:46:52Z</time>
      </trkpt>
      <trkpt lat="56.42187" lon="-4.67651">
        <ele>171</ele>
        <time>2021-04-06T10:46:55Z</time>
      </trkpt>
      <trkpt lat="56.42141" lon="-4.67581">
        <ele>172.82</ele>
        <time>2021-04-06T10:46:59Z</time>
      </trkpt>
      <trkpt lat="56.42107" lon="-4.67522">
        <ele>174.03</ele>
        <time>2021-04-06T10:47:03Z</time>
      </trkpt>
      <trkpt lat="56.41952" lon="-4.67236">
        <ele>170.48</ele>
        <time>2021-04-06T10:47:07Z</time>
      </trkpt>
      <trkpt lat="56.41861" lon="-4.67085">
        <ele>173.14</ele>
        <time>2021-04-06T10:47:10Z</time>
      </trkpt>
      <trkpt lat="56.41821" lon="-4.67015">
        <ele>171.18</ele>
        <time>2021-04-06T10:47:14Z</time>
      </trkpt>
      <trkpt lat="56.4179" lon="-4.66952">
        <ele>171.6</ele>
        <time>2021-04-06T10:47:18Z</time>
      </trkpt>
      <trkpt lat="56.41625" lon="-4.66552">
        <ele>170.87</ele>
        <time>2021-04-06T10:47:22Z</time>
      </trkpt>
      <trkpt lat="56.41538" lon="-4.66382">
        <ele>169.72</ele>
        <time>2021-04-06T10:47:25Z</time>
      </trkpt>
      <trkpt lat="56.41494" lon="-4.66307">
        <ele>170.22</ele>
        <time>2021-04-06T10:47:29Z</time>
      </trkpt>
      <trkpt lat="56.41448" lon="-4.66241">
        <ele>170.59</ele>
        <time>2021-04-06T10:47:33Z</time>
      </trkpt>
      <trkpt lat="56.41351" lon="-4.66121">
        <ele>175.45</ele>
        <time>2021-04-06T10:47:37Z</time>
      </trkpt>
      <trkpt lat="56.41292" lon="-4.66055">
        <ele>173.97</ele>
        <time>2021-04-06T10:47:40Z</time>
      </trkpt>
      <trkpt lat="56.41215" lon="-4.65963">
        <ele>173.54</ele>
        <time>2021-04-06T10:47:44Z</time>
      </trkpt>
      <trkpt lat="56.41166" lon="-4.65892">
        <ele>173.48</ele>
        <time>2021-04-06T10:47:48Z</time>
      </trkpt>
      <trkpt lat="56.41077" lon="-4.65741">
        <ele>179.78</ele>
        <time>2021-04-06T10:47:51Z</time>
      </trkpt>
      <trkpt lat="56.41033" lon="-4.65678">
        <ele>181.82</ele>
        <time>2021-04-06T10:47:55Z</time>
      </trkpt>
      <trkpt lat="56.40993" lon="-4.65633">
        <ele>185.76</ele>
        <time>2021-04-06T10:47:59Z</time>
      </trkpt>
      <trkpt lat="56.40856" lon="-4.65503">
        <ele>184.14</ele>
        <time>2021-04-06T10:48:03Z</time>
      </trkpt>
      <trkpt lat="56.40809" lon="-4.65442">
        <ele>186.94</ele>
        <time>2021-04-06T10:48:06Z</time>
      </trkpt>
      <trkpt lat="56.40786" lon="-4.65405">
        <ele>188.27</ele>
        <time>2021-04-06T10:48:10Z</time>
      </trkpt>
      <trkpt lat="56.40748" lon="-4.6533">
        <ele>186.64</ele>
        <time>2021-04-06T10:48:14Z</time>
      </trkpt>
      <trkpt lat="56.40726" lon="-4.65274">
        <ele>187.66</ele>
        <time>2021-04-06T10:48:18Z</time>
      </trkpt>
      <trkpt lat="56.40659" lon="-4.65084">
        <ele>181.86</ele>
        <time>2021-04-06T10:48:21Z</time>
      </trkpt>
      <trkpt lat="56.40609" lon="-4.6496">
        <ele>177.37</ele>
        <time>2021-04-06T10:48:25Z</time>
      </trkpt>
      <trkpt lat="56.40579" lon="-4.6489">
        <ele>175.65</ele>
        <time>2021-04-06T10:48:29Z</time>
      </trkpt>
      <trkpt lat="56.40525" lon="-4.64781">
        <ele>176.75</ele>
        <time>2021-04-06T10:48:33Z</time>
      </trkpt>
      <trkpt lat="56.40479" lon="-4.64681">
        <ele>174.9</ele>
        <time>2021-04-06T10:48:36Z</time>
      </trkpt>
      <trkpt lat="56.4046" lon="-4.64635">
        <ele>174.61</ele>
        <time>2021-04-06T10:48:40Z</time>
      </trkpt>
      <trkpt lat="56.40436" lon="-4.64563">
        <ele>173.51</ele>
        <time>2021-04-06T10:48:44Z</time>
      </trkpt>
      <trkpt lat="56.404" lon="-4.64449">
        <ele>168.67</ele>
        <time>2021-04-06T10:48:48Z</time>
      </trkpt>
      <trkpt lat="56.4038" lon="-4.64376">
        <ele>168.38</ele>
        <time>2021-04-06T10:48:51Z</time>
      </trkpt>
      <trkpt lat="56.40343" lon="-4.64263">
        <ele>164.99</ele>
        <time>2021-04-06T10:48:55Z</time>
      </trkpt>
      <trkpt lat="56.40319" lon="-4.64202">
        <ele>163.64</ele>
        <time>2021-04-06T10:48:59Z</time>
      </trkpt>
      <trkpt lat="56.40288" lon="-4.64129">
        <ele>163.31</ele>
        <time>2021-04-06T10:49:03Z</time>
      </trkpt>
      <trkpt lat="56.40248" lon="-4.64052">
        <ele>162.16</ele>
        <time>2021-04-06T10:49:06Z</time>
      </trkpt>
      <trkpt lat="56.40214" lon="-4.63993">
        <ele>163.15</ele>
        <time>2021-04-06T10:49:10Z</time>
      </trkpt>
      <trkpt lat="56.40176" lon="-4.63936">
        <ele>166.71</ele>
        <time>2021-04-06T10:49:14Z</time>
      </trkpt>
      <trkpt lat="56.40133" lon="-4.63877">
        <ele>167.17</ele>
        <time>2021-04-06T10:49:18Z</time>
      </trkpt>
      <trkpt lat="56.40098" lon="-4.63837">
        <ele>167.24</ele>
        <time>2021-04-06T10:49:21Z</time>
      </trkpt>
      <trkpt lat="56.4001" lon="-4.63748">
        <ele>168.52</ele>
        <time>2021-04-06T10:49:25Z</time>
      </trkpt>
      <trkpt lat="56.39953" lon="-4.63694">
        <ele>174.8</ele>
        <time>2021-04-06T10:49:29Z</time>
      </trkpt>
      <trkpt lat="56.39925" lon="-4.63664">
        <ele>175.94</ele>
        <time>2021-04-06T10:49:33Z</time>
      </trkpt>
      <trkpt lat="56.39903" lon="-4.63636">
        <ele>175.76</ele>
        <time>2021-04-06T10:49:36Z</time>
      </trkpt>
      <trkpt lat="56.39872" lon="-4.63592">
        <ele>175.95</ele>
        <time>2021-04-06T10:49:40Z</time>
      </trkpt>
      <trkpt lat="56.39846" lon="-4.63544">
        <ele>175.37</ele>
        <time>2021-04-06T10:49:44Z</time>
      </trkpt>
      <trkpt lat="56.39791" lon="-4.63432">
        <ele>172.36</ele>
        <time>2021-04-06T10:49:48Z</time>
      </trkpt>
      <trkpt lat="56.39749" lon="-4.63337">
        <ele>172.44</ele>
        <time>2021-04-06T10:49:51Z</time>
      </trkpt>
      <trkpt lat="56.39695" lon="-4.63205">
        <ele>171.96</ele>
        <time>2021-04-06T10:49:55Z</time>
      </trkpt>
      <trkpt lat="56.39572" lon="-4.62864">
        <ele>169.84</ele>
        <time>2021-04-06T10:49:59Z</time>
      </trkpt>
      <trkpt lat="56.3954" lon="-4.62791">
        <ele>168.79</ele>
        <time>2021-04-06T10:50:02Z</time>
      </trkpt>
      <trkpt lat="56.39533" lon="-4.62774">
        <ele>168.53</ele>
        <time>2021-04-06T10:50:06Z</time>
      </trkpt>
      <trkpt lat="56.39487" lon="-4.62691">
        <ele>169.21</ele>
        <time>2021-04-06T10:50:10Z</time>
      </trkpt>
      <trkpt lat="56.39472" lon="-4.62675">
        <ele>170.63</ele>
        <time>2021-04-06T10:50:14Z</time>
      </trkpt>
      <trkpt lat="56.39452" lon="-4.62641">
        <ele>171.36</ele>
        <time>2021-04-06T10:50:18Z</time>
      </trkpt>
      <trkpt lat="56.39451" lon="-4.62621">
        <ele>169.54</ele>
        <time>2021-04-06T10:50:20Z</time>
      </trkpt>
      <trkpt lat="56.39448" lon="-4.62612">
        <ele>168.85</ele>
        <time>2021-04-06T10:50:22Z</time>
      </trkpt>
      <trkpt lat="56.39439" lon="-4.626">
        <ele>169.18</ele>
        <time>2021-04-06T10:50:24Z</time>
      </trkpt>
      <trkpt lat="56.39434" lon="-4.62598">
        <ele>169.67</ele>
        <time>2021-04-06T10:50:26Z</time>
      </trkpt>
      <trkpt lat="56.39423" lon="-4.62601">
        <ele>170.93</ele>
        <time>2021-04-06T10:50:29Z</time>
      </trkpt>
      <trkpt lat="56.39402" lon="-4.62566">
        <ele>173.51</ele>
        <time>2021-04-06T10:50:31Z</time>
      </trkpt>
      <trkpt lat="56.39306" lon="-4.6234">
        <ele>181.07</ele>
        <time>2021-04-06T10:50:33Z</time>
      </trkpt>
      <trkpt lat="56.39261" lon="-4.62245">
        <ele>184.01</ele>
        <time>2021-04-06T10:50:35Z</time>
      </trkpt>
      <trkpt lat="56.39239" lon="-4.62207">
        <ele>184.73</ele>
        <time>2021-04-06T10:50:38Z</time>
      </trkpt>
      <trkpt lat="56.39216" lon="-4.62175">
        <ele>187.31</ele>
        <time>2021-04-06T10:50:40Z</time>
      </trkpt>
      <trkpt lat="56.39188" lon="-4.6214">
        <ele>191</ele>
        <time>2021-04-06T10:50:42Z</time>
      </trkpt>
      <trkpt lat="56.39151" lon="-4.621">
        <ele>193.57</ele>
        <time>2021-04-06T10:50:44Z</time>
      </trkpt>
      <trkpt lat="56.39123" lon="-4.62076">
        <ele>193.49</ele>
        <time>2021-04-06T10:50:47Z</time>
      </trkpt>
      <trkpt lat="56.39084" lon="-4.62049">
        <ele>190.12</ele>
        <time>2021-04-06T10:50:49Z</time>
      </trkpt>
      <trkpt lat="56.39034" lon="-4.62024">
        <ele>186.9</ele>
        <time>2021-04-06T10:50:51Z</time>
      </trkpt>
      <trkpt lat="56.38975" lon="-4.6201">
        <ele>189.63</ele>
        <time>2021-04-06T10:50:53Z</time>
      </trkpt>
      <trkpt lat="56.3892" lon="-4.62009">
        <ele>188.34</ele>
        <time>2021-04-06T10:50:56Z</time>
      </trkpt>
      <trkpt lat="56.3889" lon="-4.62012">
        <ele>186.51</ele>
        <time>2021-04-06T10:50:58Z</time>
      </trkpt>
      <trkpt lat="56.3882" lon="-4.62031">
        <ele>187.57</ele>
        <time>2021-04-06T10:51:00Z</time>
      </trkpt>
      <trkpt lat="56.38781" lon="-4.62047">
        <ele>188.7</ele>
        <time>2021-04-06T10:51:02Z</time>
      </trkpt>
      <trkpt lat="56.38761" lon="-4.62039">
        <ele>188.77</ele>
        <time>2021-04-06T10:51:05Z</time>
      </trkpt>
      <trkpt lat="56.38758" lon="-4.62026">
        <ele>188.63</ele>
        <time>2021-04-06T10:51:08Z</time>
      </trkpt>
      <trkpt lat="56.38751" lon="-4.62016">
        <ele>188.54</ele>
        <time>2021-04-06T10:51:12Z</time>
      </trkpt>
      <trkpt lat="56.38743" lon="-4.62016">
        <ele>188.84</ele>
        <time>2021-04-06T10:51:16Z</time>
      </trkpt>
      <trkpt lat="56.38735" lon="-4.62025">
        <ele>189.44</ele>
        <time>2021-04-06T10:51:20Z</time>
      </trkpt>
      <trkpt lat="56.38685" lon="-4.62065">
        <ele>189.05</ele>
        <time>2021-04-06T10:51:24Z</time>
      </trkpt>
      <trkpt lat="56.38666" lon="-4.62084">
        <ele>187.97</ele>
        <time>2021-04-06T10:51:28Z</time>
      </trkpt>
      <trkpt lat="56.38617" lon="-4.62143">
        <ele>189.94</ele>
        <time>2021-04-06T10:51:32Z</time>
      </trkpt>
      <trkpt lat="56.38474" lon="-4.62363">
        <ele>192</ele>
        <time>2021-04-06T10:51:36Z</time>
      </trkpt>
      <trkpt lat="56.38442" lon="-4.62417">
        <ele>191.91</ele>
        <time>2021-04-06T10:51:40Z</time>
      </trkpt>
      <trkpt lat="56.38422" lon="-4.62455">
        <ele>191.55</ele>
        <time>2021-04-06T10:51:44Z</time>
      </trkpt>
      <trkpt lat="56.38381" lon="-4.62551">
        <ele>192.25</ele>
        <time>2021-04-06T10:51:48Z</time>
      </trkpt>
      <trkpt lat="56.38352" lon="-4.62636">
        <ele>191.63</ele>
        <time>2021-04-06T10:51:52Z</time>
      </trkpt>
      <trkpt lat="56.38327" lon="-4.62732">
        <ele>189.72</ele>
        <time>2021-04-06T10:51:56Z</time>
      </trkpt>
      <trkpt lat="56.38225" lon="-4.63263">
        <ele>186.53</ele>
        <time>2021-04-06T10:52:00Z</time>
      </trkpt>
      <trkpt lat="56.3821" lon="-4.63366">
        <ele>184.24</ele>
        <time>2021-04-06T10:52:04Z</time>
      </trkpt>
      <trkpt lat="56.38173" lon="-4.63701">
        <ele>182.17</ele>
        <time>2021-04-06T10:52:07Z</time>
      </trkpt>
      <trkpt lat="56.38166" lon="-4.63747">
        <ele>180.92</ele>
        <time>2021-04-06T10:52:11Z</time>
      </trkpt>
      <trkpt lat="56.38148" lon="-4.63831">
        <ele>180.67</ele>
        <time>2021-04-06T10:52:15Z</time>
      </trkpt>
      <trkpt lat="56.38136" lon="-4.63877">
        <ele>179.8</ele>
        <time>2021-04-06T10:52:19Z</time>
      </trkpt>
      <trkpt lat="56.38109" lon="-4.63957">
        <ele>180.29</ele>
        <time>2021-04-06T10:52:23Z</time>
      </trkpt>
      <trkpt lat="56.38091" lon="-4.64">
        <ele>179.53</ele>
        <time>2021-04-06T10:52:27Z</time>
      </trkpt>
      <trkpt lat="56.3805" lon="-4.64084">
        <ele>180.78</ele>
        <time>2021-04-06T10:52:31Z</time>
      </trkpt>
      <trkpt lat="56.37353" lon="-4.65259">
        <ele>178.5</ele>
        <time>2021-04-06T10:52:35Z</time>
      </trkpt>
      <trkpt lat="56.37072" lon="-4.65726">
        <ele>170.4</ele>
        <time>2021-04-06T10:52:39Z</time>
      </trkpt>
      <trkpt lat="56.36757" lon="-4.66193">
        <ele>159.59</ele>
        <time>2021-04-06T10:52:43Z</time>
      </trkpt>
      <trkpt lat="56.3659" lon="-4.66387">
        <ele>156.78</ele>
        <time>2021-04-06T10:52:47Z</time>
      </trkpt>
      <trkpt lat="56.36522" lon="-4.66477">
        <ele>156.42</ele>
        <time>2021-04-06T10:52:51Z</time>
      </trkpt>
      <trkpt lat="56.36491" lon="-4.66509">
        <ele>154.05</ele>
        <time>2021-04-06T10:52:55Z</time>
      </trkpt>
      <trkpt lat="56.36469" lon="-4.66529">
        <ele>153.65</ele>
        <time>2021-04-06T10:52:59Z</time>
      </trkpt>
      <trkpt lat="56.36391" lon="-4.66584">
        <ele>148.33</ele>
        <time>2021-04-06T10:53:02Z</time>
      </trkpt>
      <trkpt lat="56.36331" lon="-4.66619">
        <ele>144.3</ele>
        <time>2021-04-06T10:53:06Z</time>
      </trkpt>
      <trkpt lat="56.3631" lon="-4.66641">
        <ele>142.69</ele>
        <time>2021-04-06T10:53:10Z</time>
      </trkpt>
      <trkpt lat="56.3625" lon="-4.66728">
        <ele>140.44</ele>
        <time>2021-04-06T10:53:14Z</time>
      </trkpt>
      <trkpt lat="56.36216" lon="-4.6679">
        <ele>141.21</ele>
        <time>2021-04-06T10:53:18Z</time>
      </trkpt>
      <trkpt lat="56.36189" lon="-4.66856">
        <ele>141.61</ele>
        <time>2021-04-06T10:53:22Z</time>
      </trkpt>
      <trkpt lat="56.36166" lon="-4.66927">
        <ele>138.58</ele>
        <time>2021-04-06T10:53:26Z</time>
      </trkpt>
      <trkpt lat="56.36152" lon="-4.66996">
        <ele>135.42</ele>
        <time>2021-04-06T10:53:30Z</time>
      </trkpt>
      <trkpt lat="56.36112" lon="-4.67264">
        <ele>128.21</ele>
        <time>2021-04-06T10:53:34Z</time>
      </trkpt>
      <trkpt lat="56.3607" lon="-4.6746">
        <ele>121.62</ele>
        <time>2021-04-06T10:53:38Z</time>
      </trkpt>
      <trkpt lat="56.3604" lon="-4.67561">
        <ele>121.72</ele>
        <time>2021-04-06T10:53:42Z</time>
      </trkpt>
      <trkpt lat="56.35999" lon="-4.67674">
        <ele>123.63</ele>
        <time>2021-04-06T10:53:46Z</time>
      </trkpt>
      <trkpt lat="56.35978" lon="-4.67717">
        <ele>124.39</ele>
        <time>2021-04-06T10:53:50Z</time>
      </trkpt>
      <trkpt lat="56.35942" lon="-4.67777">
        <ele>123.39</ele>
        <time>2021-04-06T10:53:54Z</time>
      </trkpt>
      <trkpt lat="56.35819" lon="-4.67917">
        <ele>118.57</ele>
        <time>2021-04-06T10:53:58Z</time>
      </trkpt>
      <trkpt lat="56.35796" lon="-4.67948">
        <ele>118.59</ele>
        <time>2021-04-06T10:54:01Z</time>
      </trkpt>
      <trkpt lat="56.35745" lon="-4.68035">
        <ele>116.57</ele>
        <time>2021-04-06T10:54:05Z</time>
      </trkpt>
      <trkpt lat="56.35708" lon="-4.68118">
        <ele>113.34</ele>
        <time>2021-04-06T10:54:09Z</time>
      </trkpt>
      <trkpt lat="56.35654" lon="-4.6826">
        <ele>108.96</ele>
        <time>2021-04-06T10:54:13Z</time>
      </trkpt>
      <trkpt lat="56.35625" lon="-4.68324">
        <ele>109.13</ele>
        <time>2021-04-06T10:54:17Z</time>
      </trkpt>
      <trkpt lat="56.3543" lon="-4.68624">
        <ele>107.58</ele>
        <time>2021-04-06T10:54:21Z</time>
      </trkpt>
      <trkpt lat="56.35394" lon="-4.68668">
        <ele>106.79</ele>
        <time>2021-04-06T10:54:25Z</time>
      </trkpt>
      <trkpt lat="56.35367" lon="-4.68696">
        <ele>105.93</ele>
        <time>2021-04-06T10:54:29Z</time>
      </trkpt>
      <trkpt lat="56.35259" lon="-4.68788">
        <ele>104.86</ele>
        <time>2021-04-06T10:54:33Z</time>
      </trkpt>
      <trkpt lat="56.35224" lon="-4.68825">
        <ele>106.22</ele>
        <time>2021-04-06T10:54:37Z</time>
      </trkpt>
      <trkpt lat="56.35196" lon="-4.68859">
        <ele>107.07</ele>
        <time>2021-04-06T10:54:41Z</time>
      </trkpt>
      <trkpt lat="56.35166" lon="-4.68906">
        <ele>106.2</ele>
        <time>2021-04-06T10:54:45Z</time>
      </trkpt>
      <trkpt lat="56.35143" lon="-4.68951">
        <ele>103.98</ele>
        <time>2021-04-06T10:54:49Z</time>
      </trkpt>
      <trkpt lat="56.35119" lon="-4.69005">
        <ele>103.06</ele>
        <time>2021-04-06T10:54:53Z</time>
      </trkpt>
      <trkpt lat="56.35101" lon="-4.69054">
        <ele>101.96</ele>
        <time>2021-04-06T10:54:57Z</time>
      </trkpt>
      <trkpt lat="56.35084" lon="-4.69117">
        <ele>98.86</ele>
        <time>2021-04-06T10:55:00Z</time>
      </trkpt>
      <trkpt lat="56.35064" lon="-4.69215">
        <ele>91.59</ele>
        <time>2021-04-06T10:55:04Z</time>
      </trkpt>
      <trkpt lat="56.35053" lon="-4.69303">
        <ele>85.94</ele>
        <time>2021-04-06T10:55:08Z</time>
      </trkpt>
      <trkpt lat="56.35042" lon="-4.69452">
        <ele>83.9</ele>
        <time>2021-04-06T10:55:12Z</time>
      </trkpt>
      <trkpt lat="56.35035" lon="-4.69524">
        <ele>80.83</ele>
        <time>2021-04-06T10:55:16Z</time>
      </trkpt>
      <trkpt lat="56.35014" lon="-4.6965">
        <ele>78.48</ele>
        <time>2021-04-06T10:55:20Z</time>
      </trkpt>
      <trkpt lat="56.3499" lon="-4.69754">
        <ele>76.27</ele>
        <time>2021-04-06T10:55:24Z</time>
      </trkpt>
      <trkpt lat="56.34963" lon="-4.69845">
        <ele>72.26</ele>
        <time>2021-04-06T10:55:28Z</time>
      </trkpt>
      <trkpt lat="56.34918" lon="-4.69968">
        <ele>71.09</ele>
        <time>2021-04-06T10:55:32Z</time>
      </trkpt>
      <trkpt lat="56.34862" lon="-4.70078">
        <ele>65.25</ele>
        <time>2021-04-06T10:55:36Z</time>
      </trkpt>
      <trkpt lat="56.34814" lon="-4.70156">
        <ele>61.59</ele>
        <time>2021-04-06T10:55:40Z</time>
      </trkpt>
      <trkpt lat="56.34784" lon="-4.70196">
        <ele>63.08</ele>
        <time>2021-04-06T10:55:44Z</time>
      </trkpt>
      <trkpt lat="56.34682" lon="-4.70309">
        <ele>66.6</ele>
        <time>2021-04-06T10:55:48Z</time>
      </trkpt>
      <trkpt lat="56.34628" lon="-4.70376">
        <ele>64.09</ele>
        <time>2021-04-06T10:55:52Z</time>
      </trkpt>
      <trkpt lat="56.34576" lon="-4.70454">
        <ele>63.5</ele>
        <time>2021-04-06T10:55:55Z</time>
      </trkpt>
      <trkpt lat="56.34549" lon="-4.70523">
        <ele>59.69</ele>
        <time>2021-04-06T10:55:59Z</time>
      </trkpt>
      <trkpt lat="56.34513" lon="-4.7066">
        <ele>57.24</ele>
        <time>2021-04-06T10:56:03Z</time>
      </trkpt>
      <trkpt lat="56.34482" lon="-4.70838">
        <ele>51.52</ele>
        <time>2021-04-06T10:56:07Z</time>
      </trkpt>
      <trkpt lat="56.34427" lon="-4.71189">
        <ele>40.4</ele>
        <time>2021-04-06T10:56:11Z</time>
      </trkpt>
      <trkpt lat="56.34384" lon="-4.71462">
        <ele>35.71</ele>
        <time>2021-04-06T10:56:15Z</time>
      </trkpt>
      <trkpt lat="56.3437" lon="-4.71516">
        <ele>32.87</ele>
        <time>2021-04-06T10:56:19Z</time>
      </trkpt>
      <trkpt lat="56.34351" lon="-4.71581">
        <ele>31.08</ele>
        <time>2021-04-06T10:56:23Z</time>
      </trkpt>
      <trkpt lat="56.34325" lon="-4.71646">
        <ele>26.49</ele>
        <time>2021-04-06T10:56:27Z</time>
      </trkpt>
      <trkpt lat="56.34301" lon="-4.71697">
        <ele>23.76</ele>
        <time>2021-04-06T10:56:31Z</time>
      </trkpt>
      <trkpt lat="56.34274" lon="-4.71743">
        <ele>21.66</ele>
        <time>2021-04-06T10:56:35Z</time>
      </trkpt>
      <trkpt lat="56.34179" lon="-4.71871">
        <ele>18.73</ele>
        <time>2021-04-06T10:56:39Z</time>
      </trkpt>
      <trkpt lat="56.34135" lon="-4.71926">
        <ele>21.29</ele>
        <time>2021-04-06T10:56:43Z</time>
      </trkpt>
      <trkpt lat="56.34086" lon="-4.71982">
        <ele>22</ele>
        <time>2021-04-06T10:56:47Z</time>
      </trkpt>
      <trkpt lat="56.34022" lon="-4.72035">
        <ele>21.46</ele>
        <time>2021-04-06T10:56:51Z</time>
      </trkpt>
      <trkpt lat="56.33999" lon="-4.7205">
        <ele>19.8</ele>
        <time>2021-04-06T10:56:54Z</time>
      </trkpt>
      <trkpt lat="56.33953" lon="-4.72068">
        <ele>22.18</ele>
        <time>2021-04-06T10:56:58Z</time>
      </trkpt>
      <trkpt lat="56.3392" lon="-4.72076">
        <ele>25.21</ele>
        <time>2021-04-06T10:57:02Z</time>
      </trkpt>
      <trkpt lat="56.33891" lon="-4.72077">
        <ele>26.56</ele>
        <time>2021-04-06T10:57:06Z</time>
      </trkpt>
      <trkpt lat="56.33845" lon="-4.72072">
        <ele>25.1</ele>
        <time>2021-04-06T10:57:10Z</time>
      </trkpt>
      <trkpt lat="56.33756" lon="-4.72054">
        <ele>25.05</ele>
        <time>2021-04-06T10:57:14Z</time>
      </trkpt>
      <trkpt lat="56.33709" lon="-4.72051">
        <ele>22.1</ele>
        <time>2021-04-06T10:57:18Z</time>
      </trkpt>
      <trkpt lat="56.33649" lon="-4.72056">
        <ele>21.06</ele>
        <time>2021-04-06T10:57:22Z</time>
      </trkpt>
      <trkpt lat="56.33591" lon="-4.7207">
        <ele>23.89</ele>
        <time>2021-04-06T10:57:26Z</time>
      </trkpt>
      <trkpt lat="56.33407" lon="-4.7206">
        <ele>25.03</ele>
        <time>2021-04-06T10:57:30Z</time>
      </trkpt>
      <trkpt lat="56.33349" lon="-4.72054">
        <ele>23.61</ele>
        <time>2021-04-06T10:57:34Z</time>
      </trkpt>
      <trkpt lat="56.33305" lon="-4.72045">
        <ele>24.45</ele>
        <time>2021-04-06T10:57:38Z</time>
      </trkpt>
      <trkpt lat="56.33246" lon="-4.72052">
        <ele>22.17</ele>
        <time>2021-04-06T10:57:42Z</time>
      </trkpt>
      <trkpt lat="56.33178" lon="-4.72088">
        <ele>19.92</ele>
        <time>2021-04-06T10:57:46Z</time>
      </trkpt>
      <trkpt lat="56.33143" lon="-4.72114">
        <ele>19.75</ele>
        <time>2021-04-06T10:57:50Z</time>
      </trkpt>
      <trkpt lat="56.33086" lon="-4.7218">
        <ele>21.24</ele>
        <time>2021-04-06T10:57:53Z</time>
      </trkpt>
      <trkpt lat="56.33063" lon="-4.72202">
        <ele>21.39</ele>
        <time>2021-04-06T10:57:57Z</time>
      </trkpt>
      <trkpt lat="56.33042" lon="-4.72218">
        <ele>20.71</ele>
        <time>2021-04-06T10:58:01Z</time>
      </trkpt>
      <trkpt lat="56.3303" lon="-4.72224">
        <ele>20.28</ele>
        <time>2021-04-06T10:58:05Z</time>
      </trkpt>
      <trkpt lat="56.32999" lon="-4.72228">
        <ele>19.63</ele>
        <time>2021-04-06T10:58:09Z</time>
      </trkpt>
      <trkpt lat="56.32947" lon="-4.7223">
        <ele>18.55</ele>
        <time>2021-04-06T10:58:13Z</time>
      </trkpt>
      <trkpt lat="56.32914" lon="-4.72221">
        <ele>17.83</ele>
        <time>2021-04-06T10:58:17Z</time>
      </trkpt>
      <trkpt lat="56.32853" lon="-4.72211">
        <ele>17.3</ele>
        <time>2021-04-06T10:58:21Z</time>
      </trkpt>
      <trkpt lat="56.32548" lon="-4.72143">
        <ele>18.97</ele>
        <time>2021-04-06T10:58:25Z</time>
      </trkpt>
      <trkpt lat="56.32533" lon="-4.72141">
        <ele>18.35</ele>
        <time>2021-04-06T10:58:29Z</time>
      </trkpt>
      <trkpt lat="56.32514" lon="-4.72145">
        <ele>17.44</ele>
        <time>2021-04-06T10:58:33Z</time>
      </trkpt>
      <trkpt lat="56.325" lon="-4.72156">
        <ele>17.21</ele>
        <time>2021-04-06T10:58:37Z</time>
      </trkpt>
      <trkpt lat="56.32468" lon="-4.72192">
        <ele>17.52</ele>
        <time>2021-04-06T10:58:41Z</time>
      </trkpt>
      <trkpt lat="56.32356" lon="-4.72307">
        <ele>17.87</ele>
        <time>2021-04-06T10:58:45Z</time>
      </trkpt>
      <trkpt lat="56.3234" lon="-4.72319">
        <ele>18.11</ele>
        <time>2021-04-06T10:58:48Z</time>
      </trkpt>
      <trkpt lat="56.32322" lon="-4.72327">
        <ele>18.53</ele>
        <time>2021-04-06T10:58:52Z</time>
      </trkpt>
      <trkpt lat="56.32308" lon="-4.72328">
        <ele>18.62</ele>
        <time>2021-04-06T10:58:56Z</time>
      </trkpt>
      <trkpt lat="56.32262" lon="-4.72321">
        <ele>16.96</ele>
        <time>2021-04-06T10:59:00Z</time>
      </trkpt>
      <trkpt lat="56.32211" lon="-4.72327">
        <ele>15.52</ele>
        <time>2021-04-06T10:59:04Z</time>
      </trkpt>
      <trkpt lat="56.32175" lon="-4.72333">
        <ele>15.98</ele>
        <time>2021-04-06T10:59:08Z</time>
      </trkpt>
      <trkpt lat="56.32101" lon="-4.72352">
        <ele>15.36</ele>
        <time>2021-04-06T10:59:12Z</time>
      </trkpt>
      <trkpt lat="56.31988" lon="-4.72383">
        <ele>12.57</ele>
        <time>2021-04-06T10:59:16Z</time>
      </trkpt>
      <trkpt lat="56.31836" lon="-4.72504">
        <ele>12.31</ele>
        <time>2021-04-06T10:59:20Z</time>
      </trkpt>
      <trkpt lat="56.31755" lon="-4.72555">
        <ele>14.17</ele>
        <time>2021-04-06T10:59:24Z</time>
      </trkpt>
      <trkpt lat="56.31695" lon="-4.7257">
        <ele>13.05</ele>
        <time>2021-04-06T10:59:28Z</time>
      </trkpt>
      <trkpt lat="56.31613" lon="-4.7258">
        <ele>13.77</ele>
        <time>2021-04-06T10:59:32Z</time>
      </trkpt>
      <trkpt lat="56.31472" lon="-4.7261">
        <ele>14.96</ele>
        <time>2021-04-06T10:59:36Z</time>
      </trkpt>
      <trkpt lat="56.3135" lon="-4.72629">
        <ele>16.84</ele>
        <time>2021-04-06T10:59:40Z</time>
      </trkpt>
      <trkpt lat="56.31324" lon="-4.72628">
        <ele>18.95</ele>
        <time>2021-04-06T10:59:44Z</time>
      </trkpt>
      <trkpt lat="56.31303" lon="-4.72621">
        <ele>19.46</ele>
        <time>2021-04-06T10:59:47Z</time>
      </trkpt>
      <trkpt lat="56.31149" lon="-4.72555">
        <ele>18.35</ele>
        <time>2021-04-06T10:59:51Z</time>
      </trkpt>
      <trkpt lat="56.31057" lon="-4.7251">
        <ele>17</ele>
        <time>2021-04-06T10:59:55Z</time>
      </trkpt>
      <trkpt lat="56.30935" lon="-4.72438">
        <ele>20.04</ele>
        <time>2021-04-06T10:59:59Z</time>
      </trkpt>
      <trkpt lat="56.30861" lon="-4.72375">
        <ele>18.01</ele>
        <time>2021-04-06T11:00:03Z</time>
      </trkpt>
      <trkpt lat="56.30841" lon="-4.72364">
        <ele>17.79</ele>
        <time>2021-04-06T11:00:07Z</time>
      </trkpt>
      <trkpt lat="56.30777" lon="-4.72336">
        <ele>18.43</ele>
        <time>2021-04-06T11:00:11Z</time>
      </trkpt>
      <trkpt lat="56.30719" lon="-4.72288">
        <ele>17.87</ele>
        <time>2021-04-06T11:00:15Z</time>
      </trkpt>
      <trkpt lat="56.30699" lon="-4.72261">
        <ele>16.77</ele>
        <time>2021-04-06T11:00:19Z</time>
      </trkpt>
      <trkpt lat="56.30666" lon="-4.72221">
        <ele>15.08</ele>
        <time>2021-04-06T11:00:23Z</time>
      </trkpt>
      <trkpt lat="56.30617" lon="-4.72191">
        <ele>16.49</ele>
        <time>2021-04-06T11:00:27Z</time>
      </trkpt>
      <trkpt lat="56.30547" lon="-4.72162">
        <ele>17.48</ele>
        <time>2021-04-06T11:00:31Z</time>
      </trkpt>
      <trkpt lat="56.30445" lon="-4.72103">
        <ele>18.72</ele>
        <time>2021-04-06T11:00:35Z</time>
      </trkpt>
      <trkpt lat="56.3042" lon="-4.72091">
        <ele>18.03</ele>
        <time>2021-04-06T11:00:39Z</time>
      </trkpt>
      <trkpt lat="56.30382" lon="-4.72091">
        <ele>17.83</ele>
        <time>2021-04-06T11:00:43Z</time>
      </trkpt>
      <trkpt lat="56.30336" lon="-4.72107">
        <ele>16.95</ele>
        <time>2021-04-06T11:00:46Z</time>
      </trkpt>
      <trkpt lat="56.30285" lon="-4.72115">
        <ele>18.78</ele>
        <time>2021-04-06T11:00:50Z</time>
      </trkpt>
      <trkpt lat="56.30207" lon="-4.7212">
        <ele>15.66</ele>
        <time>2021-04-06T11:00:54Z</time>
      </trkpt>
      <trkpt lat="56.30186" lon="-4.72119">
        <ele>15.8</ele>
        <time>2021-04-06T11:00:58Z</time>
      </trkpt>
      <trkpt lat="56.30163" lon="-4.72107">
        <ele>16.26</ele>
        <time>2021-04-06T11:01:02Z</time>
      </trkpt>
      <trkpt lat="56.30004" lon="-4.7194">
        <ele>21.66</ele>
        <time>2021-04-06T11:01:06Z</time>
      </trkpt>
      <trkpt lat="56.29884" lon="-4.71798">
        <ele>27.22</ele>
        <time>2021-04-06T11:01:10Z</time>
      </trkpt>
      <trkpt lat="56.29845" lon="-4.71742">
        <ele>27.53</ele>
        <time>2021-04-06T11:01:14Z</time>
      </trkpt>
      <trkpt lat="56.2975" lon="-4.7158">
        <ele>26.77</ele>
        <time>2021-04-06T11:01:18Z</time>
      </trkpt>
      <trkpt lat="56.29593" lon="-4.71352">
        <ele>24.56</ele>
        <time>2021-04-06T11:01:22Z</time>
      </trkpt>
      <trkpt lat="56.29561" lon="-4.71309">
        <ele>23.86</ele>
        <time>2021-04-06T11:01:26Z</time>
      </trkpt>
      <trkpt lat="56.29444" lon="-4.71204">
        <ele>18.38</ele>
        <time>2021-04-06T11:01:30Z</time>
      </trkpt>
      <trkpt lat="56.29413" lon="-4.71181">
        <ele>19.16</ele>
        <time>2021-04-06T11:01:34Z</time>
      </trkpt>
      <trkpt lat="56.29379" lon="-4.7116">
        <ele>18.69</ele>
        <time>2021-04-06T11:01:38Z</time>
      </trkpt>
      <trkpt lat="56.29332" lon="-4.71144">
        <ele>17.13</ele>
        <time>2021-04-06T11:01:42Z</time>
      </trkpt>
      <trkpt lat="56.29154" lon="-4.71128">
        <ele>16.14</ele>
        <time>2021-04-06T11:01:45Z</time>
      </trkpt>
      <trkpt lat="56.29112" lon="-4.71119">
        <ele>17.56</ele>
        <time>2021-04-06T11:01:49Z</time>
      </trkpt>
      <trkpt lat="56.29077" lon="-4.71108">
        <ele>18.82</ele>
        <time>2021-04-06T11:01:53Z</time>
      </trkpt>
      <trkpt lat="56.29022" lon="-4.71098">
        <ele>17.61</ele>
        <time>2021-04-06T11:01:57Z</time>
      </trkpt>
      <trkpt lat="56.28876" lon="-4.71087">
        <ele>16.67</ele>
        <time>2021-04-06T11:02:01Z</time>
      </trkpt>
      <trkpt lat="56.28841" lon="-4.71075">
        <ele>19.49</ele>
        <time>2021-04-06T11:02:05Z</time>
      </trkpt>
      <trkpt lat="56.28826" lon="-4.71065">
        <ele>20.01</ele>
        <time>2021-04-06T11:02:09Z</time>
      </trkpt>
      <trkpt lat="56.28811" lon="-4.71049">
        <ele>20.34</ele>
        <time>2021-04-06T11:02:13Z</time>
      </trkpt>
      <trkpt lat="56.28735" lon="-4.70906">
        <ele>21.8</ele>
        <time>2021-04-06T11:02:17Z</time>
      </trkpt>
      <trkpt lat="56.28702" lon="-4.70834">
        <ele>16.02</ele>
        <time>2021-04-06T11:02:21Z</time>
      </trkpt>
      <trkpt lat="56.28621" lon="-4.70696">
        <ele>16.96</ele>
        <time>2021-04-06T11:02:25Z</time>
      </trkpt>
      <trkpt lat="56.2861" lon="-4.70664">
        <ele>17.1</ele>
        <time>2021-04-06T11:02:29Z</time>
      </trkpt>
      <trkpt lat="56.28606" lon="-4.70638">
        <ele>18.04</ele>
        <time>2021-04-06T11:02:33Z</time>
      </trkpt>
      <trkpt lat="56.28604" lon="-4.70611">
        <ele>19.45</ele>
        <time>2021-04-06T11:02:37Z</time>
      </trkpt>
      <trkpt lat="56.28609" lon="-4.70545">
        <ele>20.87</ele>
        <time>2021-04-06T11:02:40Z</time>
      </trkpt>
      <trkpt lat="56.28608" lon="-4.70526">
        <ele>20.87</ele>
        <time>2021-04-06T11:02:44Z</time>
      </trkpt>
      <trkpt lat="56.28605" lon="-4.70506">
        <ele>21.27</ele>
        <time>2021-04-06T11:02:48Z</time>
      </trkpt>
      <trkpt lat="56.28597" lon="-4.70486">
        <ele>21.67</ele>
        <time>2021-04-06T11:02:52Z</time>
      </trkpt>
      <trkpt lat="56.2858" lon="-4.70457">
        <ele>22.04</ele>
        <time>2021-04-06T11:02:56Z</time>
      </trkpt>
      <trkpt lat="56.28566" lon="-4.70448">
        <ele>23.7</ele>
        <time>2021-04-06T11:03:00Z</time>
      </trkpt>
      <trkpt lat="56.28512" lon="-4.70426">
        <ele>30.36</ele>
        <time>2021-04-06T11:03:04Z</time>
      </trkpt>
      <trkpt lat="56.28496" lon="-4.70415">
        <ele>32.64</ele>
        <time>2021-04-06T11:03:08Z</time>
      </trkpt>
      <trkpt lat="56.28467" lon="-4.70379">
        <ele>32.89</ele>
        <time>2021-04-06T11:03:12Z</time>
      </trkpt>
      <trkpt lat="56.28443" lon="-4.7033">
        <ele>30.97</ele>
        <time>2021-04-06T11:03:16Z</time>
      </trkpt>
      <trkpt lat="56.28407" lon="-4.70263">
        <ele>26.01</ele>
        <time>2021-04-06T11:03:20Z</time>
      </trkpt>
      <trkpt lat="56.28323" lon="-4.70162">
        <ele>21.92</ele>
        <time>2021-04-06T11:03:24Z</time>
      </trkpt>
      <trkpt lat="56.28263" lon="-4.70079">
        <ele>19.58</ele>
        <time>2021-04-06T11:03:28Z</time>
      </trkpt>
      <trkpt lat="56.28234" lon="-4.70046">
        <ele>17.89</ele>
        <time>2021-04-06T11:03:32Z</time>
      </trkpt>
      <trkpt lat="56.28213" lon="-4.70042">
        <ele>18</ele>
        <time>2021-04-06T11:03:36Z</time>
      </trkpt>
      <trkpt lat="56.28174" lon="-4.70048">
        <ele>17.65</ele>
        <time>2021-04-06T11:03:39Z</time>
      </trkpt>
      <trkpt lat="56.28082" lon="-4.70089">
        <ele>21.91</ele>
        <time>2021-04-06T11:03:43Z</time>
      </trkpt>
      <trkpt lat="56.28049" lon="-4.70114">
        <ele>23.65</ele>
        <time>2021-04-06T11:03:47Z</time>
      </trkpt>
      <trkpt lat="56.28003" lon="-4.70157">
        <ele>22.57</ele>
        <time>2021-04-06T11:03:51Z</time>
      </trkpt>
      <trkpt lat="56.27985" lon="-4.70182">
        <ele>21.85</ele>
        <time>2021-04-06T11:03:55Z</time>
      </trkpt>
      <trkpt lat="56.27948" lon="-4.70262">
        <ele>18.58</ele>
        <time>2021-04-06T11:03:59Z</time>
      </trkpt>
      <trkpt lat="56.27884" lon="-4.70442">
        <ele>13.19</ele>
        <time>2021-04-06T11:04:03Z</time>
      </trkpt>
      <trkpt lat="56.27867" lon="-4.7047">
        <ele>14.89</ele>
        <time>2021-04-06T11:04:07Z</time>
      </trkpt>
      <trkpt lat="56.27853" lon="-4.70487">
        <ele>15.67</ele>
        <time>2021-04-06T11:04:11Z</time>
      </trkpt>
      <trkpt lat="56.27831" lon="-4.70503">
        <ele>15.97</ele>
        <time>2021-04-06T11:04:15Z</time>
      </trkpt>
      <trkpt lat="56.27748" lon="-4.70557">
        <ele>12.98</ele>
        <time>2021-04-06T11:04:19Z</time>
      </trkpt>
      <trkpt lat="56.27725" lon="-4.70567">
        <ele>12.52</ele>
        <time>2021-04-06T11:04:23Z</time>
      </trkpt>
      <trkpt lat="56.276" lon="-4.70596">
        <ele>14.12</ele>
        <time>2021-04-06T11:04:27Z</time>
      </trkpt>
      <trkpt lat="56.27562" lon="-4.70611">
        <ele>13.42</ele>
        <time>2021-04-06T11:04:31Z</time>
      </trkpt>
      <trkpt lat="56.27504" lon="-4.70662">
        <ele>16.68</ele>
        <time>2021-04-06T11:04:35Z</time>
      </trkpt>
      <trkpt lat="56.27483" lon="-4.70673">
        <ele>18.5</ele>
        <time>2021-04-06T11:04:38Z</time>
      </trkpt>
      <trkpt lat="56.27442" lon="-4.70679">
        <ele>19.8</ele>
        <time>2021-04-06T11:04:42Z</time>
      </trkpt>
      <trkpt lat="56.27415" lon="-4.70675">
        <ele>19.69</ele>
        <time>2021-04-06T11:04:46Z</time>
      </trkpt>
      <trkpt lat="56.27394" lon="-4.70666">
        <ele>19.52</ele>
        <time>2021-04-06T11:04:50Z</time>
      </trkpt>
      <trkpt lat="56.27377" lon="-4.70649">
        <ele>19.42</ele>
        <time>2021-04-06T11:04:54Z</time>
      </trkpt>
      <trkpt lat="56.27358" lon="-4.7062">
        <ele>17.76</ele>
        <time>2021-04-06T11:04:58Z</time>
      </trkpt>
      <trkpt lat="56.27337" lon="-4.70573">
        <ele>16.05</ele>
        <time>2021-04-06T11:05:02Z</time>
      </trkpt>
      <trkpt lat="56.27317" lon="-4.70542">
        <ele>15.05</ele>
        <time>2021-04-06T11:05:06Z</time>
      </trkpt>
      <trkpt lat="56.27296" lon="-4.70528">
        <ele>15.7</ele>
        <time>2021-04-06T11:05:10Z</time>
      </trkpt>
      <trkpt lat="56.27278" lon="-4.70525">
        <ele>16.71</ele>
        <time>2021-04-06T11:05:14Z</time>
      </trkpt>
      <trkpt lat="56.27247" lon="-4.70538">
        <ele>18.99</ele>
        <time>2021-04-06T11:05:18Z</time>
      </trkpt>
      <trkpt lat="56.27213" lon="-4.70563">
        <ele>19.2</ele>
        <time>2021-04-06T11:05:22Z</time>
      </trkpt>
      <trkpt lat="56.27184" lon="-4.70578">
        <ele>18.8</ele>
        <time>2021-04-06T11:05:26Z</time>
      </trkpt>
      <trkpt lat="56.27158" lon="-4.70577">
        <ele>17.71</ele>
        <time>2021-04-06T11:05:30Z</time>
      </trkpt>
      <trkpt lat="56.2713" lon="-4.70568">
        <ele>18.5</ele>
        <time>2021-04-06T11:05:33Z</time>
      </trkpt>
      <trkpt lat="56.26997" lon="-4.70508">
        <ele>14.64</ele>
        <time>2021-04-06T11:05:37Z</time>
      </trkpt>
      <trkpt lat="56.2686" lon="-4.70424">
        <ele>12.61</ele>
        <time>2021-04-06T11:05:41Z</time>
      </trkpt>
      <trkpt lat="56.26828" lon="-4.70396">
        <ele>15.17</ele>
        <time>2021-04-06T11:05:45Z</time>
      </trkpt>
      <trkpt lat="56.26707" lon="-4.70269">
        <ele>19.85</ele>
        <time>2021-04-06T11:05:49Z</time>
      </trkpt>
      <trkpt lat="56.26696" lon="-4.70264">
        <ele>19.31</ele>
        <time>2021-04-06T11:05:53Z</time>
      </trkpt>
      <trkpt lat="56.26682" lon="-4.70263">
        <ele>18.43</ele>
        <time>2021-04-06T11:05:57Z</time>
      </trkpt>
      <trkpt lat="56.2667" lon="-4.70267">
        <ele>19.02</ele>
        <time>2021-04-06T11:06:01Z</time>
      </trkpt>
      <trkpt lat="56.26635" lon="-4.70294">
        <ele>19.07</ele>
        <time>2021-04-06T11:06:05Z</time>
      </trkpt>
      <trkpt lat="56.26621" lon="-4.70309">
        <ele>17.35</ele>
        <time>2021-04-06T11:06:09Z</time>
      </trkpt>
      <trkpt lat="56.26605" lon="-4.70331">
        <ele>15.59</ele>
        <time>2021-04-06T11:06:13Z</time>
      </trkpt>
      <trkpt lat="56.26566" lon="-4.70414">
        <ele>15.38</ele>
        <time>2021-04-06T11:06:17Z</time>
      </trkpt>
      <trkpt lat="56.26554" lon="-4.70432">
        <ele>16.76</ele>
        <time>2021-04-06T11:06:21Z</time>
      </trkpt>
      <trkpt lat="56.26541" lon="-4.7045">
        <ele>20.04</ele>
        <time>2021-04-06T11:06:25Z</time>
      </trkpt>
      <trkpt lat="56.26532" lon="-4.70455">
        <ele>21.71</ele>
        <time>2021-04-06T11:06:29Z</time>
      </trkpt>
      <trkpt lat="56.26521" lon="-4.70458">
        <ele>23.34</ele>
        <time>2021-04-06T11:06:32Z</time>
      </trkpt>
      <trkpt lat="56.26511" lon="-4.70456">
        <ele>24.16</ele>
        <time>2021-04-06T11:06:36Z</time>
      </trkpt>
      <trkpt lat="56.26333" lon="-4.70355">
        <ele>21.75</ele>
        <time>2021-04-06T11:06:40Z</time>
      </trkpt>
      <trkpt lat="56.26323" lon="-4.70352">
        <ele>21.36</ele>
        <time>2021-04-06T11:06:44Z</time>
      </trkpt>
      <trkpt lat="56.26299" lon="-4.70361">
        <ele>22.74</ele>
        <time>2021-04-06T11:06:48Z</time>
      </trkpt>
      <trkpt lat="56.26281" lon="-4.70373">
        <ele>21.43</ele>
        <time>2021-04-06T11:06:52Z</time>
      </trkpt>
      <trkpt lat="56.26247" lon="-4.70384">
        <ele>22.85</ele>
        <time>2021-04-06T11:06:56Z</time>
      </trkpt>
      <trkpt lat="56.26088" lon="-4.704">
        <ele>29.61</ele>
        <time>2021-04-06T11:07:00Z</time>
      </trkpt>
      <trkpt lat="56.26011" lon="-4.70393">
        <ele>24.41</ele>
        <time>2021-04-06T11:07:04Z</time>
      </trkpt>
      <trkpt lat="56.25993" lon="-4.70397">
        <ele>23.45</ele>
        <time>2021-04-06T11:07:08Z</time>
      </trkpt>
      <trkpt lat="56.25986" lon="-4.70403">
        <ele>23.27</ele>
        <time>2021-04-06T11:07:12Z</time>
      </trkpt>
      <trkpt lat="56.25979" lon="-4.70414">
        <ele>23.01</ele>
        <time>2021-04-06T11:07:16Z</time>
      </trkpt>
      <trkpt lat="56.25971" lon="-4.70436">
        <ele>22.51</ele>
        <time>2021-04-06T11:07:20Z</time>
      </trkpt>
      <trkpt lat="56.25964" lon="-4.70507">
        <ele>26.22</ele>
        <time>2021-04-06T11:07:24Z</time>
      </trkpt>
      <trkpt lat="56.25958" lon="-4.70531">
        <ele>27.34</ele>
        <time>2021-04-06T11:07:28Z</time>
      </trkpt>
      <trkpt lat="56.25923" lon="-4.70598">
        <ele>25.17</ele>
        <time>2021-04-06T11:07:31Z</time>
      </trkpt>
      <trkpt lat="56.25901" lon="-4.70699">
        <ele>28.08</ele>
        <time>2021-04-06T11:07:35Z</time>
      </trkpt>
      <trkpt lat="56.25896" lon="-4.70717">
        <ele>28.47</ele>
        <time>2021-04-06T11:07:39Z</time>
      </trkpt>
      <trkpt lat="56.25872" lon="-4.70753">
        <ele>26.31</ele>
        <time>2021-04-06T11:07:43Z</time>
      </trkpt>
      <trkpt lat="56.25864" lon="-4.70762">
        <ele>24.95</ele>
        <time>2021-04-06T11:07:47Z</time>
      </trkpt>
      <trkpt lat="56.25858" lon="-4.70777">
        <ele>25.47</ele>
        <time>2021-04-06T11:07:51Z</time>
      </trkpt>
      <trkpt lat="56.25848" lon="-4.70836">
        <ele>28.45</ele>
        <time>2021-04-06T11:07:55Z</time>
      </trkpt>
      <trkpt lat="56.25841" lon="-4.70859">
        <ele>27.34</ele>
        <time>2021-04-06T11:07:59Z</time>
      </trkpt>
      <trkpt lat="56.2583" lon="-4.70884">
        <ele>25.11</ele>
        <time>2021-04-06T11:08:03Z</time>
      </trkpt>
      <trkpt lat="56.25813" lon="-4.70907">
        <ele>23.52</ele>
        <time>2021-04-06T11:08:07Z</time>
      </trkpt>
      <trkpt lat="56.25793" lon="-4.70917">
        <ele>21.7</ele>
        <time>2021-04-06T11:08:11Z</time>
      </trkpt>
      <trkpt lat="56.25773" lon="-4.70918">
        <ele>20.43</ele>
        <time>2021-04-06T11:08:15Z</time>
      </trkpt>
      <trkpt lat="56.25649" lon="-4.70911">
        <ele>22.99</ele>
        <time>2021-04-06T11:08:19Z</time>
      </trkpt>
      <trkpt lat="56.25596" lon="-4.70903">
        <ele>22.67</ele>
        <time>2021-04-06T11:08:23Z</time>
      </trkpt>
      <trkpt lat="56.25523" lon="-4.70875">
        <ele>24.23</ele>
        <time>2021-04-06T11:08:27Z</time>
      </trkpt>
      <trkpt lat="56.25473" lon="-4.70852">
        <ele>23.62</ele>
        <time>2021-04-06T11:08:30Z</time>
      </trkpt>
      <trkpt lat="56.25437" lon="-4.70828">
        <ele>21.2</ele>
        <time>2021-04-06T11:08:34Z</time>
      </trkpt>
      <trkpt lat="56.25387" lon="-4.70818">
        <ele>18.85</ele>
        <time>2021-04-06T11:08:38Z</time>
      </trkpt>
      <trkpt lat="56.25332" lon="-4.70823">
        <ele>16.92</ele>
        <time>2021-04-06T11:08:42Z</time>
      </trkpt>
      <trkpt lat="56.25296" lon="-4.70835">
        <ele>17.67</ele>
        <time>2021-04-06T11:08:46Z</time>
      </trkpt>
      <trkpt lat="56.25258" lon="-4.70856">
        <ele>22.15</ele>
        <time>2021-04-06T11:08:50Z</time>
      </trkpt>
      <trkpt lat="56.25226" lon="-4.70886">
        <ele>24.02</ele>
        <time>2021-04-06T11:08:54Z</time>
      </trkpt>
      <trkpt lat="56.25196" lon="-4.70922">
        <ele>25.78</ele>
        <time>2021-04-06T11:08:58Z</time>
      </trkpt>
      <trkpt lat="56.25106" lon="-4.71055">
        <ele>12.82</ele>
        <time>2021-04-06T11:09:02Z</time>
      </trkpt>
      <trkpt lat="56.25076" lon="-4.71093">
        <ele>15.58</ele>
        <time>2021-04-06T11:09:06Z</time>
      </trkpt>
      <trkpt lat="56.25039" lon="-4.71127">
        <ele>16.01</ele>
        <time>2021-04-06T11:09:10Z</time>
      </trkpt>
      <trkpt lat="56.25014" lon="-4.71145">
        <ele>15.4</ele>
        <time>2021-04-06T11:09:14Z</time>
      </trkpt>
      <trkpt lat="56.24902" lon="-4.71209">
        <ele>20.74</ele>
        <time>2021-04-06T11:09:18Z</time>
      </trkpt>
      <trkpt lat="56.24835" lon="-4.71263">
        <ele>20.07</ele>
        <time>2021-04-06T11:09:22Z</time>
      </trkpt>
      <trkpt lat="56.24771" lon="-4.71337">
        <ele>22.98</ele>
        <time>2021-04-06T11:09:25Z</time>
      </trkpt>
      <trkpt lat="56.24582" lon="-4.71569">
        <ele>35.49</ele>
        <time>2021-04-06T11:09:29Z</time>
      </trkpt>
      <trkpt lat="56.24535" lon="-4.71619">
        <ele>39.68</ele>
        <time>2021-04-06T11:09:33Z</time>
      </trkpt>
      <trkpt lat="56.24528" lon="-4.71621">
        <ele>40.77</ele>
        <time>2021-04-06T11:09:37Z</time>
      </trkpt>
      <trkpt lat="56.2452" lon="-4.71619">
        <ele>41.87</ele>
        <time>2021-04-06T11:09:41Z</time>
      </trkpt>
      <trkpt lat="56.24506" lon="-4.71606">
        <ele>42.48</ele>
        <time>2021-04-06T11:09:45Z</time>
      </trkpt>
      <trkpt lat="56.24467" lon="-4.71532">
        <ele>38.71</ele>
        <time>2021-04-06T11:09:49Z</time>
      </trkpt>
      <trkpt lat="56.24415" lon="-4.71445">
        <ele>32.33</ele>
        <time>2021-04-06T11:09:53Z</time>
      </trkpt>
      <trkpt lat="56.24295" lon="-4.71276">
        <ele>28.42</ele>
        <time>2021-04-06T11:09:57Z</time>
      </trkpt>
      <trkpt lat="56.24283" lon="-4.71254">
        <ele>28.58</ele>
        <time>2021-04-06T11:10:01Z</time>
      </trkpt>
      <trkpt lat="56.24257" lon="-4.71192">
        <ele>26.76</ele>
        <time>2021-04-06T11:10:05Z</time>
      </trkpt>
      <trkpt lat="56.24204" lon="-4.71046">
        <ele>24.06</ele>
        <time>2021-04-06T11:10:09Z</time>
      </trkpt>
      <trkpt lat="56.24185" lon="-4.71005">
        <ele>23.41</ele>
        <time>2021-04-06T11:10:13Z</time>
      </trkpt>
      <trkpt lat="56.24161" lon="-4.70976">
        <ele>24.52</ele>
        <time>2021-04-06T11:10:17Z</time>
      </trkpt>
      <trkpt lat="56.24108" lon="-4.70936">
        <ele>24.32</ele>
        <time>2021-04-06T11:10:21Z</time>
      </trkpt>
      <trkpt lat="56.24042" lon="-4.70869">
        <ele>28.36</ele>
        <time>2021-04-06T11:10:24Z</time>
      </trkpt>
      <trkpt lat="56.23981" lon="-4.70802">
        <ele>27.76</ele>
        <time>2021-04-06T11:10:28Z</time>
      </trkpt>
      <trkpt lat="56.23962" lon="-4.70777">
        <ele>25.37</ele>
        <time>2021-04-06T11:10:32Z</time>
      </trkpt>
      <trkpt lat="56.23951" lon="-4.70746">
        <ele>22.67</ele>
        <time>2021-04-06T11:10:36Z</time>
      </trkpt>
      <trkpt lat="56.23932" lon="-4.70678">
        <ele>20.47</ele>
        <time>2021-04-06T11:10:40Z</time>
      </trkpt>
      <trkpt lat="56.23884" lon="-4.70593">
        <ele>22.22</ele>
        <time>2021-04-06T11:10:44Z</time>
      </trkpt>
      <trkpt lat="56.23844" lon="-4.70531">
        <ele>21.25</ele>
        <time>2021-04-06T11:10:48Z</time>
      </trkpt>
      <trkpt lat="56.23824" lon="-4.70511">
        <ele>19.94</ele>
        <time>2021-04-06T11:10:52Z</time>
      </trkpt>
      <trkpt lat="56.23765" lon="-4.70471">
        <ele>23.52</ele>
        <time>2021-04-06T11:10:56Z</time>
      </trkpt>
      <trkpt lat="56.23693" lon="-4.70412">
        <ele>23.35</ele>
        <time>2021-04-06T11:11:00Z</time>
      </trkpt>
      <trkpt lat="56.23618" lon="-4.70341">
        <ele>22.5</ele>
        <time>2021-04-06T11:11:04Z</time>
      </trkpt>
      <trkpt lat="56.23569" lon="-4.70279">
        <ele>21.68</ele>
        <time>2021-04-06T11:11:08Z</time>
      </trkpt>
      <trkpt lat="56.23531" lon="-4.70224">
        <ele>17.75</ele>
        <time>2021-04-06T11:11:12Z</time>
      </trkpt>
      <trkpt lat="56.23507" lon="-4.702">
        <ele>19.27</ele>
        <time>2021-04-06T11:11:16Z</time>
      </trkpt>
      <trkpt lat="56.23472" lon="-4.70182">
        <ele>19.83</ele>
        <time>2021-04-06T11:11:20Z</time>
      </trkpt>
      <trkpt lat="56.23425" lon="-4.7018">
        <ele>22.86</ele>
        <time>2021-04-06T11:11:23Z</time>
      </trkpt>
      <trkpt lat="56.23365" lon="-4.7017">
        <ele>24.5</ele>
        <time>2021-04-06T11:11:27Z</time>
      </trkpt>
      <trkpt lat="56.23237" lon="-4.70136">
        <ele>20.45</ele>
        <time>2021-04-06T11:11:31Z</time>
      </trkpt>
      <trkpt lat="56.23148" lon="-4.70107">
        <ele>19.77</ele>
        <time>2021-04-06T11:11:35Z</time>
      </trkpt>
      <trkpt lat="56.22989" lon="-4.70047">
        <ele>21.11</ele>
        <time>2021-04-06T11:11:39Z</time>
      </trkpt>
      <trkpt lat="56.22933" lon="-4.70037">
        <ele>20.55</ele>
        <time>2021-04-06T11:11:43Z</time>
      </trkpt>
      <trkpt lat="56.22898" lon="-4.70025">
        <ele>23.72</ele>
        <time>2021-04-06T11:11:47Z</time>
      </trkpt>
      <trkpt lat="56.22843" lon="-4.69975">
        <ele>27.39</ele>
        <time>2021-04-06T11:11:51Z</time>
      </trkpt>
      <trkpt lat="56.22778" lon="-4.69895">
        <ele>22.45</ele>
        <time>2021-04-06T11:11:55Z</time>
      </trkpt>
      <trkpt lat="56.22742" lon="-4.69833">
        <ele>15.47</ele>
        <time>2021-04-06T11:11:59Z</time>
      </trkpt>
      <trkpt lat="56.22711" lon="-4.69808">
        <ele>18.46</ele>
        <time>2021-04-06T11:12:03Z</time>
      </trkpt>
      <trkpt lat="56.22674" lon="-4.69785">
        <ele>19.61</ele>
        <time>2021-04-06T11:12:07Z</time>
      </trkpt>
      <trkpt lat="56.22509" lon="-4.6972">
        <ele>21.67</ele>
        <time>2021-04-06T11:12:11Z</time>
      </trkpt>
      <trkpt lat="56.22451" lon="-4.69678">
        <ele>26.37</ele>
        <time>2021-04-06T11:12:15Z</time>
      </trkpt>
      <trkpt lat="56.22421" lon="-4.69629">
        <ele>24.38</ele>
        <time>2021-04-06T11:12:18Z</time>
      </trkpt>
      <trkpt lat="56.22382" lon="-4.696">
        <ele>23.88</ele>
        <time>2021-04-06T11:12:22Z</time>
      </trkpt>
      <trkpt lat="56.22335" lon="-4.69592">
        <ele>23.84</ele>
        <time>2021-04-06T11:12:26Z</time>
      </trkpt>
      <trkpt lat="56.22288" lon="-4.69593">
        <ele>29.26</ele>
        <time>2021-04-06T11:12:30Z</time>
      </trkpt>
      <trkpt lat="56.22255" lon="-4.69575">
        <ele>26.45</ele>
        <time>2021-04-06T11:12:34Z</time>
      </trkpt>
      <trkpt lat="56.22228" lon="-4.6957">
        <ele>24.05</ele>
        <time>2021-04-06T11:12:38Z</time>
      </trkpt>
      <trkpt lat="56.2219" lon="-4.69598">
        <ele>26.82</ele>
        <time>2021-04-06T11:12:42Z</time>
      </trkpt>
      <trkpt lat="56.22162" lon="-4.69603">
        <ele>28.16</ele>
        <time>2021-04-06T11:12:46Z</time>
      </trkpt>
      <trkpt lat="56.22095" lon="-4.69598">
        <ele>21.4</ele>
        <time>2021-04-06T11:12:50Z</time>
      </trkpt>
      <trkpt lat="56.22047" lon="-4.6961">
        <ele>22.14</ele>
        <time>2021-04-06T11:12:54Z</time>
      </trkpt>
      <trkpt lat="56.21959" lon="-4.69647">
        <ele>29.39</ele>
        <time>2021-04-06T11:12:58Z</time>
      </trkpt>
      <trkpt lat="56.21929" lon="-4.69645">
        <ele>24.37</ele>
        <time>2021-04-06T11:13:02Z</time>
      </trkpt>
      <trkpt lat="56.21898" lon="-4.69631">
        <ele>20.64</ele>
        <time>2021-04-06T11:13:06Z</time>
      </trkpt>
      <trkpt lat="56.21853" lon="-4.69585">
        <ele>17.73</ele>
        <time>2021-04-06T11:13:10Z</time>
      </trkpt>
      <trkpt lat="56.21757" lon="-4.69499">
        <ele>20.88</ele>
        <time>2021-04-06T11:13:14Z</time>
      </trkpt>
      <trkpt lat="56.21728" lon="-4.69478">
        <ele>19.6</ele>
        <time>2021-04-06T11:13:17Z</time>
      </trkpt>
      <trkpt lat="56.21699" lon="-4.69472">
        <ele>19</ele>
        <time>2021-04-06T11:13:21Z</time>
      </trkpt>
      <trkpt lat="56.21635" lon="-4.69487">
        <ele>19.36</ele>
        <time>2021-04-06T11:13:25Z</time>
      </trkpt>
      <trkpt lat="56.21572" lon="-4.69515">
        <ele>18.91</ele>
        <time>2021-04-06T11:13:29Z</time>
      </trkpt>
      <trkpt lat="56.21544" lon="-4.69534">
        <ele>17.95</ele>
        <time>2021-04-06T11:13:33Z</time>
      </trkpt>
      <trkpt lat="56.21499" lon="-4.69596">
        <ele>26.37</ele>
        <time>2021-04-06T11:13:37Z</time>
      </trkpt>
      <trkpt lat="56.21474" lon="-4.696">
        <ele>27.42</ele>
        <time>2021-04-06T11:13:41Z</time>
      </trkpt>
      <trkpt lat="56.21393" lon="-4.69585">
        <ele>21.64</ele>
        <time>2021-04-06T11:13:45Z</time>
      </trkpt>
      <trkpt lat="56.2137" lon="-4.69585">
        <ele>19.96</ele>
        <time>2021-04-06T11:13:49Z</time>
      </trkpt>
      <trkpt lat="56.21349" lon="-4.69603">
        <ele>20.33</ele>
        <time>2021-04-06T11:13:53Z</time>
      </trkpt>
      <trkpt lat="56.21334" lon="-4.69624">
        <ele>21.43</ele>
        <time>2021-04-06T11:13:57Z</time>
      </trkpt>
      <trkpt lat="56.21248" lon="-4.69816">
        <ele>20.02</ele>
        <time>2021-04-06T11:14:01Z</time>
      </trkpt>
      <trkpt lat="56.21222" lon="-4.69848">
        <ele>16.5</ele>
        <time>2021-04-06T11:14:05Z</time>
      </trkpt>
      <trkpt lat="56.21188" lon="-4.6988">
        <ele>15.3</ele>
        <time>2021-04-06T11:14:09Z</time>
      </trkpt>
      <trkpt lat="56.21108" lon="-4.69929">
        <ele>14.69</ele>
        <time>2021-04-06T11:14:13Z</time>
      </trkpt>
      <trkpt lat="56.21086" lon="-4.69949">
        <ele>14.96</ele>
        <time>2021-04-06T11:14:16Z</time>
      </trkpt>
      <trkpt lat="56.21022" lon="-4.70058">
        <ele>17.45</ele>
        <time>2021-04-06T11:14:20Z</time>
      </trkpt>
      <trkpt lat="56.20972" lon="-4.70155">
        <ele>18.52</ele>
        <time>2021-04-06T11:14:24Z</time>
      </trkpt>
      <trkpt lat="56.20947" lon="-4.70192">
        <ele>19.87</ele>
        <time>2021-04-06T11:14:28Z</time>
      </trkpt>
      <trkpt lat="56.20928" lon="-4.70214">
        <ele>19.69</ele>
        <time>2021-04-06T11:14:32Z</time>
      </trkpt>
      <trkpt lat="56.20865" lon="-4.70264">
        <ele>25.2</ele>
        <time>2021-04-06T11:14:36Z</time>
      </trkpt>
      <trkpt lat="56.20842" lon="-4.70269">
        <ele>25.45</ele>
        <time>2021-04-06T11:14:40Z</time>
      </trkpt>
      <trkpt lat="56.20787" lon="-4.70251">
        <ele>23.51</ele>
        <time>2021-04-06T11:14:44Z</time>
      </trkpt>
      <trkpt lat="56.20736" lon="-4.70255">
        <ele>20.68</ele>
        <time>2021-04-06T11:14:48Z</time>
      </trkpt>
      <trkpt lat="56.20708" lon="-4.70266">
        <ele>19.92</ele>
        <time>2021-04-06T11:14:52Z</time>
      </trkpt>
      <trkpt lat="56.20684" lon="-4.7029">
        <ele>19.34</ele>
        <time>2021-04-06T11:14:56Z</time>
      </trkpt>
      <trkpt lat="56.20662" lon="-4.70327">
        <ele>17.94</ele>
        <time>2021-04-06T11:15:00Z</time>
      </trkpt>
      <trkpt lat="56.20651" lon="-4.70369">
        <ele>15.69</ele>
        <time>2021-04-06T11:15:04Z</time>
      </trkpt>
      <trkpt lat="56.20631" lon="-4.70486">
        <ele>12.7</ele>
        <time>2021-04-06T11:15:08Z</time>
      </trkpt>
      <trkpt lat="56.20612" lon="-4.70553">
        <ele>15.03</ele>
        <time>2021-04-06T11:15:11Z</time>
      </trkpt>
      <trkpt lat="56.20538" lon="-4.70782">
        <ele>15.43</ele>
        <time>2021-04-06T11:15:15Z</time>
      </trkpt>
      <trkpt lat="56.20476" lon="-4.70916">
        <ele>16</ele>
        <time>2021-04-06T11:15:19Z</time>
      </trkpt>
      <trkpt lat="56.20464" lon="-4.70939">
        <ele>16.32</ele>
        <time>2021-04-06T11:15:23Z</time>
      </trkpt>
      <trkpt lat="56.20442" lon="-4.70973">
        <ele>18.11</ele>
        <time>2021-04-06T11:15:27Z</time>
      </trkpt>
      <trkpt lat="56.2041" lon="-4.7101">
        <ele>21.18</ele>
        <time>2021-04-06T11:15:31Z</time>
      </trkpt>
      <trkpt lat="56.20376" lon="-4.71038">
        <ele>24.09</ele>
        <time>2021-04-06T11:15:35Z</time>
      </trkpt>
      <trkpt lat="56.20305" lon="-4.71087">
        <ele>24.98</ele>
        <time>2021-04-06T11:15:39Z</time>
      </trkpt>
      <trkpt lat="56.20289" lon="-4.71071">
        <ele>24.23</ele>
        <time>2021-04-06T11:15:44Z</time>
      </trkpt>
      <trkpt lat="56.20216" lon="-4.70981">
        <ele>28.16</ele>
        <time>2021-04-06T11:15:49Z</time>
      </trkpt>
      <trkpt lat="56.20111" lon="-4.70865">
        <ele>30.18</ele>
        <time>2021-04-06T11:15:54Z</time>
      </trkpt>
      <trkpt lat="56.1969" lon="-4.70377">
        <ele>17.74</ele>
        <time>2021-04-06T11:15:59Z</time>
      </trkpt>
      <trkpt lat="56.19598" lon="-4.7032">
        <ele>18.8</ele>
        <time>2021-04-06T11:16:04Z</time>
      </trkpt>
      <trkpt lat="56.1955" lon="-4.70269">
        <ele>15.01</ele>
        <time>2021-04-06T11:16:09Z</time>
      </trkpt>
      <trkpt lat="56.19447" lon="-4.7013">
        <ele>16.09</ele>
        <time>2021-04-06T11:16:14Z</time>
      </trkpt>
      <trkpt lat="56.19397" lon="-4.70071">
        <ele>19.64</ele>
        <time>2021-04-06T11:16:20Z</time>
      </trkpt>
      <trkpt lat="56.19333" lon="-4.70028">
        <ele>16</ele>
        <time>2021-04-06T11:16:25Z</time>
      </trkpt>
      <trkpt lat="56.19033" lon="-4.69954">
        <ele>18.22</ele>
        <time>2021-04-06T11:16:30Z</time>
      </trkpt>
      <trkpt lat="56.18931" lon="-4.69907">
        <ele>17.3</ele>
        <time>2021-04-06T11:16:35Z</time>
      </trkpt>
      <trkpt lat="56.18796" lon="-4.69838">
        <ele>18.74</ele>
        <time>2021-04-06T11:16:40Z</time>
      </trkpt>
      <trkpt lat="56.187" lon="-4.6978">
        <ele>23.28</ele>
        <time>2021-04-06T11:16:45Z</time>
      </trkpt>
      <trkpt lat="56.18632" lon="-4.69723">
        <ele>22.94</ele>
        <time>2021-04-06T11:16:50Z</time>
      </trkpt>
      <trkpt lat="56.18573" lon="-4.69661">
        <ele>25.55</ele>
        <time>2021-04-06T11:16:55Z</time>
      </trkpt>
      <trkpt lat="56.18443" lon="-4.69494">
        <ele>27.9</ele>
        <time>2021-04-06T11:17:00Z</time>
      </trkpt>
      <trkpt lat="56.18319" lon="-4.69319">
        <ele>31.66</ele>
        <time>2021-04-06T11:17:05Z</time>
      </trkpt>
      <trkpt lat="56.18224" lon="-4.69171">
        <ele>30.55</ele>
        <time>2021-04-06T11:17:10Z</time>
      </trkpt>
      <trkpt lat="56.18152" lon="-4.69082">
        <ele>36.46</ele>
        <time>2021-04-06T11:17:15Z</time>
      </trkpt>
      <trkpt lat="56.18011" lon="-4.68916">
        <ele>30.76</ele>
        <time>2021-04-06T11:17:20Z</time>
      </trkpt>
      <trkpt lat="56.17943" lon="-4.68814">
        <ele>29.97</ele>
        <time>2021-04-06T11:17:25Z</time>
      </trkpt>
      <trkpt lat="56.17859" lon="-4.6867">
        <ele>34.88</ele>
        <time>2021-04-06T11:17:30Z</time>
      </trkpt>
      <trkpt lat="56.17807" lon="-4.68601">
        <ele>34.03</ele>
        <time>2021-04-06T11:17:35Z</time>
      </trkpt>
      <trkpt lat="56.17746" lon="-4.6854">
        <ele>31.67</ele>
        <time>2021-04-06T11:17:40Z</time>
      </trkpt>
      <trkpt lat="56.17692" lon="-4.6851">
        <ele>29.34</ele>
        <time>2021-04-06T11:17:45Z</time>
      </trkpt>
      <trkpt lat="56.17582" lon="-4.68475">
        <ele>23.35</ele>
        <time>2021-04-06T11:17:50Z</time>
      </trkpt>
      <trkpt lat="56.17505" lon="-4.68442">
        <ele>20.49</ele>
        <time>2021-04-06T11:17:55Z</time>
      </trkpt>
      <trkpt lat="56.17418" lon="-4.68381">
        <ele>21.53</ele>
        <time>2021-04-06T11:18:00Z</time>
      </trkpt>
      <trkpt lat="56.17382" lon="-4.68352">
        <ele>25.99</ele>
        <time>2021-04-06T11:18:05Z</time>
      </trkpt>
      <trkpt lat="56.17169" lon="-4.68113">
        <ele>26.17</ele>
        <time>2021-04-06T11:18:10Z</time>
      </trkpt>
      <trkpt lat="56.17126" lon="-4.68058">
        <ele>25.72</ele>
        <time>2021-04-06T11:18:15Z</time>
      </trkpt>
      <trkpt lat="56.17069" lon="-4.67973">
        <ele>27.64</ele>
        <time>2021-04-06T11:18:21Z</time>
      </trkpt>
      <trkpt lat="56.17004" lon="-4.67866">
        <ele>22.46</ele>
        <time>2021-04-06T11:18:26Z</time>
      </trkpt>
      <trkpt lat="56.16956" lon="-4.67775">
        <ele>25.36</ele>
        <time>2021-04-06T11:18:31Z</time>
      </trkpt>
      <trkpt lat="56.16909" lon="-4.67677">
        <ele>30.8</ele>
        <time>2021-04-06T11:18:36Z</time>
      </trkpt>
      <trkpt lat="56.1688" lon="-4.67611">
        <ele>31.84</ele>
        <time>2021-04-06T11:18:41Z</time>
      </trkpt>
      <trkpt lat="56.1686" lon="-4.67552">
        <ele>32.06</ele>
        <time>2021-04-06T11:18:46Z</time>
      </trkpt>
      <trkpt lat="56.16838" lon="-4.67481">
        <ele>30.69</ele>
        <time>2021-04-06T11:18:51Z</time>
      </trkpt>
      <trkpt lat="56.16812" lon="-4.67352">
        <ele>32.83</ele>
        <time>2021-04-06T11:18:56Z</time>
      </trkpt>
      <trkpt lat="56.16779" lon="-4.671">
        <ele>27.94</ele>
        <time>2021-04-06T11:19:01Z</time>
      </trkpt>
      <trkpt lat="56.16762" lon="-4.67017">
        <ele>27.78</ele>
        <time>2021-04-06T11:19:06Z</time>
      </trkpt>
      <trkpt lat="56.16747" lon="-4.66968">
        <ele>27.58</ele>
        <time>2021-04-06T11:19:11Z</time>
      </trkpt>
      <trkpt lat="56.16726" lon="-4.66912">
        <ele>25.82</ele>
        <time>2021-04-06T11:19:16Z</time>
      </trkpt>
      <trkpt lat="56.16705" lon="-4.6687">
        <ele>24.56</ele>
        <time>2021-04-06T11:19:21Z</time>
      </trkpt>
      <trkpt lat="56.16649" lon="-4.66775">
        <ele>24.02</ele>
        <time>2021-04-06T11:19:26Z</time>
      </trkpt>
      <trkpt lat="56.16585" lon="-4.66686">
        <ele>25.11</ele>
        <time>2021-04-06T11:19:31Z</time>
      </trkpt>
      <trkpt lat="56.16511" lon="-4.66596">
        <ele>26.18</ele>
        <time>2021-04-06T11:19:36Z</time>
      </trkpt>
      <trkpt lat="56.16475" lon="-4.66559">
        <ele>27.15</ele>
        <time>2021-04-06T11:19:41Z</time>
      </trkpt>
      <trkpt lat="56.16433" lon="-4.66528">
        <ele>31.07</ele>
        <time>2021-04-06T11:19:46Z</time>
      </trkpt>
      <trkpt lat="56.16412" lon="-4.66519">
        <ele>33.02</ele>
        <time>2021-04-06T11:19:51Z</time>
      </trkpt>
      <trkpt lat="56.16386" lon="-4.66512">
        <ele>34.14</ele>
        <time>2021-04-06T11:19:56Z</time>
      </trkpt>
      <trkpt lat="56.1636" lon="-4.66511">
        <ele>34.78</ele>
        <time>2021-04-06T11:20:01Z</time>
      </trkpt>
      <trkpt lat="56.16328" lon="-4.66519">
        <ele>34.1</ele>
        <time>2021-04-06T11:20:06Z</time>
      </trkpt>
      <trkpt lat="56.163" lon="-4.66535">
        <ele>33.39</ele>
        <time>2021-04-06T11:20:11Z</time>
      </trkpt>
      <trkpt lat="56.16262" lon="-4.66568">
        <ele>32.86</ele>
        <time>2021-04-06T11:20:16Z</time>
      </trkpt>
      <trkpt lat="56.16207" lon="-4.66657">
        <ele>32.1</ele>
        <time>2021-04-06T11:20:22Z</time>
      </trkpt>
      <trkpt lat="56.16158" lon="-4.66777">
        <ele>31.72</ele>
        <time>2021-04-06T11:20:27Z</time>
      </trkpt>
      <trkpt lat="56.16109" lon="-4.66876">
        <ele>26.93</ele>
        <time>2021-04-06T11:20:32Z</time>
      </trkpt>
      <trkpt lat="56.16052" lon="-4.66976">
        <ele>25.88</ele>
        <time>2021-04-06T11:20:37Z</time>
      </trkpt>
      <trkpt lat="56.16015" lon="-4.67026">
        <ele>27.96</ele>
        <time>2021-04-06T11:20:42Z</time>
      </trkpt>
      <trkpt lat="56.15986" lon="-4.67059">
        <ele>26.38</ele>
        <time>2021-04-06T11:20:47Z</time>
      </trkpt>
      <trkpt lat="56.15949" lon="-4.67095">
        <ele>22.61</ele>
        <time>2021-04-06T11:20:52Z</time>
      </trkpt>
      <trkpt lat="56.15902" lon="-4.67129">
        <ele>22.17</ele>
        <time>2021-04-06T11:20:57Z</time>
      </trkpt>
      <trkpt lat="56.15854" lon="-4.67148">
        <ele>21.69</ele>
        <time>2021-04-06T11:21:02Z</time>
      </trkpt>
      <trkpt lat="56.15826" lon="-4.67151">
        <ele>20.34</ele>
        <time>2021-04-06T11:21:07Z</time>
      </trkpt>
      <trkpt lat="56.15797" lon="-4.67149">
        <ele>19.75</ele>
        <time>2021-04-06T11:21:12Z</time>
      </trkpt>
      <trkpt lat="56.15763" lon="-4.67143">
        <ele>20.99</ele>
        <time>2021-04-06T11:21:17Z</time>
      </trkpt>
      <trkpt lat="56.15734" lon="-4.67133">
        <ele>20.12</ele>
        <time>2021-04-06T11:21:22Z</time>
      </trkpt>
      <trkpt lat="56.15686" lon="-4.67107">
        <ele>19.07</ele>
        <time>2021-04-06T11:21:27Z</time>
      </trkpt>
      <trkpt lat="56.15545" lon="-4.66997">
        <ele>17.46</ele>
        <time>2021-04-06T11:21:32Z</time>
      </trkpt>
      <trkpt lat="56.15504" lon="-4.66972">
        <ele>17.73</ele>
        <time>2021-04-06T11:21:37Z</time>
      </trkpt>
      <trkpt lat="56.15385" lon="-4.66928">
        <ele>20.02</ele>
        <time>2021-04-06T11:21:42Z</time>
      </trkpt>
      <trkpt lat="56.15315" lon="-4.66888">
        <ele>21.83</ele>
        <time>2021-04-06T11:21:47Z</time>
      </trkpt>
      <trkpt lat="56.15262" lon="-4.66838">
        <ele>20.06</ele>
        <time>2021-04-06T11:21:52Z</time>
      </trkpt>
      <trkpt lat="56.15207" lon="-4.66763">
        <ele>23.4</ele>
        <time>2021-04-06T11:21:57Z</time>
      </trkpt>
      <trkpt lat="56.15116" lon="-4.66655">
        <ele>16.43</ele>
        <time>2021-04-06T11:22:02Z</time>
      </trkpt>
      <trkpt lat="56.15058" lon="-4.66601">
        <ele>19.86</ele>
        <time>2021-04-06T11:22:07Z</time>
      </trkpt>
      <trkpt lat="56.14997" lon="-4.66557">
        <ele>19.13</ele>
        <time>2021-04-06T11:22:12Z</time>
      </trkpt>
      <trkpt lat="56.14944" lon="-4.6653">
        <ele>22.34</ele>
        <time>2021-04-06T11:22:17Z</time>
      </trkpt>
      <trkpt lat="56.1489" lon="-4.66508">
        <ele>21.74</ele>
        <time>2021-04-06T11:22:22Z</time>
      </trkpt>
      <trkpt lat="56.14772" lon="-4.66479">
        <ele>20.22</ele>
        <time>2021-04-06T11:22:28Z</time>
      </trkpt>
      <trkpt lat="56.1469" lon="-4.66467">
        <ele>14.8</ele>
        <time>2021-04-06T11:22:33Z</time>
      </trkpt>
      <trkpt lat="56.14612" lon="-4.66448">
        <ele>13</ele>
        <time>2021-04-06T11:22:38Z</time>
      </trkpt>
      <trkpt lat="56.1452" lon="-4.66416">
        <ele>17.96</ele>
        <time>2021-04-06T11:22:43Z</time>
      </trkpt>
      <trkpt lat="56.1442" lon="-4.66375">
        <ele>20.76</ele>
        <time>2021-04-06T11:22:48Z</time>
      </trkpt>
      <trkpt lat="56.14244" lon="-4.66282">
        <ele>23.06</ele>
        <time>2021-04-06T11:22:53Z</time>
      </trkpt>
      <trkpt lat="56.14185" lon="-4.66244">
        <ele>22.68</ele>
        <time>2021-04-06T11:22:58Z</time>
      </trkpt>
      <trkpt lat="56.14005" lon="-4.66116">
        <ele>19.25</ele>
        <time>2021-04-06T11:23:03Z</time>
      </trkpt>
      <trkpt lat="56.1384" lon="-4.66013">
        <ele>20.19</ele>
        <time>2021-04-06T11:23:08Z</time>
      </trkpt>
      <trkpt lat="56.13629" lon="-4.65899">
        <ele>18.12</ele>
        <time>2021-04-06T11:23:13Z</time>
      </trkpt>
      <trkpt lat="56.13508" lon="-4.65826">
        <ele>20.28</ele>
        <time>2021-04-06T11:23:18Z</time>
      </trkpt>
      <trkpt lat="56.13416" lon="-4.65767">
        <ele>30.04</ele>
        <time>2021-04-06T11:23:23Z</time>
      </trkpt>
      <trkpt lat="56.13288" lon="-4.65675">
        <ele>23.24</ele>
        <time>2021-04-06T11:23:28Z</time>
      </trkpt>
      <trkpt lat="56.13165" lon="-4.65598">
        <ele>20.84</ele>
        <time>2021-04-06T11:23:33Z</time>
      </trkpt>
      <trkpt lat="56.13032" lon="-4.65524">
        <ele>17.97</ele>
        <time>2021-04-06T11:23:38Z</time>
      </trkpt>
      <trkpt lat="56.12907" lon="-4.65469">
        <ele>21.15</ele>
        <time>2021-04-06T11:23:43Z</time>
      </trkpt>
      <trkpt lat="56.12792" lon="-4.65422">
        <ele>18.6</ele>
        <time>2021-04-06T11:23:48Z</time>
      </trkpt>
      <trkpt lat="56.12627" lon="-4.65364">
        <ele>22.86</ele>
        <time>2021-04-06T11:23:53Z</time>
      </trkpt>
      <trkpt lat="56.12491" lon="-4.65308">
        <ele>24.41</ele>
        <time>2021-04-06T11:23:58Z</time>
      </trkpt>
      <trkpt lat="56.12341" lon="-4.65242">
        <ele>21.5</ele>
        <time>2021-04-06T11:24:03Z</time>
      </trkpt>
      <trkpt lat="56.12093" lon="-4.65119">
        <ele>17.7</ele>
        <time>2021-04-06T11:24:08Z</time>
      </trkpt>
      <trkpt lat="56.12068" lon="-4.65103">
        <ele>17.53</ele>
        <time>2021-04-06T11:24:13Z</time>
      </trkpt>
      <trkpt lat="56.12005" lon="-4.6506">
        <ele>17.39</ele>
        <time>2021-04-06T11:24:18Z</time>
      </trkpt>
      <trkpt lat="56.11932" lon="-4.65">
        <ele>19.77</ele>
        <time>2021-04-06T11:24:23Z</time>
      </trkpt>
      <trkpt lat="56.11887" lon="-4.64959">
        <ele>22.31</ele>
        <time>2021-04-06T11:24:29Z</time>
      </trkpt>
      <trkpt lat="56.11843" lon="-4.64916">
        <ele>21.1</ele>
        <time>2021-04-06T11:24:34Z</time>
      </trkpt>
      <trkpt lat="56.1176" lon="-4.64821">
        <ele>22.69</ele>
        <time>2021-04-06T11:24:39Z</time>
      </trkpt>
      <trkpt lat="56.11695" lon="-4.64738">
        <ele>26.31</ele>
        <time>2021-04-06T11:24:44Z</time>
      </trkpt>
      <trkpt lat="56.11599" lon="-4.64608">
        <ele>19.25</ele>
        <time>2021-04-06T11:24:49Z</time>
      </trkpt>
      <trkpt lat="56.11541" lon="-4.64526">
        <ele>26.81</ele>
        <time>2021-04-06T11:24:54Z</time>
      </trkpt>
      <trkpt lat="56.1148" lon="-4.64443">
        <ele>24.39</ele>
        <time>2021-04-06T11:24:59Z</time>
      </trkpt>
      <trkpt lat="56.11436" lon="-4.64393">
        <ele>25.83</ele>
        <time>2021-04-06T11:25:04Z</time>
      </trkpt>
      <trkpt lat="56.11378" lon="-4.64344">
        <ele>21.83</ele>
        <time>2021-04-06T11:25:09Z</time>
      </trkpt>
      <trkpt lat="56.11351" lon="-4.64326">
        <ele>20.34</ele>
        <time>2021-04-06T11:25:14Z</time>
      </trkpt>
      <trkpt lat="56.11287" lon="-4.64288">
        <ele>18.43</ele>
        <time>2021-04-06T11:25:19Z</time>
      </trkpt>
      <trkpt lat="56.11189" lon="-4.64223">
        <ele>16.57</ele>
        <time>2021-04-06T11:25:24Z</time>
      </trkpt>
      <trkpt lat="56.11155" lon="-4.64198">
        <ele>17.21</ele>
        <time>2021-04-06T11:25:29Z</time>
      </trkpt>
      <trkpt lat="56.11088" lon="-4.64144">
        <ele>17.29</ele>
        <time>2021-04-06T11:25:34Z</time>
      </trkpt>
      <trkpt lat="56.10963" lon="-4.64031">
        <ele>21.33</ele>
        <time>2021-04-06T11:25:39Z</time>
      </trkpt>
      <trkpt lat="56.10861" lon="-4.6396">
        <ele>21.87</ele>
        <time>2021-04-06T11:25:44Z</time>
      </trkpt>
      <trkpt lat="56.10798" lon="-4.63929">
        <ele>21.35</ele>
        <time>2021-04-06T11:25:49Z</time>
      </trkpt>
      <trkpt lat="56.10765" lon="-4.6392">
        <ele>22.99</ele>
        <time>2021-04-06T11:25:54Z</time>
      </trkpt>
      <trkpt lat="56.10732" lon="-4.63914">
        <ele>21.9</ele>
        <time>2021-04-06T11:25:59Z</time>
      </trkpt>
      <trkpt lat="56.10679" lon="-4.63913">
        <ele>19.86</ele>
        <time>2021-04-06T11:26:04Z</time>
      </trkpt>
      <trkpt lat="56.1063" lon="-4.63922">
        <ele>21.56</ele>
        <time>2021-04-06T11:26:09Z</time>
      </trkpt>
      <trkpt lat="56.10584" lon="-4.6394">
        <ele>23.51</ele>
        <time>2021-04-06T11:26:14Z</time>
      </trkpt>
      <trkpt lat="56.10543" lon="-4.63961">
        <ele>24.2</ele>
        <time>2021-04-06T11:26:19Z</time>
      </trkpt>
      <trkpt lat="56.10514" lon="-4.6398">
        <ele>25.49</ele>
        <time>2021-04-06T11:26:24Z</time>
      </trkpt>
      <trkpt lat="56.10404" lon="-4.64073">
        <ele>28.73</ele>
        <time>2021-04-06T11:26:30Z</time>
      </trkpt>
      <trkpt lat="56.10317" lon="-4.6414">
        <ele>27</ele>
        <time>2021-04-06T11:26:35Z</time>
      </trkpt>
      <trkpt lat="56.1025" lon="-4.64183">
        <ele>24.17</ele>
        <time>2021-04-06T11:26:40Z</time>
      </trkpt>
      <trkpt lat="56.1019" lon="-4.64209">
        <ele>24.53</ele>
        <time>2021-04-06T11:26:45Z</time>
      </trkpt>
      <trkpt lat="56.10132" lon="-4.6423">
        <ele>24.32</ele>
        <time>2021-04-06T11:26:50Z</time>
      </trkpt>
      <trkpt lat="56.10013" lon="-4.64254">
        <ele>20.54</ele>
        <time>2021-04-06T11:26:55Z</time>
      </trkpt>
      <trkpt lat="56.09839" lon="-4.64284">
        <ele>14.05</ele>
        <time>2021-04-06T11:27:00Z</time>
      </trkpt>
      <trkpt lat="56.09673" lon="-4.64308">
        <ele>18.65</ele>
        <time>2021-04-06T11:27:05Z</time>
      </trkpt>
      <trkpt lat="56.09291" lon="-4.64329">
        <ele>32.19</ele>
        <time>2021-04-06T11:27:10Z</time>
      </trkpt>
      <trkpt lat="56.09224" lon="-4.64324">
        <ele>33.64</ele>
        <time>2021-04-06T11:27:15Z</time>
      </trkpt>
      <trkpt lat="56.09154" lon="-4.64306">
        <ele>31.56</ele>
        <time>2021-04-06T11:27:20Z</time>
      </trkpt>
      <trkpt lat="56.09154" lon="-4.64306">
        <ele>31.56</ele>
        <time>2021-04-06T11:27:20Z</time>
      </trkpt>
      <trkpt lat="56.09098" lon="-4.64282">
        <ele>32.06</ele>
        <time>2021-04-06T11:27:25Z</time>
      </trkpt>
      <trkpt lat="56.09019" lon="-4.64232">
        <ele>33.63</ele>
        <time>2021-04-06T11:27:29Z</time>
      </trkpt>
      <trkpt lat="56.0896" lon="-4.64176">
        <ele>32.51</ele>
        <time>2021-04-06T11:27:34Z</time>
      </trkpt>
      <trkpt lat="56.08903" lon="-4.6411">
        <ele>31.24</ele>
        <time>2021-04-06T11:27:39Z</time>
      </trkpt>
      <trkpt lat="56.08816" lon="-4.64013">
        <ele>31.64</ele>
        <time>2021-04-06T11:27:43Z</time>
      </trkpt>
      <trkpt lat="56.08773" lon="-4.63971">
        <ele>28.67</ele>
        <time>2021-04-06T11:27:48Z</time>
      </trkpt>
      <trkpt lat="56.08713" lon="-4.63929">
        <ele>30.61</ele>
        <time>2021-04-06T11:27:53Z</time>
      </trkpt>
      <trkpt lat="56.08668" lon="-4.63907">
        <ele>34.31</ele>
        <time>2021-04-06T11:27:58Z</time>
      </trkpt>
      <trkpt lat="56.08602" lon="-4.63893">
        <ele>28.72</ele>
        <time>2021-04-06T11:28:02Z</time>
      </trkpt>
      <trkpt lat="56.08534" lon="-4.63895">
        <ele>28.88</ele>
        <time>2021-04-06T11:28:07Z</time>
      </trkpt>
      <trkpt lat="56.08462" lon="-4.63913">
        <ele>24.23</ele>
        <time>2021-04-06T11:28:12Z</time>
      </trkpt>
      <trkpt lat="56.08292" lon="-4.63965">
        <ele>29.13</ele>
        <time>2021-04-06T11:28:16Z</time>
      </trkpt>
      <trkpt lat="56.08165" lon="-4.63991">
        <ele>24.2</ele>
        <time>2021-04-06T11:28:21Z</time>
      </trkpt>
      <trkpt lat="56.08075" lon="-4.64005">
        <ele>22.07</ele>
        <time>2021-04-06T11:28:26Z</time>
      </trkpt>
      <trkpt lat="56.07919" lon="-4.64011">
        <ele>20.66</ele>
        <time>2021-04-06T11:28:31Z</time>
      </trkpt>
      <trkpt lat="56.07821" lon="-4.64007">
        <ele>21.93</ele>
        <time>2021-04-06T11:28:35Z</time>
      </trkpt>
      <trkpt lat="56.07772" lon="-4.63992">
        <ele>17.59</ele>
        <time>2021-04-06T11:28:36Z</time>
      </trkpt>
      <trkpt lat="56.07762" lon="-4.63985">
        <ele>16.88</ele>
        <time>2021-04-06T11:28:37Z</time>
      </trkpt>
      <trkpt lat="56.07757" lon="-4.63976">
        <ele>16.53</ele>
        <time>2021-04-06T11:28:38Z</time>
      </trkpt>
      <trkpt lat="56.07755" lon="-4.63967">
        <ele>16.55</ele>
        <time>2021-04-06T11:28:39Z</time>
      </trkpt>
      <trkpt lat="56.07755" lon="-4.63944">
        <ele>17.39</ele>
        <time>2021-04-06T11:28:40Z</time>
      </trkpt>
      <trkpt lat="56.0775" lon="-4.63955">
        <ele>16.63</ele>
        <time>2021-04-06T11:28:41Z</time>
      </trkpt>
      <trkpt lat="56.0774" lon="-4.63998">
        <ele>16.75</ele>
        <time>2021-04-06T11:28:42Z</time>
      </trkpt>
      <trkpt lat="56.07657" lon="-4.63984">
        <ele>23.62</ele>
        <time>2021-04-06T11:28:48Z</time>
      </trkpt>
      <trkpt lat="56.07563" lon="-4.63961">
        <ele>20.53</ele>
        <time>2021-04-06T11:28:53Z</time>
      </trkpt>
      <trkpt lat="56.07398" lon="-4.63928">
        <ele>22.22</ele>
        <time>2021-04-06T11:28:59Z</time>
      </trkpt>
      <trkpt lat="56.07365" lon="-4.63927">
        <ele>19.27</ele>
        <time>2021-04-06T11:29:05Z</time>
      </trkpt>
      <trkpt lat="56.07304" lon="-4.63939">
        <ele>20.81</ele>
        <time>2021-04-06T11:29:11Z</time>
      </trkpt>
      <trkpt lat="56.07258" lon="-4.6396">
        <ele>21.18</ele>
        <time>2021-04-06T11:29:16Z</time>
      </trkpt>
      <trkpt lat="56.07219" lon="-4.63984">
        <ele>22.15</ele>
        <time>2021-04-06T11:29:22Z</time>
      </trkpt>
      <trkpt lat="56.07174" lon="-4.6402">
        <ele>24.84</ele>
        <time>2021-04-06T11:29:28Z</time>
      </trkpt>
      <trkpt lat="56.07144" lon="-4.64049">
        <ele>23.52</ele>
        <time>2021-04-06T11:29:33Z</time>
      </trkpt>
      <trkpt lat="56.07071" lon="-4.64142">
        <ele>25.08</ele>
        <time>2021-04-06T11:29:39Z</time>
      </trkpt>
      <trkpt lat="56.07013" lon="-4.64224">
        <ele>26.44</ele>
        <time>2021-04-06T11:29:45Z</time>
      </trkpt>
      <trkpt lat="56.06966" lon="-4.64285">
        <ele>24.33</ele>
        <time>2021-04-06T11:29:51Z</time>
      </trkpt>
      <trkpt lat="56.06931" lon="-4.64326">
        <ele>21.76</ele>
        <time>2021-04-06T11:29:56Z</time>
      </trkpt>
      <trkpt lat="56.06881" lon="-4.6438">
        <ele>22.95</ele>
        <time>2021-04-06T11:30:02Z</time>
      </trkpt>
      <trkpt lat="56.06849" lon="-4.6441">
        <ele>23.58</ele>
        <time>2021-04-06T11:30:08Z</time>
      </trkpt>
      <trkpt lat="56.0679" lon="-4.64458">
        <ele>20.44</ele>
        <time>2021-04-06T11:30:14Z</time>
      </trkpt>
      <trkpt lat="56.06743" lon="-4.64489">
        <ele>19.59</ele>
        <time>2021-04-06T11:30:19Z</time>
      </trkpt>
      <trkpt lat="56.06647" lon="-4.64535">
        <ele>21.53</ele>
        <time>2021-04-06T11:30:25Z</time>
      </trkpt>
      <trkpt lat="56.06569" lon="-4.64557">
        <ele>18.98</ele>
        <time>2021-04-06T11:30:31Z</time>
      </trkpt>
      <trkpt lat="56.06463" lon="-4.64579">
        <ele>19.59</ele>
        <time>2021-04-06T11:30:37Z</time>
      </trkpt>
      <trkpt lat="56.06314" lon="-4.64593">
        <ele>22.89</ele>
        <time>2021-04-06T11:30:42Z</time>
      </trkpt>
      <trkpt lat="56.06104" lon="-4.64593">
        <ele>22.18</ele>
        <time>2021-04-06T11:30:48Z</time>
      </trkpt>
      <trkpt lat="56.06055" lon="-4.64588">
        <ele>23.63</ele>
        <time>2021-04-06T11:30:54Z</time>
      </trkpt>
      <trkpt lat="56.05902" lon="-4.64586">
        <ele>20.52</ele>
        <time>2021-04-06T11:31:00Z</time>
      </trkpt>
      <trkpt lat="56.0575" lon="-4.64585">
        <ele>18.96</ele>
        <time>2021-04-06T11:31:05Z</time>
      </trkpt>
      <trkpt lat="56.05726" lon="-4.64589">
        <ele>18.12</ele>
        <time>2021-04-06T11:31:11Z</time>
      </trkpt>
      <trkpt lat="56.05684" lon="-4.64586">
        <ele>18.64</ele>
        <time>2021-04-06T11:31:17Z</time>
      </trkpt>
      <trkpt lat="56.05613" lon="-4.64588">
        <ele>18.95</ele>
        <time>2021-04-06T11:31:23Z</time>
      </trkpt>
      <trkpt lat="56.05553" lon="-4.64594">
        <ele>20.48</ele>
        <time>2021-04-06T11:31:28Z</time>
      </trkpt>
      <trkpt lat="56.05425" lon="-4.64613">
        <ele>23.19</ele>
        <time>2021-04-06T11:31:34Z</time>
      </trkpt>
      <trkpt lat="56.0508" lon="-4.64675">
        <ele>22.69</ele>
        <time>2021-04-06T11:31:40Z</time>
      </trkpt>
      <trkpt lat="56.04847" lon="-4.64681">
        <ele>19.73</ele>
        <time>2021-04-06T11:31:46Z</time>
      </trkpt>
      <trkpt lat="56.04744" lon="-4.64671">
        <ele>25</ele>
        <time>2021-04-06T11:31:51Z</time>
      </trkpt>
      <trkpt lat="56.04547" lon="-4.64636">
        <ele>19.82</ele>
        <time>2021-04-06T11:31:57Z</time>
      </trkpt>
      <trkpt lat="56.04136" lon="-4.64552">
        <ele>24.88</ele>
        <time>2021-04-06T11:32:03Z</time>
      </trkpt>
      <trkpt lat="56.04081" lon="-4.64535">
        <ele>24.24</ele>
        <time>2021-04-06T11:32:09Z</time>
      </trkpt>
      <trkpt lat="56.04027" lon="-4.64511">
        <ele>23.57</ele>
        <time>2021-04-06T11:32:14Z</time>
      </trkpt>
      <trkpt lat="56.03925" lon="-4.6444">
        <ele>19.3</ele>
        <time>2021-04-06T11:32:20Z</time>
      </trkpt>
      <trkpt lat="56.03845" lon="-4.64366">
        <ele>19</ele>
        <time>2021-04-06T11:32:26Z</time>
      </trkpt>
      <trkpt lat="56.03786" lon="-4.64308">
        <ele>16.29</ele>
        <time>2021-04-06T11:32:32Z</time>
      </trkpt>
      <trkpt lat="56.03699" lon="-4.64212">
        <ele>14.15</ele>
        <time>2021-04-06T11:32:37Z</time>
      </trkpt>
      <trkpt lat="56.0347" lon="-4.6394">
        <ele>17.02</ele>
        <time>2021-04-06T11:32:43Z</time>
      </trkpt>
      <trkpt lat="56.0347" lon="-4.6394">
        <ele>17.02</ele>
        <time>2021-04-06T11:32:43Z</time>
      </trkpt>
      <trkpt lat="56.03204" lon="-4.63621">
        <ele>21.41</ele>
        <time>2021-04-06T11:32:49Z</time>
      </trkpt>
      <trkpt lat="56.03143" lon="-4.63564">
        <ele>22.29</ele>
        <time>2021-04-06T11:32:54Z</time>
      </trkpt>
      <trkpt lat="56.03073" lon="-4.63514">
        <ele>23.88</ele>
        <time>2021-04-06T11:33:00Z</time>
      </trkpt>
      <trkpt lat="56.0295" lon="-4.63463">
        <ele>21.07</ele>
        <time>2021-04-06T11:33:05Z</time>
      </trkpt>
      <trkpt lat="56.02809" lon="-4.63422">
        <ele>20</ele>
        <time>2021-04-06T11:33:11Z</time>
      </trkpt>
      <trkpt lat="56.02759" lon="-4.63416">
        <ele>19.33</ele>
        <time>2021-04-06T11:33:16Z</time>
      </trkpt>
      <trkpt lat="56.0271" lon="-4.6342">
        <ele>19.43</ele>
        <time>2021-04-06T11:33:21Z</time>
      </trkpt>
      <trkpt lat="56.0269" lon="-4.63405">
        <ele>20</ele>
        <time>2021-04-06T11:33:27Z</time>
      </trkpt>
      <trkpt lat="56.02671" lon="-4.63379">
        <ele>20</ele>
        <time>2021-04-06T11:33:32Z</time>
      </trkpt>
      <trkpt lat="56.02665" lon="-4.6337">
        <ele>20</ele>
        <time>2021-04-06T11:33:36Z</time>
      </trkpt>
      <trkpt lat="56.02653" lon="-4.63363">
        <ele>20</ele>
        <time>2021-04-06T11:33:39Z</time>
      </trkpt>
      <trkpt lat="56.0262" lon="-4.63371">
        <ele>21.4</ele>
        <time>2021-04-06T11:33:42Z</time>
      </trkpt>
      <trkpt lat="56.02593" lon="-4.63373">
        <ele>22.66</ele>
        <time>2021-04-06T11:33:45Z</time>
      </trkpt>
      <trkpt lat="56.0256" lon="-4.63362">
        <ele>23.81</ele>
        <time>2021-04-06T11:33:48Z</time>
      </trkpt>
      <trkpt lat="56.02503" lon="-4.63331">
        <ele>23.29</ele>
        <time>2021-04-06T11:33:52Z</time>
      </trkpt>
      <trkpt lat="56.02459" lon="-4.633">
        <ele>22.85</ele>
        <time>2021-04-06T11:33:55Z</time>
      </trkpt>
      <trkpt lat="56.02416" lon="-4.63261">
        <ele>22.04</ele>
        <time>2021-04-06T11:33:58Z</time>
      </trkpt>
      <trkpt lat="56.02378" lon="-4.63221">
        <ele>23.41</ele>
        <time>2021-04-06T11:34:01Z</time>
      </trkpt>
      <trkpt lat="56.02342" lon="-4.63177">
        <ele>22.69</ele>
        <time>2021-04-06T11:34:04Z</time>
      </trkpt>
      <trkpt lat="56.02301" lon="-4.63117">
        <ele>21.67</ele>
        <time>2021-04-06T11:34:08Z</time>
      </trkpt>
      <trkpt lat="56.02258" lon="-4.63037">
        <ele>22.27</ele>
        <time>2021-04-06T11:34:11Z</time>
      </trkpt>
      <trkpt lat="56.02235" lon="-4.6299">
        <ele>22.46</ele>
        <time>2021-04-06T11:34:14Z</time>
      </trkpt>
      <trkpt lat="56.02209" lon="-4.62926">
        <ele>21.16</ele>
        <time>2021-04-06T11:34:17Z</time>
      </trkpt>
      <trkpt lat="56.02183" lon="-4.6285">
        <ele>21.6</ele>
        <time>2021-04-06T11:34:21Z</time>
      </trkpt>
      <trkpt lat="56.02159" lon="-4.62765">
        <ele>24.27</ele>
        <time>2021-04-06T11:34:24Z</time>
      </trkpt>
      <trkpt lat="56.02139" lon="-4.62667">
        <ele>23.01</ele>
        <time>2021-04-06T11:34:27Z</time>
      </trkpt>
      <trkpt lat="56.0212" lon="-4.62548">
        <ele>21.32</ele>
        <time>2021-04-06T11:34:30Z</time>
      </trkpt>
      <trkpt lat="56.02086" lon="-4.6228">
        <ele>22</ele>
        <time>2021-04-06T11:34:33Z</time>
      </trkpt>
      <trkpt lat="56.02062" lon="-4.62151">
        <ele>21.08</ele>
        <time>2021-04-06T11:34:37Z</time>
      </trkpt>
      <trkpt lat="56.02039" lon="-4.62061">
        <ele>15.13</ele>
        <time>2021-04-06T11:34:40Z</time>
      </trkpt>
      <trkpt lat="56.02024" lon="-4.62009">
        <ele>11.94</ele>
        <time>2021-04-06T11:34:43Z</time>
      </trkpt>
      <trkpt lat="56.01999" lon="-4.61936">
        <ele>11.08</ele>
        <time>2021-04-06T11:34:46Z</time>
      </trkpt>
      <trkpt lat="56.01962" lon="-4.61836">
        <ele>14.95</ele>
        <time>2021-04-06T11:34:49Z</time>
      </trkpt>
      <trkpt lat="56.01914" lon="-4.61734">
        <ele>12.42</ele>
        <time>2021-04-06T11:34:53Z</time>
      </trkpt>
      <trkpt lat="56.01842" lon="-4.6161">
        <ele>12.66</ele>
        <time>2021-04-06T11:34:56Z</time>
      </trkpt>
      <trkpt lat="56.01781" lon="-4.61524">
        <ele>12.13</ele>
        <time>2021-04-06T11:34:59Z</time>
      </trkpt>
      <trkpt lat="56.01706" lon="-4.61435">
        <ele>11.6</ele>
        <time>2021-04-06T11:35:02Z</time>
      </trkpt>
      <trkpt lat="56.01618" lon="-4.61365">
        <ele>12.58</ele>
        <time>2021-04-06T11:35:06Z</time>
      </trkpt>
      <trkpt lat="56.01618" lon="-4.61365">
        <ele>12.58</ele>
        <time>2021-04-06T11:35:06Z</time>
      </trkpt>
      <trkpt lat="56.01365" lon="-4.61161">
        <ele>22.66</ele>
        <time>2021-04-06T11:35:14Z</time>
      </trkpt>
      <trkpt lat="56.01042" lon="-4.60897">
        <ele>44.78</ele>
        <time>2021-04-06T11:35:22Z</time>
      </trkpt>
      <trkpt lat="56.00974" lon="-4.60828">
        <ele>47.07</ele>
        <time>2021-04-06T11:35:30Z</time>
      </trkpt>
      <trkpt lat="56.0091" lon="-4.60751">
        <ele>52.7</ele>
        <time>2021-04-06T11:35:38Z</time>
      </trkpt>
      <trkpt lat="56.00779" lon="-4.60563">
        <ele>55.7</ele>
        <time>2021-04-06T11:35:46Z</time>
      </trkpt>
      <trkpt lat="56.00706" lon="-4.60468">
        <ele>58.4</ele>
        <time>2021-04-06T11:35:54Z</time>
      </trkpt>
      <trkpt lat="56.00626" lon="-4.60357">
        <ele>54.99</ele>
        <time>2021-04-06T11:36:03Z</time>
      </trkpt>
      <trkpt lat="56.00552" lon="-4.60275">
        <ele>48.76</ele>
        <time>2021-04-06T11:36:11Z</time>
      </trkpt>
      <trkpt lat="56.00466" lon="-4.60193">
        <ele>48.55</ele>
        <time>2021-04-06T11:36:19Z</time>
      </trkpt>
      <trkpt lat="56.00215" lon="-4.6">
        <ele>48.52</ele>
        <time>2021-04-06T11:36:27Z</time>
      </trkpt>
      <trkpt lat="56.00041" lon="-4.59862">
        <ele>46.6</ele>
        <time>2021-04-06T11:36:35Z</time>
      </trkpt>
      <trkpt lat="55.99909" lon="-4.59767">
        <ele>45.05</ele>
        <time>2021-04-06T11:36:43Z</time>
      </trkpt>
      <trkpt lat="55.99898" lon="-4.59752">
        <ele>44.1</ele>
        <time>2021-04-06T11:36:51Z</time>
      </trkpt>
      <trkpt lat="55.99883" lon="-4.597">
        <ele>41.16</ele>
        <time>2021-04-06T11:36:59Z</time>
      </trkpt>
      <trkpt lat="55.99876" lon="-4.59676">
        <ele>40.63</ele>
        <time>2021-04-06T11:37:06Z</time>
      </trkpt>
      <trkpt lat="55.99862" lon="-4.59659">
        <ele>40.95</ele>
        <time>2021-04-06T11:37:12Z</time>
      </trkpt>
      <trkpt lat="55.99848" lon="-4.59654">
        <ele>41</ele>
        <time>2021-04-06T11:37:18Z</time>
      </trkpt>
      <trkpt lat="55.99835" lon="-4.59657">
        <ele>41</ele>
        <time>2021-04-06T11:37:24Z</time>
      </trkpt>
      <trkpt lat="55.99831" lon="-4.5966">
        <ele>41.09</ele>
        <time>2021-04-06T11:37:30Z</time>
      </trkpt>
      <trkpt lat="55.99805" lon="-4.59674">
        <ele>42.3</ele>
        <time>2021-04-06T11:37:36Z</time>
      </trkpt>
      <trkpt lat="55.99785" lon="-4.59674">
        <ele>43.42</ele>
        <time>2021-04-06T11:37:42Z</time>
      </trkpt>
      <trkpt lat="55.99305" lon="-4.59418">
        <ele>52.34</ele>
        <time>2021-04-06T11:37:48Z</time>
      </trkpt>
      <trkpt lat="55.99226" lon="-4.5936">
        <ele>50.84</ele>
        <time>2021-04-06T11:37:54Z</time>
      </trkpt>
      <trkpt lat="55.99106" lon="-4.59238">
        <ele>49.62</ele>
        <time>2021-04-06T11:38:00Z</time>
      </trkpt>
      <trkpt lat="55.98844" lon="-4.58946">
        <ele>57.06</ele>
        <time>2021-04-06T11:38:06Z</time>
      </trkpt>
      <trkpt lat="55.98746" lon="-4.58853">
        <ele>54.14</ele>
        <time>2021-04-06T11:38:12Z</time>
      </trkpt>
      <trkpt lat="55.987" lon="-4.58821">
        <ele>51.08</ele>
        <time>2021-04-06T11:38:18Z</time>
      </trkpt>
      <trkpt lat="55.98641" lon="-4.58786">
        <ele>47.33</ele>
        <time>2021-04-06T11:38:24Z</time>
      </trkpt>
      <trkpt lat="55.98512" lon="-4.58729">
        <ele>44.5</ele>
        <time>2021-04-06T11:38:30Z</time>
      </trkpt>
      <trkpt lat="55.984" lon="-4.58696">
        <ele>44.53</ele>
        <time>2021-04-06T11:38:36Z</time>
      </trkpt>
      <trkpt lat="55.98326" lon="-4.58686">
        <ele>43.84</ele>
        <time>2021-04-06T11:38:42Z</time>
      </trkpt>
      <trkpt lat="55.98247" lon="-4.5869">
        <ele>42.33</ele>
        <time>2021-04-06T11:38:48Z</time>
      </trkpt>
      <trkpt lat="55.98041" lon="-4.58743">
        <ele>33.59</ele>
        <time>2021-04-06T11:38:54Z</time>
      </trkpt>
      <trkpt lat="55.97974" lon="-4.58755">
        <ele>30.59</ele>
        <time>2021-04-06T11:39:00Z</time>
      </trkpt>
      <trkpt lat="55.96609" lon="-4.58746">
        <ele>37.63</ele>
        <time>2021-04-06T11:39:06Z</time>
      </trkpt>
      <trkpt lat="55.96516" lon="-4.58734">
        <ele>31.74</ele>
        <time>2021-04-06T11:39:13Z</time>
      </trkpt>
      <trkpt lat="55.96479" lon="-4.5872">
        <ele>27.06</ele>
        <time>2021-04-06T11:39:19Z</time>
      </trkpt>
      <trkpt lat="55.9643" lon="-4.58696">
        <ele>24.19</ele>
        <time>2021-04-06T11:39:25Z</time>
      </trkpt>
      <trkpt lat="55.9638" lon="-4.58661">
        <ele>22.91</ele>
        <time>2021-04-06T11:39:31Z</time>
      </trkpt>
      <trkpt lat="55.96351" lon="-4.58636">
        <ele>20.08</ele>
        <time>2021-04-06T11:39:37Z</time>
      </trkpt>
      <trkpt lat="55.96297" lon="-4.58578">
        <ele>16.24</ele>
        <time>2021-04-06T11:39:43Z</time>
      </trkpt>
      <trkpt lat="55.96274" lon="-4.58548">
        <ele>14.86</ele>
        <time>2021-04-06T11:39:49Z</time>
      </trkpt>
      <trkpt lat="55.96227" lon="-4.58473">
        <ele>14</ele>
        <time>2021-04-06T11:39:55Z</time>
      </trkpt>
      <trkpt lat="55.96195" lon="-4.58412">
        <ele>12.06</ele>
        <time>2021-04-06T11:40:01Z</time>
      </trkpt>
      <trkpt lat="55.96168" lon="-4.58345">
        <ele>11.62</ele>
        <time>2021-04-06T11:40:07Z</time>
      </trkpt>
      <trkpt lat="55.96143" lon="-4.58259">
        <ele>11.15</ele>
        <time>2021-04-06T11:40:09Z</time>
      </trkpt>
      <trkpt lat="55.96142" lon="-4.58229">
        <ele>10.42</ele>
        <time>2021-04-06T11:40:11Z</time>
      </trkpt>
      <trkpt lat="55.96146" lon="-4.58207">
        <ele>10.37</ele>
        <time>2021-04-06T11:40:14Z</time>
      </trkpt>
      <trkpt lat="55.96154" lon="-4.58191">
        <ele>10.42</ele>
        <time>2021-04-06T11:40:16Z</time>
      </trkpt>
      <trkpt lat="55.96162" lon="-4.58183">
        <ele>10.43</ele>
        <time>2021-04-06T11:40:18Z</time>
      </trkpt>
      <trkpt lat="55.96177" lon="-4.58177">
        <ele>9.78</ele>
        <time>2021-04-06T11:40:20Z</time>
      </trkpt>
      <trkpt lat="55.96196" lon="-4.58189">
        <ele>9.55</ele>
        <time>2021-04-06T11:40:22Z</time>
      </trkpt>
      <trkpt lat="55.96213" lon="-4.58213">
        <ele>10.64</ele>
        <time>2021-04-06T11:40:24Z</time>
      </trkpt>
      <trkpt lat="55.96357" lon="-4.58509">
        <ele>15.33</ele>
        <time>2021-04-06T11:40:27Z</time>
      </trkpt>
      <trkpt lat="55.96309" lon="-4.58622">
        <ele>17.84</ele>
        <time>2021-04-06T11:40:31Z</time>
      </trkpt>
      <trkpt lat="55.96289" lon="-4.58647">
        <ele>18.69</ele>
        <time>2021-04-06T11:40:36Z</time>
      </trkpt>
      <trkpt lat="55.96095" lon="-4.58784">
        <ele>25.14</ele>
        <time>2021-04-06T11:40:41Z</time>
      </trkpt>
      <trkpt lat="55.96066" lon="-4.58789">
        <ele>26.52</ele>
        <time>2021-04-06T11:40:46Z</time>
      </trkpt>
      <trkpt lat="55.95977" lon="-4.58777">
        <ele>22.51</ele>
        <time>2021-04-06T11:40:51Z</time>
      </trkpt>
      <trkpt lat="55.95923" lon="-4.58774">
        <ele>23.36</ele>
        <time>2021-04-06T11:40:55Z</time>
      </trkpt>
      <trkpt lat="55.95853" lon="-4.58783">
        <ele>23.67</ele>
        <time>2021-04-06T11:41:00Z</time>
      </trkpt>
      <trkpt lat="55.9578" lon="-4.58811">
        <ele>21.88</ele>
        <time>2021-04-06T11:41:05Z</time>
      </trkpt>
      <trkpt lat="55.95727" lon="-4.58845">
        <ele>21.84</ele>
        <time>2021-04-06T11:41:10Z</time>
      </trkpt>
      <trkpt lat="55.95699" lon="-4.58833">
        <ele>22.65</ele>
        <time>2021-04-06T11:41:15Z</time>
      </trkpt>
      <trkpt lat="55.95654" lon="-4.58791">
        <ele>24.14</ele>
        <time>2021-04-06T11:41:19Z</time>
      </trkpt>
      <trkpt lat="55.956" lon="-4.58718">
        <ele>24.07</ele>
        <time>2021-04-06T11:41:24Z</time>
      </trkpt>
      <trkpt lat="55.95542" lon="-4.58608">
        <ele>25.89</ele>
        <time>2021-04-06T11:41:29Z</time>
      </trkpt>
      <trkpt lat="55.95488" lon="-4.58547">
        <ele>23.78</ele>
        <time>2021-04-06T11:41:34Z</time>
      </trkpt>
      <trkpt lat="55.95297" lon="-4.58481">
        <ele>22.35</ele>
        <time>2021-04-06T11:41:39Z</time>
      </trkpt>
      <trkpt lat="55.95232" lon="-4.58441">
        <ele>19.67</ele>
        <time>2021-04-06T11:41:43Z</time>
      </trkpt>
      <trkpt lat="55.95169" lon="-4.58373">
        <ele>15.39</ele>
        <time>2021-04-06T11:41:48Z</time>
      </trkpt>
      <trkpt lat="55.95088" lon="-4.58257">
        <ele>13.25</ele>
        <time>2021-04-06T11:41:53Z</time>
      </trkpt>
      <trkpt lat="55.95058" lon="-4.58214">
        <ele>13.55</ele>
        <time>2021-04-06T11:41:58Z</time>
      </trkpt>
      <trkpt lat="55.94972" lon="-4.58105">
        <ele>15.13</ele>
        <time>2021-04-06T11:42:03Z</time>
      </trkpt>
      <trkpt lat="55.94936" lon="-4.58068">
        <ele>17.86</ele>
        <time>2021-04-06T11:42:07Z</time>
      </trkpt>
      <trkpt lat="55.94904" lon="-4.58039">
        <ele>19.58</ele>
        <time>2021-04-06T11:42:12Z</time>
      </trkpt>
      <trkpt lat="55.94872" lon="-4.58015">
        <ele>17.18</ele>
        <time>2021-04-06T11:42:17Z</time>
      </trkpt>
      <trkpt lat="55.94844" lon="-4.57999">
        <ele>12.58</ele>
        <time>2021-04-06T11:42:22Z</time>
      </trkpt>
      <trkpt lat="55.9482" lon="-4.5799">
        <ele>11</ele>
        <time>2021-04-06T11:42:27Z</time>
      </trkpt>
      <trkpt lat="55.9476" lon="-4.57976">
        <ele>13.08</ele>
        <time>2021-04-06T11:42:31Z</time>
      </trkpt>
      <trkpt lat="55.94752" lon="-4.57946">
        <ele>12.04</ele>
        <time>2021-04-06T11:42:38Z</time>
      </trkpt>
      <trkpt lat="55.94715" lon="-4.57851">
        <ele>11.63</ele>
        <time>2021-04-06T11:42:44Z</time>
      </trkpt>
      <trkpt lat="55.94546" lon="-4.57441">
        <ele>5.66</ele>
        <time>2021-04-06T11:42:51Z</time>
      </trkpt>
      <trkpt lat="55.94533" lon="-4.57355">
        <ele>5.78</ele>
        <time>2021-04-06T11:42:57Z</time>
      </trkpt>
      <trkpt lat="55.9453" lon="-4.57324">
        <ele>4.98</ele>
        <time>2021-04-06T11:43:04Z</time>
      </trkpt>
      <trkpt lat="55.94529" lon="-4.57303">
        <ele>4.89</ele>
        <time>2021-04-06T11:43:11Z</time>
      </trkpt>
      <trkpt lat="55.9453" lon="-4.57262">
        <ele>3.9</ele>
        <time>2021-04-06T11:43:17Z</time>
      </trkpt>
      <trkpt lat="55.94537" lon="-4.57216">
        <ele>4.68</ele>
        <time>2021-04-06T11:43:24Z</time>
      </trkpt>
      <trkpt lat="55.9456" lon="-4.57113">
        <ele>5.94</ele>
        <time>2021-04-06T11:43:30Z</time>
      </trkpt>
      <trkpt lat="55.94568" lon="-4.5706">
        <ele>6.36</ele>
        <time>2021-04-06T11:43:37Z</time>
      </trkpt>
      <trkpt lat="55.94571" lon="-4.57025">
        <ele>6.6</ele>
        <time>2021-04-06T11:43:43Z</time>
      </trkpt>
      <trkpt lat="55.94572" lon="-4.56958">
        <ele>7.17</ele>
        <time>2021-04-06T11:43:50Z</time>
      </trkpt>
      <trkpt lat="55.9457" lon="-4.56904">
        <ele>7.01</ele>
        <time>2021-04-06T11:43:56Z</time>
      </trkpt>
      <trkpt lat="55.94558" lon="-4.5682">
        <ele>6.64</ele>
        <time>2021-04-06T11:44:03Z</time>
      </trkpt>
      <trkpt lat="55.94541" lon="-4.56735">
        <ele>6.48</ele>
        <time>2021-04-06T11:44:09Z</time>
      </trkpt>
      <trkpt lat="55.94544" lon="-4.56706">
        <ele>6.42</ele>
        <time>2021-04-06T11:44:16Z</time>
      </trkpt>
      <trkpt lat="55.94548" lon="-4.56688">
        <ele>6.28</ele>
        <time>2021-04-06T11:44:19Z</time>
      </trkpt>
      <trkpt lat="55.94549" lon="-4.56669">
        <ele>5.81</ele>
        <time>2021-04-06T11:44:22Z</time>
      </trkpt>
      <trkpt lat="55.94542" lon="-4.56647">
        <ele>5.52</ele>
        <time>2021-04-06T11:44:25Z</time>
      </trkpt>
      <trkpt lat="55.94526" lon="-4.56625">
        <ele>5.51</ele>
        <time>2021-04-06T11:44:28Z</time>
      </trkpt>
      <trkpt lat="55.94513" lon="-4.56624">
        <ele>5.52</ele>
        <time>2021-04-06T11:44:31Z</time>
      </trkpt>
      <trkpt lat="55.94499" lon="-4.56628">
        <ele>5.4</ele>
        <time>2021-04-06T11:44:34Z</time>
      </trkpt>
      <trkpt lat="55.94489" lon="-4.56621">
        <ele>6.06</ele>
        <time>2021-04-06T11:44:37Z</time>
      </trkpt>
      <trkpt lat="55.94461" lon="-4.56574">
        <ele>7.13</ele>
        <time>2021-04-06T11:44:40Z</time>
      </trkpt>
      <trkpt lat="55.94443" lon="-4.56537">
        <ele>8.05</ele>
        <time>2021-04-06T11:44:43Z</time>
      </trkpt>
      <trkpt lat="55.94428" lon="-4.56498">
        <ele>9</ele>
        <time>2021-04-06T11:44:46Z</time>
      </trkpt>
      <trkpt lat="55.94412" lon="-4.5645">
        <ele>8</ele>
        <time>2021-04-06T11:44:49Z</time>
      </trkpt>
      <trkpt lat="55.94395" lon="-4.56377">
        <ele>6.32</ele>
        <time>2021-04-06T11:44:52Z</time>
      </trkpt>
      <trkpt lat="55.94387" lon="-4.5633">
        <ele>5</ele>
        <time>2021-04-06T11:44:55Z</time>
      </trkpt>
      <trkpt lat="55.94376" lon="-4.56285">
        <ele>4.25</ele>
        <time>2021-04-06T11:44:58Z</time>
      </trkpt>
      <trkpt lat="55.94368" lon="-4.56239">
        <ele>3.59</ele>
        <time>2021-04-06T11:45:01Z</time>
      </trkpt>
      <trkpt lat="55.94362" lon="-4.56215">
        <ele>3</ele>
        <time>2021-04-06T11:45:04Z</time>
      </trkpt>
      <trkpt lat="55.94344" lon="-4.56165">
        <ele>4</ele>
        <time>2021-04-06T11:45:07Z</time>
      </trkpt>
      <trkpt lat="55.94348" lon="-4.56161">
        <ele>4</ele>
        <time>2021-04-06T11:45:18Z</time>
      </trkpt>
      <trkpt lat="55.9435" lon="-4.56149">
        <ele>4</ele>
        <time>2021-04-06T11:45:29Z</time>
      </trkpt>
      <trkpt lat="55.94343" lon="-4.56106">
        <ele>4</ele>
        <time>2021-04-06T11:45:40Z</time>
      </trkpt>
      <trkpt lat="55.94338" lon="-4.5606">
        <ele>3.86</ele>
        <time>2021-04-06T11:45:51Z</time>
      </trkpt>
      <trkpt lat="55.94306" lon="-4.5587">
        <ele>4.03</ele>
        <time>2021-04-06T11:46:02Z</time>
      </trkpt>
      <trkpt lat="55.94221" lon="-4.55516">
        <ele>5.46</ele>
        <time>2021-04-06T11:46:12Z</time>
      </trkpt>
      <trkpt lat="55.9419" lon="-4.5538">
        <ele>6</ele>
        <time>2021-04-06T11:46:23Z</time>
      </trkpt>
      <trkpt lat="55.94108" lon="-4.5493">
        <ele>5</ele>
        <time>2021-04-06T11:46:34Z</time>
      </trkpt>
      <trkpt lat="55.94067" lon="-4.5482">
        <ele>6</ele>
        <time>2021-04-06T11:46:45Z</time>
      </trkpt>
      <trkpt lat="55.94031" lon="-4.5473">
        <ele>6.28</ele>
        <time>2021-04-06T11:46:56Z</time>
      </trkpt>
      <trkpt lat="55.93761" lon="-4.54032">
        <ele>9</ele>
        <time>2021-04-06T11:47:07Z</time>
      </trkpt>
      <trkpt lat="55.93707" lon="-4.53896">
        <ele>7.71</ele>
        <time>2021-04-06T11:47:18Z</time>
      </trkpt>
      <trkpt lat="55.93681" lon="-4.53823">
        <ele>7</ele>
        <time>2021-04-06T11:47:29Z</time>
      </trkpt>
      <trkpt lat="55.93604" lon="-4.53516">
        <ele>6.57</ele>
        <time>2021-04-06T11:47:39Z</time>
      </trkpt>
      <trkpt lat="55.9357" lon="-4.53374">
        <ele>8.03</ele>
        <time>2021-04-06T11:47:50Z</time>
      </trkpt>
      <trkpt lat="55.93522" lon="-4.53142">
        <ele>5.78</ele>
        <time>2021-04-06T11:48:01Z</time>
      </trkpt>
      <trkpt lat="55.93512" lon="-4.53073">
        <ele>6.09</ele>
        <time>2021-04-06T11:48:12Z</time>
      </trkpt>
      <trkpt lat="55.93504" lon="-4.52968">
        <ele>6.54</ele>
        <time>2021-04-06T11:48:23Z</time>
      </trkpt>
      <trkpt lat="55.93492" lon="-4.52798">
        <ele>9.51</ele>
        <time>2021-04-06T11:48:34Z</time>
      </trkpt>
      <trkpt lat="55.93492" lon="-4.52778">
        <ele>9.01</ele>
        <time>2021-04-06T11:48:45Z</time>
      </trkpt>
      <trkpt lat="55.93494" lon="-4.52763">
        <ele>9.01</ele>
        <time>2021-04-06T11:48:55Z</time>
      </trkpt>
      <trkpt lat="55.93502" lon="-4.52724">
        <ele>9</ele>
        <time>2021-04-06T11:49:06Z</time>
      </trkpt>
      <trkpt lat="55.9351" lon="-4.52704">
        <ele>9</ele>
        <time>2021-04-06T11:49:17Z</time>
      </trkpt>
      <trkpt lat="55.93517" lon="-4.52694">
        <ele>9</ele>
        <time>2021-04-06T11:49:28Z</time>
      </trkpt>
      <trkpt lat="55.93517" lon="-4.52648">
        <ele>9</ele>
        <time>2021-04-06T11:49:35Z</time>
      </trkpt>
      <trkpt lat="55.93519" lon="-4.52618">
        <ele>9.29</ele>
        <time>2021-04-06T11:49:42Z</time>
      </trkpt>
      <trkpt lat="55.93534" lon="-4.52522">
        <ele>11.66</ele>
        <time>2021-04-06T11:49:49Z</time>
      </trkpt>
      <trkpt lat="55.93606" lon="-4.52088">
        <ele>12.84</ele>
        <time>2021-04-06T11:49:56Z</time>
      </trkpt>
      <trkpt lat="55.9363" lon="-4.51949">
        <ele>11.69</ele>
        <time>2021-04-06T11:50:03Z</time>
      </trkpt>
      <trkpt lat="55.93634" lon="-4.51909">
        <ele>11.56</ele>
        <time>2021-04-06T11:50:10Z</time>
      </trkpt>
      <trkpt lat="55.93635" lon="-4.51855">
        <ele>10.85</ele>
        <time>2021-04-06T11:50:17Z</time>
      </trkpt>
      <trkpt lat="55.93631" lon="-4.51814">
        <ele>10.71</ele>
        <time>2021-04-06T11:50:24Z</time>
      </trkpt>
      <trkpt lat="55.93623" lon="-4.51766">
        <ele>11.27</ele>
        <time>2021-04-06T11:50:30Z</time>
      </trkpt>
      <trkpt lat="55.93573" lon="-4.51602">
        <ele>9</ele>
        <time>2021-04-06T11:50:37Z</time>
      </trkpt>
      <trkpt lat="55.93463" lon="-4.51228">
        <ele>8.69</ele>
        <time>2021-04-06T11:50:44Z</time>
      </trkpt>
      <trkpt lat="55.93422" lon="-4.51096">
        <ele>9.44</ele>
        <time>2021-04-06T11:50:51Z</time>
      </trkpt>
      <trkpt lat="55.93273" lon="-4.50685">
        <ele>10.09</ele>
        <time>2021-04-06T11:50:58Z</time>
      </trkpt>
      <trkpt lat="55.93228" lon="-4.50576">
        <ele>11.61</ele>
        <time>2021-04-06T11:51:05Z</time>
      </trkpt>
      <trkpt lat="55.93207" lon="-4.50508">
        <ele>13.19</ele>
        <time>2021-04-06T11:51:12Z</time>
      </trkpt>
      <trkpt lat="55.93191" lon="-4.50434">
        <ele>12.49</ele>
        <time>2021-04-06T11:51:19Z</time>
      </trkpt>
      <trkpt lat="55.93188" lon="-4.50401">
        <ele>12.64</ele>
        <time>2021-04-06T11:51:26Z</time>
      </trkpt>
      <trkpt lat="55.93193" lon="-4.50357">
        <ele>14.92</ele>
        <time>2021-04-06T11:51:33Z</time>
      </trkpt>
      <trkpt lat="55.93199" lon="-4.50349">
        <ele>16.13</ele>
        <time>2021-04-06T11:51:39Z</time>
      </trkpt>
      <trkpt lat="55.93202" lon="-4.5034">
        <ele>16.88</ele>
        <time>2021-04-06T11:51:45Z</time>
      </trkpt>
      <trkpt lat="55.93203" lon="-4.50328">
        <ele>17.38</ele>
        <time>2021-04-06T11:51:51Z</time>
      </trkpt>
      <trkpt lat="55.932" lon="-4.50313">
        <ele>17.57</ele>
        <time>2021-04-06T11:51:58Z</time>
      </trkpt>
      <trkpt lat="55.93194" lon="-4.50231">
        <ele>19.64</ele>
        <time>2021-04-06T11:52:04Z</time>
      </trkpt>
      <trkpt lat="55.93194" lon="-4.50168">
        <ele>20.88</ele>
        <time>2021-04-06T11:52:10Z</time>
      </trkpt>
      <trkpt lat="55.93196" lon="-4.501">
        <ele>20.23</ele>
        <time>2021-04-06T11:52:16Z</time>
      </trkpt>
      <trkpt lat="55.93216" lon="-4.49816">
        <ele>24.16</ele>
        <time>2021-04-06T11:52:23Z</time>
      </trkpt>
      <trkpt lat="55.93251" lon="-4.49392">
        <ele>34.11</ele>
        <time>2021-04-06T11:52:29Z</time>
      </trkpt>
      <trkpt lat="55.93258" lon="-4.49281">
        <ele>36.31</ele>
        <time>2021-04-06T11:52:35Z</time>
      </trkpt>
      <trkpt lat="55.93266" lon="-4.48846">
        <ele>46.61</ele>
        <time>2021-04-06T11:52:41Z</time>
      </trkpt>
      <trkpt lat="55.93264" lon="-4.48717">
        <ele>40.15</ele>
        <time>2021-04-06T11:52:47Z</time>
      </trkpt>
      <trkpt lat="55.93258" lon="-4.48649">
        <ele>40.19</ele>
        <time>2021-04-06T11:52:54Z</time>
      </trkpt>
      <trkpt lat="55.93249" lon="-4.48582">
        <ele>39.82</ele>
        <time>2021-04-06T11:53:00Z</time>
      </trkpt>
      <trkpt lat="55.93231" lon="-4.48498">
        <ele>36.9</ele>
        <time>2021-04-06T11:53:06Z</time>
      </trkpt>
      <trkpt lat="55.93154" lon="-4.48187">
        <ele>28.3</ele>
        <time>2021-04-06T11:53:12Z</time>
      </trkpt>
      <trkpt lat="55.93124" lon="-4.48053">
        <ele>19.85</ele>
        <time>2021-04-06T11:53:19Z</time>
      </trkpt>
      <trkpt lat="55.93094" lon="-4.47929">
        <ele>16.97</ele>
        <time>2021-04-06T11:53:25Z</time>
      </trkpt>
      <trkpt lat="55.93071" lon="-4.47809">
        <ele>14.61</ele>
        <time>2021-04-06T11:53:31Z</time>
      </trkpt>
      <trkpt lat="55.92985" lon="-4.47237">
        <ele>15.44</ele>
        <time>2021-04-06T11:53:37Z</time>
      </trkpt>
      <trkpt lat="55.92942" lon="-4.4697">
        <ele>23.82</ele>
        <time>2021-04-06T11:53:44Z</time>
      </trkpt>
      <trkpt lat="55.92934" lon="-4.46887">
        <ele>24.61</ele>
        <time>2021-04-06T11:53:50Z</time>
      </trkpt>
      <trkpt lat="55.9293" lon="-4.46648">
        <ele>28.1</ele>
        <time>2021-04-06T11:53:56Z</time>
      </trkpt>
      <trkpt lat="55.92922" lon="-4.46558">
        <ele>30.09</ele>
        <time>2021-04-06T11:54:02Z</time>
      </trkpt>
      <trkpt lat="55.92907" lon="-4.46465">
        <ele>31.06</ele>
        <time>2021-04-06T11:54:08Z</time>
      </trkpt>
      <trkpt lat="55.92803" lon="-4.46065">
        <ele>34.27</ele>
        <time>2021-04-06T11:54:15Z</time>
      </trkpt>
      <trkpt lat="55.92755" lon="-4.45845">
        <ele>35.64</ele>
        <time>2021-04-06T11:54:21Z</time>
      </trkpt>
      <trkpt lat="55.92663" lon="-4.45442">
        <ele>39.64</ele>
        <time>2021-04-06T11:54:27Z</time>
      </trkpt>
      <trkpt lat="55.92636" lon="-4.4533">
        <ele>33.99</ele>
        <time>2021-04-06T11:54:33Z</time>
      </trkpt>
      <trkpt lat="55.92586" lon="-4.45053">
        <ele>29.73</ele>
        <time>2021-04-06T11:54:39Z</time>
      </trkpt>
      <trkpt lat="55.92583" lon="-4.45024">
        <ele>28.86</ele>
        <time>2021-04-06T11:54:44Z</time>
      </trkpt>
      <trkpt lat="55.92584" lon="-4.44982">
        <ele>27.97</ele>
        <time>2021-04-06T11:54:50Z</time>
      </trkpt>
      <trkpt lat="55.92594" lon="-4.44911">
        <ele>28.83</ele>
        <time>2021-04-06T11:54:55Z</time>
      </trkpt>
      <trkpt lat="55.926" lon="-4.4485">
        <ele>29.64</ele>
        <time>2021-04-06T11:55:01Z</time>
      </trkpt>
      <trkpt lat="55.92599" lon="-4.44807">
        <ele>30.94</ele>
        <time>2021-04-06T11:55:06Z</time>
      </trkpt>
      <trkpt lat="55.92594" lon="-4.44781">
        <ele>32.22</ele>
        <time>2021-04-06T11:55:12Z</time>
      </trkpt>
      <trkpt lat="55.92587" lon="-4.44757">
        <ele>32.88</ele>
        <time>2021-04-06T11:55:17Z</time>
      </trkpt>
      <trkpt lat="55.92578" lon="-4.44736">
        <ele>33.69</ele>
        <time>2021-04-06T11:55:23Z</time>
      </trkpt>
      <trkpt lat="55.92556" lon="-4.447">
        <ele>35</ele>
        <time>2021-04-06T11:55:28Z</time>
      </trkpt>
      <trkpt lat="55.92533" lon="-4.44684">
        <ele>35.81</ele>
        <time>2021-04-06T11:55:34Z</time>
      </trkpt>
      <trkpt lat="55.92511" lon="-4.44681">
        <ele>36</ele>
        <time>2021-04-06T11:55:39Z</time>
      </trkpt>
      <trkpt lat="55.92485" lon="-4.4469">
        <ele>34.66</ele>
        <time>2021-04-06T11:55:45Z</time>
      </trkpt>
      <trkpt lat="55.92465" lon="-4.44709">
        <ele>33.33</ele>
        <time>2021-04-06T11:55:50Z</time>
      </trkpt>
      <trkpt lat="55.92451" lon="-4.4473">
        <ele>32.16</ele>
        <time>2021-04-06T11:55:56Z</time>
      </trkpt>
      <trkpt lat="55.92438" lon="-4.44756">
        <ele>33.01</ele>
        <time>2021-04-06T11:56:01Z</time>
      </trkpt>
      <trkpt lat="55.92384" lon="-4.44897">
        <ele>33.18</ele>
        <time>2021-04-06T11:56:07Z</time>
      </trkpt>
      <trkpt lat="55.92368" lon="-4.44952">
        <ele>32.53</ele>
        <time>2021-04-06T11:56:12Z</time>
      </trkpt>
      <trkpt lat="55.92355" lon="-4.45006">
        <ele>31.73</ele>
        <time>2021-04-06T11:56:18Z</time>
      </trkpt>
      <trkpt lat="55.92342" lon="-4.45072">
        <ele>31.37</ele>
        <time>2021-04-06T11:56:23Z</time>
      </trkpt>
      <trkpt lat="55.92305" lon="-4.4538">
        <ele>33.39</ele>
        <time>2021-04-06T11:56:29Z</time>
      </trkpt>
      <trkpt lat="55.9229" lon="-4.45472">
        <ele>33.99</ele>
        <time>2021-04-06T11:56:34Z</time>
      </trkpt>
      <trkpt lat="55.9227" lon="-4.45568">
        <ele>34.63</ele>
        <time>2021-04-06T11:56:40Z</time>
      </trkpt>
      <trkpt lat="55.92252" lon="-4.45638">
        <ele>35.09</ele>
        <time>2021-04-06T11:56:45Z</time>
      </trkpt>
      <trkpt lat="55.92213" lon="-4.45757">
        <ele>35.89</ele>
        <time>2021-04-06T11:56:51Z</time>
      </trkpt>
      <trkpt lat="55.92014" lon="-4.46288">
        <ele>39.56</ele>
        <time>2021-04-06T11:56:56Z</time>
      </trkpt>
      <trkpt lat="55.9195" lon="-4.46451">
        <ele>40.69</ele>
        <time>2021-04-06T11:57:02Z</time>
      </trkpt>
      <trkpt lat="55.91885" lon="-4.46612">
        <ele>41.81</ele>
        <time>2021-04-06T11:57:07Z</time>
      </trkpt>
      <trkpt lat="55.91832" lon="-4.46736">
        <ele>42.69</ele>
        <time>2021-04-06T11:57:13Z</time>
      </trkpt>
      <trkpt lat="55.9178" lon="-4.46838">
        <ele>43.43</ele>
        <time>2021-04-06T11:57:18Z</time>
      </trkpt>
      <trkpt lat="55.91716" lon="-4.46933">
        <ele>44.17</ele>
        <time>2021-04-06T11:57:24Z</time>
      </trkpt>
      <trkpt lat="55.91668" lon="-4.46993">
        <ele>42.81</ele>
        <time>2021-04-06T11:57:29Z</time>
      </trkpt>
      <trkpt lat="55.91629" lon="-4.47037">
        <ele>38.21</ele>
        <time>2021-04-06T11:57:35Z</time>
      </trkpt>
      <trkpt lat="55.91554" lon="-4.47102">
        <ele>33.92</ele>
        <time>2021-04-06T11:57:40Z</time>
      </trkpt>
      <trkpt lat="55.91494" lon="-4.4714">
        <ele>31.59</ele>
        <time>2021-04-06T11:57:46Z</time>
      </trkpt>
      <trkpt lat="55.91442" lon="-4.47166">
        <ele>28.99</ele>
        <time>2021-04-06T11:57:51Z</time>
      </trkpt>
      <trkpt lat="55.91395" lon="-4.47183">
        <ele>28.56</ele>
        <time>2021-04-06T11:57:57Z</time>
      </trkpt>
      <trkpt lat="55.91337" lon="-4.47199">
        <ele>24.43</ele>
        <time>2021-04-06T11:58:02Z</time>
      </trkpt>
      <trkpt lat="55.91289" lon="-4.47204">
        <ele>26.33</ele>
        <time>2021-04-06T11:58:08Z</time>
      </trkpt>
      <trkpt lat="55.91072" lon="-4.47243">
        <ele>32.85</ele>
        <time>2021-04-06T11:58:14Z</time>
      </trkpt>
      <trkpt lat="55.90907" lon="-4.47272">
        <ele>33.08</ele>
        <time>2021-04-06T11:58:17Z</time>
      </trkpt>
      <trkpt lat="55.90774" lon="-4.47311">
        <ele>34.69</ele>
        <time>2021-04-06T11:58:21Z</time>
      </trkpt>
      <trkpt lat="55.90706" lon="-4.47339">
        <ele>32.78</ele>
        <time>2021-04-06T11:58:24Z</time>
      </trkpt>
      <trkpt lat="55.90654" lon="-4.4737">
        <ele>31.67</ele>
        <time>2021-04-06T11:58:28Z</time>
      </trkpt>
      <trkpt lat="55.9058" lon="-4.47429">
        <ele>31</ele>
        <time>2021-04-06T11:58:31Z</time>
      </trkpt>
      <trkpt lat="55.90517" lon="-4.47488">
        <ele>32.78</ele>
        <time>2021-04-06T11:58:35Z</time>
      </trkpt>
      <trkpt lat="55.90493" lon="-4.47514">
        <ele>33.62</ele>
        <time>2021-04-06T11:58:38Z</time>
      </trkpt>
      <trkpt lat="55.90426" lon="-4.47596">
        <ele>30.71</ele>
        <time>2021-04-06T11:58:42Z</time>
      </trkpt>
      <trkpt lat="55.90385" lon="-4.47655">
        <ele>27.86</ele>
        <time>2021-04-06T11:58:45Z</time>
      </trkpt>
      <trkpt lat="55.9035" lon="-4.47712">
        <ele>25.74</ele>
        <time>2021-04-06T11:58:49Z</time>
      </trkpt>
      <trkpt lat="55.90312" lon="-4.47782">
        <ele>24.36</ele>
        <time>2021-04-06T11:58:52Z</time>
      </trkpt>
      <trkpt lat="55.90264" lon="-4.47879">
        <ele>24.51</ele>
        <time>2021-04-06T11:58:56Z</time>
      </trkpt>
      <trkpt lat="55.90199" lon="-4.48033">
        <ele>24.83</ele>
        <time>2021-04-06T11:58:59Z</time>
      </trkpt>
      <trkpt lat="55.90166" lon="-4.4809">
        <ele>24.03</ele>
        <time>2021-04-06T11:59:03Z</time>
      </trkpt>
      <trkpt lat="55.90093" lon="-4.482">
        <ele>28.66</ele>
        <time>2021-04-06T11:59:07Z</time>
      </trkpt>
      <trkpt lat="55.90069" lon="-4.48249">
        <ele>29.05</ele>
        <time>2021-04-06T11:59:11Z</time>
      </trkpt>
      <trkpt lat="55.90058" lon="-4.48284">
        <ele>29.57</ele>
        <time>2021-04-06T11:59:16Z</time>
      </trkpt>
      <trkpt lat="55.90048" lon="-4.48335">
        <ele>29.2</ele>
        <time>2021-04-06T11:59:20Z</time>
      </trkpt>
      <trkpt lat="55.90045" lon="-4.48369">
        <ele>28.28</ele>
        <time>2021-04-06T11:59:25Z</time>
      </trkpt>
      <trkpt lat="55.90044" lon="-4.48423">
        <ele>26.33</ele>
        <time>2021-04-06T11:59:29Z</time>
      </trkpt>
      <trkpt lat="55.90049" lon="-4.48478">
        <ele>27.19</ele>
        <time>2021-04-06T11:59:33Z</time>
      </trkpt>
      <trkpt lat="55.9006" lon="-4.48529">
        <ele>28.03</ele>
        <time>2021-04-06T11:59:38Z</time>
      </trkpt>
      <trkpt lat="55.90069" lon="-4.48556">
        <ele>28.99</ele>
        <time>2021-04-06T11:59:42Z</time>
      </trkpt>
      <trkpt lat="55.9008" lon="-4.48581">
        <ele>27.84</ele>
        <time>2021-04-06T11:59:47Z</time>
      </trkpt>
      <trkpt lat="55.90093" lon="-4.48606">
        <ele>27.83</ele>
        <time>2021-04-06T11:59:51Z</time>
      </trkpt>
      <trkpt lat="55.9011" lon="-4.4863">
        <ele>27.56</ele>
        <time>2021-04-06T11:59:55Z</time>
      </trkpt>
      <trkpt lat="55.90138" lon="-4.48656">
        <ele>28.27</ele>
        <time>2021-04-06T12:00:00Z</time>
      </trkpt>
      <trkpt lat="55.9015" lon="-4.48665">
        <ele>28.08</ele>
        <time>2021-04-06T12:00:04Z</time>
      </trkpt>
      <trkpt lat="55.90171" lon="-4.48673">
        <ele>27.22</ele>
        <time>2021-04-06T12:00:08Z</time>
      </trkpt>
      <trkpt lat="55.90265" lon="-4.48691">
        <ele>22.57</ele>
        <time>2021-04-06T12:00:13Z</time>
      </trkpt>
      <trkpt lat="55.90314" lon="-4.48712">
        <ele>21</ele>
        <time>2021-04-06T12:00:17Z</time>
      </trkpt>
      <trkpt lat="55.90371" lon="-4.48749">
        <ele>21.37</ele>
        <time>2021-04-06T12:00:22Z</time>
      </trkpt>
      <trkpt lat="55.905" lon="-4.48847">
        <ele>25.49</ele>
        <time>2021-04-06T12:00:26Z</time>
      </trkpt>
      <trkpt lat="55.90674" lon="-4.48989">
        <ele>26.48</ele>
        <time>2021-04-06T12:00:30Z</time>
      </trkpt>
      <trkpt lat="55.90799" lon="-4.49098">
        <ele>25</ele>
        <time>2021-04-06T12:00:35Z</time>
      </trkpt>
      <trkpt lat="55.90881" lon="-4.49194">
        <ele>28.68</ele>
        <time>2021-04-06T12:00:39Z</time>
      </trkpt>
      <trkpt lat="55.90967" lon="-4.49323">
        <ele>30</ele>
        <time>2021-04-06T12:00:44Z</time>
      </trkpt>
      <trkpt lat="55.91047" lon="-4.49483">
        <ele>32.32</ele>
        <time>2021-04-06T12:00:48Z</time>
      </trkpt>
      <trkpt lat="55.91079" lon="-4.49563">
        <ele>32</ele>
        <time>2021-04-06T12:00:52Z</time>
      </trkpt>
      <trkpt lat="55.913" lon="-4.50178">
        <ele>36.21</ele>
        <time>2021-04-06T12:00:57Z</time>
      </trkpt>
      <trkpt lat="55.9165" lon="-4.51179">
        <ele>26.97</ele>
        <time>2021-04-06T12:01:01Z</time>
      </trkpt>
      <trkpt lat="55.9165" lon="-4.51179">
        <ele>26.97</ele>
        <time>2021-04-06T12:01:01Z</time>
      </trkpt>
      <trkpt lat="55.92069" lon="-4.52369">
        <ele>16.93</ele>
        <time>2021-04-06T12:01:14Z</time>
      </trkpt>
      <trkpt lat="55.92112" lon="-4.52506">
        <ele>13.82</ele>
        <time>2021-04-06T12:01:27Z</time>
      </trkpt>
      <trkpt lat="55.92151" lon="-4.52647">
        <ele>11.72</ele>
        <time>2021-04-06T12:01:40Z</time>
      </trkpt>
      <trkpt lat="55.922" lon="-4.52872">
        <ele>6.6</ele>
        <time>2021-04-06T12:01:53Z</time>
      </trkpt>
      <trkpt lat="55.92227" lon="-4.53035">
        <ele>3.73</ele>
        <time>2021-04-06T12:02:06Z</time>
      </trkpt>
      <trkpt lat="55.92251" lon="-4.53217">
        <ele>2.14</ele>
        <time>2021-04-06T12:02:19Z</time>
      </trkpt>
      <trkpt lat="55.92266" lon="-4.53408">
        <ele>0.91</ele>
        <time>2021-04-06T12:02:32Z</time>
      </trkpt>
      <trkpt lat="55.92334" lon="-4.54938">
        <ele>1.99</ele>
        <time>2021-04-06T12:02:45Z</time>
      </trkpt>
      <trkpt lat="55.92337" lon="-4.55127">
        <ele>3.94</ele>
        <time>2021-04-06T12:02:50Z</time>
      </trkpt>
      <trkpt lat="55.92337" lon="-4.55289">
        <ele>6.12</ele>
        <time>2021-04-06T12:02:54Z</time>
      </trkpt>
      <trkpt lat="55.92329" lon="-4.55579">
        <ele>7.74</ele>
        <time>2021-04-06T12:02:58Z</time>
      </trkpt>
      <trkpt lat="55.92326" lon="-4.55601">
        <ele>7.72</ele>
        <time>2021-04-06T12:03:03Z</time>
      </trkpt>
      <trkpt lat="55.92319" lon="-4.55623">
        <ele>7.7</ele>
        <time>2021-04-06T12:03:06Z</time>
      </trkpt>
      <trkpt lat="55.92318" lon="-4.55641">
        <ele>8.05</ele>
        <time>2021-04-06T12:03:10Z</time>
      </trkpt>
      <trkpt lat="55.92319" lon="-4.5566">
        <ele>8.4</ele>
        <time>2021-04-06T12:03:14Z</time>
      </trkpt>
      <trkpt lat="55.92323" lon="-4.55683">
        <ele>8.78</ele>
        <time>2021-04-06T12:03:17Z</time>
      </trkpt>
      <trkpt lat="55.92326" lon="-4.55727">
        <ele>9.13</ele>
        <time>2021-04-06T12:03:21Z</time>
      </trkpt>
      <trkpt lat="55.92328" lon="-4.5583">
        <ele>10.6</ele>
        <time>2021-04-06T12:03:25Z</time>
      </trkpt>
      <trkpt lat="55.92326" lon="-4.56055">
        <ele>13.84</ele>
        <time>2021-04-06T12:03:28Z</time>
      </trkpt>
      <trkpt lat="55.92319" lon="-4.5624">
        <ele>17.08</ele>
        <time>2021-04-06T12:03:32Z</time>
      </trkpt>
      <trkpt lat="55.92315" lon="-4.56429">
        <ele>10.74</ele>
        <time>2021-04-06T12:03:36Z</time>
      </trkpt>
      <trkpt lat="55.92292" lon="-4.56809">
        <ele>10.4</ele>
        <time>2021-04-06T12:03:39Z</time>
      </trkpt>
      <trkpt lat="55.92281" lon="-4.57105">
        <ele>7.15</ele>
        <time>2021-04-06T12:03:43Z</time>
      </trkpt>
      <trkpt lat="55.92295" lon="-4.57328">
        <ele>5.11</ele>
        <time>2021-04-06T12:03:47Z</time>
      </trkpt>
      <trkpt lat="55.92309" lon="-4.57452">
        <ele>2.12</ele>
        <time>2021-04-06T12:03:50Z</time>
      </trkpt>
      <trkpt lat="55.92327" lon="-4.57575">
        <ele>4.34</ele>
        <time>2021-04-06T12:03:54Z</time>
      </trkpt>
      <trkpt lat="55.92367" lon="-4.57877">
        <ele>4.66</ele>
        <time>2021-04-06T12:03:58Z</time>
      </trkpt>
      <trkpt lat="55.92375" lon="-4.57955">
        <ele>2.39</ele>
        <time>2021-04-06T12:04:01Z</time>
      </trkpt>
      <trkpt lat="55.92374" lon="-4.57984">
        <ele>3.06</ele>
        <time>2021-04-06T12:04:05Z</time>
      </trkpt>
      <trkpt lat="55.92369" lon="-4.57997">
        <ele>3.43</ele>
        <time>2021-04-06T12:04:10Z</time>
      </trkpt>
      <trkpt lat="55.92369" lon="-4.58009">
        <ele>3.8</ele>
        <time>2021-04-06T12:04:15Z</time>
      </trkpt>
      <trkpt lat="55.92394" lon="-4.58086">
        <ele>3.91</ele>
        <time>2021-04-06T12:04:20Z</time>
      </trkpt>
      <trkpt lat="55.92414" lon="-4.58169">
        <ele>4.01</ele>
        <time>2021-04-06T12:04:25Z</time>
      </trkpt>
      <trkpt lat="55.9243" lon="-4.58246">
        <ele>3.45</ele>
        <time>2021-04-06T12:04:29Z</time>
      </trkpt>
      <trkpt lat="55.92487" lon="-4.58473">
        <ele>1.92</ele>
        <time>2021-04-06T12:04:34Z</time>
      </trkpt>
      <trkpt lat="55.92637" lon="-4.59028">
        <ele>7.14</ele>
        <time>2021-04-06T12:04:39Z</time>
      </trkpt>
      <trkpt lat="55.92671" lon="-4.59161">
        <ele>4.84</ele>
        <time>2021-04-06T12:04:44Z</time>
      </trkpt>
      <trkpt lat="55.92695" lon="-4.59291">
        <ele>5.47</ele>
        <time>2021-04-06T12:04:49Z</time>
      </trkpt>
      <trkpt lat="55.92718" lon="-4.59472">
        <ele>6.15</ele>
        <time>2021-04-06T12:04:54Z</time>
      </trkpt>
      <trkpt lat="55.92731" lon="-4.59576">
        <ele>3.66</ele>
        <time>2021-04-06T12:04:59Z</time>
      </trkpt>
      <trkpt lat="55.92737" lon="-4.59641">
        <ele>1.95</ele>
        <time>2021-04-06T12:05:04Z</time>
      </trkpt>
      <trkpt lat="55.92738" lon="-4.59683">
        <ele>2.82</ele>
        <time>2021-04-06T12:05:08Z</time>
      </trkpt>
      <trkpt lat="55.92738" lon="-4.59683">
        <ele>2.82</ele>
        <time>2021-04-06T12:05:08Z</time>
      </trkpt>
      <trkpt lat="55.9274" lon="-4.59776">
        <ele>3.69</ele>
        <time>2021-04-06T12:05:12Z</time>
      </trkpt>
      <trkpt lat="55.92733" lon="-4.59885">
        <ele>3.4</ele>
        <time>2021-04-06T12:05:17Z</time>
      </trkpt>
      <trkpt lat="55.92724" lon="-4.59976">
        <ele>5.85</ele>
        <time>2021-04-06T12:05:21Z</time>
      </trkpt>
      <trkpt lat="55.92708" lon="-4.60085">
        <ele>8.5</ele>
        <time>2021-04-06T12:05:25Z</time>
      </trkpt>
      <trkpt lat="55.92697" lon="-4.60181">
        <ele>6.85</ele>
        <time>2021-04-06T12:05:29Z</time>
      </trkpt>
      <trkpt lat="55.92691" lon="-4.60293">
        <ele>15.14</ele>
        <time>2021-04-06T12:05:33Z</time>
      </trkpt>
      <trkpt lat="55.92695" lon="-4.60401">
        <ele>16.29</ele>
        <time>2021-04-06T12:05:37Z</time>
      </trkpt>
      <trkpt lat="55.92702" lon="-4.60467">
        <ele>16.73</ele>
        <time>2021-04-06T12:05:41Z</time>
      </trkpt>
      <trkpt lat="55.92712" lon="-4.6053">
        <ele>15.44</ele>
        <time>2021-04-06T12:05:45Z</time>
      </trkpt>
      <trkpt lat="55.92735" lon="-4.60622">
        <ele>12.82</ele>
        <time>2021-04-06T12:05:49Z</time>
      </trkpt>
      <trkpt lat="55.92756" lon="-4.60684">
        <ele>11</ele>
        <time>2021-04-06T12:05:53Z</time>
      </trkpt>
      <trkpt lat="55.92822" lon="-4.60852">
        <ele>6.67</ele>
        <time>2021-04-06T12:05:57Z</time>
      </trkpt>
      <trkpt lat="55.92904" lon="-4.61083">
        <ele>5</ele>
        <time>2021-04-06T12:06:01Z</time>
      </trkpt>
      <trkpt lat="55.92937" lon="-4.61213">
        <ele>5</ele>
        <time>2021-04-06T12:06:05Z</time>
      </trkpt>
      <trkpt lat="55.92956" lon="-4.61309">
        <ele>5.57</ele>
        <time>2021-04-06T12:06:10Z</time>
      </trkpt>
      <trkpt lat="55.92996" lon="-4.61549">
        <ele>12.53</ele>
        <time>2021-04-06T12:06:14Z</time>
      </trkpt>
      <trkpt lat="55.93026" lon="-4.61845">
        <ele>5.51</ele>
        <time>2021-04-06T12:06:18Z</time>
      </trkpt>
      <trkpt lat="55.93039" lon="-4.62188">
        <ele>6.78</ele>
        <time>2021-04-06T12:06:22Z</time>
      </trkpt>
      <trkpt lat="55.93046" lon="-4.62826">
        <ele>13.43</ele>
        <time>2021-04-06T12:06:26Z</time>
      </trkpt>
      <trkpt lat="55.93048" lon="-4.63201">
        <ele>12.36</ele>
        <time>2021-04-06T12:06:30Z</time>
      </trkpt>
      <trkpt lat="55.93042" lon="-4.63342">
        <ele>12.6</ele>
        <time>2021-04-06T12:06:34Z</time>
      </trkpt>
      <trkpt lat="55.93004" lon="-4.63589">
        <ele>17.45</ele>
        <time>2021-04-06T12:06:38Z</time>
      </trkpt>
      <trkpt lat="55.92958" lon="-4.63831">
        <ele>14.7</ele>
        <time>2021-04-06T12:06:42Z</time>
      </trkpt>
      <trkpt lat="55.92947" lon="-4.63901">
        <ele>15.1</ele>
        <time>2021-04-06T12:06:46Z</time>
      </trkpt>
      <trkpt lat="55.92938" lon="-4.63982">
        <ele>19.96</ele>
        <time>2021-04-06T12:06:50Z</time>
      </trkpt>
      <trkpt lat="55.92936" lon="-4.64054">
        <ele>21.14</ele>
        <time>2021-04-06T12:06:54Z</time>
      </trkpt>
      <trkpt lat="55.92936" lon="-4.64111">
        <ele>24.25</ele>
        <time>2021-04-06T12:06:58Z</time>
      </trkpt>
      <trkpt lat="55.92939" lon="-4.64154">
        <ele>24.49</ele>
        <time>2021-04-06T12:07:03Z</time>
      </trkpt>
      <trkpt lat="55.92946" lon="-4.64231">
        <ele>22.7</ele>
        <time>2021-04-06T12:07:07Z</time>
      </trkpt>
      <trkpt lat="55.92962" lon="-4.64331">
        <ele>18.48</ele>
        <time>2021-04-06T12:07:11Z</time>
      </trkpt>
      <trkpt lat="55.92965" lon="-4.64371">
        <ele>16.85</ele>
        <time>2021-04-06T12:07:15Z</time>
      </trkpt>
      <trkpt lat="55.92954" lon="-4.64403">
        <ele>21.56</ele>
        <time>2021-04-06T12:07:24Z</time>
      </trkpt>
      <trkpt lat="55.92952" lon="-4.64418">
        <ele>22.74</ele>
        <time>2021-04-06T12:07:34Z</time>
      </trkpt>
      <trkpt lat="55.92953" lon="-4.64437">
        <ele>22.4</ele>
        <time>2021-04-06T12:07:44Z</time>
      </trkpt>
      <trkpt lat="55.92963" lon="-4.64551">
        <ele>13.63</ele>
        <time>2021-04-06T12:07:54Z</time>
      </trkpt>
      <trkpt lat="55.92962" lon="-4.64632">
        <ele>10</ele>
        <time>2021-04-06T12:08:03Z</time>
      </trkpt>
      <trkpt lat="55.92965" lon="-4.64781">
        <ele>7.99</ele>
        <time>2021-04-06T12:08:13Z</time>
      </trkpt>
      <trkpt lat="55.93026" lon="-4.65126">
        <ele>11.85</ele>
        <time>2021-04-06T12:08:23Z</time>
      </trkpt>
      <trkpt lat="55.93125" lon="-4.65641">
        <ele>13.64</ele>
        <time>2021-04-06T12:08:32Z</time>
      </trkpt>
      <trkpt lat="55.9314" lon="-4.6576">
        <ele>18.45</ele>
        <time>2021-04-06T12:08:42Z</time>
      </trkpt>
      <trkpt lat="55.93164" lon="-4.66034">
        <ele>19.1</ele>
        <time>2021-04-06T12:08:52Z</time>
      </trkpt>
      <trkpt lat="55.93165" lon="-4.66187">
        <ele>18.89</ele>
        <time>2021-04-06T12:09:01Z</time>
      </trkpt>
      <trkpt lat="55.93145" lon="-4.66624">
        <ele>16.15</ele>
        <time>2021-04-06T12:09:11Z</time>
      </trkpt>
      <trkpt lat="55.93179" lon="-4.66991">
        <ele>20.94</ele>
        <time>2021-04-06T12:09:21Z</time>
      </trkpt>
      <trkpt lat="55.93194" lon="-4.67086">
        <ele>16.16</ele>
        <time>2021-04-06T12:09:31Z</time>
      </trkpt>
      <trkpt lat="55.93192" lon="-4.67115">
        <ele>15.5</ele>
        <time>2021-04-06T12:09:40Z</time>
      </trkpt>
      <trkpt lat="55.93261" lon="-4.67529">
        <ele>6.79</ele>
        <time>2021-04-06T12:09:50Z</time>
      </trkpt>
      <trkpt lat="55.93271" lon="-4.67599">
        <ele>6.76</ele>
        <time>2021-04-06T12:10:00Z</time>
      </trkpt>
      <trkpt lat="55.93279" lon="-4.67715">
        <ele>6.09</ele>
        <time>2021-04-06T12:10:09Z</time>
      </trkpt>
      <trkpt lat="55.9328" lon="-4.67798">
        <ele>6.8</ele>
        <time>2021-04-06T12:10:19Z</time>
      </trkpt>
      <trkpt lat="55.93276" lon="-4.67827">
        <ele>6.95</ele>
        <time>2021-04-06T12:10:29Z</time>
      </trkpt>
      <trkpt lat="55.9327" lon="-4.67858">
        <ele>7.61</ele>
        <time>2021-04-06T12:10:39Z</time>
      </trkpt>
      <trkpt lat="55.93267" lon="-4.67864">
        <ele>7.63</ele>
        <time>2021-04-06T12:10:41Z</time>
      </trkpt>
      <trkpt lat="55.93263" lon="-4.67875">
        <ele>7.74</ele>
        <time>2021-04-06T12:10:43Z</time>
      </trkpt>
      <trkpt lat="55.93263" lon="-4.67885">
        <ele>7.91</ele>
        <time>2021-04-06T12:10:45Z</time>
      </trkpt>
      <trkpt lat="55.93267" lon="-4.67906">
        <ele>7.86</ele>
        <time>2021-04-06T12:10:48Z</time>
      </trkpt>
      <trkpt lat="55.93272" lon="-4.67916">
        <ele>7.43</ele>
        <time>2021-04-06T12:10:50Z</time>
      </trkpt>
      <trkpt lat="55.93333" lon="-4.67985">
        <ele>5.02</ele>
        <time>2021-04-06T12:10:52Z</time>
      </trkpt>
      <trkpt lat="55.93353" lon="-4.67991">
        <ele>5</ele>
        <time>2021-04-06T12:10:54Z</time>
      </trkpt>
      <trkpt lat="55.93358" lon="-4.67998">
        <ele>5</ele>
        <time>2021-04-06T12:10:57Z</time>
      </trkpt>
      <trkpt lat="55.93373" lon="-4.68029">
        <ele>5</ele>
        <time>2021-04-06T12:11:01Z</time>
      </trkpt>
      <trkpt lat="55.93379" lon="-4.68049">
        <ele>5</ele>
        <time>2021-04-06T12:11:05Z</time>
      </trkpt>
      <trkpt lat="55.93399" lon="-4.68151">
        <ele>4.63</ele>
        <time>2021-04-06T12:11:09Z</time>
      </trkpt>
      <trkpt lat="55.93403" lon="-4.68183">
        <ele>4.21</ele>
        <time>2021-04-06T12:11:13Z</time>
      </trkpt>
      <trkpt lat="55.93397" lon="-4.68318">
        <ele>4</ele>
        <time>2021-04-06T12:11:17Z</time>
      </trkpt>
      <trkpt lat="55.93397" lon="-4.68378">
        <ele>5</ele>
        <time>2021-04-06T12:11:21Z</time>
      </trkpt>
      <trkpt lat="55.934" lon="-4.68408">
        <ele>6.23</ele>
        <time>2021-04-06T12:11:25Z</time>
      </trkpt>
      <trkpt lat="55.93411" lon="-4.68456">
        <ele>8.31</ele>
        <time>2021-04-06T12:11:29Z</time>
      </trkpt>
      <trkpt lat="55.93416" lon="-4.68473">
        <ele>10.18</ele>
        <time>2021-04-06T12:11:33Z</time>
      </trkpt>
      <trkpt lat="55.93429" lon="-4.68499">
        <ele>10.24</ele>
        <time>2021-04-06T12:11:37Z</time>
      </trkpt>
      <trkpt lat="55.93546" lon="-4.68723">
        <ele>4.36</ele>
        <time>2021-04-06T12:11:41Z</time>
      </trkpt>
      <trkpt lat="55.93588" lon="-4.68808">
        <ele>5.17</ele>
        <time>2021-04-06T12:11:46Z</time>
      </trkpt>
      <trkpt lat="55.93601" lon="-4.68842">
        <ele>5.45</ele>
        <time>2021-04-06T12:11:50Z</time>
      </trkpt>
      <trkpt lat="55.93611" lon="-4.68883">
        <ele>5</ele>
        <time>2021-04-06T12:11:54Z</time>
      </trkpt>
      <trkpt lat="55.93614" lon="-4.68907">
        <ele>5.06</ele>
        <time>2021-04-06T12:11:58Z</time>
      </trkpt>
      <trkpt lat="55.93614" lon="-4.68907">
        <ele>5.06</ele>
        <time>2021-04-06T12:11:58Z</time>
      </trkpt>
      <trkpt lat="55.93617" lon="-4.68954">
        <ele>5.14</ele>
        <time>2021-04-06T12:12:01Z</time>
      </trkpt>
      <trkpt lat="55.93613" lon="-4.69008">
        <ele>4.74</ele>
        <time>2021-04-06T12:12:04Z</time>
      </trkpt>
      <trkpt lat="55.93596" lon="-4.6909">
        <ele>3.46</ele>
        <time>2021-04-06T12:12:07Z</time>
      </trkpt>
      <trkpt lat="55.93589" lon="-4.69116">
        <ele>3.16</ele>
        <time>2021-04-06T12:12:10Z</time>
      </trkpt>
      <trkpt lat="55.93576" lon="-4.69122">
        <ele>3.25</ele>
        <time>2021-04-06T12:12:13Z</time>
      </trkpt>
      <trkpt lat="55.93568" lon="-4.69139">
        <ele>3.57</ele>
        <time>2021-04-06T12:12:15Z</time>
      </trkpt>
      <trkpt lat="55.93518" lon="-4.69124">
        <ele>4.87</ele>
        <time>2021-04-06T12:12:18Z</time>
      </trkpt>
      <trkpt lat="55.93507" lon="-4.69169">
        <ele>4</ele>
        <time>2021-04-06T12:12:22Z</time>
      </trkpt>
      <trkpt lat="55.935" lon="-4.69215">
        <ele>4.01</ele>
        <time>2021-04-06T12:12:26Z</time>
      </trkpt>
      <trkpt lat="55.93497" lon="-4.69241">
        <ele>4.9</ele>
        <time>2021-04-06T12:12:29Z</time>
      </trkpt>
      <trkpt lat="55.9349" lon="-4.69408">
        <ele>8.46</ele>
        <time>2021-04-06T12:12:33Z</time>
      </trkpt>
      <trkpt lat="55.93493" lon="-4.69448">
        <ele>8.58</ele>
        <time>2021-04-06T12:12:37Z</time>
      </trkpt>
      <trkpt lat="55.93509" lon="-4.69549">
        <ele>7.69</ele>
        <time>2021-04-06T12:12:41Z</time>
      </trkpt>
      <trkpt lat="55.93527" lon="-4.6964">
        <ele>6.03</ele>
        <time>2021-04-06T12:12:45Z</time>
      </trkpt>
      <trkpt lat="55.93531" lon="-4.69679">
        <ele>5.82</ele>
        <time>2021-04-06T12:12:48Z</time>
      </trkpt>
      <trkpt lat="55.93529" lon="-4.69704">
        <ele>5.92</ele>
        <time>2021-04-06T12:12:52Z</time>
      </trkpt>
      <trkpt lat="55.93524" lon="-4.69711">
        <ele>6.14</ele>
        <time>2021-04-06T12:12:55Z</time>
      </trkpt>
      <trkpt lat="55.93522" lon="-4.69723">
        <ele>6.23</ele>
        <time>2021-04-06T12:12:57Z</time>
      </trkpt>
      <trkpt lat="55.93527" lon="-4.6974">
        <ele>6.64</ele>
        <time>2021-04-06T12:13:00Z</time>
      </trkpt>
      <trkpt lat="55.93527" lon="-4.69813">
        <ele>8.12</ele>
        <time>2021-04-06T12:13:02Z</time>
      </trkpt>
      <trkpt lat="55.93529" lon="-4.69856">
        <ele>8.67</ele>
        <time>2021-04-06T12:13:05Z</time>
      </trkpt>
      <trkpt lat="55.93542" lon="-4.69958">
        <ele>9.47</ele>
        <time>2021-04-06T12:13:07Z</time>
      </trkpt>
      <trkpt lat="55.93567" lon="-4.69946">
        <ele>6.65</ele>
        <time>2021-04-06T12:13:17Z</time>
      </trkpt>
      <trkpt lat="55.93582" lon="-4.69945">
        <ele>6.07</ele>
        <time>2021-04-06T12:13:27Z</time>
      </trkpt>
      <trkpt lat="55.93592" lon="-4.69948">
        <ele>6.38</ele>
        <time>2021-04-06T12:13:37Z</time>
      </trkpt>
      <trkpt lat="55.93602" lon="-4.69955">
        <ele>6.79</ele>
        <time>2021-04-06T12:13:46Z</time>
      </trkpt>
      <trkpt lat="55.93616" lon="-4.69986">
        <ele>7</ele>
        <time>2021-04-06T12:13:56Z</time>
      </trkpt>
      <trkpt lat="55.93632" lon="-4.70042">
        <ele>6.26</ele>
        <time>2021-04-06T12:14:06Z</time>
      </trkpt>
      <trkpt lat="55.93663" lon="-4.70173">
        <ele>5.89</ele>
        <time>2021-04-06T12:14:15Z</time>
      </trkpt>
      <trkpt lat="55.93764" lon="-4.70629">
        <ele>5.35</ele>
        <time>2021-04-06T12:14:25Z</time>
      </trkpt>
      <trkpt lat="55.93781" lon="-4.70775">
        <ele>5.76</ele>
        <time>2021-04-06T12:14:35Z</time>
      </trkpt>
      <trkpt lat="55.93804" lon="-4.71026">
        <ele>3.01</ele>
        <time>2021-04-06T12:14:44Z</time>
      </trkpt>
      <trkpt lat="55.93828" lon="-4.71052">
        <ele>2.89</ele>
        <time>2021-04-06T12:14:49Z</time>
      </trkpt>
      <trkpt lat="55.93819" lon="-4.71089">
        <ele>4.1</ele>
        <time>2021-04-06T12:14:53Z</time>
      </trkpt>
      <trkpt lat="55.93814" lon="-4.71101">
        <ele>4.19</ele>
        <time>2021-04-06T12:14:58Z</time>
      </trkpt>
      <trkpt lat="55.93759" lon="-4.7118">
        <ele>5.53</ele>
        <time>2021-04-06T12:15:02Z</time>
      </trkpt>
      <trkpt lat="55.93852" lon="-4.71367">
        <ele>5.34</ele>
        <time>2021-04-06T12:15:24Z</time>
      </trkpt>
      <trkpt lat="55.93898" lon="-4.71511">
        <ele>7.26</ele>
        <time>2021-04-06T12:15:46Z</time>
      </trkpt>
      <trkpt lat="55.94132" lon="-4.7233">
        <ele>7.98</ele>
        <time>2021-04-06T12:16:08Z</time>
      </trkpt>
      <trkpt lat="55.9419" lon="-4.72539">
        <ele>8.16</ele>
        <time>2021-04-06T12:16:30Z</time>
      </trkpt>
      <trkpt lat="55.94324" lon="-4.73043">
        <ele>13.98</ele>
        <time>2021-04-06T12:16:52Z</time>
      </trkpt>
      <trkpt lat="55.94371" lon="-4.73239">
        <ele>8.13</ele>
        <time>2021-04-06T12:17:14Z</time>
      </trkpt>
      <trkpt lat="55.94392" lon="-4.73349">
        <ele>7.93</ele>
        <time>2021-04-06T12:17:36Z</time>
      </trkpt>
      <trkpt lat="55.94434" lon="-4.73581">
        <ele>11.24</ele>
        <time>2021-04-06T12:17:58Z</time>
      </trkpt>
      <trkpt lat="55.94437" lon="-4.73622">
        <ele>11.2</ele>
        <time>2021-04-06T12:18:20Z</time>
      </trkpt>
      <trkpt lat="55.94435" lon="-4.73644">
        <ele>10.43</ele>
        <time>2021-04-06T12:18:25Z</time>
      </trkpt>
      <trkpt lat="55.94393" lon="-4.7375">
        <ele>6.2</ele>
        <time>2021-04-06T12:18:31Z</time>
      </trkpt>
      <trkpt lat="55.94374" lon="-4.73805">
        <ele>5.59</ele>
        <time>2021-04-06T12:18:36Z</time>
      </trkpt>
      <trkpt lat="55.94359" lon="-4.73858">
        <ele>5.21</ele>
        <time>2021-04-06T12:18:41Z</time>
      </trkpt>
      <trkpt lat="55.94349" lon="-4.73908">
        <ele>5.07</ele>
        <time>2021-04-06T12:18:47Z</time>
      </trkpt>
      <trkpt lat="55.94339" lon="-4.73987">
        <ele>5.78</ele>
        <time>2021-04-06T12:18:52Z</time>
      </trkpt>
      <trkpt lat="55.94335" lon="-4.74072">
        <ele>6.96</ele>
        <time>2021-04-06T12:18:57Z</time>
      </trkpt>
      <trkpt lat="55.94342" lon="-4.74167">
        <ele>5</ele>
        <time>2021-04-06T12:19:02Z</time>
      </trkpt>
      <trkpt lat="55.94349" lon="-4.74223">
        <ele>4.54</ele>
        <time>2021-04-06T12:19:08Z</time>
      </trkpt>
      <trkpt lat="55.94349" lon="-4.74223">
        <ele>4.54</ele>
        <time>2021-04-06T12:19:08Z</time>
      </trkpt>
      <trkpt lat="55.94362" lon="-4.74335">
        <ele>4.08</ele>
        <time>2021-04-06T12:19:14Z</time>
      </trkpt>
      <trkpt lat="55.94362" lon="-4.74378">
        <ele>5.05</ele>
        <time>2021-04-06T12:19:19Z</time>
      </trkpt>
      <trkpt lat="55.94361" lon="-4.74384">
        <ele>5.01</ele>
        <time>2021-04-06T12:19:22Z</time>
      </trkpt>
      <trkpt lat="55.94362" lon="-4.74405">
        <ele>5.64</ele>
        <time>2021-04-06T12:19:24Z</time>
      </trkpt>
      <trkpt lat="55.9437" lon="-4.7442">
        <ele>6.32</ele>
        <time>2021-04-06T12:19:26Z</time>
      </trkpt>
      <trkpt lat="55.94374" lon="-4.74424">
        <ele>6.46</ele>
        <time>2021-04-06T12:19:28Z</time>
      </trkpt>
      <trkpt lat="55.94382" lon="-4.74503">
        <ele>5.7</ele>
        <time>2021-04-06T12:19:30Z</time>
      </trkpt>
      <trkpt lat="55.94388" lon="-4.74537">
        <ele>5.05</ele>
        <time>2021-04-06T12:19:32Z</time>
      </trkpt>
      <trkpt lat="55.94371" lon="-4.74546">
        <ele>5.66</ele>
        <time>2021-04-06T12:19:35Z</time>
      </trkpt>
      <trkpt lat="55.94365" lon="-4.74568">
        <ele>5.85</ele>
        <time>2021-04-06T12:19:42Z</time>
      </trkpt>
      <trkpt lat="55.9436" lon="-4.7458">
        <ele>6.03</ele>
        <time>2021-04-06T12:19:50Z</time>
      </trkpt>
      <trkpt lat="55.94322" lon="-4.74619">
        <ele>8.71</ele>
        <time>2021-04-06T12:19:57Z</time>
      </trkpt>
      <trkpt lat="55.94378" lon="-4.74792">
        <ele>7.59</ele>
        <time>2021-04-06T12:20:05Z</time>
      </trkpt>
      <trkpt lat="55.94413" lon="-4.74887">
        <ele>7.26</ele>
        <time>2021-04-06T12:20:12Z</time>
      </trkpt>
      <trkpt lat="55.94409" lon="-4.74897">
        <ele>7.87</ele>
        <time>2021-04-06T12:20:15Z</time>
      </trkpt>
      <trkpt lat="55.94408" lon="-4.74904">
        <ele>8.18</ele>
        <time>2021-04-06T12:20:17Z</time>
      </trkpt>
      <trkpt lat="55.9436" lon="-4.74939">
        <ele>11.85</ele>
        <time>2021-04-06T12:20:20Z</time>
      </trkpt>
      <trkpt lat="55.94293" lon="-4.75002">
        <ele>17.32</ele>
        <time>2021-04-06T12:20:28Z</time>
      </trkpt>
      <trkpt lat="55.94235" lon="-4.7506">
        <ele>23.11</ele>
        <time>2021-04-06T12:20:35Z</time>
      </trkpt>
      <trkpt lat="55.9421" lon="-4.75076">
        <ele>25.19</ele>
        <time>2021-04-06T12:20:43Z</time>
      </trkpt>
      <trkpt lat="55.94148" lon="-4.751">
        <ele>31.27</ele>
        <time>2021-04-06T12:20:51Z</time>
      </trkpt>
      <trkpt lat="55.94128" lon="-4.7512">
        <ele>33.42</ele>
        <time>2021-04-06T12:20:58Z</time>
      </trkpt>
      <trkpt lat="55.94114" lon="-4.75138">
        <ele>35.68</ele>
        <time>2021-04-06T12:21:06Z</time>
      </trkpt>
      <trkpt lat="55.94101" lon="-4.75166">
        <ele>39.02</ele>
        <time>2021-04-06T12:21:13Z</time>
      </trkpt>
      <trkpt lat="55.94092" lon="-4.75193">
        <ele>41.74</ele>
        <time>2021-04-06T12:21:21Z</time>
      </trkpt>
      <trkpt lat="55.94084" lon="-4.75221">
        <ele>43.8</ele>
        <time>2021-04-06T12:21:28Z</time>
      </trkpt>
      <trkpt lat="55.9408" lon="-4.7525">
        <ele>45.25</ele>
        <time>2021-04-06T12:21:36Z</time>
      </trkpt>
      <trkpt lat="55.94078" lon="-4.75293">
        <ele>45.74</ele>
        <time>2021-04-06T12:21:44Z</time>
      </trkpt>
      <trkpt lat="55.94115" lon="-4.75849">
        <ele>51.75</ele>
        <time>2021-04-06T12:21:51Z</time>
      </trkpt>
      <trkpt lat="55.94148" lon="-4.76316">
        <ele>65.74</ele>
        <time>2021-04-06T12:21:59Z</time>
      </trkpt>
      <trkpt lat="55.94154" lon="-4.76443">
        <ele>72.58</ele>
        <time>2021-04-06T12:22:06Z</time>
      </trkpt>
      <trkpt lat="55.94164" lon="-4.76584">
        <ele>72.91</ele>
        <time>2021-04-06T12:22:14Z</time>
      </trkpt>
      <trkpt lat="55.94183" lon="-4.76738">
        <ele>76.58</ele>
        <time>2021-04-06T12:22:21Z</time>
      </trkpt>
      <trkpt lat="55.94195" lon="-4.76881">
        <ele>79.07</ele>
        <time>2021-04-06T12:22:29Z</time>
      </trkpt>
      <trkpt lat="55.94211" lon="-4.77012">
        <ele>74.91</ele>
        <time>2021-04-06T12:22:37Z</time>
      </trkpt>
      <trkpt lat="55.94238" lon="-4.77262">
        <ele>68.12</ele>
        <time>2021-04-06T12:22:44Z</time>
      </trkpt>
      <trkpt lat="55.9424" lon="-4.77323">
        <ele>66.09</ele>
        <time>2021-04-06T12:22:52Z</time>
      </trkpt>
      <trkpt lat="55.94239" lon="-4.77353">
        <ele>64.39</ele>
        <time>2021-04-06T12:22:59Z</time>
      </trkpt>
      <trkpt lat="55.9421" lon="-4.7762">
        <ele>55.67</ele>
        <time>2021-04-06T12:23:07Z</time>
      </trkpt>
      <trkpt lat="55.94193" lon="-4.77694">
        <ele>53.12</ele>
        <time>2021-04-06T12:23:14Z</time>
      </trkpt>
      <trkpt lat="55.94175" lon="-4.77752">
        <ele>53.72</ele>
        <time>2021-04-06T12:23:22Z</time>
      </trkpt>
      <trkpt lat="55.94115" lon="-4.77903">
        <ele>56.49</ele>
        <time>2021-04-06T12:23:30Z</time>
      </trkpt>
      <trkpt lat="55.94108" lon="-4.77933">
        <ele>57</ele>
        <time>2021-04-06T12:23:37Z</time>
      </trkpt>
      <trkpt lat="55.94091" lon="-4.78007">
        <ele>57.07</ele>
        <time>2021-04-06T12:23:45Z</time>
      </trkpt>
      <trkpt lat="55.94055" lon="-4.78213">
        <ele>58.01</ele>
        <time>2021-04-06T12:23:52Z</time>
      </trkpt>
      <trkpt lat="55.94048" lon="-4.7826">
        <ele>56.65</ele>
        <time>2021-04-06T12:24:00Z</time>
      </trkpt>
      <trkpt lat="55.94046" lon="-4.78285">
        <ele>55.74</ele>
        <time>2021-04-06T12:24:07Z</time>
      </trkpt>
      <trkpt lat="55.94046" lon="-4.78307">
        <ele>55</ele>
        <time>2021-04-06T12:24:15Z</time>
      </trkpt>
      <trkpt lat="55.9405" lon="-4.7833">
        <ele>55</ele>
        <time>2021-04-06T12:24:23Z</time>
      </trkpt>
      <trkpt lat="55.94055" lon="-4.78344">
        <ele>55</ele>
        <time>2021-04-06T12:24:30Z</time>
      </trkpt>
      <trkpt lat="55.9407" lon="-4.78373">
        <ele>55</ele>
        <time>2021-04-06T12:24:38Z</time>
      </trkpt>
      <trkpt lat="55.94144" lon="-4.78496">
        <ele>53.87</ele>
        <time>2021-04-06T12:24:45Z</time>
      </trkpt>
      <trkpt lat="55.9415" lon="-4.78512">
        <ele>53.19</ele>
        <time>2021-04-06T12:24:53Z</time>
      </trkpt>
      <trkpt lat="55.94152" lon="-4.78524">
        <ele>52.65</ele>
        <time>2021-04-06T12:25:00Z</time>
      </trkpt>
      <trkpt lat="55.94154" lon="-4.78559">
        <ele>52</ele>
        <time>2021-04-06T12:25:08Z</time>
      </trkpt>
      <trkpt lat="55.94151" lon="-4.7857">
        <ele>52</ele>
        <time>2021-04-06T12:25:09Z</time>
      </trkpt>
      <trkpt lat="55.94154" lon="-4.78578">
        <ele>52</ele>
        <time>2021-04-06T12:25:10Z</time>
      </trkpt>
      <trkpt lat="55.94153" lon="-4.78596">
        <ele>52</ele>
        <time>2021-04-06T12:25:12Z</time>
      </trkpt>
      <trkpt lat="55.94139" lon="-4.78639">
        <ele>53</ele>
        <time>2021-04-06T12:25:13Z</time>
      </trkpt>
      <trkpt lat="55.94139" lon="-4.7865">
        <ele>53</ele>
        <time>2021-04-06T12:25:14Z</time>
      </trkpt>
      <trkpt lat="55.941" lon="-4.7875">
        <ele>54</ele>
        <time>2021-04-06T12:25:22Z</time>
      </trkpt>
      <trkpt lat="55.94037" lon="-4.78912">
        <ele>59.83</ele>
        <time>2021-04-06T12:25:30Z</time>
      </trkpt>
      <trkpt lat="55.94031" lon="-4.78932">
        <ele>60.48</ele>
        <time>2021-04-06T12:25:38Z</time>
      </trkpt>
      <trkpt lat="55.94027" lon="-4.78956">
        <ele>61.46</ele>
        <time>2021-04-06T12:25:47Z</time>
      </trkpt>
      <trkpt lat="55.94026" lon="-4.78981">
        <ele>62.53</ele>
        <time>2021-04-06T12:25:55Z</time>
      </trkpt>
      <trkpt lat="55.9404" lon="-4.7911">
        <ele>67.53</ele>
        <time>2021-04-06T12:26:03Z</time>
      </trkpt>
      <trkpt lat="55.9404" lon="-4.79153">
        <ele>68.79</ele>
        <time>2021-04-06T12:26:11Z</time>
      </trkpt>
      <trkpt lat="55.9403" lon="-4.79241">
        <ele>70.73</ele>
        <time>2021-04-06T12:26:19Z</time>
      </trkpt>
      <trkpt lat="55.94029" lon="-4.79292">
        <ele>71.04</ele>
        <time>2021-04-06T12:26:27Z</time>
      </trkpt>
      <trkpt lat="55.94052" lon="-4.79427">
        <ele>73.16</ele>
        <time>2021-04-06T12:26:35Z</time>
      </trkpt>
      <trkpt lat="55.94064" lon="-4.79534">
        <ele>73.3</ele>
        <time>2021-04-06T12:26:43Z</time>
      </trkpt>
      <trkpt lat="55.9407" lon="-4.7962">
        <ele>74.37</ele>
        <time>2021-04-06T12:26:51Z</time>
      </trkpt>
      <trkpt lat="55.9411" lon="-4.80052">
        <ele>79.68</ele>
        <time>2021-04-06T12:27:00Z</time>
      </trkpt>
      <trkpt lat="55.94099" lon="-4.80057">
        <ele>77.67</ele>
        <time>2021-04-06T12:27:03Z</time>
      </trkpt>
      <trkpt lat="55.94094" lon="-4.80072">
        <ele>76.04</ele>
        <time>2021-04-06T12:27:07Z</time>
      </trkpt>
      <trkpt lat="55.94091" lon="-4.80149">
        <ele>71.06</ele>
        <time>2021-04-06T12:27:11Z</time>
      </trkpt>
      <trkpt lat="55.94087" lon="-4.80202">
        <ele>68.24</ele>
        <time>2021-04-06T12:27:14Z</time>
      </trkpt>
      <trkpt lat="55.94093" lon="-4.80196">
        <ele>68.64</ele>
        <time>2021-04-06T12:27:16Z</time>
      </trkpt>
      <trkpt lat="55.94106" lon="-4.80197">
        <ele>69.52</ele>
        <time>2021-04-06T12:27:17Z</time>
      </trkpt>
      <trkpt lat="55.94097" lon="-4.80269">
        <ele>68</ele>
        <time>2021-04-06T12:27:25Z</time>
      </trkpt>
      <trkpt lat="55.9407" lon="-4.80411">
        <ele>66.52</ele>
        <time>2021-04-06T12:27:34Z</time>
      </trkpt>
      <trkpt lat="55.94021" lon="-4.80606">
        <ele>63.39</ele>
        <time>2021-04-06T12:27:42Z</time>
      </trkpt>
      <trkpt lat="55.93991" lon="-4.80697">
        <ele>62.21</ele>
        <time>2021-04-06T12:27:50Z</time>
      </trkpt>
      <trkpt lat="55.9379" lon="-4.81205">
        <ele>52.36</ele>
        <time>2021-04-06T12:27:58Z</time>
      </trkpt>
      <trkpt lat="55.93746" lon="-4.81325">
        <ele>52.13</ele>
        <time>2021-04-06T12:28:06Z</time>
      </trkpt>
      <trkpt lat="55.937" lon="-4.81508">
        <ele>50.67</ele>
        <time>2021-04-06T12:28:14Z</time>
      </trkpt>
      <trkpt lat="55.93685" lon="-4.81579">
        <ele>50.67</ele>
        <time>2021-04-06T12:28:23Z</time>
      </trkpt>
      <trkpt lat="55.93682" lon="-4.8163">
        <ele>49.86</ele>
        <time>2021-04-06T12:28:31Z</time>
      </trkpt>
      <trkpt lat="55.93682" lon="-4.81709">
        <ele>47.3</ele>
        <time>2021-04-06T12:28:39Z</time>
      </trkpt>
      <trkpt lat="55.93676" lon="-4.81765">
        <ele>46.69</ele>
        <time>2021-04-06T12:28:47Z</time>
      </trkpt>
      <trkpt lat="55.93669" lon="-4.81823">
        <ele>47.15</ele>
        <time>2021-04-06T12:28:55Z</time>
      </trkpt>
      <trkpt lat="55.93658" lon="-4.81888">
        <ele>47.38</ele>
        <time>2021-04-06T12:29:04Z</time>
      </trkpt>
      <trkpt lat="55.93637" lon="-4.81943">
        <ele>47.82</ele>
        <time>2021-04-06T12:29:12Z</time>
      </trkpt>
      <trkpt lat="55.93593" lon="-4.82029">
        <ele>48.68</ele>
        <time>2021-04-06T12:29:20Z</time>
      </trkpt>
      <trkpt lat="55.93506" lon="-4.82165">
        <ele>45.85</ele>
        <time>2021-04-06T12:29:28Z</time>
      </trkpt>
      <trkpt lat="55.93454" lon="-4.8227">
        <ele>42.44</ele>
        <time>2021-04-06T12:29:36Z</time>
      </trkpt>
      <trkpt lat="55.93421" lon="-4.82352">
        <ele>44.38</ele>
        <time>2021-04-06T12:29:45Z</time>
      </trkpt>
      <trkpt lat="55.93245" lon="-4.82767">
        <ele>44.69</ele>
        <time>2021-04-06T12:29:53Z</time>
      </trkpt>
      <trkpt lat="55.93113" lon="-4.83106">
        <ele>44.35</ele>
        <time>2021-04-06T12:30:01Z</time>
      </trkpt>
      <trkpt lat="55.93022" lon="-4.83306">
        <ele>43.41</ele>
        <time>2021-04-06T12:30:09Z</time>
      </trkpt>
      <trkpt lat="55.92961" lon="-4.83425">
        <ele>40.4</ele>
        <time>2021-04-06T12:30:17Z</time>
      </trkpt>
      <trkpt lat="55.9291" lon="-4.83494">
        <ele>39.26</ele>
        <time>2021-04-06T12:30:26Z</time>
      </trkpt>
      <trkpt lat="55.92678" lon="-4.83777">
        <ele>37</ele>
        <time>2021-04-06T12:30:34Z</time>
      </trkpt>
      <trkpt lat="55.92546" lon="-4.83974">
        <ele>39.72</ele>
        <time>2021-04-06T12:30:42Z</time>
      </trkpt>
      <trkpt lat="55.92465" lon="-4.84131">
        <ele>39.37</ele>
        <time>2021-04-06T12:30:50Z</time>
      </trkpt>
      <trkpt lat="55.92384" lon="-4.84313">
        <ele>40.82</ele>
        <time>2021-04-06T12:30:58Z</time>
      </trkpt>
      <trkpt lat="55.92384" lon="-4.84313">
        <ele>40.82</ele>
        <time>2021-04-06T12:30:58Z</time>
      </trkpt>
      <trkpt lat="55.92321" lon="-4.8446">
        <ele>45.06</ele>
        <time>2021-04-06T12:31:04Z</time>
      </trkpt>
      <trkpt lat="55.92223" lon="-4.84695">
        <ele>50.08</ele>
        <time>2021-04-06T12:31:10Z</time>
      </trkpt>
      <trkpt lat="55.92193" lon="-4.84807">
        <ele>46.64</ele>
        <time>2021-04-06T12:31:15Z</time>
      </trkpt>
      <trkpt lat="55.92172" lon="-4.84937">
        <ele>43.01</ele>
        <time>2021-04-06T12:31:21Z</time>
      </trkpt>
      <trkpt lat="55.92136" lon="-4.85275">
        <ele>35.24</ele>
        <time>2021-04-06T12:31:27Z</time>
      </trkpt>
      <trkpt lat="55.92081" lon="-4.85487">
        <ele>26.6</ele>
        <time>2021-04-06T12:31:32Z</time>
      </trkpt>
      <trkpt lat="55.91988" lon="-4.85682">
        <ele>21.68</ele>
        <time>2021-04-06T12:31:38Z</time>
      </trkpt>
      <trkpt lat="55.91897" lon="-4.85774">
        <ele>15.45</ele>
        <time>2021-04-06T12:31:44Z</time>
      </trkpt>
      <trkpt lat="55.91892" lon="-4.85761">
        <ele>14.59</ele>
        <time>2021-04-06T12:31:45Z</time>
      </trkpt>
      <trkpt lat="55.91884" lon="-4.85752">
        <ele>13.89</ele>
        <time>2021-04-06T12:31:47Z</time>
      </trkpt>
      <trkpt lat="55.91872" lon="-4.85749">
        <ele>13.35</ele>
        <time>2021-04-06T12:31:48Z</time>
      </trkpt>
      <trkpt lat="55.91863" lon="-4.85754">
        <ele>13.07</ele>
        <time>2021-04-06T12:31:50Z</time>
      </trkpt>
      <trkpt lat="55.91855" lon="-4.85763">
        <ele>12.8</ele>
        <time>2021-04-06T12:31:52Z</time>
      </trkpt>
      <trkpt lat="55.9185" lon="-4.85776">
        <ele>12.61</ele>
        <time>2021-04-06T12:31:53Z</time>
      </trkpt>
      <trkpt lat="55.91848" lon="-4.85791">
        <ele>13.25</ele>
        <time>2021-04-06T12:31:55Z</time>
      </trkpt>
      <trkpt lat="55.91842" lon="-4.85798">
        <ele>13.27</ele>
        <time>2021-04-06T12:31:56Z</time>
      </trkpt>
      <trkpt lat="55.91759" lon="-4.85858">
        <ele>12.55</ele>
        <time>2021-04-06T12:31:58Z</time>
      </trkpt>
      <trkpt lat="55.9168" lon="-4.85912">
        <ele>11.44</ele>
        <time>2021-04-06T12:32:00Z</time>
      </trkpt>
      <trkpt lat="55.9165" lon="-4.85927">
        <ele>10.79</ele>
        <time>2021-04-06T12:32:01Z</time>
      </trkpt>
      <trkpt lat="55.9165" lon="-4.85927">
        <ele>10.79</ele>
        <time>2021-04-06T12:32:01Z</time>
      </trkpt>
      <trkpt lat="55.91579" lon="-4.85962">
        <ele>10.14</ele>
        <time>2021-04-06T12:32:06Z</time>
      </trkpt>
      <trkpt lat="55.91372" lon="-4.86054">
        <ele>12.42</ele>
        <time>2021-04-06T12:32:11Z</time>
      </trkpt>
      <trkpt lat="55.91338" lon="-4.8607">
        <ele>11.56</ele>
        <time>2021-04-06T12:32:16Z</time>
      </trkpt>
      <trkpt lat="55.91294" lon="-4.861">
        <ele>10.25</ele>
        <time>2021-04-06T12:32:21Z</time>
      </trkpt>
      <trkpt lat="55.91263" lon="-4.86124">
        <ele>11.24</ele>
        <time>2021-04-06T12:32:26Z</time>
      </trkpt>
      <trkpt lat="55.91229" lon="-4.86158">
        <ele>13.18</ele>
        <time>2021-04-06T12:32:31Z</time>
      </trkpt>
      <trkpt lat="55.91207" lon="-4.86188">
        <ele>13.47</ele>
        <time>2021-04-06T12:32:36Z</time>
      </trkpt>
      <trkpt lat="55.91168" lon="-4.86256">
        <ele>13.06</ele>
        <time>2021-04-06T12:32:41Z</time>
      </trkpt>
      <trkpt lat="55.91148" lon="-4.86295">
        <ele>11</ele>
        <time>2021-04-06T12:32:47Z</time>
      </trkpt>
      <trkpt lat="55.91129" lon="-4.86337">
        <ele>10.42</ele>
        <time>2021-04-06T12:32:52Z</time>
      </trkpt>
      <trkpt lat="55.91111" lon="-4.86385">
        <ele>11</ele>
        <time>2021-04-06T12:32:57Z</time>
      </trkpt>
      <trkpt lat="55.90847" lon="-4.87167">
        <ele>7.51</ele>
        <time>2021-04-06T12:33:02Z</time>
      </trkpt>
      <trkpt lat="55.9082" lon="-4.87252">
        <ele>6.94</ele>
        <time>2021-04-06T12:33:07Z</time>
      </trkpt>
      <trkpt lat="55.90797" lon="-4.8733">
        <ele>6.65</ele>
        <time>2021-04-06T12:33:12Z</time>
      </trkpt>
      <trkpt lat="55.90771" lon="-4.87432">
        <ele>6.26</ele>
        <time>2021-04-06T12:33:17Z</time>
      </trkpt>
      <trkpt lat="55.90728" lon="-4.87646">
        <ele>8.34</ele>
        <time>2021-04-06T12:33:22Z</time>
      </trkpt>
      <trkpt lat="55.90712" lon="-4.87715">
        <ele>8.5</ele>
        <time>2021-04-06T12:33:27Z</time>
      </trkpt>
      <trkpt lat="55.90701" lon="-4.87753">
        <ele>8.73</ele>
        <time>2021-04-06T12:33:32Z</time>
      </trkpt>
      <trkpt lat="55.90688" lon="-4.87788">
        <ele>10.35</ele>
        <time>2021-04-06T12:33:37Z</time>
      </trkpt>
      <trkpt lat="55.90672" lon="-4.87824">
        <ele>12.72</ele>
        <time>2021-04-06T12:33:42Z</time>
      </trkpt>
      <trkpt lat="55.90658" lon="-4.87849">
        <ele>12.95</ele>
        <time>2021-04-06T12:33:47Z</time>
      </trkpt>
      <trkpt lat="55.90658" lon="-4.87849">
        <ele>12.95</ele>
        <time>2021-04-06T12:33:47Z</time>
      </trkpt>
      <trkpt lat="55.90636" lon="-4.87888">
        <ele>9.87</ele>
        <time>2021-04-06T12:33:56Z</time>
      </trkpt>
      <trkpt lat="55.90614" lon="-4.87917">
        <ele>9.49</ele>
        <time>2021-04-06T12:34:04Z</time>
      </trkpt>
      <trkpt lat="55.90567" lon="-4.87966">
        <ele>9.13</ele>
        <time>2021-04-06T12:34:13Z</time>
      </trkpt>
      <trkpt lat="55.90503" lon="-4.88011">
        <ele>12.08</ele>
        <time>2021-04-06T12:34:22Z</time>
      </trkpt>
      <trkpt lat="55.90458" lon="-4.88039">
        <ele>12.59</ele>
        <time>2021-04-06T12:34:30Z</time>
      </trkpt>
      <trkpt lat="55.90194" lon="-4.88153">
        <ele>12.56</ele>
        <time>2021-04-06T12:34:39Z</time>
      </trkpt>
      <trkpt lat="55.90153" lon="-4.88164">
        <ele>16.68</ele>
        <time>2021-04-06T12:34:47Z</time>
      </trkpt>
      <trkpt lat="55.90112" lon="-4.88169">
        <ele>19.88</ele>
        <time>2021-04-06T12:34:56Z</time>
      </trkpt>
      <trkpt lat="55.89952" lon="-4.8818">
        <ele>27.04</ele>
        <time>2021-04-06T12:35:05Z</time>
      </trkpt>
      <trkpt lat="55.89826" lon="-4.88219">
        <ele>30</ele>
        <time>2021-04-06T12:35:13Z</time>
      </trkpt>
      <trkpt lat="55.89758" lon="-4.88251">
        <ele>30.96</ele>
        <time>2021-04-06T12:35:22Z</time>
      </trkpt>
      <trkpt lat="55.89661" lon="-4.88313">
        <ele>31.94</ele>
        <time>2021-04-06T12:35:31Z</time>
      </trkpt>
      <trkpt lat="55.89562" lon="-4.88394">
        <ele>32.47</ele>
        <time>2021-04-06T12:35:39Z</time>
      </trkpt>
      <trkpt lat="55.89413" lon="-4.88505">
        <ele>36.44</ele>
        <time>2021-04-06T12:35:48Z</time>
      </trkpt>
      <trkpt lat="55.89294" lon="-4.88574">
        <ele>38.77</ele>
        <time>2021-04-06T12:35:57Z</time>
      </trkpt>
      <trkpt lat="55.89248" lon="-4.88597">
        <ele>37.6</ele>
        <time>2021-04-06T12:36:05Z</time>
      </trkpt>
      <trkpt lat="55.89117" lon="-4.8864">
        <ele>37.7</ele>
        <time>2021-04-06T12:36:14Z</time>
      </trkpt>
      <trkpt lat="55.88749" lon="-4.88732">
        <ele>32.02</ele>
        <time>2021-04-06T12:36:22Z</time>
      </trkpt>
      <trkpt lat="55.88608" lon="-4.8877">
        <ele>32.53</ele>
        <time>2021-04-06T12:36:31Z</time>
      </trkpt>
      <trkpt lat="55.88523" lon="-4.88793">
        <ele>30.61</ele>
        <time>2021-04-06T12:36:40Z</time>
      </trkpt>
      <trkpt lat="55.88475" lon="-4.8881">
        <ele>29.34</ele>
        <time>2021-04-06T12:36:48Z</time>
      </trkpt>
      <trkpt lat="55.88311" lon="-4.88886">
        <ele>17.71</ele>
        <time>2021-04-06T12:36:57Z</time>
      </trkpt>
      <trkpt lat="55.8828" lon="-4.88892">
        <ele>14.87</ele>
        <time>2021-04-06T12:37:06Z</time>
      </trkpt>
      <trkpt lat="55.88248" lon="-4.88893">
        <ele>11.64</ele>
        <time>2021-04-06T12:37:14Z</time>
      </trkpt>
      <trkpt lat="55.88119" lon="-4.88885">
        <ele>10.75</ele>
        <time>2021-04-06T12:37:23Z</time>
      </trkpt>
      <trkpt lat="55.88114" lon="-4.88882">
        <ele>11.3</ele>
        <time>2021-04-06T12:37:32Z</time>
      </trkpt>
      <trkpt lat="55.88101" lon="-4.88864">
        <ele>12.01</ele>
        <time>2021-04-06T12:37:40Z</time>
      </trkpt>
      <trkpt lat="55.88093" lon="-4.8886">
        <ele>11.8</ele>
        <time>2021-04-06T12:37:49Z</time>
      </trkpt>
      <trkpt lat="55.87843" lon="-4.88855">
        <ele>11.58</ele>
        <time>2021-04-06T12:37:57Z</time>
      </trkpt>
      <trkpt lat="55.87751" lon="-4.8881">
        <ele>13.66</ele>
        <time>2021-04-06T12:38:06Z</time>
      </trkpt>
      <trkpt lat="55.87724" lon="-4.88806">
        <ele>14.85</ele>
        <time>2021-04-06T12:38:15Z</time>
      </trkpt>
      <trkpt lat="55.87711" lon="-4.8881">
        <ele>14.96</ele>
        <time>2021-04-06T12:38:23Z</time>
      </trkpt>
      <trkpt lat="55.87613" lon="-4.88865">
        <ele>12.7</ele>
        <time>2021-04-06T12:38:32Z</time>
      </trkpt>
      <trkpt lat="55.8756" lon="-4.8889">
        <ele>9.93</ele>
        <time>2021-04-06T12:38:41Z</time>
      </trkpt>
      <trkpt lat="55.87538" lon="-4.88894">
        <ele>8.35</ele>
        <time>2021-04-06T12:38:49Z</time>
      </trkpt>
      <trkpt lat="55.87444" lon="-4.88884">
        <ele>11.57</ele>
        <time>2021-04-06T12:38:58Z</time>
      </trkpt>
      <trkpt lat="55.87412" lon="-4.88883">
        <ele>15.1</ele>
        <time>2021-04-06T12:39:07Z</time>
      </trkpt>
      <trkpt lat="55.87385" lon="-4.88885">
        <ele>16.28</ele>
        <time>2021-04-06T12:39:15Z</time>
      </trkpt>
      <trkpt lat="55.8732" lon="-4.8894">
        <ele>18.79</ele>
        <time>2021-04-06T12:39:24Z</time>
      </trkpt>
      <trkpt lat="55.87257" lon="-4.89001">
        <ele>13.34</ele>
        <time>2021-04-06T12:39:32Z</time>
      </trkpt>
      <trkpt lat="55.87223" lon="-4.89023">
        <ele>12.68</ele>
        <time>2021-04-06T12:39:41Z</time>
      </trkpt>
      <trkpt lat="55.87195" lon="-4.89036">
        <ele>14.43</ele>
        <time>2021-04-06T12:39:50Z</time>
      </trkpt>
      <trkpt lat="55.87143" lon="-4.89035">
        <ele>16.95</ele>
        <time>2021-04-06T12:39:58Z</time>
      </trkpt>
      <trkpt lat="55.8708" lon="-4.89022">
        <ele>16.67</ele>
        <time>2021-04-06T12:40:07Z</time>
      </trkpt>
      <trkpt lat="55.8699" lon="-4.88987">
        <ele>18.21</ele>
        <time>2021-04-06T12:40:16Z</time>
      </trkpt>
      <trkpt lat="55.86901" lon="-4.88988">
        <ele>19.48</ele>
        <time>2021-04-06T12:40:24Z</time>
      </trkpt>
      <trkpt lat="55.86703" lon="-4.89017">
        <ele>11.55</ele>
        <time>2021-04-06T12:40:33Z</time>
      </trkpt>
      <trkpt lat="55.86703" lon="-4.89017">
        <ele>11.55</ele>
        <time>2021-04-06T12:40:33Z</time>
      </trkpt>
      <trkpt lat="55.86472" lon="-4.89036">
        <ele>8.08</ele>
        <time>2021-04-06T12:40:43Z</time>
      </trkpt>
      <trkpt lat="55.86402" lon="-4.89039">
        <ele>3.99</ele>
        <time>2021-04-06T12:40:53Z</time>
      </trkpt>
      <trkpt lat="55.86334" lon="-4.89026">
        <ele>4.16</ele>
        <time>2021-04-06T12:41:03Z</time>
      </trkpt>
      <trkpt lat="55.86266" lon="-4.89022">
        <ele>3.06</ele>
        <time>2021-04-06T12:41:13Z</time>
      </trkpt>
      <trkpt lat="55.8625" lon="-4.89019">
        <ele>2.65</ele>
        <time>2021-04-06T12:41:23Z</time>
      </trkpt>
      <trkpt lat="55.86148" lon="-4.88976">
        <ele>3.4</ele>
        <time>2021-04-06T12:41:33Z</time>
      </trkpt>
      <trkpt lat="55.85982" lon="-4.88956">
        <ele>6.95</ele>
        <time>2021-04-06T12:41:43Z</time>
      </trkpt>
      <trkpt lat="55.85941" lon="-4.88957">
        <ele>6.54</ele>
        <time>2021-04-06T12:41:53Z</time>
      </trkpt>
      <trkpt lat="55.85771" lon="-4.88995">
        <ele>5.34</ele>
        <time>2021-04-06T12:42:03Z</time>
      </trkpt>
      <trkpt lat="55.85627" lon="-4.88969">
        <ele>4.76</ele>
        <time>2021-04-06T12:42:13Z</time>
      </trkpt>
      <trkpt lat="55.85513" lon="-4.88907">
        <ele>4.16</ele>
        <time>2021-04-06T12:42:23Z</time>
      </trkpt>
      <trkpt lat="55.85475" lon="-4.88885">
        <ele>3.38</ele>
        <time>2021-04-06T12:42:33Z</time>
      </trkpt>
      <trkpt lat="55.85447" lon="-4.8888">
        <ele>2.75</ele>
        <time>2021-04-06T12:42:44Z</time>
      </trkpt>
      <trkpt lat="55.85394" lon="-4.88876">
        <ele>2.9</ele>
        <time>2021-04-06T12:42:54Z</time>
      </trkpt>
      <trkpt lat="55.853" lon="-4.88896">
        <ele>2.55</ele>
        <time>2021-04-06T12:43:04Z</time>
      </trkpt>
      <trkpt lat="55.8527" lon="-4.88894">
        <ele>1.83</ele>
        <time>2021-04-06T12:43:14Z</time>
      </trkpt>
      <trkpt lat="55.85175" lon="-4.88852">
        <ele>1.64</ele>
        <time>2021-04-06T12:43:24Z</time>
      </trkpt>
      <trkpt lat="55.84959" lon="-4.88791">
        <ele>5.04</ele>
        <time>2021-04-06T12:43:34Z</time>
      </trkpt>
      <trkpt lat="55.84906" lon="-4.88773">
        <ele>5.55</ele>
        <time>2021-04-06T12:43:44Z</time>
      </trkpt>
      <trkpt lat="55.84914" lon="-4.88735">
        <ele>7.11</ele>
        <time>2021-04-06T12:43:50Z</time>
      </trkpt>
      <trkpt lat="55.84915" lon="-4.88699">
        <ele>8.79</ele>
        <time>2021-04-06T12:43:56Z</time>
      </trkpt>
      <trkpt lat="55.84908" lon="-4.88657">
        <ele>9.68</ele>
        <time>2021-04-06T12:44:02Z</time>
      </trkpt>
      <trkpt lat="55.84892" lon="-4.88606">
        <ele>9.53</ele>
        <time>2021-04-06T12:44:08Z</time>
      </trkpt>
      <trkpt lat="55.84877" lon="-4.88569">
        <ele>12.89</ele>
        <time>2021-04-06T12:44:14Z</time>
      </trkpt>
      <trkpt lat="55.84877" lon="-4.88538">
        <ele>16.07</ele>
        <time>2021-04-06T12:44:19Z</time>
      </trkpt>
      <trkpt lat="55.8489" lon="-4.88464">
        <ele>20.86</ele>
        <time>2021-04-06T12:44:25Z</time>
      </trkpt>
      <trkpt lat="55.84899" lon="-4.88424">
        <ele>24.08</ele>
        <time>2021-04-06T12:44:31Z</time>
      </trkpt>
      <trkpt lat="55.849" lon="-4.88394">
        <ele>26.59</ele>
        <time>2021-04-06T12:44:37Z</time>
      </trkpt>
      <trkpt lat="55.84896" lon="-4.88378">
        <ele>27.8</ele>
        <time>2021-04-06T12:44:43Z</time>
      </trkpt>
      <trkpt lat="55.84889" lon="-4.88377">
        <ele>27.85</ele>
        <time>2021-04-06T12:44:49Z</time>
      </trkpt>
      <trkpt lat="55.8484" lon="-4.88405">
        <ele>35.08</ele>
        <time>2021-04-06T12:44:55Z</time>
      </trkpt>
      <trkpt lat="55.84817" lon="-4.88408">
        <ele>37.48</ele>
        <time>2021-04-06T12:45:01Z</time>
      </trkpt>
      <trkpt lat="55.84795" lon="-4.88398">
        <ele>39.15</ele>
        <time>2021-04-06T12:45:07Z</time>
      </trkpt>
      <trkpt lat="55.84724" lon="-4.88349">
        <ele>45.28</ele>
        <time>2021-04-06T12:45:13Z</time>
      </trkpt>
      <trkpt lat="55.84547" lon="-4.88296">
        <ele>60.97</ele>
        <time>2021-04-06T12:45:19Z</time>
      </trkpt>
      <trkpt lat="55.84371" lon="-4.88305">
        <ele>67.64</ele>
        <time>2021-04-06T12:45:25Z</time>
      </trkpt>
      <trkpt lat="55.84291" lon="-4.883">
        <ele>65.8</ele>
        <time>2021-04-06T12:45:31Z</time>
      </trkpt>
      <trkpt lat="55.84256" lon="-4.88324">
        <ele>65.21</ele>
        <time>2021-04-06T12:45:37Z</time>
      </trkpt>
      <trkpt lat="55.84187" lon="-4.88357">
        <ele>62.03</ele>
        <time>2021-04-06T12:45:43Z</time>
      </trkpt>
      <trkpt lat="55.8412" lon="-4.88403">
        <ele>55.4</ele>
        <time>2021-04-06T12:45:49Z</time>
      </trkpt>
      <trkpt lat="55.84094" lon="-4.8841">
        <ele>53.03</ele>
        <time>2021-04-06T12:45:55Z</time>
      </trkpt>
      <trkpt lat="55.84067" lon="-4.88403">
        <ele>50.8</ele>
        <time>2021-04-06T12:46:01Z</time>
      </trkpt>
      <trkpt lat="55.84016" lon="-4.8838">
        <ele>49.41</ele>
        <time>2021-04-06T12:46:07Z</time>
      </trkpt>
      <trkpt lat="55.83945" lon="-4.88313">
        <ele>48.29</ele>
        <time>2021-04-06T12:46:13Z</time>
      </trkpt>
      <trkpt lat="55.83845" lon="-4.88231">
        <ele>37.53</ele>
        <time>2021-04-06T12:46:19Z</time>
      </trkpt>
      <trkpt lat="55.83812" lon="-4.88212">
        <ele>35.43</ele>
        <time>2021-04-06T12:46:24Z</time>
      </trkpt>
      <trkpt lat="55.83785" lon="-4.88207">
        <ele>33.92</ele>
        <time>2021-04-06T12:46:30Z</time>
      </trkpt>
      <trkpt lat="55.83745" lon="-4.88206">
        <ele>31.42</ele>
        <time>2021-04-06T12:46:36Z</time>
      </trkpt>
      <trkpt lat="55.83664" lon="-4.88172">
        <ele>36.46</ele>
        <time>2021-04-06T12:46:42Z</time>
      </trkpt>
      <trkpt lat="55.83622" lon="-4.8817">
        <ele>36.74</ele>
        <time>2021-04-06T12:46:48Z</time>
      </trkpt>
      <trkpt lat="55.83551" lon="-4.88175">
        <ele>36.81</ele>
        <time>2021-04-06T12:46:54Z</time>
      </trkpt>
      <trkpt lat="55.83504" lon="-4.88191">
        <ele>39.1</ele>
        <time>2021-04-06T12:47:00Z</time>
      </trkpt>
      <trkpt lat="55.83463" lon="-4.88271">
        <ele>35.01</ele>
        <time>2021-04-06T12:47:06Z</time>
      </trkpt>
      <trkpt lat="55.83434" lon="-4.88301">
        <ele>35</ele>
        <time>2021-04-06T12:47:12Z</time>
      </trkpt>
      <trkpt lat="55.83351" lon="-4.88304">
        <ele>38.24</ele>
        <time>2021-04-06T12:47:18Z</time>
      </trkpt>
      <trkpt lat="55.83296" lon="-4.8829">
        <ele>41</ele>
        <time>2021-04-06T12:47:24Z</time>
      </trkpt>
      <trkpt lat="55.83298" lon="-4.88435">
        <ele>27.56</ele>
        <time>2021-04-06T12:47:28Z</time>
      </trkpt>
      <trkpt lat="55.83321" lon="-4.88539">
        <ele>22.94</ele>
        <time>2021-04-06T12:47:31Z</time>
      </trkpt>
      <trkpt lat="55.83321" lon="-4.88638">
        <ele>14.53</ele>
        <time>2021-04-06T12:47:35Z</time>
      </trkpt>
      <trkpt lat="55.83295" lon="-4.88758">
        <ele>8.81</ele>
        <time>2021-04-06T12:47:38Z</time>
      </trkpt>
      <trkpt lat="55.83263" lon="-4.88848">
        <ele>8.75</ele>
        <time>2021-04-06T12:47:42Z</time>
      </trkpt>
      <trkpt lat="55.83219" lon="-4.88909">
        <ele>5.45</ele>
        <time>2021-04-06T12:47:45Z</time>
      </trkpt>
      <trkpt lat="55.83023" lon="-4.88799">
        <ele>5.09</ele>
        <time>2021-04-06T12:47:51Z</time>
      </trkpt>
      <trkpt lat="55.82987" lon="-4.88788">
        <ele>4.78</ele>
        <time>2021-04-06T12:47:58Z</time>
      </trkpt>
      <trkpt lat="55.82967" lon="-4.88792">
        <ele>4.16</ele>
        <time>2021-04-06T12:48:04Z</time>
      </trkpt>
      <trkpt lat="55.82945" lon="-4.88804">
        <ele>4.08</ele>
        <time>2021-04-06T12:48:10Z</time>
      </trkpt>
      <trkpt lat="55.82885" lon="-4.88864">
        <ele>3</ele>
        <time>2021-04-06T12:48:16Z</time>
      </trkpt>
      <trkpt lat="55.82824" lon="-4.88907">
        <ele>2.36</ele>
        <time>2021-04-06T12:48:22Z</time>
      </trkpt>
      <trkpt lat="55.82748" lon="-4.88918">
        <ele>2.88</ele>
        <time>2021-04-06T12:48:29Z</time>
      </trkpt>
      <trkpt lat="55.82577" lon="-4.88896">
        <ele>2.73</ele>
        <time>2021-04-06T12:48:35Z</time>
      </trkpt>
      <trkpt lat="55.82448" lon="-4.88896">
        <ele>2.71</ele>
        <time>2021-04-06T12:48:41Z</time>
      </trkpt>
      <trkpt lat="55.82354" lon="-4.88857">
        <ele>2.54</ele>
        <time>2021-04-06T12:48:47Z</time>
      </trkpt>
      <trkpt lat="55.82144" lon="-4.88819">
        <ele>4.84</ele>
        <time>2021-04-06T12:48:53Z</time>
      </trkpt>
      <trkpt lat="55.81876" lon="-4.88718">
        <ele>5.47</ele>
        <time>2021-04-06T12:49:00Z</time>
      </trkpt>
      <trkpt lat="55.81876" lon="-4.88718">
        <ele>5.47</ele>
        <time>2021-04-06T12:49:00Z</time>
      </trkpt>
      <trkpt lat="55.81811" lon="-4.88694">
        <ele>6.01</ele>
        <time>2021-04-06T12:49:09Z</time>
      </trkpt>
      <trkpt lat="55.81642" lon="-4.88591">
        <ele>3.67</ele>
        <time>2021-04-06T12:49:18Z</time>
      </trkpt>
      <trkpt lat="55.81558" lon="-4.88535">
        <ele>3.49</ele>
        <time>2021-04-06T12:49:28Z</time>
      </trkpt>
      <trkpt lat="55.81527" lon="-4.88519">
        <ele>3.61</ele>
        <time>2021-04-06T12:49:37Z</time>
      </trkpt>
      <trkpt lat="55.81396" lon="-4.88437">
        <ele>7.71</ele>
        <time>2021-04-06T12:49:47Z</time>
      </trkpt>
      <trkpt lat="55.81208" lon="-4.88357">
        <ele>3.56</ele>
        <time>2021-04-06T12:49:56Z</time>
      </trkpt>
      <trkpt lat="55.81097" lon="-4.88288">
        <ele>4.41</ele>
        <time>2021-04-06T12:50:05Z</time>
      </trkpt>
      <trkpt lat="55.81036" lon="-4.88236">
        <ele>3.95</ele>
        <time>2021-04-06T12:50:15Z</time>
      </trkpt>
      <trkpt lat="55.80925" lon="-4.88102">
        <ele>5.57</ele>
        <time>2021-04-06T12:50:24Z</time>
      </trkpt>
      <trkpt lat="55.80881" lon="-4.88017">
        <ele>5.18</ele>
        <time>2021-04-06T12:50:34Z</time>
      </trkpt>
      <trkpt lat="55.80833" lon="-4.87956">
        <ele>5.15</ele>
        <time>2021-04-06T12:50:43Z</time>
      </trkpt>
      <trkpt lat="55.80805" lon="-4.87914">
        <ele>6.13</ele>
        <time>2021-04-06T12:50:52Z</time>
      </trkpt>
      <trkpt lat="55.80792" lon="-4.87898">
        <ele>5.11</ele>
        <time>2021-04-06T12:51:02Z</time>
      </trkpt>
      <trkpt lat="55.80712" lon="-4.87768">
        <ele>7.35</ele>
        <time>2021-04-06T12:51:11Z</time>
      </trkpt>
      <trkpt lat="55.80536" lon="-4.87442">
        <ele>9.31</ele>
        <time>2021-04-06T12:51:20Z</time>
      </trkpt>
      <trkpt lat="55.80434" lon="-4.87261">
        <ele>6.63</ele>
        <time>2021-04-06T12:51:30Z</time>
      </trkpt>
      <trkpt lat="55.80405" lon="-4.87227">
        <ele>6</ele>
        <time>2021-04-06T12:51:39Z</time>
      </trkpt>
      <trkpt lat="55.80384" lon="-4.87209">
        <ele>6.1</ele>
        <time>2021-04-06T12:51:49Z</time>
      </trkpt>
      <trkpt lat="55.80359" lon="-4.87197">
        <ele>6.07</ele>
        <time>2021-04-06T12:51:58Z</time>
      </trkpt>
      <trkpt lat="55.80219" lon="-4.87162">
        <ele>5.69</ele>
        <time>2021-04-06T12:52:07Z</time>
      </trkpt>
      <trkpt lat="55.80101" lon="-4.87126">
        <ele>1.91</ele>
        <time>2021-04-06T12:52:17Z</time>
      </trkpt>
      <trkpt lat="55.80078" lon="-4.87112">
        <ele>0.58</ele>
        <time>2021-04-06T12:52:26Z</time>
      </trkpt>
      <trkpt lat="55.80057" lon="-4.87091">
        <ele>-0.16</ele>
        <time>2021-04-06T12:52:35Z</time>
      </trkpt>
      <trkpt lat="55.79996" lon="-4.87018">
        <ele>2.23</ele>
        <time>2021-04-06T12:52:45Z</time>
      </trkpt>
      <trkpt lat="55.79988" lon="-4.8701">
        <ele>2.21</ele>
        <time>2021-04-06T12:52:54Z</time>
      </trkpt>
      <trkpt lat="55.79819" lon="-4.8689">
        <ele>7.92</ele>
        <time>2021-04-06T12:53:04Z</time>
      </trkpt>
      <trkpt lat="55.79772" lon="-4.86891">
        <ele>6.85</ele>
        <time>2021-04-06T12:53:13Z</time>
      </trkpt>
      <trkpt lat="55.7974" lon="-4.86895">
        <ele>6.54</ele>
        <time>2021-04-06T12:53:22Z</time>
      </trkpt>
      <trkpt lat="55.79718" lon="-4.86902">
        <ele>6.05</ele>
        <time>2021-04-06T12:53:32Z</time>
      </trkpt>
      <trkpt lat="55.79488" lon="-4.86998">
        <ele>6.05</ele>
        <time>2021-04-06T12:53:41Z</time>
      </trkpt>
      <trkpt lat="55.7946" lon="-4.86998">
        <ele>6</ele>
        <time>2021-04-06T12:53:50Z</time>
      </trkpt>
      <trkpt lat="55.79454" lon="-4.86993">
        <ele>6</ele>
        <time>2021-04-06T12:54:00Z</time>
      </trkpt>
      <trkpt lat="55.79449" lon="-4.86981">
        <ele>6</ele>
        <time>2021-04-06T12:54:09Z</time>
      </trkpt>
      <trkpt lat="55.79383" lon="-4.87073">
        <ele>5.44</ele>
        <time>2021-04-06T12:54:15Z</time>
      </trkpt>
      <trkpt lat="55.79287" lon="-4.87103">
        <ele>3.28</ele>
        <time>2021-04-06T12:54:21Z</time>
      </trkpt>
      <trkpt lat="55.79259" lon="-4.87106">
        <ele>3.2</ele>
        <time>2021-04-06T12:54:27Z</time>
      </trkpt>
      <trkpt lat="55.79242" lon="-4.87088">
        <ele>3.56</ele>
        <time>2021-04-06T12:54:33Z</time>
      </trkpt>
      <trkpt lat="55.79223" lon="-4.8705">
        <ele>4.27</ele>
        <time>2021-04-06T12:54:39Z</time>
      </trkpt>
      <trkpt lat="55.79197" lon="-4.86985">
        <ele>5.09</ele>
        <time>2021-04-06T12:54:45Z</time>
      </trkpt>
      <trkpt lat="55.79186" lon="-4.8697">
        <ele>5.05</ele>
        <time>2021-04-06T12:54:51Z</time>
      </trkpt>
      <trkpt lat="55.79088" lon="-4.86884">
        <ele>10</ele>
        <time>2021-04-06T12:54:57Z</time>
      </trkpt>
      <trkpt lat="55.79018" lon="-4.86817">
        <ele>7.68</ele>
        <time>2021-04-06T12:55:04Z</time>
      </trkpt>
      <trkpt lat="55.79014" lon="-4.86806">
        <ele>8.44</ele>
        <time>2021-04-06T12:55:10Z</time>
      </trkpt>
      <trkpt lat="55.79014" lon="-4.86798">
        <ele>9.41</ele>
        <time>2021-04-06T12:55:16Z</time>
      </trkpt>
      <trkpt lat="55.79016" lon="-4.86783">
        <ele>11.36</ele>
        <time>2021-04-06T12:55:22Z</time>
      </trkpt>
      <trkpt lat="55.79071" lon="-4.86565">
        <ele>14</ele>
        <time>2021-04-06T12:55:28Z</time>
      </trkpt>
      <trkpt lat="55.79132" lon="-4.86292">
        <ele>18.24</ele>
        <time>2021-04-06T12:55:34Z</time>
      </trkpt>
      <trkpt lat="55.79001" lon="-4.861">
        <ele>20.4</ele>
        <time>2021-04-06T12:55:44Z</time>
      </trkpt>
      <trkpt lat="55.78985" lon="-4.8608">
        <ele>21.13</ele>
        <time>2021-04-06T12:55:53Z</time>
      </trkpt>
      <trkpt lat="55.78945" lon="-4.86047">
        <ele>22.32</ele>
        <time>2021-04-06T12:56:03Z</time>
      </trkpt>
      <trkpt lat="55.78861" lon="-4.85991">
        <ele>23.98</ele>
        <time>2021-04-06T12:56:13Z</time>
      </trkpt>
      <trkpt lat="55.78784" lon="-4.85946">
        <ele>22.18</ele>
        <time>2021-04-06T12:56:23Z</time>
      </trkpt>
      <trkpt lat="55.78746" lon="-4.85926">
        <ele>22.36</ele>
        <time>2021-04-06T12:56:33Z</time>
      </trkpt>
      <trkpt lat="55.78619" lon="-4.85849">
        <ele>26.74</ele>
        <time>2021-04-06T12:56:43Z</time>
      </trkpt>
      <trkpt lat="55.78596" lon="-4.85844">
        <ele>28.8</ele>
        <time>2021-04-06T12:56:53Z</time>
      </trkpt>
      <trkpt lat="55.78527" lon="-4.85808">
        <ele>33.69</ele>
        <time>2021-04-06T12:56:57Z</time>
      </trkpt>
      <trkpt lat="55.78516" lon="-4.85788">
        <ele>35.01</ele>
        <time>2021-04-06T12:57:01Z</time>
      </trkpt>
      <trkpt lat="55.78501" lon="-4.85744">
        <ele>37.52</ele>
        <time>2021-04-06T12:57:05Z</time>
      </trkpt>
      <trkpt lat="55.78504" lon="-4.85774">
        <ele>35.56</ele>
        <time>2021-04-06T12:57:07Z</time>
      </trkpt>
      <trkpt lat="55.785" lon="-4.85801">
        <ele>32.48</ele>
        <time>2021-04-06T12:57:09Z</time>
      </trkpt>
      <trkpt lat="55.78186" lon="-4.85606">
        <ele>24.6</ele>
        <time>2021-04-06T12:57:18Z</time>
      </trkpt>
      <trkpt lat="55.78174" lon="-4.85601">
        <ele>23.86</ele>
        <time>2021-04-06T12:57:26Z</time>
      </trkpt>
      <trkpt lat="55.78104" lon="-4.85603">
        <ele>17.53</ele>
        <time>2021-04-06T12:57:35Z</time>
      </trkpt>
      <trkpt lat="55.78078" lon="-4.85601">
        <ele>14.99</ele>
        <time>2021-04-06T12:57:44Z</time>
      </trkpt>
      <trkpt lat="55.7807" lon="-4.85598">
        <ele>14.49</ele>
        <time>2021-04-06T12:57:52Z</time>
      </trkpt>
      <trkpt lat="55.78019" lon="-4.85565">
        <ele>12.82</ele>
        <time>2021-04-06T12:58:01Z</time>
      </trkpt>
      <trkpt lat="55.77833" lon="-4.85493">
        <ele>6.24</ele>
        <time>2021-04-06T12:58:09Z</time>
      </trkpt>
      <trkpt lat="55.77745" lon="-4.85448">
        <ele>5.7</ele>
        <time>2021-04-06T12:58:18Z</time>
      </trkpt>
      <trkpt lat="55.77662" lon="-4.85406">
        <ele>4.68</ele>
        <time>2021-04-06T12:58:27Z</time>
      </trkpt>
      <trkpt lat="55.77508" lon="-4.8532">
        <ele>7.85</ele>
        <time>2021-04-06T12:58:35Z</time>
      </trkpt>
      <trkpt lat="55.7748" lon="-4.85312">
        <ele>7.82</ele>
        <time>2021-04-06T12:58:44Z</time>
      </trkpt>
      <trkpt lat="55.77458" lon="-4.85312">
        <ele>6.75</ele>
        <time>2021-04-06T12:58:52Z</time>
      </trkpt>
      <trkpt lat="55.77382" lon="-4.85336">
        <ele>4.91</ele>
        <time>2021-04-06T12:59:01Z</time>
      </trkpt>
      <trkpt lat="55.77282" lon="-4.85372">
        <ele>4.47</ele>
        <time>2021-04-06T12:59:10Z</time>
      </trkpt>
      <trkpt lat="55.77172" lon="-4.85403">
        <ele>3.9</ele>
        <time>2021-04-06T12:59:18Z</time>
      </trkpt>
      <trkpt lat="55.77066" lon="-4.85418">
        <ele>6.94</ele>
        <time>2021-04-06T12:59:27Z</time>
      </trkpt>
      <trkpt lat="55.76968" lon="-4.85424">
        <ele>4.85</ele>
        <time>2021-04-06T12:59:35Z</time>
      </trkpt>
      <trkpt lat="55.76789" lon="-4.85414">
        <ele>5.76</ele>
        <time>2021-04-06T12:59:44Z</time>
      </trkpt>
      <trkpt lat="55.7676" lon="-4.85408">
        <ele>7.28</ele>
        <time>2021-04-06T12:59:53Z</time>
      </trkpt>
      <trkpt lat="55.7674" lon="-4.85409">
        <ele>7.57</ele>
        <time>2021-04-06T13:00:01Z</time>
      </trkpt>
      <trkpt lat="55.76703" lon="-4.85416">
        <ele>5.68</ele>
        <time>2021-04-06T13:00:10Z</time>
      </trkpt>
      <trkpt lat="55.7667" lon="-4.85429">
        <ele>5.45</ele>
        <time>2021-04-06T13:00:19Z</time>
      </trkpt>
      <trkpt lat="55.76633" lon="-4.85446">
        <ele>4.99</ele>
        <time>2021-04-06T13:00:27Z</time>
      </trkpt>
      <trkpt lat="55.76587" lon="-4.85454">
        <ele>4.65</ele>
        <time>2021-04-06T13:00:36Z</time>
      </trkpt>
      <trkpt lat="55.76485" lon="-4.85462">
        <ele>6.36</ele>
        <time>2021-04-06T13:00:44Z</time>
      </trkpt>
      <trkpt lat="55.76291" lon="-4.85459">
        <ele>4.27</ele>
        <time>2021-04-06T13:00:53Z</time>
      </trkpt>
      <trkpt lat="55.76196" lon="-4.85447">
        <ele>6.86</ele>
        <time>2021-04-06T13:01:02Z</time>
      </trkpt>
      <trkpt lat="55.76101" lon="-4.85414">
        <ele>13.92</ele>
        <time>2021-04-06T13:01:10Z</time>
      </trkpt>
      <trkpt lat="55.76015" lon="-4.85438">
        <ele>20.29</ele>
        <time>2021-04-06T13:01:19Z</time>
      </trkpt>
      <trkpt lat="55.7586" lon="-4.85406">
        <ele>15.16</ele>
        <time>2021-04-06T13:01:27Z</time>
      </trkpt>
      <trkpt lat="55.75824" lon="-4.85401">
        <ele>17.85</ele>
        <time>2021-04-06T13:01:36Z</time>
      </trkpt>
      <trkpt lat="55.75792" lon="-4.85405">
        <ele>17.27</ele>
        <time>2021-04-06T13:01:45Z</time>
      </trkpt>
      <trkpt lat="55.7577" lon="-4.85414">
        <ele>15.42</ele>
        <time>2021-04-06T13:01:53Z</time>
      </trkpt>
      <trkpt lat="55.75722" lon="-4.85445">
        <ele>11.93</ele>
        <time>2021-04-06T13:02:02Z</time>
      </trkpt>
      <trkpt lat="55.75707" lon="-4.8545">
        <ele>12.12</ele>
        <time>2021-04-06T13:02:10Z</time>
      </trkpt>
      <trkpt lat="55.7565" lon="-4.8545">
        <ele>14.09</ele>
        <time>2021-04-06T13:02:19Z</time>
      </trkpt>
      <trkpt lat="55.75577" lon="-4.85436">
        <ele>17.4</ele>
        <time>2021-04-06T13:02:28Z</time>
      </trkpt>
      <trkpt lat="55.75473" lon="-4.85436">
        <ele>18.18</ele>
        <time>2021-04-06T13:02:36Z</time>
      </trkpt>
      <trkpt lat="55.75446" lon="-4.85444">
        <ele>18.06</ele>
        <time>2021-04-06T13:02:45Z</time>
      </trkpt>
      <trkpt lat="55.75414" lon="-4.85458">
        <ele>16.87</ele>
        <time>2021-04-06T13:02:53Z</time>
      </trkpt>
      <trkpt lat="55.75305" lon="-4.85533">
        <ele>8.3</ele>
        <time>2021-04-06T13:03:02Z</time>
      </trkpt>
      <trkpt lat="55.75305" lon="-4.85533">
        <ele>8.3</ele>
        <time>2021-04-06T13:03:02Z</time>
      </trkpt>
      <trkpt lat="55.75235" lon="-4.85588">
        <ele>6.55</ele>
        <time>2021-04-06T13:03:08Z</time>
      </trkpt>
      <trkpt lat="55.75175" lon="-4.85629">
        <ele>7.36</ele>
        <time>2021-04-06T13:03:14Z</time>
      </trkpt>
      <trkpt lat="55.75094" lon="-4.8568">
        <ele>7.5</ele>
        <time>2021-04-06T13:03:21Z</time>
      </trkpt>
      <trkpt lat="55.75047" lon="-4.85705">
        <ele>5.3</ele>
        <time>2021-04-06T13:03:27Z</time>
      </trkpt>
      <trkpt lat="55.75009" lon="-4.85717">
        <ele>3.53</ele>
        <time>2021-04-06T13:03:33Z</time>
      </trkpt>
      <trkpt lat="55.7497" lon="-4.85711">
        <ele>4.08</ele>
        <time>2021-04-06T13:03:39Z</time>
      </trkpt>
      <trkpt lat="55.74907" lon="-4.85695">
        <ele>4.28</ele>
        <time>2021-04-06T13:03:46Z</time>
      </trkpt>
      <trkpt lat="55.7486" lon="-4.85688">
        <ele>4.26</ele>
        <time>2021-04-06T13:03:52Z</time>
      </trkpt>
      <trkpt lat="55.74831" lon="-4.85688">
        <ele>4.98</ele>
        <time>2021-04-06T13:03:58Z</time>
      </trkpt>
      <trkpt lat="55.74735" lon="-4.85698">
        <ele>4.49</ele>
        <time>2021-04-06T13:04:04Z</time>
      </trkpt>
      <trkpt lat="55.74686" lon="-4.85709">
        <ele>6.29</ele>
        <time>2021-04-06T13:04:10Z</time>
      </trkpt>
      <trkpt lat="55.7465" lon="-4.85721">
        <ele>7.62</ele>
        <time>2021-04-06T13:04:17Z</time>
      </trkpt>
      <trkpt lat="55.74586" lon="-4.85746">
        <ele>9.99</ele>
        <time>2021-04-06T13:04:23Z</time>
      </trkpt>
      <trkpt lat="55.74469" lon="-4.85811">
        <ele>9</ele>
        <time>2021-04-06T13:04:29Z</time>
      </trkpt>
      <trkpt lat="55.74439" lon="-4.85821">
        <ele>8.88</ele>
        <time>2021-04-06T13:04:35Z</time>
      </trkpt>
      <trkpt lat="55.7443" lon="-4.85819">
        <ele>8.74</ele>
        <time>2021-04-06T13:04:42Z</time>
      </trkpt>
      <trkpt lat="55.74419" lon="-4.85808">
        <ele>8.92</ele>
        <time>2021-04-06T13:04:48Z</time>
      </trkpt>
      <trkpt lat="55.74407" lon="-4.85793">
        <ele>8.77</ele>
        <time>2021-04-06T13:04:52Z</time>
      </trkpt>
      <trkpt lat="55.74398" lon="-4.85789">
        <ele>8.26</ele>
        <time>2021-04-06T13:04:55Z</time>
      </trkpt>
      <trkpt lat="55.74389" lon="-4.85791">
        <ele>7.55</ele>
        <time>2021-04-06T13:04:59Z</time>
      </trkpt>
      <trkpt lat="55.74381" lon="-4.85797">
        <ele>7.6</ele>
        <time>2021-04-06T13:05:03Z</time>
      </trkpt>
      <trkpt lat="55.74374" lon="-4.85808">
        <ele>7.47</ele>
        <time>2021-04-06T13:05:07Z</time>
      </trkpt>
      <trkpt lat="55.74361" lon="-4.85838">
        <ele>6.83</ele>
        <time>2021-04-06T13:05:11Z</time>
      </trkpt>
      <trkpt lat="55.74343" lon="-4.8586">
        <ele>6.66</ele>
        <time>2021-04-06T13:05:14Z</time>
      </trkpt>
      <trkpt lat="55.74185" lon="-4.85951">
        <ele>7.91</ele>
        <time>2021-04-06T13:05:18Z</time>
      </trkpt>
      <trkpt lat="55.74137" lon="-4.85986">
        <ele>7.45</ele>
        <time>2021-04-06T13:05:22Z</time>
      </trkpt>
      <trkpt lat="55.73937" lon="-4.861">
        <ele>8</ele>
        <time>2021-04-06T13:05:26Z</time>
      </trkpt>
      <trkpt lat="55.73905" lon="-4.86115">
        <ele>8.67</ele>
        <time>2021-04-06T13:05:29Z</time>
      </trkpt>
      <trkpt lat="55.73856" lon="-4.86134">
        <ele>10.61</ele>
        <time>2021-04-06T13:05:33Z</time>
      </trkpt>
      <trkpt lat="55.73815" lon="-4.86141">
        <ele>10.4</ele>
        <time>2021-04-06T13:05:37Z</time>
      </trkpt>
      <trkpt lat="55.73759" lon="-4.86145">
        <ele>11.68</ele>
        <time>2021-04-06T13:05:41Z</time>
      </trkpt>
      <trkpt lat="55.73625" lon="-4.86144">
        <ele>12.81</ele>
        <time>2021-04-06T13:05:45Z</time>
      </trkpt>
      <trkpt lat="55.73577" lon="-4.8615">
        <ele>14.23</ele>
        <time>2021-04-06T13:05:48Z</time>
      </trkpt>
      <trkpt lat="55.7352" lon="-4.8616">
        <ele>16.27</ele>
        <time>2021-04-06T13:05:52Z</time>
      </trkpt>
      <trkpt lat="55.73499" lon="-4.86169">
        <ele>16.82</ele>
        <time>2021-04-06T13:05:56Z</time>
      </trkpt>
      <trkpt lat="55.73424" lon="-4.86205">
        <ele>18</ele>
        <time>2021-04-06T13:06:00Z</time>
      </trkpt>
      <trkpt lat="55.73379" lon="-4.86235">
        <ele>17.54</ele>
        <time>2021-04-06T13:06:03Z</time>
      </trkpt>
      <trkpt lat="55.73149" lon="-4.86432">
        <ele>14.63</ele>
        <time>2021-04-06T13:06:07Z</time>
      </trkpt>
      <trkpt lat="55.72939" lon="-4.8653">
        <ele>16.38</ele>
        <time>2021-04-06T13:06:11Z</time>
      </trkpt>
      <trkpt lat="55.72894" lon="-4.86542">
        <ele>19.14</ele>
        <time>2021-04-06T13:06:15Z</time>
      </trkpt>
      <trkpt lat="55.72843" lon="-4.86562">
        <ele>18.85</ele>
        <time>2021-04-06T13:06:19Z</time>
      </trkpt>
      <trkpt lat="55.72824" lon="-4.86559">
        <ele>19.27</ele>
        <time>2021-04-06T13:06:22Z</time>
      </trkpt>
      <trkpt lat="55.72818" lon="-4.86548">
        <ele>20.57</ele>
        <time>2021-04-06T13:06:27Z</time>
      </trkpt>
      <trkpt lat="55.72812" lon="-4.8654">
        <ele>21.46</ele>
        <time>2021-04-06T13:06:32Z</time>
      </trkpt>
      <trkpt lat="55.72803" lon="-4.86535">
        <ele>21.78</ele>
        <time>2021-04-06T13:06:37Z</time>
      </trkpt>
      <trkpt lat="55.72794" lon="-4.86534">
        <ele>21.24</ele>
        <time>2021-04-06T13:06:42Z</time>
      </trkpt>
      <trkpt lat="55.72787" lon="-4.86537">
        <ele>20.32</ele>
        <time>2021-04-06T13:06:46Z</time>
      </trkpt>
      <trkpt lat="55.7278" lon="-4.86543">
        <ele>18.9</ele>
        <time>2021-04-06T13:06:51Z</time>
      </trkpt>
      <trkpt lat="55.7277" lon="-4.86562">
        <ele>15.7</ele>
        <time>2021-04-06T13:06:56Z</time>
      </trkpt>
      <trkpt lat="55.72753" lon="-4.86544">
        <ele>16.92</ele>
        <time>2021-04-06T13:07:01Z</time>
      </trkpt>
      <trkpt lat="55.72723" lon="-4.86521">
        <ele>16.13</ele>
        <time>2021-04-06T13:07:06Z</time>
      </trkpt>
      <trkpt lat="55.72614" lon="-4.86458">
        <ele>14.53</ele>
        <time>2021-04-06T13:07:11Z</time>
      </trkpt>
      <trkpt lat="55.72448" lon="-4.86351">
        <ele>15.96</ele>
        <time>2021-04-06T13:07:15Z</time>
      </trkpt>
      <trkpt lat="55.72372" lon="-4.86312">
        <ele>16.7</ele>
        <time>2021-04-06T13:07:20Z</time>
      </trkpt>
      <trkpt lat="55.72217" lon="-4.86264">
        <ele>16.36</ele>
        <time>2021-04-06T13:07:25Z</time>
      </trkpt>
      <trkpt lat="55.72107" lon="-4.86252">
        <ele>16</ele>
        <time>2021-04-06T13:07:30Z</time>
      </trkpt>
      <trkpt lat="55.72027" lon="-4.86253">
        <ele>17.67</ele>
        <time>2021-04-06T13:07:35Z</time>
      </trkpt>
      <trkpt lat="55.7191" lon="-4.86274">
        <ele>18.55</ele>
        <time>2021-04-06T13:07:40Z</time>
      </trkpt>
      <trkpt lat="55.718" lon="-4.86302">
        <ele>17.44</ele>
        <time>2021-04-06T13:07:44Z</time>
      </trkpt>
      <trkpt lat="55.71739" lon="-4.86321">
        <ele>17.45</ele>
        <time>2021-04-06T13:07:49Z</time>
      </trkpt>
      <trkpt lat="55.71655" lon="-4.86355">
        <ele>15.79</ele>
        <time>2021-04-06T13:07:54Z</time>
      </trkpt>
      <trkpt lat="55.71599" lon="-4.86385">
        <ele>14</ele>
        <time>2021-04-06T13:07:59Z</time>
      </trkpt>
      <trkpt lat="55.71259" lon="-4.866">
        <ele>11.32</ele>
        <time>2021-04-06T13:08:04Z</time>
      </trkpt>
      <trkpt lat="55.71018" lon="-4.86758">
        <ele>22.07</ele>
        <time>2021-04-06T13:08:08Z</time>
      </trkpt>
      <trkpt lat="55.70933" lon="-4.86809">
        <ele>25.6</ele>
        <time>2021-04-06T13:08:13Z</time>
      </trkpt>
      <trkpt lat="55.70922" lon="-4.86762">
        <ele>25.64</ele>
        <time>2021-04-06T13:08:15Z</time>
      </trkpt>
      <trkpt lat="55.70952" lon="-4.86732">
        <ele>25.35</ele>
        <time>2021-04-06T13:08:23Z</time>
      </trkpt>
      <trkpt lat="55.70977" lon="-4.86748">
        <ele>24.5</ele>
        <time>2021-04-06T13:08:29Z</time>
      </trkpt>
      <trkpt lat="55.70977" lon="-4.86748">
        <ele>24.5</ele>
        <time>2021-04-06T13:08:29Z</time>
      </trkpt>
      <trkpt lat="55.70952" lon="-4.86732">
        <ele>25.35</ele>
        <time>2021-04-06T13:08:35Z</time>
      </trkpt>
      <trkpt lat="55.70922" lon="-4.86762">
        <ele>25.64</ele>
        <time>2021-04-06T13:08:43Z</time>
      </trkpt>
      <trkpt lat="55.70933" lon="-4.86809">
        <ele>25.6</ele>
        <time>2021-04-06T13:08:45Z</time>
      </trkpt>
      <trkpt lat="55.70744" lon="-4.8693">
        <ele>22.73</ele>
        <time>2021-04-06T13:08:55Z</time>
      </trkpt>
      <trkpt lat="55.70693" lon="-4.86946">
        <ele>23.96</ele>
        <time>2021-04-06T13:09:05Z</time>
      </trkpt>
      <trkpt lat="55.70675" lon="-4.86946">
        <ele>23.93</ele>
        <time>2021-04-06T13:09:16Z</time>
      </trkpt>
      <trkpt lat="55.70592" lon="-4.86934">
        <ele>23.37</ele>
        <time>2021-04-06T13:09:26Z</time>
      </trkpt>
      <trkpt lat="55.70246" lon="-4.86899">
        <ele>30.62</ele>
        <time>2021-04-06T13:09:37Z</time>
      </trkpt>
      <trkpt lat="55.69789" lon="-4.86848">
        <ele>32.92</ele>
        <time>2021-04-06T13:09:47Z</time>
      </trkpt>
      <trkpt lat="55.69789" lon="-4.86848">
        <ele>32.92</ele>
        <time>2021-04-06T13:09:47Z</time>
      </trkpt>
      <trkpt lat="55.69534" lon="-4.86819">
        <ele>32.78</ele>
        <time>2021-04-06T13:10:10Z</time>
      </trkpt>
      <trkpt lat="55.69419" lon="-4.86744">
        <ele>33.85</ele>
        <time>2021-04-06T13:10:33Z</time>
      </trkpt>
      <trkpt lat="55.69215" lon="-4.8661">
        <ele>34.53</ele>
        <time>2021-04-06T13:10:55Z</time>
      </trkpt>
      <trkpt lat="55.6895" lon="-4.8643">
        <ele>30.72</ele>
        <time>2021-04-06T13:11:18Z</time>
      </trkpt>
      <trkpt lat="55.68767" lon="-4.86339">
        <ele>20.84</ele>
        <time>2021-04-06T13:11:41Z</time>
      </trkpt>
      <trkpt lat="55.68767" lon="-4.86339">
        <ele>20.84</ele>
        <time>2021-04-06T13:11:41Z</time>
      </trkpt>
      <trkpt lat="55.68619" lon="-4.86266">
        <ele>13.23</ele>
        <time>2021-04-06T13:11:53Z</time>
      </trkpt>
      <trkpt lat="55.68449" lon="-4.86106">
        <ele>11.16</ele>
        <time>2021-04-06T13:12:05Z</time>
      </trkpt>
      <trkpt lat="55.68444" lon="-4.86102">
        <ele>11.65</ele>
        <time>2021-04-06T13:12:17Z</time>
      </trkpt>
      <trkpt lat="55.68406" lon="-4.86065">
        <ele>13.1</ele>
        <time>2021-04-06T13:12:28Z</time>
      </trkpt>
      <trkpt lat="55.68112" lon="-4.8579">
        <ele>7.61</ele>
        <time>2021-04-06T13:12:40Z</time>
      </trkpt>
      <trkpt lat="55.67996" lon="-4.85689">
        <ele>9.05</ele>
        <time>2021-04-06T13:12:52Z</time>
      </trkpt>
      <trkpt lat="55.67865" lon="-4.85579">
        <ele>7.02</ele>
        <time>2021-04-06T13:13:04Z</time>
      </trkpt>
      <trkpt lat="55.67777" lon="-4.85494">
        <ele>7.98</ele>
        <time>2021-04-06T13:13:16Z</time>
      </trkpt>
      <trkpt lat="55.67593" lon="-4.85298">
        <ele>4.1</ele>
        <time>2021-04-06T13:13:28Z</time>
      </trkpt>
      <trkpt lat="55.67319" lon="-4.84957">
        <ele>4.02</ele>
        <time>2021-04-06T13:13:40Z</time>
      </trkpt>
      <trkpt lat="55.66911" lon="-4.84416">
        <ele>4.82</ele>
        <time>2021-04-06T13:13:52Z</time>
      </trkpt>
      <trkpt lat="55.66857" lon="-4.84307">
        <ele>3</ele>
        <time>2021-04-06T13:14:04Z</time>
      </trkpt>
      <trkpt lat="55.66816" lon="-4.84211">
        <ele>3.54</ele>
        <time>2021-04-06T13:14:16Z</time>
      </trkpt>
      <trkpt lat="55.66792" lon="-4.84166">
        <ele>3.52</ele>
        <time>2021-04-06T13:14:28Z</time>
      </trkpt>
      <trkpt lat="55.66753" lon="-4.84121">
        <ele>2.82</ele>
        <time>2021-04-06T13:14:40Z</time>
      </trkpt>
      <trkpt lat="55.66685" lon="-4.84054">
        <ele>2.65</ele>
        <time>2021-04-06T13:14:52Z</time>
      </trkpt>
      <trkpt lat="55.6661" lon="-4.83912">
        <ele>3.96</ele>
        <time>2021-04-06T13:15:04Z</time>
      </trkpt>
      <trkpt lat="55.66496" lon="-4.83713">
        <ele>4.87</ele>
        <time>2021-04-06T13:15:15Z</time>
      </trkpt>
      <trkpt lat="55.66296" lon="-4.83402">
        <ele>6</ele>
        <time>2021-04-06T13:15:27Z</time>
      </trkpt>
      <trkpt lat="55.66197" lon="-4.83256">
        <ele>4</ele>
        <time>2021-04-06T13:15:39Z</time>
      </trkpt>
      <trkpt lat="55.66121" lon="-4.83178">
        <ele>3.94</ele>
        <time>2021-04-06T13:15:51Z</time>
      </trkpt>
      <trkpt lat="55.66108" lon="-4.83167">
        <ele>3.88</ele>
        <time>2021-04-06T13:16:03Z</time>
      </trkpt>
      <trkpt lat="55.66114" lon="-4.83129">
        <ele>4.47</ele>
        <time>2021-04-06T13:16:08Z</time>
      </trkpt>
      <trkpt lat="55.66112" lon="-4.83128">
        <ele>4.67</ele>
        <time>2021-04-06T13:16:09Z</time>
      </trkpt>
      <trkpt lat="55.66112" lon="-4.83128">
        <ele>4.67</ele>
        <time>2021-04-06T13:16:09Z</time>
      </trkpt>
      <trkpt lat="55.66082" lon="-4.83115">
        <ele>4.87</ele>
        <time>2021-04-06T13:16:16Z</time>
      </trkpt>
      <trkpt lat="55.66075" lon="-4.83139">
        <ele>4</ele>
        <time>2021-04-06T13:16:19Z</time>
      </trkpt>
      <trkpt lat="55.66057" lon="-4.83124">
        <ele>4.55</ele>
        <time>2021-04-06T13:16:23Z</time>
      </trkpt>
      <trkpt lat="55.65848" lon="-4.82998">
        <ele>3</ele>
        <time>2021-04-06T13:16:26Z</time>
      </trkpt>
      <trkpt lat="55.65795" lon="-4.82957">
        <ele>3.51</ele>
        <time>2021-04-06T13:16:29Z</time>
      </trkpt>
      <trkpt lat="55.65748" lon="-4.8291">
        <ele>3.98</ele>
        <time>2021-04-06T13:16:32Z</time>
      </trkpt>
      <trkpt lat="55.65703" lon="-4.82852">
        <ele>2.63</ele>
        <time>2021-04-06T13:16:35Z</time>
      </trkpt>
      <trkpt lat="55.65655" lon="-4.82783">
        <ele>4.26</ele>
        <time>2021-04-06T13:16:38Z</time>
      </trkpt>
      <trkpt lat="55.65591" lon="-4.82681">
        <ele>5.28</ele>
        <time>2021-04-06T13:16:41Z</time>
      </trkpt>
      <trkpt lat="55.65564" lon="-4.82635">
        <ele>4.21</ele>
        <time>2021-04-06T13:16:45Z</time>
      </trkpt>
      <trkpt lat="55.65557" lon="-4.82619">
        <ele>3.35</ele>
        <time>2021-04-06T13:16:48Z</time>
      </trkpt>
      <trkpt lat="55.65539" lon="-4.82566">
        <ele>4.62</ele>
        <time>2021-04-06T13:16:51Z</time>
      </trkpt>
      <trkpt lat="55.65538" lon="-4.82538">
        <ele>5.62</ele>
        <time>2021-04-06T13:16:54Z</time>
      </trkpt>
      <trkpt lat="55.6554" lon="-4.82522">
        <ele>6.22</ele>
        <time>2021-04-06T13:16:57Z</time>
      </trkpt>
      <trkpt lat="55.65544" lon="-4.8251">
        <ele>6.66</ele>
        <time>2021-04-06T13:17:01Z</time>
      </trkpt>
      <trkpt lat="55.65545" lon="-4.82497">
        <ele>7.07</ele>
        <time>2021-04-06T13:17:04Z</time>
      </trkpt>
      <trkpt lat="55.65556" lon="-4.82435">
        <ele>9.01</ele>
        <time>2021-04-06T13:17:08Z</time>
      </trkpt>
      <trkpt lat="55.656" lon="-4.82329">
        <ele>18.25</ele>
        <time>2021-04-06T13:17:11Z</time>
      </trkpt>
      <trkpt lat="55.65849" lon="-4.81779">
        <ele>32</ele>
        <time>2021-04-06T13:17:15Z</time>
      </trkpt>
      <trkpt lat="55.65938" lon="-4.81575">
        <ele>34.69</ele>
        <time>2021-04-06T13:17:19Z</time>
      </trkpt>
      <trkpt lat="55.65961" lon="-4.81517">
        <ele>37.57</ele>
        <time>2021-04-06T13:17:22Z</time>
      </trkpt>
      <trkpt lat="55.65998" lon="-4.81405">
        <ele>40.35</ele>
        <time>2021-04-06T13:17:26Z</time>
      </trkpt>
      <trkpt lat="55.66021" lon="-4.8133">
        <ele>42.87</ele>
        <time>2021-04-06T13:17:29Z</time>
      </trkpt>
      <trkpt lat="55.66046" lon="-4.81234">
        <ele>46.2</ele>
        <time>2021-04-06T13:17:33Z</time>
      </trkpt>
      <trkpt lat="55.66068" lon="-4.81133">
        <ele>47.26</ele>
        <time>2021-04-06T13:17:36Z</time>
      </trkpt>
      <trkpt lat="55.66084" lon="-4.81057">
        <ele>47.99</ele>
        <time>2021-04-06T13:17:40Z</time>
      </trkpt>
      <trkpt lat="55.66092" lon="-4.81005">
        <ele>49.43</ele>
        <time>2021-04-06T13:17:44Z</time>
      </trkpt>
      <trkpt lat="55.66098" lon="-4.80951">
        <ele>50.85</ele>
        <time>2021-04-06T13:17:47Z</time>
      </trkpt>
      <trkpt lat="55.66106" lon="-4.80898">
        <ele>51.07</ele>
        <time>2021-04-06T13:17:51Z</time>
      </trkpt>
      <trkpt lat="55.66111" lon="-4.80878">
        <ele>51</ele>
        <time>2021-04-06T13:17:54Z</time>
      </trkpt>
      <trkpt lat="55.66117" lon="-4.80869">
        <ele>51.2</ele>
        <time>2021-04-06T13:17:58Z</time>
      </trkpt>
      <trkpt lat="55.66124" lon="-4.80862">
        <ele>51.45</ele>
        <time>2021-04-06T13:18:01Z</time>
      </trkpt>
      <trkpt lat="55.66131" lon="-4.80854">
        <ele>51.62</ele>
        <time>2021-04-06T13:18:06Z</time>
      </trkpt>
      <trkpt lat="55.66137" lon="-4.80836">
        <ele>51.84</ele>
        <time>2021-04-06T13:18:10Z</time>
      </trkpt>
      <trkpt lat="55.66137" lon="-4.80822">
        <ele>51.92</ele>
        <time>2021-04-06T13:18:14Z</time>
      </trkpt>
      <trkpt lat="55.66136" lon="-4.8081">
        <ele>51.88</ele>
        <time>2021-04-06T13:18:19Z</time>
      </trkpt>
      <trkpt lat="55.66132" lon="-4.80798">
        <ele>52.03</ele>
        <time>2021-04-06T13:18:23Z</time>
      </trkpt>
      <trkpt lat="55.66126" lon="-4.80788">
        <ele>52.14</ele>
        <time>2021-04-06T13:18:28Z</time>
      </trkpt>
      <trkpt lat="55.66119" lon="-4.80756">
        <ele>53.05</ele>
        <time>2021-04-06T13:18:32Z</time>
      </trkpt>
      <trkpt lat="55.66083" lon="-4.80518">
        <ele>51.66</ele>
        <time>2021-04-06T13:18:36Z</time>
      </trkpt>
      <trkpt lat="55.66058" lon="-4.80369">
        <ele>48.85</ele>
        <time>2021-04-06T13:18:41Z</time>
      </trkpt>
      <trkpt lat="55.66026" lon="-4.80205">
        <ele>57.9</ele>
        <time>2021-04-06T13:18:45Z</time>
      </trkpt>
      <trkpt lat="55.66011" lon="-4.80134">
        <ele>55.98</ele>
        <time>2021-04-06T13:18:49Z</time>
      </trkpt>
      <trkpt lat="55.65963" lon="-4.7994">
        <ele>49.4</ele>
        <time>2021-04-06T13:18:54Z</time>
      </trkpt>
      <trkpt lat="55.65848" lon="-4.79534">
        <ele>38.53</ele>
        <time>2021-04-06T13:18:58Z</time>
      </trkpt>
      <trkpt lat="55.65798" lon="-4.79339">
        <ele>39.53</ele>
        <time>2021-04-06T13:19:02Z</time>
      </trkpt>
      <trkpt lat="55.65735" lon="-4.79067">
        <ele>44.04</ele>
        <time>2021-04-06T13:19:07Z</time>
      </trkpt>
      <trkpt lat="55.65687" lon="-4.7884">
        <ele>48.49</ele>
        <time>2021-04-06T13:19:11Z</time>
      </trkpt>
      <trkpt lat="55.65625" lon="-4.78498">
        <ele>54.04</ele>
        <time>2021-04-06T13:19:15Z</time>
      </trkpt>
      <trkpt lat="55.65603" lon="-4.78358">
        <ele>59.22</ele>
        <time>2021-04-06T13:19:20Z</time>
      </trkpt>
      <trkpt lat="55.65551" lon="-4.77983">
        <ele>74.84</ele>
        <time>2021-04-06T13:19:24Z</time>
      </trkpt>
      <trkpt lat="55.65538" lon="-4.77871">
        <ele>78.03</ele>
        <time>2021-04-06T13:19:28Z</time>
      </trkpt>
      <trkpt lat="55.65514" lon="-4.77633">
        <ele>84.4</ele>
        <time>2021-04-06T13:19:33Z</time>
      </trkpt>
      <trkpt lat="55.65494" lon="-4.77404">
        <ele>83.46</ele>
        <time>2021-04-06T13:19:37Z</time>
      </trkpt>
      <trkpt lat="55.65496" lon="-4.77388">
        <ele>82.81</ele>
        <time>2021-04-06T13:19:41Z</time>
      </trkpt>
      <trkpt lat="55.65503" lon="-4.77372">
        <ele>82.64</ele>
        <time>2021-04-06T13:19:46Z</time>
      </trkpt>
      <trkpt lat="55.6551" lon="-4.77361">
        <ele>83.04</ele>
        <time>2021-04-06T13:19:50Z</time>
      </trkpt>
      <trkpt lat="55.65514" lon="-4.77348">
        <ele>83.03</ele>
        <time>2021-04-06T13:19:53Z</time>
      </trkpt>
      <trkpt lat="55.65516" lon="-4.77333">
        <ele>82.68</ele>
        <time>2021-04-06T13:19:57Z</time>
      </trkpt>
      <trkpt lat="55.65515" lon="-4.77318">
        <ele>82.27</ele>
        <time>2021-04-06T13:20:01Z</time>
      </trkpt>
      <trkpt lat="55.65511" lon="-4.77305">
        <ele>81.76</ele>
        <time>2021-04-06T13:20:05Z</time>
      </trkpt>
      <trkpt lat="55.65497" lon="-4.77273">
        <ele>79.79</ele>
        <time>2021-04-06T13:20:09Z</time>
      </trkpt>
      <trkpt lat="55.65494" lon="-4.7726">
        <ele>79.54</ele>
        <time>2021-04-06T13:20:13Z</time>
      </trkpt>
      <trkpt lat="55.6549" lon="-4.77231">
        <ele>79.25</ele>
        <time>2021-04-06T13:20:17Z</time>
      </trkpt>
      <trkpt lat="55.65484" lon="-4.77169">
        <ele>77.93</ele>
        <time>2021-04-06T13:20:21Z</time>
      </trkpt>
      <trkpt lat="55.65474" lon="-4.76991">
        <ele>73.67</ele>
        <time>2021-04-06T13:20:25Z</time>
      </trkpt>
      <trkpt lat="55.65471" lon="-4.76862">
        <ele>70.89</ele>
        <time>2021-04-06T13:20:29Z</time>
      </trkpt>
      <trkpt lat="55.65468" lon="-4.76611">
        <ele>70.83</ele>
        <time>2021-04-06T13:20:33Z</time>
      </trkpt>
      <trkpt lat="55.65476" lon="-4.76266">
        <ele>58</ele>
        <time>2021-04-06T13:20:37Z</time>
      </trkpt>
      <trkpt lat="55.65478" lon="-4.75984">
        <ele>49.63</ele>
        <time>2021-04-06T13:20:41Z</time>
      </trkpt>
      <trkpt lat="55.65463" lon="-4.75657">
        <ele>37.92</ele>
        <time>2021-04-06T13:20:45Z</time>
      </trkpt>
      <trkpt lat="55.654" lon="-4.75121">
        <ele>35.39</ele>
        <time>2021-04-06T13:20:48Z</time>
      </trkpt>
      <trkpt lat="55.65348" lon="-4.74868">
        <ele>43.51</ele>
        <time>2021-04-06T13:20:52Z</time>
      </trkpt>
      <trkpt lat="55.65329" lon="-4.74783">
        <ele>43.01</ele>
        <time>2021-04-06T13:20:56Z</time>
      </trkpt>
      <trkpt lat="55.65302" lon="-4.74672">
        <ele>41.07</ele>
        <time>2021-04-06T13:21:00Z</time>
      </trkpt>
      <trkpt lat="55.65244" lon="-4.74473">
        <ele>38.43</ele>
        <time>2021-04-06T13:21:04Z</time>
      </trkpt>
      <trkpt lat="55.65244" lon="-4.74473">
        <ele>38.43</ele>
        <time>2021-04-06T13:21:04Z</time>
      </trkpt>
      <trkpt lat="55.65208" lon="-4.74364">
        <ele>38.49</ele>
        <time>2021-04-06T13:21:11Z</time>
      </trkpt>
      <trkpt lat="55.65178" lon="-4.7428">
        <ele>38.95</ele>
        <time>2021-04-06T13:21:18Z</time>
      </trkpt>
      <trkpt lat="55.65115" lon="-4.74126">
        <ele>41.66</ele>
        <time>2021-04-06T13:21:24Z</time>
      </trkpt>
      <trkpt lat="55.64981" lon="-4.73829">
        <ele>33.83</ele>
        <time>2021-04-06T13:21:31Z</time>
      </trkpt>
      <trkpt lat="55.64792" lon="-4.73434">
        <ele>27.53</ele>
        <time>2021-04-06T13:21:38Z</time>
      </trkpt>
      <trkpt lat="55.6472" lon="-4.73294">
        <ele>22.54</ele>
        <time>2021-04-06T13:21:44Z</time>
      </trkpt>
      <trkpt lat="55.64714" lon="-4.73269">
        <ele>22</ele>
        <time>2021-04-06T13:21:51Z</time>
      </trkpt>
      <trkpt lat="55.64719" lon="-4.73247">
        <ele>22</ele>
        <time>2021-04-06T13:21:58Z</time>
      </trkpt>
      <trkpt lat="55.64719" lon="-4.73226">
        <ele>22</ele>
        <time>2021-04-06T13:22:04Z</time>
      </trkpt>
      <trkpt lat="55.64715" lon="-4.7321">
        <ele>22</ele>
        <time>2021-04-06T13:22:11Z</time>
      </trkpt>
      <trkpt lat="55.64709" lon="-4.73197">
        <ele>22</ele>
        <time>2021-04-06T13:22:18Z</time>
      </trkpt>
      <trkpt lat="55.64701" lon="-4.73186">
        <ele>22.29</ele>
        <time>2021-04-06T13:22:25Z</time>
      </trkpt>
      <trkpt lat="55.64684" lon="-4.73174">
        <ele>22.09</ele>
        <time>2021-04-06T13:22:32Z</time>
      </trkpt>
      <trkpt lat="55.64668" lon="-4.7315">
        <ele>21.09</ele>
        <time>2021-04-06T13:22:38Z</time>
      </trkpt>
      <trkpt lat="55.64627" lon="-4.73031">
        <ele>17.56</ele>
        <time>2021-04-06T13:22:45Z</time>
      </trkpt>
      <trkpt lat="55.64581" lon="-4.72883">
        <ele>18</ele>
        <time>2021-04-06T13:22:52Z</time>
      </trkpt>
      <trkpt lat="55.64543" lon="-4.72736">
        <ele>17.81</ele>
        <time>2021-04-06T13:22:59Z</time>
      </trkpt>
      <trkpt lat="55.6451" lon="-4.72575">
        <ele>17.69</ele>
        <time>2021-04-06T13:23:06Z</time>
      </trkpt>
      <trkpt lat="55.64483" lon="-4.72406">
        <ele>16.64</ele>
        <time>2021-04-06T13:23:12Z</time>
      </trkpt>
      <trkpt lat="55.64371" lon="-4.71515">
        <ele>10.19</ele>
        <time>2021-04-06T13:23:19Z</time>
      </trkpt>
      <trkpt lat="55.64284" lon="-4.70787">
        <ele>5.32</ele>
        <time>2021-04-06T13:23:26Z</time>
      </trkpt>
      <trkpt lat="55.6427" lon="-4.70592">
        <ele>3</ele>
        <time>2021-04-06T13:23:33Z</time>
      </trkpt>
      <trkpt lat="55.64238" lon="-4.6985">
        <ele>4.57</ele>
        <time>2021-04-06T13:23:40Z</time>
      </trkpt>
      <trkpt lat="55.64226" lon="-4.69668">
        <ele>5.1</ele>
        <time>2021-04-06T13:23:46Z</time>
      </trkpt>
      <trkpt lat="55.64188" lon="-4.69375">
        <ele>5.94</ele>
        <time>2021-04-06T13:23:53Z</time>
      </trkpt>
      <trkpt lat="55.64186" lon="-4.69316">
        <ele>7.12</ele>
        <time>2021-04-06T13:23:55Z</time>
      </trkpt>
      <trkpt lat="55.64188" lon="-4.69303">
        <ele>7.42</ele>
        <time>2021-04-06T13:23:56Z</time>
      </trkpt>
      <trkpt lat="55.64192" lon="-4.69297">
        <ele>7.99</ele>
        <time>2021-04-06T13:23:58Z</time>
      </trkpt>
      <trkpt lat="55.64204" lon="-4.69288">
        <ele>8.99</ele>
        <time>2021-04-06T13:23:59Z</time>
      </trkpt>
      <trkpt lat="55.6419" lon="-4.69287">
        <ele>8.21</ele>
        <time>2021-04-06T13:24:04Z</time>
      </trkpt>
      <trkpt lat="55.64185" lon="-4.69284">
        <ele>7.78</ele>
        <time>2021-04-06T13:24:09Z</time>
      </trkpt>
      <trkpt lat="55.6418" lon="-4.69274">
        <ele>7.52</ele>
        <time>2021-04-06T13:24:14Z</time>
      </trkpt>
      <trkpt lat="55.6417" lon="-4.69234">
        <ele>8.27</ele>
        <time>2021-04-06T13:24:19Z</time>
      </trkpt>
      <trkpt lat="55.6409" lon="-4.68687">
        <ele>5.82</ele>
        <time>2021-04-06T13:24:24Z</time>
      </trkpt>
      <trkpt lat="55.64067" lon="-4.68497">
        <ele>6.4</ele>
        <time>2021-04-06T13:24:29Z</time>
      </trkpt>
      <trkpt lat="55.64062" lon="-4.68419">
        <ele>7.94</ele>
        <time>2021-04-06T13:24:34Z</time>
      </trkpt>
      <trkpt lat="55.64066" lon="-4.68296">
        <ele>10.34</ele>
        <time>2021-04-06T13:24:37Z</time>
      </trkpt>
      <trkpt lat="55.64077" lon="-4.68148">
        <ele>10</ele>
        <time>2021-04-06T13:24:40Z</time>
      </trkpt>
      <trkpt lat="55.6409" lon="-4.67996">
        <ele>11</ele>
        <time>2021-04-06T13:24:44Z</time>
      </trkpt>
      <trkpt lat="55.64095" lon="-4.67963">
        <ele>11.13</ele>
        <time>2021-04-06T13:24:47Z</time>
      </trkpt>
      <trkpt lat="55.64101" lon="-4.67937">
        <ele>11.62</ele>
        <time>2021-04-06T13:24:50Z</time>
      </trkpt>
      <trkpt lat="55.64111" lon="-4.67927">
        <ele>11.99</ele>
        <time>2021-04-06T13:24:52Z</time>
      </trkpt>
      <trkpt lat="55.64124" lon="-4.67918">
        <ele>12</ele>
        <time>2021-04-06T13:24:54Z</time>
      </trkpt>
      <trkpt lat="55.64148" lon="-4.6791">
        <ele>12</ele>
        <time>2021-04-06T13:24:55Z</time>
      </trkpt>
      <trkpt lat="55.64139" lon="-4.6787">
        <ele>12.68</ele>
        <time>2021-04-06T13:24:57Z</time>
      </trkpt>
      <trkpt lat="55.64138" lon="-4.67843">
        <ele>13.63</ele>
        <time>2021-04-06T13:24:59Z</time>
      </trkpt>
      <trkpt lat="55.64137" lon="-4.67802">
        <ele>14.07</ele>
        <time>2021-04-06T13:25:02Z</time>
      </trkpt>
      <trkpt lat="55.64134" lon="-4.67771">
        <ele>14.8</ele>
        <time>2021-04-06T13:25:04Z</time>
      </trkpt>
      <trkpt lat="55.64128" lon="-4.67744">
        <ele>14.47</ele>
        <time>2021-04-06T13:25:07Z</time>
      </trkpt>
      <trkpt lat="55.64117" lon="-4.67713">
        <ele>13.68</ele>
        <time>2021-04-06T13:25:09Z</time>
      </trkpt>
      <trkpt lat="55.641" lon="-4.67694">
        <ele>12.59</ele>
        <time>2021-04-06T13:25:12Z</time>
      </trkpt>
      <trkpt lat="55.64087" lon="-4.67685">
        <ele>12.19</ele>
        <time>2021-04-06T13:25:15Z</time>
      </trkpt>
      <trkpt lat="55.64066" lon="-4.67684">
        <ele>11.72</ele>
        <time>2021-04-06T13:25:17Z</time>
      </trkpt>
      <trkpt lat="55.64055" lon="-4.6769">
        <ele>11.43</ele>
        <time>2021-04-06T13:25:20Z</time>
      </trkpt>
      <trkpt lat="55.64044" lon="-4.67702">
        <ele>11</ele>
        <time>2021-04-06T13:25:22Z</time>
      </trkpt>
      <trkpt lat="55.64024" lon="-4.67741">
        <ele>10.96</ele>
        <time>2021-04-06T13:25:25Z</time>
      </trkpt>
      <trkpt lat="55.64007" lon="-4.67787">
        <ele>11</ele>
        <time>2021-04-06T13:25:27Z</time>
      </trkpt>
      <trkpt lat="55.63994" lon="-4.67812">
        <ele>10.78</ele>
        <time>2021-04-06T13:25:30Z</time>
      </trkpt>
      <trkpt lat="55.63978" lon="-4.67836">
        <ele>10.11</ele>
        <time>2021-04-06T13:25:32Z</time>
      </trkpt>
      <trkpt lat="55.6396" lon="-4.67851">
        <ele>9.37</ele>
        <time>2021-04-06T13:25:35Z</time>
      </trkpt>
      <trkpt lat="55.63843" lon="-4.67965">
        <ele>12</ele>
        <time>2021-04-06T13:25:37Z</time>
      </trkpt>
      <trkpt lat="55.63803" lon="-4.67992">
        <ele>10.9</ele>
        <time>2021-04-06T13:25:40Z</time>
      </trkpt>
      <trkpt lat="55.63799" lon="-4.67978">
        <ele>10.76</ele>
        <time>2021-04-06T13:25:56Z</time>
      </trkpt>
      <trkpt lat="55.63792" lon="-4.67966">
        <ele>10.72</ele>
        <time>2021-04-06T13:26:13Z</time>
      </trkpt>
      <trkpt lat="55.63784" lon="-4.6796">
        <ele>10.65</ele>
        <time>2021-04-06T13:26:29Z</time>
      </trkpt>
      <trkpt lat="55.63772" lon="-4.6796">
        <ele>10.35</ele>
        <time>2021-04-06T13:26:46Z</time>
      </trkpt>
      <trkpt lat="55.63764" lon="-4.67966">
        <ele>10.1</ele>
        <time>2021-04-06T13:27:02Z</time>
      </trkpt>
      <trkpt lat="55.63757" lon="-4.67977">
        <ele>10</ele>
        <time>2021-04-06T13:27:19Z</time>
      </trkpt>
      <trkpt lat="55.63752" lon="-4.67996">
        <ele>10</ele>
        <time>2021-04-06T13:27:35Z</time>
      </trkpt>
      <trkpt lat="55.63708" lon="-4.68005">
        <ele>9</ele>
        <time>2021-04-06T13:27:52Z</time>
      </trkpt>
      <trkpt lat="55.63684" lon="-4.68003">
        <ele>9</ele>
        <time>2021-04-06T13:28:08Z</time>
      </trkpt>
      <trkpt lat="55.63148" lon="-4.676">
        <ele>13</ele>
        <time>2021-04-06T13:28:25Z</time>
      </trkpt>
      <trkpt lat="55.62896" lon="-4.67475">
        <ele>11</ele>
        <time>2021-04-06T13:28:41Z</time>
      </trkpt>
      <trkpt lat="55.62355" lon="-4.67225">
        <ele>11.98</ele>
        <time>2021-04-06T13:28:58Z</time>
      </trkpt>
      <trkpt lat="55.6227" lon="-4.6718">
        <ele>12.28</ele>
        <time>2021-04-06T13:29:14Z</time>
      </trkpt>
      <trkpt lat="55.6227" lon="-4.6718">
        <ele>12.28</ele>
        <time>2021-04-06T13:29:14Z</time>
      </trkpt>
      <trkpt lat="55.62066" lon="-4.67068">
        <ele>12.84</ele>
        <time>2021-04-06T13:29:39Z</time>
      </trkpt>
      <trkpt lat="55.61911" lon="-4.66979">
        <ele>13</ele>
        <time>2021-04-06T13:30:04Z</time>
      </trkpt>
      <trkpt lat="55.61904" lon="-4.67055">
        <ele>13.47</ele>
        <time>2021-04-06T13:30:08Z</time>
      </trkpt>
      <trkpt lat="55.6187" lon="-4.67387">
        <ele>5.23</ele>
        <time>2021-04-06T13:30:13Z</time>
      </trkpt>
      <trkpt lat="55.6186" lon="-4.67465">
        <ele>6.06</ele>
        <time>2021-04-06T13:30:18Z</time>
      </trkpt>
      <trkpt lat="55.61857" lon="-4.6748">
        <ele>6.22</ele>
        <time>2021-04-06T13:30:22Z</time>
      </trkpt>
      <trkpt lat="55.61829" lon="-4.67554">
        <ele>5.83</ele>
        <time>2021-04-06T13:30:27Z</time>
      </trkpt>
      <trkpt lat="55.6181" lon="-4.67592">
        <ele>5</ele>
        <time>2021-04-06T13:30:32Z</time>
      </trkpt>
      <trkpt lat="55.61786" lon="-4.67621">
        <ele>4.64</ele>
        <time>2021-04-06T13:30:36Z</time>
      </trkpt>
      <trkpt lat="55.6176" lon="-4.67642">
        <ele>4.63</ele>
        <time>2021-04-06T13:30:41Z</time>
      </trkpt>
      <trkpt lat="55.61734" lon="-4.67654">
        <ele>5</ele>
        <time>2021-04-06T13:30:45Z</time>
      </trkpt>
      <trkpt lat="55.61701" lon="-4.67659">
        <ele>4.25</ele>
        <time>2021-04-06T13:30:50Z</time>
      </trkpt>
      <trkpt lat="55.61672" lon="-4.67652">
        <ele>4.79</ele>
        <time>2021-04-06T13:30:55Z</time>
      </trkpt>
      <trkpt lat="55.61593" lon="-4.67591">
        <ele>6</ele>
        <time>2021-04-06T13:30:59Z</time>
      </trkpt>
      <trkpt lat="55.61568" lon="-4.67574">
        <ele>5.85</ele>
        <time>2021-04-06T13:31:04Z</time>
      </trkpt>
      <trkpt lat="55.61527" lon="-4.67524">
        <ele>6</ele>
        <time>2021-04-06T13:31:09Z</time>
      </trkpt>
      <trkpt lat="55.615" lon="-4.67476">
        <ele>6</ele>
        <time>2021-04-06T13:31:13Z</time>
      </trkpt>
      <trkpt lat="55.61491" lon="-4.67449">
        <ele>6.58</ele>
        <time>2021-04-06T13:31:18Z</time>
      </trkpt>
      <trkpt lat="55.61486" lon="-4.67409">
        <ele>6.63</ele>
        <time>2021-04-06T13:31:22Z</time>
      </trkpt>
      <trkpt lat="55.61484" lon="-4.67395">
        <ele>6.86</ele>
        <time>2021-04-06T13:31:29Z</time>
      </trkpt>
      <trkpt lat="55.61396" lon="-4.67247">
        <ele>4.72</ele>
        <time>2021-04-06T13:31:36Z</time>
      </trkpt>
      <trkpt lat="55.61357" lon="-4.67191">
        <ele>8.13</ele>
        <time>2021-04-06T13:31:43Z</time>
      </trkpt>
      <trkpt lat="55.61271" lon="-4.671">
        <ele>14.12</ele>
        <time>2021-04-06T13:31:50Z</time>
      </trkpt>
      <trkpt lat="55.61248" lon="-4.67079">
        <ele>11.85</ele>
        <time>2021-04-06T13:31:57Z</time>
      </trkpt>
      <trkpt lat="55.6123" lon="-4.67058">
        <ele>11.09</ele>
        <time>2021-04-06T13:32:04Z</time>
      </trkpt>
      <trkpt lat="55.61202" lon="-4.67001">
        <ele>14.94</ele>
        <time>2021-04-06T13:32:11Z</time>
      </trkpt>
      <trkpt lat="55.612" lon="-4.66984">
        <ele>16.65</ele>
        <time>2021-04-06T13:32:12Z</time>
      </trkpt>
      <trkpt lat="55.61192" lon="-4.66973">
        <ele>17.33</ele>
        <time>2021-04-06T13:32:14Z</time>
      </trkpt>
      <trkpt lat="55.61184" lon="-4.66973">
        <ele>15.63</ele>
        <time>2021-04-06T13:32:15Z</time>
      </trkpt>
      <trkpt lat="55.61174" lon="-4.66962">
        <ele>14.48</ele>
        <time>2021-04-06T13:32:16Z</time>
      </trkpt>
      <trkpt lat="55.61174" lon="-4.66962">
        <ele>14.48</ele>
        <time>2021-04-06T13:32:16Z</time>
      </trkpt>
      <trkpt lat="55.61165" lon="-4.66951">
        <ele>13.33</ele>
        <time>2021-04-06T13:32:24Z</time>
      </trkpt>
      <trkpt lat="55.61135" lon="-4.66895">
        <ele>14.8</ele>
        <time>2021-04-06T13:32:32Z</time>
      </trkpt>
      <trkpt lat="55.6106" lon="-4.66777">
        <ele>14.79</ele>
        <time>2021-04-06T13:32:39Z</time>
      </trkpt>
      <trkpt lat="55.6104" lon="-4.66751">
        <ele>16.67</ele>
        <time>2021-04-06T13:32:47Z</time>
      </trkpt>
      <trkpt lat="55.61016" lon="-4.66728">
        <ele>15.38</ele>
        <time>2021-04-06T13:32:55Z</time>
      </trkpt>
      <trkpt lat="55.60984" lon="-4.66708">
        <ele>11.84</ele>
        <time>2021-04-06T13:33:02Z</time>
      </trkpt>
      <trkpt lat="55.60959" lon="-4.66702">
        <ele>11</ele>
        <time>2021-04-06T13:33:10Z</time>
      </trkpt>
      <trkpt lat="55.60723" lon="-4.66665">
        <ele>10</ele>
        <time>2021-04-06T13:33:18Z</time>
      </trkpt>
      <trkpt lat="55.60705" lon="-4.66644">
        <ele>10.63</ele>
        <time>2021-04-06T13:33:25Z</time>
      </trkpt>
      <trkpt lat="55.60703" lon="-4.66637">
        <ele>10.63</ele>
        <time>2021-04-06T13:33:28Z</time>
      </trkpt>
      <trkpt lat="55.60694" lon="-4.66621">
        <ele>10.36</ele>
        <time>2021-04-06T13:33:31Z</time>
      </trkpt>
      <trkpt lat="55.60687" lon="-4.66618">
        <ele>10.17</ele>
        <time>2021-04-06T13:33:34Z</time>
      </trkpt>
      <trkpt lat="55.60681" lon="-4.66618">
        <ele>10.12</ele>
        <time>2021-04-06T13:33:37Z</time>
      </trkpt>
      <trkpt lat="55.60638" lon="-4.66637">
        <ele>10.02</ele>
        <time>2021-04-06T13:33:40Z</time>
      </trkpt>
      <trkpt lat="55.60621" lon="-4.66639">
        <ele>10.66</ele>
        <time>2021-04-06T13:33:43Z</time>
      </trkpt>
      <trkpt lat="55.6056" lon="-4.66625">
        <ele>11.42</ele>
        <time>2021-04-06T13:33:46Z</time>
      </trkpt>
      <trkpt lat="55.60524" lon="-4.66626">
        <ele>11.32</ele>
        <time>2021-04-06T13:33:49Z</time>
      </trkpt>
      <trkpt lat="55.60502" lon="-4.66616">
        <ele>10.1</ele>
        <time>2021-04-06T13:33:52Z</time>
      </trkpt>
      <trkpt lat="55.60495" lon="-4.66607">
        <ele>9.8</ele>
        <time>2021-04-06T13:33:55Z</time>
      </trkpt>
      <trkpt lat="55.60493" lon="-4.666">
        <ele>9.75</ele>
        <time>2021-04-06T13:34:01Z</time>
      </trkpt>
      <trkpt lat="55.60487" lon="-4.66589">
        <ele>9.54</ele>
        <time>2021-04-06T13:34:08Z</time>
      </trkpt>
      <trkpt lat="55.6048" lon="-4.66587">
        <ele>9.26</ele>
        <time>2021-04-06T13:34:15Z</time>
      </trkpt>
      <trkpt lat="55.60448" lon="-4.6659">
        <ele>9</ele>
        <time>2021-04-06T13:34:22Z</time>
      </trkpt>
      <trkpt lat="55.60413" lon="-4.66577">
        <ele>9.67</ele>
        <time>2021-04-06T13:34:29Z</time>
      </trkpt>
      <trkpt lat="55.60269" lon="-4.665">
        <ele>10.37</ele>
        <time>2021-04-06T13:34:36Z</time>
      </trkpt>
      <trkpt lat="55.60221" lon="-4.66467">
        <ele>7.85</ele>
        <time>2021-04-06T13:34:43Z</time>
      </trkpt>
      <trkpt lat="55.60105" lon="-4.66371">
        <ele>10.26</ele>
        <time>2021-04-06T13:34:50Z</time>
      </trkpt>
      <trkpt lat="55.60058" lon="-4.66324">
        <ele>9.63</ele>
        <time>2021-04-06T13:34:57Z</time>
      </trkpt>
      <trkpt lat="55.60058" lon="-4.66324">
        <ele>9.63</ele>
        <time>2021-04-06T13:34:57Z</time>
      </trkpt>
      <trkpt lat="55.60058" lon="-4.66323">
        <ele>9</ele>
        <time>2021-04-06T13:35:07Z</time>
      </trkpt>
      <trkpt lat="55.60003" lon="-4.66267">
        <ele>9.55</ele>
        <time>2021-04-06T13:35:18Z</time>
      </trkpt>
      <trkpt lat="55.59903" lon="-4.66143">
        <ele>10.5</ele>
        <time>2021-04-06T13:35:29Z</time>
      </trkpt>
      <trkpt lat="55.59492" lon="-4.65591">
        <ele>11</ele>
        <time>2021-04-06T13:35:40Z</time>
      </trkpt>
      <trkpt lat="55.59423" lon="-4.65469">
        <ele>12.83</ele>
        <time>2021-04-06T13:35:50Z</time>
      </trkpt>
      <trkpt lat="55.5941" lon="-4.6545">
        <ele>13.81</ele>
        <time>2021-04-06T13:36:01Z</time>
      </trkpt>
      <trkpt lat="55.59406" lon="-4.65435">
        <ele>14</ele>
        <time>2021-04-06T13:36:12Z</time>
      </trkpt>
      <trkpt lat="55.59402" lon="-4.65411">
        <ele>14</ele>
        <time>2021-04-06T13:36:23Z</time>
      </trkpt>
      <trkpt lat="55.59402" lon="-4.65398">
        <ele>14</ele>
        <time>2021-04-06T13:36:24Z</time>
      </trkpt>
      <trkpt lat="55.59398" lon="-4.65384">
        <ele>13.95</ele>
        <time>2021-04-06T13:36:25Z</time>
      </trkpt>
      <trkpt lat="55.59389" lon="-4.65372">
        <ele>13.99</ele>
        <time>2021-04-06T13:36:26Z</time>
      </trkpt>
      <trkpt lat="55.5938" lon="-4.65369">
        <ele>13.69</ele>
        <time>2021-04-06T13:36:27Z</time>
      </trkpt>
      <trkpt lat="55.59373" lon="-4.65371">
        <ele>13.43</ele>
        <time>2021-04-06T13:36:28Z</time>
      </trkpt>
      <trkpt lat="55.59365" lon="-4.65379">
        <ele>13.14</ele>
        <time>2021-04-06T13:36:30Z</time>
      </trkpt>
      <trkpt lat="55.59339" lon="-4.65382">
        <ele>11.38</ele>
        <time>2021-04-06T13:36:31Z</time>
      </trkpt>
      <trkpt lat="55.5922" lon="-4.65241">
        <ele>11.62</ele>
        <time>2021-04-06T13:36:50Z</time>
      </trkpt>
      <trkpt lat="55.5912" lon="-4.65125">
        <ele>13.01</ele>
        <time>2021-04-06T13:37:09Z</time>
      </trkpt>
      <trkpt lat="55.591" lon="-4.65106">
        <ele>13.39</ele>
        <time>2021-04-06T13:37:28Z</time>
      </trkpt>
      <trkpt lat="55.58963" lon="-4.65001">
        <ele>11.33</ele>
        <time>2021-04-06T13:37:47Z</time>
      </trkpt>
      <trkpt lat="55.58604" lon="-4.64753">
        <ele>12.97</ele>
        <time>2021-04-06T13:38:06Z</time>
      </trkpt>
      <trkpt lat="55.58421" lon="-4.64633">
        <ele>12.13</ele>
        <time>2021-04-06T13:38:25Z</time>
      </trkpt>
      <trkpt lat="55.58281" lon="-4.64545">
        <ele>13</ele>
        <time>2021-04-06T13:38:44Z</time>
      </trkpt>
      <trkpt lat="55.58111" lon="-4.64445">
        <ele>12</ele>
        <time>2021-04-06T13:39:03Z</time>
      </trkpt>
      <trkpt lat="55.57703" lon="-4.64243">
        <ele>12.55</ele>
        <time>2021-04-06T13:39:23Z</time>
      </trkpt>
      <trkpt lat="55.57655" lon="-4.64224">
        <ele>11.96</ele>
        <time>2021-04-06T13:39:42Z</time>
      </trkpt>
      <trkpt lat="55.57646" lon="-4.64216">
        <ele>12</ele>
        <time>2021-04-06T13:40:01Z</time>
      </trkpt>
      <trkpt lat="55.57643" lon="-4.64197">
        <ele>12</ele>
        <time>2021-04-06T13:40:03Z</time>
      </trkpt>
      <trkpt lat="55.57646" lon="-4.64172">
        <ele>12.21</ele>
        <time>2021-04-06T13:40:05Z</time>
      </trkpt>
      <trkpt lat="55.57651" lon="-4.6416">
        <ele>12.45</ele>
        <time>2021-04-06T13:40:06Z</time>
      </trkpt>
      <trkpt lat="55.57655" lon="-4.64144">
        <ele>12.58</ele>
        <time>2021-04-06T13:40:06Z</time>
      </trkpt>
      <trkpt lat="55.57656" lon="-4.64126">
        <ele>12.6</ele>
        <time>2021-04-06T13:40:07Z</time>
      </trkpt>
      <trkpt lat="55.57651" lon="-4.64103">
        <ele>12.44</ele>
        <time>2021-04-06T13:40:08Z</time>
      </trkpt>
      <trkpt lat="55.57645" lon="-4.64091">
        <ele>12.21</ele>
        <time>2021-04-06T13:40:09Z</time>
      </trkpt>
      <trkpt lat="55.57638" lon="-4.64083">
        <ele>12</ele>
        <time>2021-04-06T13:40:10Z</time>
      </trkpt>
      <trkpt lat="55.57627" lon="-4.64079">
        <ele>12</ele>
        <time>2021-04-06T13:40:10Z</time>
      </trkpt>
      <trkpt lat="55.57622" lon="-4.64079">
        <ele>12</ele>
        <time>2021-04-06T13:40:11Z</time>
      </trkpt>
      <trkpt lat="55.57611" lon="-4.64086">
        <ele>12.01</ele>
        <time>2021-04-06T13:40:12Z</time>
      </trkpt>
      <trkpt lat="55.57603" lon="-4.64098">
        <ele>12.3</ele>
        <time>2021-04-06T13:40:13Z</time>
      </trkpt>
      <trkpt lat="55.57598" lon="-4.64111">
        <ele>12.46</ele>
        <time>2021-04-06T13:40:14Z</time>
      </trkpt>
      <trkpt lat="55.57596" lon="-4.64135">
        <ele>12.55</ele>
        <time>2021-04-06T13:40:14Z</time>
      </trkpt>
      <trkpt lat="55.57597" lon="-4.64143">
        <ele>12.53</ele>
        <time>2021-04-06T13:40:15Z</time>
      </trkpt>
      <trkpt lat="55.57586" lon="-4.64203">
        <ele>12</ele>
        <time>2021-04-06T13:40:16Z</time>
      </trkpt>
      <trkpt lat="55.57574" lon="-4.64214">
        <ele>12</ele>
        <time>2021-04-06T13:40:22Z</time>
      </trkpt>
      <trkpt lat="55.57561" lon="-4.64211">
        <ele>12</ele>
        <time>2021-04-06T13:40:28Z</time>
      </trkpt>
      <trkpt lat="55.57526" lon="-4.64165">
        <ele>13.94</ele>
        <time>2021-04-06T13:40:35Z</time>
      </trkpt>
      <trkpt lat="55.57427" lon="-4.64111">
        <ele>12</ele>
        <time>2021-04-06T13:40:41Z</time>
      </trkpt>
      <trkpt lat="55.57315" lon="-4.64064">
        <ele>11.7</ele>
        <time>2021-04-06T13:40:47Z</time>
      </trkpt>
      <trkpt lat="55.57154" lon="-4.63991">
        <ele>13</ele>
        <time>2021-04-06T13:40:53Z</time>
      </trkpt>
      <trkpt lat="55.57064" lon="-4.63958">
        <ele>14.51</ele>
        <time>2021-04-06T13:40:59Z</time>
      </trkpt>
      <trkpt lat="55.5701" lon="-4.63944">
        <ele>14.34</ele>
        <time>2021-04-06T13:41:05Z</time>
      </trkpt>
      <trkpt lat="55.56953" lon="-4.63938">
        <ele>14</ele>
        <time>2021-04-06T13:41:11Z</time>
      </trkpt>
      <trkpt lat="55.56912" lon="-4.63938">
        <ele>14</ele>
        <time>2021-04-06T13:41:18Z</time>
      </trkpt>
      <trkpt lat="55.56874" lon="-4.63928">
        <ele>14.56</ele>
        <time>2021-04-06T13:41:24Z</time>
      </trkpt>
      <trkpt lat="55.56818" lon="-4.63905">
        <ele>15.23</ele>
        <time>2021-04-06T13:41:30Z</time>
      </trkpt>
      <trkpt lat="55.56796" lon="-4.63892">
        <ele>16.22</ele>
        <time>2021-04-06T13:41:36Z</time>
      </trkpt>
      <trkpt lat="55.5678" lon="-4.63865">
        <ele>16.93</ele>
        <time>2021-04-06T13:41:42Z</time>
      </trkpt>
      <trkpt lat="55.56784" lon="-4.63859">
        <ele>16.8</ele>
        <time>2021-04-06T13:41:46Z</time>
      </trkpt>
      <trkpt lat="55.56789" lon="-4.63843">
        <ele>16.86</ele>
        <time>2021-04-06T13:41:50Z</time>
      </trkpt>
      <trkpt lat="55.56787" lon="-4.63825">
        <ele>17.3</ele>
        <time>2021-04-06T13:41:54Z</time>
      </trkpt>
      <trkpt lat="55.56784" lon="-4.63817">
        <ele>17.6</ele>
        <time>2021-04-06T13:41:58Z</time>
      </trkpt>
      <trkpt lat="55.56779" lon="-4.63811">
        <ele>17.82</ele>
        <time>2021-04-06T13:42:02Z</time>
      </trkpt>
      <trkpt lat="55.56773" lon="-4.63808">
        <ele>17.91</ele>
        <time>2021-04-06T13:42:06Z</time>
      </trkpt>
      <trkpt lat="55.56767" lon="-4.63809">
        <ele>17.87</ele>
        <time>2021-04-06T13:42:10Z</time>
      </trkpt>
      <trkpt lat="55.56762" lon="-4.63814">
        <ele>17.71</ele>
        <time>2021-04-06T13:42:14Z</time>
      </trkpt>
      <trkpt lat="55.56758" lon="-4.63821">
        <ele>17.44</ele>
        <time>2021-04-06T13:42:18Z</time>
      </trkpt>
      <trkpt lat="55.56755" lon="-4.63838">
        <ele>16.87</ele>
        <time>2021-04-06T13:42:22Z</time>
      </trkpt>
      <trkpt lat="55.56757" lon="-4.63854">
        <ele>16.44</ele>
        <time>2021-04-06T13:42:26Z</time>
      </trkpt>
      <trkpt lat="55.56733" lon="-4.63879">
        <ele>16.82</ele>
        <time>2021-04-06T13:42:30Z</time>
      </trkpt>
      <trkpt lat="55.56716" lon="-4.63891">
        <ele>17.15</ele>
        <time>2021-04-06T13:42:34Z</time>
      </trkpt>
      <trkpt lat="55.56701" lon="-4.63892">
        <ele>17.63</ele>
        <time>2021-04-06T13:42:38Z</time>
      </trkpt>
      <trkpt lat="55.56653" lon="-4.63879">
        <ele>17.89</ele>
        <time>2021-04-06T13:42:42Z</time>
      </trkpt>
      <trkpt lat="55.5662" lon="-4.63863">
        <ele>17.31</ele>
        <time>2021-04-06T13:42:46Z</time>
      </trkpt>
      <trkpt lat="55.56574" lon="-4.63831">
        <ele>17.34</ele>
        <time>2021-04-06T13:42:50Z</time>
      </trkpt>
      <trkpt lat="55.56512" lon="-4.6377">
        <ele>19.44</ele>
        <time>2021-04-06T13:42:54Z</time>
      </trkpt>
      <trkpt lat="55.56361" lon="-4.63598">
        <ele>23</ele>
        <time>2021-04-06T13:42:58Z</time>
      </trkpt>
      <trkpt lat="55.56326" lon="-4.63549">
        <ele>23.81</ele>
        <time>2021-04-06T13:43:02Z</time>
      </trkpt>
      <trkpt lat="55.56295" lon="-4.63494">
        <ele>25</ele>
        <time>2021-04-06T13:43:06Z</time>
      </trkpt>
      <trkpt lat="55.56265" lon="-4.63426">
        <ele>26</ele>
        <time>2021-04-06T13:43:10Z</time>
      </trkpt>
      <trkpt lat="55.56232" lon="-4.63375">
        <ele>23.69</ele>
        <time>2021-04-06T13:43:14Z</time>
      </trkpt>
      <trkpt lat="55.55633" lon="-4.6264">
        <ele>27.74</ele>
        <time>2021-04-06T13:43:17Z</time>
      </trkpt>
      <trkpt lat="55.55598" lon="-4.62601">
        <ele>28.86</ele>
        <time>2021-04-06T13:43:21Z</time>
      </trkpt>
      <trkpt lat="55.55561" lon="-4.62585">
        <ele>29.87</ele>
        <time>2021-04-06T13:43:25Z</time>
      </trkpt>
      <trkpt lat="55.55524" lon="-4.62591">
        <ele>29.74</ele>
        <time>2021-04-06T13:43:29Z</time>
      </trkpt>
      <trkpt lat="55.55377" lon="-4.62628">
        <ele>26.38</ele>
        <time>2021-04-06T13:43:33Z</time>
      </trkpt>
      <trkpt lat="55.55326" lon="-4.62641">
        <ele>27</ele>
        <time>2021-04-06T13:43:37Z</time>
      </trkpt>
      <trkpt lat="55.553" lon="-4.62639">
        <ele>26.81</ele>
        <time>2021-04-06T13:43:41Z</time>
      </trkpt>
      <trkpt lat="55.55278" lon="-4.62626">
        <ele>26.92</ele>
        <time>2021-04-06T13:43:45Z</time>
      </trkpt>
      <trkpt lat="55.55194" lon="-4.62549">
        <ele>26.22</ele>
        <time>2021-04-06T13:43:49Z</time>
      </trkpt>
      <trkpt lat="55.55157" lon="-4.62529">
        <ele>24.63</ele>
        <time>2021-04-06T13:43:53Z</time>
      </trkpt>
      <trkpt lat="55.55119" lon="-4.62497">
        <ele>25.03</ele>
        <time>2021-04-06T13:43:57Z</time>
      </trkpt>
      <trkpt lat="55.55084" lon="-4.62455">
        <ele>24.65</ele>
        <time>2021-04-06T13:44:01Z</time>
      </trkpt>
      <trkpt lat="55.55051" lon="-4.62407">
        <ele>25.19</ele>
        <time>2021-04-06T13:44:05Z</time>
      </trkpt>
      <trkpt lat="55.55028" lon="-4.62377">
        <ele>25.43</ele>
        <time>2021-04-06T13:44:09Z</time>
      </trkpt>
      <trkpt lat="55.5498" lon="-4.62331">
        <ele>24.34</ele>
        <time>2021-04-06T13:44:13Z</time>
      </trkpt>
      <trkpt lat="55.54939" lon="-4.62297">
        <ele>23.11</ele>
        <time>2021-04-06T13:44:17Z</time>
      </trkpt>
      <trkpt lat="55.54927" lon="-4.62336">
        <ele>22.26</ele>
        <time>2021-04-06T13:44:22Z</time>
      </trkpt>
      <trkpt lat="55.54895" lon="-4.62424">
        <ele>18.23</ele>
        <time>2021-04-06T13:44:27Z</time>
      </trkpt>
      <trkpt lat="55.54878" lon="-4.62466">
        <ele>17.7</ele>
        <time>2021-04-06T13:44:32Z</time>
      </trkpt>
      <trkpt lat="55.54893" lon="-4.62485">
        <ele>18.14</ele>
        <time>2021-04-06T13:44:34Z</time>
      </trkpt>
      <trkpt lat="55.54897" lon="-4.62475">
        <ele>18.49</ele>
        <time>2021-04-06T13:44:35Z</time>
      </trkpt>
    </trkseg>
  </trk>
</gpx>